<?xml version="1.0" encoding="UTF-8" standalone="no" ?>
<gpx xmlns="http://www.topografix.com/GPX/1/1" xmlns:xsi="http://www.w3.org/2001/XMLSchema-instance" xsi:schemaLocation="http://www.topografix.com/GPX/1/1 http://www.topografix.com/GPX/1/1/gpx.xsd" version="1.1" creator="VisuGPX - https://www.visugpx.com">
  <metadata>
    <name>sortie du lundi 1er mai 2017</name>
    <desc><![CDATA[Sortie d'une trentaine de kms dans le pays de Bray...]]></desc>
  </metadata>
  <trk>
    <name><![CDATA[sortie du lundi 1er mai 2017_1]]></name>
    <trkseg>
      <trkpt lat="49.39185" lon="1.78046">
        <ele>177.31689453125</ele>
        <time>2017-05-01T06:28:15.000Z</time>
      </trkpt>
      <trkpt lat="49.39187" lon="1.78048">
        <ele>177.33981323242</ele>
        <time>2017-05-01T06:28:27.000Z</time>
      </trkpt>
      <trkpt lat="49.39191" lon="1.78051">
        <ele>177.36682128906</ele>
        <time>2017-05-01T06:28:30.000Z</time>
      </trkpt>
      <trkpt lat="49.39198" lon="1.78056">
        <ele>177.40827941895</ele>
        <time>2017-05-01T06:28:33.000Z</time>
      </trkpt>
      <trkpt lat="49.39203" lon="1.78062">
        <ele>177.45985412598</ele>
        <time>2017-05-01T06:28:35.000Z</time>
      </trkpt>
      <trkpt lat="49.39214" lon="1.78071">
        <ele>177.5751953125</ele>
        <time>2017-05-01T06:28:38.000Z</time>
      </trkpt>
      <trkpt lat="49.3922" lon="1.78077">
        <ele>177.71817016602</ele>
        <time>2017-05-01T06:28:40.000Z</time>
      </trkpt>
      <trkpt lat="49.39227" lon="1.78091">
        <ele>177.95651245117</ele>
        <time>2017-05-01T06:28:43.000Z</time>
      </trkpt>
      <trkpt lat="49.39229" lon="1.78103">
        <ele>178.26362609863</ele>
        <time>2017-05-01T06:28:45.000Z</time>
      </trkpt>
      <trkpt lat="49.39231" lon="1.78119">
        <ele>178.67687988281</ele>
        <time>2017-05-01T06:28:48.000Z</time>
      </trkpt>
      <trkpt lat="49.39233" lon="1.78126">
        <ele>179.10549926758</ele>
        <time>2017-05-01T06:28:50.000Z</time>
      </trkpt>
      <trkpt lat="49.39236" lon="1.78132">
        <ele>179.55505371094</ele>
        <time>2017-05-01T06:28:52.000Z</time>
      </trkpt>
      <trkpt lat="49.39239" lon="1.78142">
        <ele>179.98320007324</ele>
        <time>2017-05-01T06:28:55.000Z</time>
      </trkpt>
      <trkpt lat="49.39242" lon="1.78152">
        <ele>180.4125213623</ele>
        <time>2017-05-01T06:28:58.000Z</time>
      </trkpt>
      <trkpt lat="49.39246" lon="1.7816">
        <ele>180.79739379883</ele>
        <time>2017-05-01T06:29:01.000Z</time>
      </trkpt>
      <trkpt lat="49.3925" lon="1.7817">
        <ele>181.20588684082</ele>
        <time>2017-05-01T06:29:04.000Z</time>
      </trkpt>
      <trkpt lat="49.39252" lon="1.7818">
        <ele>181.5944519043</ele>
        <time>2017-05-01T06:29:07.000Z</time>
      </trkpt>
      <trkpt lat="49.39254" lon="1.78187">
        <ele>181.9241027832</ele>
        <time>2017-05-01T06:29:09.000Z</time>
      </trkpt>
      <trkpt lat="49.39255" lon="1.78199">
        <ele>182.21310424805</ele>
        <time>2017-05-01T06:29:12.000Z</time>
      </trkpt>
      <trkpt lat="49.39257" lon="1.78212">
        <ele>182.46215820312</ele>
        <time>2017-05-01T06:29:15.000Z</time>
      </trkpt>
      <trkpt lat="49.39259" lon="1.78224">
        <ele>182.68041992188</ele>
        <time>2017-05-01T06:29:18.000Z</time>
      </trkpt>
      <trkpt lat="49.3926" lon="1.78234">
        <ele>182.90191650391</ele>
        <time>2017-05-01T06:29:21.000Z</time>
      </trkpt>
      <trkpt lat="49.39261" lon="1.78242">
        <ele>183.12878417969</ele>
        <time>2017-05-01T06:29:23.000Z</time>
      </trkpt>
      <trkpt lat="49.39262" lon="1.78256">
        <ele>183.36140441895</ele>
        <time>2017-05-01T06:29:26.000Z</time>
      </trkpt>
      <trkpt lat="49.39262" lon="1.78265">
        <ele>183.57662963867</ele>
        <time>2017-05-01T06:29:28.000Z</time>
      </trkpt>
      <trkpt lat="49.39262" lon="1.78275">
        <ele>183.77127075195</ele>
        <time>2017-05-01T06:29:30.000Z</time>
      </trkpt>
      <trkpt lat="49.39264" lon="1.78289">
        <ele>183.96884155273</ele>
        <time>2017-05-01T06:29:33.000Z</time>
      </trkpt>
      <trkpt lat="49.39264" lon="1.78298">
        <ele>184.16751098633</ele>
        <time>2017-05-01T06:29:35.000Z</time>
      </trkpt>
      <trkpt lat="49.39265" lon="1.78308">
        <ele>184.3459777832</ele>
        <time>2017-05-01T06:29:37.000Z</time>
      </trkpt>
      <trkpt lat="49.39265" lon="1.78323">
        <ele>184.5475769043</ele>
        <time>2017-05-01T06:29:40.000Z</time>
      </trkpt>
      <trkpt lat="49.39265" lon="1.78334">
        <ele>184.75505065918</ele>
        <time>2017-05-01T06:29:42.000Z</time>
      </trkpt>
      <trkpt lat="49.39265" lon="1.78345">
        <ele>184.9515838623</ele>
        <time>2017-05-01T06:29:44.000Z</time>
      </trkpt>
      <trkpt lat="49.39267" lon="1.78362">
        <ele>185.16780090332</ele>
        <time>2017-05-01T06:29:47.000Z</time>
      </trkpt>
      <trkpt lat="49.39267" lon="1.78372">
        <ele>185.37699890137</ele>
        <time>2017-05-01T06:29:49.000Z</time>
      </trkpt>
      <trkpt lat="49.39268" lon="1.78389">
        <ele>185.58303833008</ele>
        <time>2017-05-01T06:29:52.000Z</time>
      </trkpt>
      <trkpt lat="49.39268" lon="1.784">
        <ele>185.78471374512</ele>
        <time>2017-05-01T06:29:54.000Z</time>
      </trkpt>
      <trkpt lat="49.39268" lon="1.78411">
        <ele>185.98774719238</ele>
        <time>2017-05-01T06:29:56.000Z</time>
      </trkpt>
      <trkpt lat="49.3927" lon="1.78429">
        <ele>186.20999145508</ele>
        <time>2017-05-01T06:29:59.000Z</time>
      </trkpt>
      <trkpt lat="49.3927" lon="1.78446">
        <ele>186.47520446777</ele>
        <time>2017-05-01T06:30:02.000Z</time>
      </trkpt>
      <trkpt lat="49.3927" lon="1.78458">
        <ele>186.74609375</ele>
        <time>2017-05-01T06:30:04.000Z</time>
      </trkpt>
      <trkpt lat="49.39272" lon="1.78468">
        <ele>187.02548217773</ele>
        <time>2017-05-01T06:30:06.000Z</time>
      </trkpt>
      <trkpt lat="49.39274" lon="1.78483">
        <ele>187.34091186523</ele>
        <time>2017-05-01T06:30:09.000Z</time>
      </trkpt>
      <trkpt lat="49.39275" lon="1.78494">
        <ele>187.6294708252</ele>
        <time>2017-05-01T06:30:11.000Z</time>
      </trkpt>
      <trkpt lat="49.39275" lon="1.78504">
        <ele>187.87864685059</ele>
        <time>2017-05-01T06:30:13.000Z</time>
      </trkpt>
      <trkpt lat="49.39275" lon="1.78521">
        <ele>188.09948730469</ele>
        <time>2017-05-01T06:30:16.000Z</time>
      </trkpt>
      <trkpt lat="49.39274" lon="1.7854">
        <ele>188.30839538574</ele>
        <time>2017-05-01T06:30:19.000Z</time>
      </trkpt>
      <trkpt lat="49.39274" lon="1.78552">
        <ele>188.46711730957</ele>
        <time>2017-05-01T06:30:21.000Z</time>
      </trkpt>
      <trkpt lat="49.39272" lon="1.7857">
        <ele>188.61087036133</ele>
        <time>2017-05-01T06:30:24.000Z</time>
      </trkpt>
      <trkpt lat="49.39271" lon="1.78581">
        <ele>188.74075317383</ele>
        <time>2017-05-01T06:30:26.000Z</time>
      </trkpt>
      <trkpt lat="49.3927" lon="1.78597">
        <ele>188.84574890137</ele>
        <time>2017-05-01T06:30:29.000Z</time>
      </trkpt>
      <trkpt lat="49.3927" lon="1.78609">
        <ele>188.91954040527</ele>
        <time>2017-05-01T06:30:31.000Z</time>
      </trkpt>
      <trkpt lat="49.39269" lon="1.78622">
        <ele>188.97309875488</ele>
        <time>2017-05-01T06:30:33.000Z</time>
      </trkpt>
      <trkpt lat="49.3927" lon="1.78635">
        <ele>188.9965057373</ele>
        <time>2017-05-01T06:30:35.000Z</time>
      </trkpt>
      <trkpt lat="49.3927" lon="1.78653">
        <ele>189</ele>
        <time>2017-05-01T06:30:38.000Z</time>
      </trkpt>
      <trkpt lat="49.39272" lon="1.78665">
        <ele>189</ele>
        <time>2017-05-01T06:30:40.000Z</time>
      </trkpt>
      <trkpt lat="49.39273" lon="1.78683">
        <ele>188.93885803223</ele>
        <time>2017-05-01T06:30:43.000Z</time>
      </trkpt>
      <trkpt lat="49.39274" lon="1.78696">
        <ele>188.82940673828</ele>
        <time>2017-05-01T06:30:45.000Z</time>
      </trkpt>
      <trkpt lat="49.39275" lon="1.78708">
        <ele>188.67135620117</ele>
        <time>2017-05-01T06:30:47.000Z</time>
      </trkpt>
      <trkpt lat="49.39277" lon="1.78725">
        <ele>188.44361877441</ele>
        <time>2017-05-01T06:30:50.000Z</time>
      </trkpt>
      <trkpt lat="49.39278" lon="1.78737">
        <ele>188.16203308105</ele>
        <time>2017-05-01T06:30:52.000Z</time>
      </trkpt>
      <trkpt lat="49.39281" lon="1.78755">
        <ele>187.90466308594</ele>
        <time>2017-05-01T06:30:55.000Z</time>
      </trkpt>
      <trkpt lat="49.39283" lon="1.78767">
        <ele>187.74772644043</ele>
        <time>2017-05-01T06:30:57.000Z</time>
      </trkpt>
      <trkpt lat="49.39288" lon="1.78784">
        <ele>187.69839477539</ele>
        <time>2017-05-01T06:31:00.000Z</time>
      </trkpt>
      <trkpt lat="49.39291" lon="1.78795">
        <ele>187.74684143066</ele>
        <time>2017-05-01T06:31:02.000Z</time>
      </trkpt>
      <trkpt lat="49.39295" lon="1.78807">
        <ele>187.87748718262</ele>
        <time>2017-05-01T06:31:04.000Z</time>
      </trkpt>
      <trkpt lat="49.393" lon="1.78827">
        <ele>188.08605957031</ele>
        <time>2017-05-01T06:31:07.000Z</time>
      </trkpt>
      <trkpt lat="49.39305" lon="1.78839">
        <ele>188.25366210938</ele>
        <time>2017-05-01T06:31:09.000Z</time>
      </trkpt>
      <trkpt lat="49.39313" lon="1.78855">
        <ele>188.39196777344</ele>
        <time>2017-05-01T06:31:12.000Z</time>
      </trkpt>
      <trkpt lat="49.39323" lon="1.78873">
        <ele>188.53059387207</ele>
        <time>2017-05-01T06:31:15.000Z</time>
      </trkpt>
      <trkpt lat="49.39331" lon="1.78883">
        <ele>188.65748596191</ele>
        <time>2017-05-01T06:31:17.000Z</time>
      </trkpt>
      <trkpt lat="49.39341" lon="1.78894">
        <ele>188.73559570312</ele>
        <time>2017-05-01T06:31:19.000Z</time>
      </trkpt>
      <trkpt lat="49.39352" lon="1.78904">
        <ele>188.77075195312</ele>
        <time>2017-05-01T06:31:21.000Z</time>
      </trkpt>
      <trkpt lat="49.39364" lon="1.78915">
        <ele>188.73742675781</ele>
        <time>2017-05-01T06:31:23.000Z</time>
      </trkpt>
      <trkpt lat="49.39383" lon="1.7894">
        <ele>188.52700805664</ele>
        <time>2017-05-01T06:31:26.000Z</time>
      </trkpt>
      <trkpt lat="49.39401" lon="1.78972">
        <ele>188.12580871582</ele>
        <time>2017-05-01T06:31:29.000Z</time>
      </trkpt>
      <trkpt lat="49.3942" lon="1.79001">
        <ele>187.55973815918</ele>
        <time>2017-05-01T06:31:32.000Z</time>
      </trkpt>
      <trkpt lat="49.39432" lon="1.79022">
        <ele>187.06594848633</ele>
        <time>2017-05-01T06:31:34.000Z</time>
      </trkpt>
      <trkpt lat="49.39451" lon="1.79051">
        <ele>186.63980102539</ele>
        <time>2017-05-01T06:31:37.000Z</time>
      </trkpt>
      <trkpt lat="49.39463" lon="1.79069">
        <ele>186.36415100098</ele>
        <time>2017-05-01T06:31:39.000Z</time>
      </trkpt>
      <trkpt lat="49.39474" lon="1.79084">
        <ele>186.25314331055</ele>
        <time>2017-05-01T06:31:41.000Z</time>
      </trkpt>
      <trkpt lat="49.39491" lon="1.79104">
        <ele>186.37997436523</ele>
        <time>2017-05-01T06:31:44.000Z</time>
      </trkpt>
      <trkpt lat="49.39503" lon="1.79117">
        <ele>186.52102661133</ele>
        <time>2017-05-01T06:31:46.000Z</time>
      </trkpt>
      <trkpt lat="49.39513" lon="1.79129">
        <ele>186.76344299316</ele>
        <time>2017-05-01T06:31:48.000Z</time>
      </trkpt>
      <trkpt lat="49.39528" lon="1.79146">
        <ele>187.19456481934</ele>
        <time>2017-05-01T06:31:51.000Z</time>
      </trkpt>
      <trkpt lat="49.39537" lon="1.79158">
        <ele>187.75563049316</ele>
        <time>2017-05-01T06:31:53.000Z</time>
      </trkpt>
      <trkpt lat="49.39547" lon="1.79166">
        <ele>188.35754394531</ele>
        <time>2017-05-01T06:31:55.000Z</time>
      </trkpt>
      <trkpt lat="49.3956" lon="1.7918">
        <ele>189.07907104492</ele>
        <time>2017-05-01T06:31:58.000Z</time>
      </trkpt>
      <trkpt lat="49.39569" lon="1.79188">
        <ele>189.77568054199</ele>
        <time>2017-05-01T06:32:00.000Z</time>
      </trkpt>
      <trkpt lat="49.39584" lon="1.79194">
        <ele>190.4006652832</ele>
        <time>2017-05-01T06:32:03.000Z</time>
      </trkpt>
      <trkpt lat="49.39592" lon="1.79199">
        <ele>190.92279052734</ele>
        <time>2017-05-01T06:32:05.000Z</time>
      </trkpt>
      <trkpt lat="49.39606" lon="1.7921">
        <ele>191.37002563477</ele>
        <time>2017-05-01T06:32:08.000Z</time>
      </trkpt>
      <trkpt lat="49.39614" lon="1.79221">
        <ele>191.67823791504</ele>
        <time>2017-05-01T06:32:10.000Z</time>
      </trkpt>
      <trkpt lat="49.39622" lon="1.7923">
        <ele>191.90054321289</ele>
        <time>2017-05-01T06:32:12.000Z</time>
      </trkpt>
      <trkpt lat="49.39634" lon="1.7924">
        <ele>192.01724243164</ele>
        <time>2017-05-01T06:32:15.000Z</time>
      </trkpt>
      <trkpt lat="49.39651" lon="1.7925">
        <ele>192.1061706543</ele>
        <time>2017-05-01T06:32:18.000Z</time>
      </trkpt>
      <trkpt lat="49.39664" lon="1.79257">
        <ele>192.15040588379</ele>
        <time>2017-05-01T06:32:21.000Z</time>
      </trkpt>
      <trkpt lat="49.39672" lon="1.79261">
        <ele>192.14834594727</ele>
        <time>2017-05-01T06:32:23.000Z</time>
      </trkpt>
      <trkpt lat="49.3969" lon="1.79272">
        <ele>192.11296081543</ele>
        <time>2017-05-01T06:32:26.000Z</time>
      </trkpt>
      <trkpt lat="49.39708" lon="1.79284">
        <ele>192.04803466797</ele>
        <time>2017-05-01T06:32:29.000Z</time>
      </trkpt>
      <trkpt lat="49.39725" lon="1.79295">
        <ele>191.98101806641</ele>
        <time>2017-05-01T06:32:32.000Z</time>
      </trkpt>
      <trkpt lat="49.39736" lon="1.79304">
        <ele>191.92196655273</ele>
        <time>2017-05-01T06:32:34.000Z</time>
      </trkpt>
      <trkpt lat="49.39753" lon="1.79321">
        <ele>191.85018920898</ele>
        <time>2017-05-01T06:32:37.000Z</time>
      </trkpt>
      <trkpt lat="49.39768" lon="1.79338">
        <ele>191.66772460938</ele>
        <time>2017-05-01T06:32:40.000Z</time>
      </trkpt>
      <trkpt lat="49.39785" lon="1.79356">
        <ele>191.42361450195</ele>
        <time>2017-05-01T06:32:43.000Z</time>
      </trkpt>
      <trkpt lat="49.39801" lon="1.79375">
        <ele>191.16575622559</ele>
        <time>2017-05-01T06:32:46.000Z</time>
      </trkpt>
      <trkpt lat="49.39812" lon="1.79386">
        <ele>190.9066619873</ele>
        <time>2017-05-01T06:32:48.000Z</time>
      </trkpt>
      <trkpt lat="49.39828" lon="1.79405">
        <ele>190.69523620605</ele>
        <time>2017-05-01T06:32:51.000Z</time>
      </trkpt>
      <trkpt lat="49.3984" lon="1.79418">
        <ele>190.56718444824</ele>
        <time>2017-05-01T06:32:53.000Z</time>
      </trkpt>
      <trkpt lat="49.3986" lon="1.79429">
        <ele>190.2850189209</ele>
        <time>2017-05-01T06:32:56.000Z</time>
      </trkpt>
      <trkpt lat="49.39875" lon="1.79437">
        <ele>189.85339355469</ele>
        <time>2017-05-01T06:32:58.000Z</time>
      </trkpt>
      <trkpt lat="49.39898" lon="1.79447">
        <ele>189.14700317383</ele>
        <time>2017-05-01T06:33:01.000Z</time>
      </trkpt>
      <trkpt lat="49.39914" lon="1.79451">
        <ele>188.1986541748</ele>
        <time>2017-05-01T06:33:03.000Z</time>
      </trkpt>
      <trkpt lat="49.39938" lon="1.79459">
        <ele>187.16581726074</ele>
        <time>2017-05-01T06:33:06.000Z</time>
      </trkpt>
      <trkpt lat="49.3996" lon="1.79469">
        <ele>186.26957702637</ele>
        <time>2017-05-01T06:33:09.000Z</time>
      </trkpt>
      <trkpt lat="49.39974" lon="1.79477">
        <ele>185.49548339844</ele>
        <time>2017-05-01T06:33:11.000Z</time>
      </trkpt>
      <trkpt lat="49.39987" lon="1.79486">
        <ele>184.94657897949</ele>
        <time>2017-05-01T06:33:13.000Z</time>
      </trkpt>
      <trkpt lat="49.40004" lon="1.79499">
        <ele>184.59573364258</ele>
        <time>2017-05-01T06:33:16.000Z</time>
      </trkpt>
      <trkpt lat="49.40013" lon="1.79506">
        <ele>184.45956420898</ele>
        <time>2017-05-01T06:33:18.000Z</time>
      </trkpt>
      <trkpt lat="49.40021" lon="1.79502">
        <ele>184.46157836914</ele>
        <time>2017-05-01T06:33:21.000Z</time>
      </trkpt>
      <trkpt lat="49.4002" lon="1.79491">
        <ele>184.46307373047</ele>
        <time>2017-05-01T06:33:24.000Z</time>
      </trkpt>
      <trkpt lat="49.40018" lon="1.79478">
        <ele>184.46151733398</ele>
        <time>2017-05-01T06:33:26.000Z</time>
      </trkpt>
      <trkpt lat="49.40015" lon="1.79466">
        <ele>184.41134643555</ele>
        <time>2017-05-01T06:33:28.000Z</time>
      </trkpt>
      <trkpt lat="49.40013" lon="1.79453">
        <ele>184.19445800781</ele>
        <time>2017-05-01T06:33:30.000Z</time>
      </trkpt>
      <trkpt lat="49.40008" lon="1.79437">
        <ele>183.81826782227</ele>
        <time>2017-05-01T06:33:33.000Z</time>
      </trkpt>
      <trkpt lat="49.40004" lon="1.79427">
        <ele>183.41244506836</ele>
        <time>2017-05-01T06:33:35.000Z</time>
      </trkpt>
      <trkpt lat="49.4" lon="1.7941">
        <ele>182.94842529297</ele>
        <time>2017-05-01T06:33:38.000Z</time>
      </trkpt>
      <trkpt lat="49.39997" lon="1.7939">
        <ele>182.51654052734</ele>
        <time>2017-05-01T06:33:41.000Z</time>
      </trkpt>
      <trkpt lat="49.39992" lon="1.79367">
        <ele>182.12265014648</ele>
        <time>2017-05-01T06:33:44.000Z</time>
      </trkpt>
      <trkpt lat="49.39986" lon="1.79341">
        <ele>181.79409790039</ele>
        <time>2017-05-01T06:33:47.000Z</time>
      </trkpt>
      <trkpt lat="49.3998" lon="1.79315">
        <ele>181.59796142578</ele>
        <time>2017-05-01T06:33:50.000Z</time>
      </trkpt>
      <trkpt lat="49.39976" lon="1.79298">
        <ele>181.56802368164</ele>
        <time>2017-05-01T06:33:52.000Z</time>
      </trkpt>
      <trkpt lat="49.39969" lon="1.79276">
        <ele>181.61752319336</ele>
        <time>2017-05-01T06:33:55.000Z</time>
      </trkpt>
      <trkpt lat="49.39962" lon="1.79255">
        <ele>181.71960449219</ele>
        <time>2017-05-01T06:33:58.000Z</time>
      </trkpt>
      <trkpt lat="49.39955" lon="1.79238">
        <ele>181.81410217285</ele>
        <time>2017-05-01T06:34:00.000Z</time>
      </trkpt>
      <trkpt lat="49.39948" lon="1.7922">
        <ele>181.74992370605</ele>
        <time>2017-05-01T06:34:02.000Z</time>
      </trkpt>
      <trkpt lat="49.39935" lon="1.79189">
        <ele>181.37074279785</ele>
        <time>2017-05-01T06:34:05.000Z</time>
      </trkpt>
      <trkpt lat="49.39922" lon="1.79162">
        <ele>180.65658569336</ele>
        <time>2017-05-01T06:34:08.000Z</time>
      </trkpt>
      <trkpt lat="49.39915" lon="1.79144">
        <ele>179.87002563477</ele>
        <time>2017-05-01T06:34:10.000Z</time>
      </trkpt>
      <trkpt lat="49.39905" lon="1.79113">
        <ele>179.2218170166</ele>
        <time>2017-05-01T06:34:13.000Z</time>
      </trkpt>
      <trkpt lat="49.39899" lon="1.79087">
        <ele>178.70812988281</ele>
        <time>2017-05-01T06:34:15.000Z</time>
      </trkpt>
      <trkpt lat="49.39893" lon="1.79068">
        <ele>178.47163391113</ele>
        <time>2017-05-01T06:34:17.000Z</time>
      </trkpt>
      <trkpt lat="49.39898" lon="1.79049">
        <ele>178.43923950195</ele>
        <time>2017-05-01T06:34:19.000Z</time>
      </trkpt>
      <trkpt lat="49.39909" lon="1.79015">
        <ele>178.31286621094</ele>
        <time>2017-05-01T06:34:22.000Z</time>
      </trkpt>
      <trkpt lat="49.39914" lon="1.78992">
        <ele>178.03439331055</ele>
        <time>2017-05-01T06:34:24.000Z</time>
      </trkpt>
      <trkpt lat="49.39914" lon="1.78975">
        <ele>177.73292541504</ele>
        <time>2017-05-01T06:34:26.000Z</time>
      </trkpt>
      <trkpt lat="49.39919" lon="1.78954">
        <ele>177.47459411621</ele>
        <time>2017-05-01T06:34:28.000Z</time>
      </trkpt>
      <trkpt lat="49.3992" lon="1.78935">
        <ele>177.33139038086</ele>
        <time>2017-05-01T06:34:30.000Z</time>
      </trkpt>
      <trkpt lat="49.39922" lon="1.78896">
        <ele>177.28848266602</ele>
        <time>2017-05-01T06:34:33.000Z</time>
      </trkpt>
      <trkpt lat="49.3992" lon="1.7887">
        <ele>177.13700866699</ele>
        <time>2017-05-01T06:34:36.000Z</time>
      </trkpt>
      <trkpt lat="49.39917" lon="1.78859">
        <ele>176.84365844727</ele>
        <time>2017-05-01T06:34:38.000Z</time>
      </trkpt>
      <trkpt lat="49.39916" lon="1.78844">
        <ele>176.43591308594</ele>
        <time>2017-05-01T06:34:41.000Z</time>
      </trkpt>
      <trkpt lat="49.39911" lon="1.78833">
        <ele>176.07162475586</ele>
        <time>2017-05-01T06:34:43.000Z</time>
      </trkpt>
      <trkpt lat="49.39912" lon="1.78809">
        <ele>175.5085144043</ele>
        <time>2017-05-01T06:34:46.000Z</time>
      </trkpt>
      <trkpt lat="49.39911" lon="1.7879">
        <ele>174.94721984863</ele>
        <time>2017-05-01T06:34:48.000Z</time>
      </trkpt>
      <trkpt lat="49.39911" lon="1.78763">
        <ele>174.2741394043</ele>
        <time>2017-05-01T06:34:51.000Z</time>
      </trkpt>
      <trkpt lat="49.39904" lon="1.78735">
        <ele>173.67984008789</ele>
        <time>2017-05-01T06:34:54.000Z</time>
      </trkpt>
      <trkpt lat="49.39893" lon="1.78704">
        <ele>173.16638183594</ele>
        <time>2017-05-01T06:34:57.000Z</time>
      </trkpt>
      <trkpt lat="49.39886" lon="1.78677">
        <ele>172.9220123291</ele>
        <time>2017-05-01T06:34:59.000Z</time>
      </trkpt>
      <trkpt lat="49.39891" lon="1.78659">
        <ele>172.78256225586</ele>
        <time>2017-05-01T06:35:01.000Z</time>
      </trkpt>
      <trkpt lat="49.3989" lon="1.78646">
        <ele>172.87265014648</ele>
        <time>2017-05-01T06:35:03.000Z</time>
      </trkpt>
      <trkpt lat="49.39885" lon="1.78629">
        <ele>172.89588928223</ele>
        <time>2017-05-01T06:35:05.000Z</time>
      </trkpt>
      <trkpt lat="49.39872" lon="1.78597">
        <ele>172.51068115234</ele>
        <time>2017-05-01T06:35:08.000Z</time>
      </trkpt>
      <trkpt lat="49.3986" lon="1.78576">
        <ele>171.79139709473</ele>
        <time>2017-05-01T06:35:10.000Z</time>
      </trkpt>
      <trkpt lat="49.39841" lon="1.78532">
        <ele>170.30583190918</ele>
        <time>2017-05-01T06:35:13.000Z</time>
      </trkpt>
      <trkpt lat="49.39834" lon="1.78509">
        <ele>168.30361938477</ele>
        <time>2017-05-01T06:35:16.000Z</time>
      </trkpt>
      <trkpt lat="49.39824" lon="1.7849">
        <ele>166.22062683105</ele>
        <time>2017-05-01T06:35:18.000Z</time>
      </trkpt>
      <trkpt lat="49.39804" lon="1.78462">
        <ele>164.15689086914</ele>
        <time>2017-05-01T06:35:21.000Z</time>
      </trkpt>
      <trkpt lat="49.39781" lon="1.78456">
        <ele>161.75495910645</ele>
        <time>2017-05-01T06:35:24.000Z</time>
      </trkpt>
      <trkpt lat="49.39765" lon="1.7845">
        <ele>159.64476013184</ele>
        <time>2017-05-01T06:35:26.000Z</time>
      </trkpt>
      <trkpt lat="49.39752" lon="1.78445">
        <ele>157.57249450684</ele>
        <time>2017-05-01T06:35:28.000Z</time>
      </trkpt>
      <trkpt lat="49.39733" lon="1.78429">
        <ele>155.22866821289</ele>
        <time>2017-05-01T06:35:31.000Z</time>
      </trkpt>
      <trkpt lat="49.39719" lon="1.78422">
        <ele>152.96969604492</ele>
        <time>2017-05-01T06:35:33.000Z</time>
      </trkpt>
      <trkpt lat="49.39706" lon="1.78415">
        <ele>151.24592590332</ele>
        <time>2017-05-01T06:35:35.000Z</time>
      </trkpt>
      <trkpt lat="49.39693" lon="1.78407">
        <ele>150.05346679688</ele>
        <time>2017-05-01T06:35:37.000Z</time>
      </trkpt>
      <trkpt lat="49.39672" lon="1.78394">
        <ele>149.23834228516</ele>
        <time>2017-05-01T06:35:40.000Z</time>
      </trkpt>
      <trkpt lat="49.39673" lon="1.78393">
        <ele>148.8233795166</ele>
        <time>2017-05-01T06:35:42.000Z</time>
      </trkpt>
      <trkpt lat="49.39674" lon="1.78391">
        <ele>148.55671691895</ele>
        <time>2017-05-01T06:35:45.000Z</time>
      </trkpt>
      <trkpt lat="49.39674" lon="1.78391">
        <ele>148.55671691895</ele>
        <time>2017-05-01T06:35:55.000Z</time>
      </trkpt>
      <trkpt lat="49.39677" lon="1.78395">
        <ele>148.44734191895</ele>
        <time>2017-05-01T06:37:35.000Z</time>
      </trkpt>
      <trkpt lat="49.39677" lon="1.78395">
        <ele>148.44734191895</ele>
        <time>2017-05-01T06:37:45.000Z</time>
      </trkpt>
      <trkpt lat="49.3968" lon="1.78396">
        <ele>148.37145996094</ele>
        <time>2017-05-01T06:38:37.000Z</time>
      </trkpt>
      <trkpt lat="49.39684" lon="1.78398">
        <ele>148.44500732422</ele>
        <time>2017-05-01T06:38:44.000Z</time>
      </trkpt>
      <trkpt lat="49.39687" lon="1.78398">
        <ele>148.5283203125</ele>
        <time>2017-05-01T06:38:50.000Z</time>
      </trkpt>
      <trkpt lat="49.39688" lon="1.78398">
        <ele>148.61978149414</ele>
        <time>2017-05-01T06:38:52.000Z</time>
      </trkpt>
      <trkpt lat="49.39688" lon="1.78398">
        <ele>148.61978149414</ele>
        <time>2017-05-01T06:39:02.000Z</time>
      </trkpt>
      <trkpt lat="49.39692" lon="1.78401">
        <ele>148.69641113281</ele>
        <time>2017-05-01T06:39:09.000Z</time>
      </trkpt>
      <trkpt lat="49.39692" lon="1.78401">
        <ele>148.69641113281</ele>
        <time>2017-05-01T06:39:19.000Z</time>
      </trkpt>
      <trkpt lat="49.39691" lon="1.78401">
        <ele>148.75277709961</ele>
        <time>2017-05-01T06:39:44.000Z</time>
      </trkpt>
      <trkpt lat="49.39687" lon="1.78395">
        <ele>148.75343322754</ele>
        <time>2017-05-01T06:39:47.000Z</time>
      </trkpt>
      <trkpt lat="49.39686" lon="1.78389">
        <ele>148.7205657959</ele>
        <time>2017-05-01T06:39:49.000Z</time>
      </trkpt>
      <trkpt lat="49.39687" lon="1.78371">
        <ele>148.63050842285</ele>
        <time>2017-05-01T06:39:52.000Z</time>
      </trkpt>
      <trkpt lat="49.39685" lon="1.78345">
        <ele>148.40481567383</ele>
        <time>2017-05-01T06:39:55.000Z</time>
      </trkpt>
      <trkpt lat="49.39683" lon="1.7833">
        <ele>148.10717773438</ele>
        <time>2017-05-01T06:39:57.000Z</time>
      </trkpt>
      <trkpt lat="49.39681" lon="1.78317">
        <ele>147.80172729492</ele>
        <time>2017-05-01T06:39:59.000Z</time>
      </trkpt>
      <trkpt lat="49.39681" lon="1.7829">
        <ele>147.50076293945</ele>
        <time>2017-05-01T06:40:02.000Z</time>
      </trkpt>
      <trkpt lat="49.39684" lon="1.78268">
        <ele>147.30615234375</ele>
        <time>2017-05-01T06:40:04.000Z</time>
      </trkpt>
      <trkpt lat="49.39687" lon="1.78244">
        <ele>147.2705078125</ele>
        <time>2017-05-01T06:40:06.000Z</time>
      </trkpt>
      <trkpt lat="49.39688" lon="1.78208">
        <ele>147.22174072266</ele>
        <time>2017-05-01T06:40:09.000Z</time>
      </trkpt>
      <trkpt lat="49.3969" lon="1.78178">
        <ele>147.13764953613</ele>
        <time>2017-05-01T06:40:11.000Z</time>
      </trkpt>
      <trkpt lat="49.39694" lon="1.78149">
        <ele>146.86685180664</ele>
        <time>2017-05-01T06:40:14.000Z</time>
      </trkpt>
      <trkpt lat="49.39691" lon="1.78134">
        <ele>146.24482727051</ele>
        <time>2017-05-01T06:40:16.000Z</time>
      </trkpt>
      <trkpt lat="49.3969" lon="1.78117">
        <ele>145.28466796875</ele>
        <time>2017-05-01T06:40:18.000Z</time>
      </trkpt>
      <trkpt lat="49.39688" lon="1.78105">
        <ele>144.1819152832</ele>
        <time>2017-05-01T06:40:20.000Z</time>
      </trkpt>
      <trkpt lat="49.39687" lon="1.78103">
        <ele>143.07527160645</ele>
        <time>2017-05-01T06:40:23.000Z</time>
      </trkpt>
      <trkpt lat="49.39686" lon="1.78104">
        <ele>142.16654968262</ele>
        <time>2017-05-01T06:40:25.000Z</time>
      </trkpt>
      <trkpt lat="49.39687" lon="1.78105">
        <ele>141.59815979004</ele>
        <time>2017-05-01T06:40:28.000Z</time>
      </trkpt>
      <trkpt lat="49.3969" lon="1.781">
        <ele>141.33633422852</ele>
        <time>2017-05-01T06:40:31.000Z</time>
      </trkpt>
      <trkpt lat="49.3969" lon="1.78093">
        <ele>141.22135925293</ele>
        <time>2017-05-01T06:40:34.000Z</time>
      </trkpt>
      <trkpt lat="49.39691" lon="1.7809">
        <ele>141.14460754395</ele>
        <time>2017-05-01T06:40:36.000Z</time>
      </trkpt>
      <trkpt lat="49.39692" lon="1.78084">
        <ele>141.03588867188</ele>
        <time>2017-05-01T06:40:39.000Z</time>
      </trkpt>
      <trkpt lat="49.39688" lon="1.78072">
        <ele>140.63096618652</ele>
        <time>2017-05-01T06:40:42.000Z</time>
      </trkpt>
      <trkpt lat="49.39684" lon="1.78061">
        <ele>139.93063354492</ele>
        <time>2017-05-01T06:40:45.000Z</time>
      </trkpt>
      <trkpt lat="49.39681" lon="1.78054">
        <ele>139.10945129395</ele>
        <time>2017-05-01T06:40:47.000Z</time>
      </trkpt>
      <trkpt lat="49.39677" lon="1.78046">
        <ele>138.03533935547</ele>
        <time>2017-05-01T06:40:49.000Z</time>
      </trkpt>
      <trkpt lat="49.39674" lon="1.78039">
        <ele>136.7229309082</ele>
        <time>2017-05-01T06:40:51.000Z</time>
      </trkpt>
      <trkpt lat="49.39667" lon="1.78025">
        <ele>135.1036529541</ele>
        <time>2017-05-01T06:40:54.000Z</time>
      </trkpt>
      <trkpt lat="49.39662" lon="1.78012">
        <ele>133.63160705566</ele>
        <time>2017-05-01T06:40:57.000Z</time>
      </trkpt>
      <trkpt lat="49.39659" lon="1.78004">
        <ele>132.32807922363</ele>
        <time>2017-05-01T06:41:00.000Z</time>
      </trkpt>
      <trkpt lat="49.39658" lon="1.77998">
        <ele>131.27975463867</ele>
        <time>2017-05-01T06:41:03.000Z</time>
      </trkpt>
      <trkpt lat="49.39655" lon="1.77993">
        <ele>130.6403503418</ele>
        <time>2017-05-01T06:41:06.000Z</time>
      </trkpt>
      <trkpt lat="49.39645" lon="1.77982">
        <ele>130.8097076416</ele>
        <time>2017-05-01T06:41:09.000Z</time>
      </trkpt>
      <trkpt lat="49.39637" lon="1.77966">
        <ele>131.21775817871</ele>
        <time>2017-05-01T06:41:12.000Z</time>
      </trkpt>
      <trkpt lat="49.39631" lon="1.77955">
        <ele>131.65237426758</ele>
        <time>2017-05-01T06:41:15.000Z</time>
      </trkpt>
      <trkpt lat="49.39626" lon="1.77943">
        <ele>132.03880310059</ele>
        <time>2017-05-01T06:41:19.000Z</time>
      </trkpt>
      <trkpt lat="49.39623" lon="1.77935">
        <ele>132.20222473145</ele>
        <time>2017-05-01T06:41:20.000Z</time>
      </trkpt>
      <trkpt lat="49.39618" lon="1.77925">
        <ele>131.95297241211</ele>
        <time>2017-05-01T06:41:23.000Z</time>
      </trkpt>
      <trkpt lat="49.39613" lon="1.77918">
        <ele>131.42919921875</ele>
        <time>2017-05-01T06:41:26.000Z</time>
      </trkpt>
      <trkpt lat="49.39609" lon="1.77911">
        <ele>130.84808349609</ele>
        <time>2017-05-01T06:41:28.000Z</time>
      </trkpt>
      <trkpt lat="49.39603" lon="1.77901">
        <ele>130.30413818359</ele>
        <time>2017-05-01T06:41:30.000Z</time>
      </trkpt>
      <trkpt lat="49.39593" lon="1.77885">
        <ele>129.70779418945</ele>
        <time>2017-05-01T06:41:33.000Z</time>
      </trkpt>
      <trkpt lat="49.39587" lon="1.77876">
        <ele>129.14334106445</ele>
        <time>2017-05-01T06:41:35.000Z</time>
      </trkpt>
      <trkpt lat="49.39576" lon="1.77864">
        <ele>128.76420593262</ele>
        <time>2017-05-01T06:41:38.000Z</time>
      </trkpt>
      <trkpt lat="49.39565" lon="1.77847">
        <ele>128.47764587402</ele>
        <time>2017-05-01T06:41:41.000Z</time>
      </trkpt>
      <trkpt lat="49.39555" lon="1.77827">
        <ele>128.16358947754</ele>
        <time>2017-05-01T06:41:44.000Z</time>
      </trkpt>
      <trkpt lat="49.39548" lon="1.77814">
        <ele>128.01170349121</ele>
        <time>2017-05-01T06:41:46.000Z</time>
      </trkpt>
      <trkpt lat="49.39537" lon="1.77794">
        <ele>127.88272857666</ele>
        <time>2017-05-01T06:41:49.000Z</time>
      </trkpt>
      <trkpt lat="49.39524" lon="1.77774">
        <ele>127.40184020996</ele>
        <time>2017-05-01T06:41:52.000Z</time>
      </trkpt>
      <trkpt lat="49.39515" lon="1.77764">
        <ele>126.60095214844</ele>
        <time>2017-05-01T06:41:54.000Z</time>
      </trkpt>
      <trkpt lat="49.39507" lon="1.77754">
        <ele>125.52996826172</ele>
        <time>2017-05-01T06:41:56.000Z</time>
      </trkpt>
      <trkpt lat="49.39497" lon="1.77741">
        <ele>124.2985458374</ele>
        <time>2017-05-01T06:41:59.000Z</time>
      </trkpt>
      <trkpt lat="49.39488" lon="1.77733">
        <ele>123.30533599854</ele>
        <time>2017-05-01T06:42:01.000Z</time>
      </trkpt>
      <trkpt lat="49.39474" lon="1.77723">
        <ele>122.72212219238</ele>
        <time>2017-05-01T06:42:04.000Z</time>
      </trkpt>
      <trkpt lat="49.39456" lon="1.77711">
        <ele>122.40498352051</ele>
        <time>2017-05-01T06:42:07.000Z</time>
      </trkpt>
      <trkpt lat="49.39446" lon="1.77702">
        <ele>122.35160064697</ele>
        <time>2017-05-01T06:42:09.000Z</time>
      </trkpt>
      <trkpt lat="49.39435" lon="1.77692">
        <ele>122.28897857666</ele>
        <time>2017-05-01T06:42:12.000Z</time>
      </trkpt>
      <trkpt lat="49.39425" lon="1.77682">
        <ele>121.90641021729</ele>
        <time>2017-05-01T06:42:15.000Z</time>
      </trkpt>
      <trkpt lat="49.39412" lon="1.77671">
        <ele>121.18868255615</ele>
        <time>2017-05-01T06:42:18.000Z</time>
      </trkpt>
      <trkpt lat="49.394" lon="1.77661">
        <ele>120.46724700928</ele>
        <time>2017-05-01T06:42:21.000Z</time>
      </trkpt>
      <trkpt lat="49.39393" lon="1.77654">
        <ele>119.85324859619</ele>
        <time>2017-05-01T06:42:23.000Z</time>
      </trkpt>
      <trkpt lat="49.39381" lon="1.77643">
        <ele>119.36584472656</ele>
        <time>2017-05-01T06:42:26.000Z</time>
      </trkpt>
      <trkpt lat="49.39367" lon="1.77632">
        <ele>118.96720123291</ele>
        <time>2017-05-01T06:42:29.000Z</time>
      </trkpt>
      <trkpt lat="49.39357" lon="1.77625">
        <ele>118.71678161621</ele>
        <time>2017-05-01T06:42:31.000Z</time>
      </trkpt>
      <trkpt lat="49.39347" lon="1.77619">
        <ele>118.35417175293</ele>
        <time>2017-05-01T06:42:33.000Z</time>
      </trkpt>
      <trkpt lat="49.39332" lon="1.77608">
        <ele>117.7237701416</ele>
        <time>2017-05-01T06:42:36.000Z</time>
      </trkpt>
      <trkpt lat="49.39325" lon="1.776">
        <ele>117.18698883057</ele>
        <time>2017-05-01T06:42:38.000Z</time>
      </trkpt>
      <trkpt lat="49.39315" lon="1.77582">
        <ele>116.7466583252</ele>
        <time>2017-05-01T06:42:41.000Z</time>
      </trkpt>
      <trkpt lat="49.39306" lon="1.77564">
        <ele>116.42478179932</ele>
        <time>2017-05-01T06:42:44.000Z</time>
      </trkpt>
      <trkpt lat="49.39302" lon="1.77546">
        <ele>116.20634460449</ele>
        <time>2017-05-01T06:42:47.000Z</time>
      </trkpt>
      <trkpt lat="49.39301" lon="1.77541">
        <ele>116.20540618896</ele>
        <time>2017-05-01T06:42:49.000Z</time>
      </trkpt>
      <trkpt lat="49.39301" lon="1.77541">
        <ele>116.20540618896</ele>
        <time>2017-05-01T06:42:59.000Z</time>
      </trkpt>
      <trkpt lat="49.39304" lon="1.77539">
        <ele>116.08268737793</ele>
        <time>2017-05-01T06:43:02.000Z</time>
      </trkpt>
      <trkpt lat="49.39304" lon="1.77539">
        <ele>116.08268737793</ele>
        <time>2017-05-01T06:43:22.000Z</time>
      </trkpt>
      <trkpt lat="49.39303" lon="1.77538">
        <ele>115.97184753418</ele>
        <time>2017-05-01T06:43:23.000Z</time>
      </trkpt>
      <trkpt lat="49.39303" lon="1.77538">
        <ele>115.97184753418</ele>
        <time>2017-05-01T06:43:43.000Z</time>
      </trkpt>
      <trkpt lat="49.39305" lon="1.77539">
        <ele>115.83296203613</ele>
        <time>2017-05-01T06:43:57.000Z</time>
      </trkpt>
      <trkpt lat="49.39307" lon="1.7754">
        <ele>115.71506500244</ele>
        <time>2017-05-01T06:43:59.000Z</time>
      </trkpt>
      <trkpt lat="49.39305" lon="1.7754">
        <ele>115.64727783203</ele>
        <time>2017-05-01T06:44:02.000Z</time>
      </trkpt>
      <trkpt lat="49.39307" lon="1.77539">
        <ele>115.60178375244</ele>
        <time>2017-05-01T06:44:05.000Z</time>
      </trkpt>
      <trkpt lat="49.39307" lon="1.77537">
        <ele>115.53092956543</ele>
        <time>2017-05-01T06:44:08.000Z</time>
      </trkpt>
      <trkpt lat="49.39309" lon="1.77538">
        <ele>115.46839904785</ele>
        <time>2017-05-01T06:44:10.000Z</time>
      </trkpt>
      <trkpt lat="49.39308" lon="1.77537">
        <ele>115.4261932373</ele>
        <time>2017-05-01T06:44:23.000Z</time>
      </trkpt>
      <trkpt lat="49.39307" lon="1.77526">
        <ele>115.31092834473</ele>
        <time>2017-05-01T06:44:26.000Z</time>
      </trkpt>
      <trkpt lat="49.39307" lon="1.77512">
        <ele>115.13681793213</ele>
        <time>2017-05-01T06:44:29.000Z</time>
      </trkpt>
      <trkpt lat="49.39309" lon="1.77497">
        <ele>114.84889221191</ele>
        <time>2017-05-01T06:44:32.000Z</time>
      </trkpt>
      <trkpt lat="49.39312" lon="1.77486">
        <ele>114.42713928223</ele>
        <time>2017-05-01T06:44:34.000Z</time>
      </trkpt>
      <trkpt lat="49.3932" lon="1.7747">
        <ele>113.682472229</ele>
        <time>2017-05-01T06:44:37.000Z</time>
      </trkpt>
      <trkpt lat="49.39329" lon="1.7746">
        <ele>112.69703674316</ele>
        <time>2017-05-01T06:44:39.000Z</time>
      </trkpt>
      <trkpt lat="49.39344" lon="1.77441">
        <ele>111.61613464355</ele>
        <time>2017-05-01T06:44:42.000Z</time>
      </trkpt>
      <trkpt lat="49.39355" lon="1.77427">
        <ele>110.60273742676</ele>
        <time>2017-05-01T06:44:45.000Z</time>
      </trkpt>
      <trkpt lat="49.39366" lon="1.77413">
        <ele>109.6432723999</ele>
        <time>2017-05-01T06:44:46.000Z</time>
      </trkpt>
      <trkpt lat="49.39381" lon="1.77396">
        <ele>108.90883636475</ele>
        <time>2017-05-01T06:44:49.000Z</time>
      </trkpt>
      <trkpt lat="49.39391" lon="1.77383">
        <ele>108.30374908447</ele>
        <time>2017-05-01T06:44:52.000Z</time>
      </trkpt>
      <trkpt lat="49.39395" lon="1.77376">
        <ele>107.78678894043</ele>
        <time>2017-05-01T06:44:55.000Z</time>
      </trkpt>
      <trkpt lat="49.39399" lon="1.77364">
        <ele>107.11480712891</ele>
        <time>2017-05-01T06:44:58.000Z</time>
      </trkpt>
      <trkpt lat="49.39407" lon="1.77351">
        <ele>106.26503753662</ele>
        <time>2017-05-01T06:45:01.000Z</time>
      </trkpt>
      <trkpt lat="49.39414" lon="1.77341">
        <ele>105.26196289062</ele>
        <time>2017-05-01T06:45:03.000Z</time>
      </trkpt>
      <trkpt lat="49.39422" lon="1.7732">
        <ele>104.09417724609</ele>
        <time>2017-05-01T06:45:06.000Z</time>
      </trkpt>
      <trkpt lat="49.39428" lon="1.77297">
        <ele>102.80035400391</ele>
        <time>2017-05-01T06:45:09.000Z</time>
      </trkpt>
      <trkpt lat="49.39431" lon="1.7728">
        <ele>101.58316802979</ele>
        <time>2017-05-01T06:45:11.000Z</time>
      </trkpt>
      <trkpt lat="49.39434" lon="1.77254">
        <ele>100.42742919922</ele>
        <time>2017-05-01T06:45:14.000Z</time>
      </trkpt>
      <trkpt lat="49.39431" lon="1.77236">
        <ele>99.460411071777</ele>
        <time>2017-05-01T06:45:16.000Z</time>
      </trkpt>
      <trkpt lat="49.39427" lon="1.77219">
        <ele>98.772079467773</ele>
        <time>2017-05-01T06:45:18.000Z</time>
      </trkpt>
      <trkpt lat="49.3942" lon="1.77191">
        <ele>98.217155456543</ele>
        <time>2017-05-01T06:45:21.000Z</time>
      </trkpt>
      <trkpt lat="49.39414" lon="1.77173">
        <ele>97.811141967773</ele>
        <time>2017-05-01T06:45:23.000Z</time>
      </trkpt>
      <trkpt lat="49.39404" lon="1.77145">
        <ele>97.850578308105</ele>
        <time>2017-05-01T06:45:26.000Z</time>
      </trkpt>
      <trkpt lat="49.39397" lon="1.77128">
        <ele>98.047286987305</ele>
        <time>2017-05-01T06:45:28.000Z</time>
      </trkpt>
      <trkpt lat="49.39389" lon="1.77103">
        <ele>98.328140258789</ele>
        <time>2017-05-01T06:45:31.000Z</time>
      </trkpt>
      <trkpt lat="49.39384" lon="1.77088">
        <ele>98.671051025391</ele>
        <time>2017-05-01T06:45:33.000Z</time>
      </trkpt>
      <trkpt lat="49.39376" lon="1.77068">
        <ele>99.012977600098</ele>
        <time>2017-05-01T06:45:36.000Z</time>
      </trkpt>
      <trkpt lat="49.39371" lon="1.77055">
        <ele>99.117301940918</ele>
        <time>2017-05-01T06:45:38.000Z</time>
      </trkpt>
      <trkpt lat="49.39365" lon="1.77038">
        <ele>99.099098205566</ele>
        <time>2017-05-01T06:45:41.000Z</time>
      </trkpt>
      <trkpt lat="49.39362" lon="1.77027">
        <ele>99.01294708252</ele>
        <time>2017-05-01T06:45:43.000Z</time>
      </trkpt>
      <trkpt lat="49.39358" lon="1.77016">
        <ele>98.909568786621</ele>
        <time>2017-05-01T06:45:45.000Z</time>
      </trkpt>
      <trkpt lat="49.39351" lon="1.76999">
        <ele>98.70174407959</ele>
        <time>2017-05-01T06:45:48.000Z</time>
      </trkpt>
      <trkpt lat="49.39346" lon="1.76982">
        <ele>98.516441345215</ele>
        <time>2017-05-01T06:45:51.000Z</time>
      </trkpt>
      <trkpt lat="49.39343" lon="1.76972">
        <ele>98.37532043457</ele>
        <time>2017-05-01T06:45:53.000Z</time>
      </trkpt>
      <trkpt lat="49.39345" lon="1.76962">
        <ele>98.334091186523</ele>
        <time>2017-05-01T06:45:55.000Z</time>
      </trkpt>
      <trkpt lat="49.39356" lon="1.76962">
        <ele>98.476379394531</ele>
        <time>2017-05-01T06:45:58.000Z</time>
      </trkpt>
      <trkpt lat="49.39364" lon="1.76969">
        <ele>98.782897949219</ele>
        <time>2017-05-01T06:46:00.000Z</time>
      </trkpt>
      <trkpt lat="49.39372" lon="1.76976">
        <ele>99.127502441406</ele>
        <time>2017-05-01T06:46:02.000Z</time>
      </trkpt>
      <trkpt lat="49.39384" lon="1.76983">
        <ele>99.568176269531</ele>
        <time>2017-05-01T06:46:05.000Z</time>
      </trkpt>
      <trkpt lat="49.39396" lon="1.7699">
        <ele>100.04290771484</ele>
        <time>2017-05-01T06:46:08.000Z</time>
      </trkpt>
      <trkpt lat="49.39404" lon="1.76997">
        <ele>100.44757080078</ele>
        <time>2017-05-01T06:46:10.000Z</time>
      </trkpt>
      <trkpt lat="49.39412" lon="1.77002">
        <ele>100.85623931885</ele>
        <time>2017-05-01T06:46:12.000Z</time>
      </trkpt>
      <trkpt lat="49.39424" lon="1.7701">
        <ele>101.31089782715</ele>
        <time>2017-05-01T06:46:15.000Z</time>
      </trkpt>
      <trkpt lat="49.39436" lon="1.77018">
        <ele>101.76615905762</ele>
        <time>2017-05-01T06:46:18.000Z</time>
      </trkpt>
      <trkpt lat="49.39446" lon="1.77022">
        <ele>102.21031188965</ele>
        <time>2017-05-01T06:46:20.000Z</time>
      </trkpt>
      <trkpt lat="49.39459" lon="1.77029">
        <ele>102.71364593506</ele>
        <time>2017-05-01T06:46:23.000Z</time>
      </trkpt>
      <trkpt lat="49.3947" lon="1.77037">
        <ele>103.22194671631</ele>
        <time>2017-05-01T06:46:26.000Z</time>
      </trkpt>
      <trkpt lat="49.39479" lon="1.77043">
        <ele>103.70627593994</ele>
        <time>2017-05-01T06:46:28.000Z</time>
      </trkpt>
      <trkpt lat="49.39491" lon="1.7705">
        <ele>104.16695404053</ele>
        <time>2017-05-01T06:46:31.000Z</time>
      </trkpt>
      <trkpt lat="49.39501" lon="1.77056">
        <ele>104.59875488281</ele>
        <time>2017-05-01T06:46:34.000Z</time>
      </trkpt>
      <trkpt lat="49.39512" lon="1.77064">
        <ele>104.93424224854</ele>
        <time>2017-05-01T06:46:37.000Z</time>
      </trkpt>
      <trkpt lat="49.39518" lon="1.77069">
        <ele>105.20949554443</ele>
        <time>2017-05-01T06:46:39.000Z</time>
      </trkpt>
      <trkpt lat="49.39528" lon="1.77077">
        <ele>105.42475891113</ele>
        <time>2017-05-01T06:46:42.000Z</time>
      </trkpt>
      <trkpt lat="49.39536" lon="1.77083">
        <ele>105.56921386719</ele>
        <time>2017-05-01T06:46:44.000Z</time>
      </trkpt>
      <trkpt lat="49.39545" lon="1.77089">
        <ele>105.6834564209</ele>
        <time>2017-05-01T06:46:47.000Z</time>
      </trkpt>
      <trkpt lat="49.39553" lon="1.77096">
        <ele>105.79138183594</ele>
        <time>2017-05-01T06:46:49.000Z</time>
      </trkpt>
      <trkpt lat="49.39564" lon="1.77104">
        <ele>105.93239593506</ele>
        <time>2017-05-01T06:46:52.000Z</time>
      </trkpt>
      <trkpt lat="49.39572" lon="1.77109">
        <ele>106.09592437744</ele>
        <time>2017-05-01T06:46:54.000Z</time>
      </trkpt>
      <trkpt lat="49.39579" lon="1.77114">
        <ele>106.27911376953</ele>
        <time>2017-05-01T06:46:56.000Z</time>
      </trkpt>
      <trkpt lat="49.39592" lon="1.77123">
        <ele>106.44093322754</ele>
        <time>2017-05-01T06:46:59.000Z</time>
      </trkpt>
      <trkpt lat="49.396" lon="1.77128">
        <ele>106.56681060791</ele>
        <time>2017-05-01T06:47:01.000Z</time>
      </trkpt>
      <trkpt lat="49.39613" lon="1.77135">
        <ele>106.63963317871</ele>
        <time>2017-05-01T06:47:04.000Z</time>
      </trkpt>
      <trkpt lat="49.39622" lon="1.7714">
        <ele>106.65761566162</ele>
        <time>2017-05-01T06:47:06.000Z</time>
      </trkpt>
      <trkpt lat="49.39635" lon="1.77142">
        <ele>106.66677093506</ele>
        <time>2017-05-01T06:47:09.000Z</time>
      </trkpt>
      <trkpt lat="49.39645" lon="1.77134">
        <ele>106.76106262207</ele>
        <time>2017-05-01T06:47:12.000Z</time>
      </trkpt>
      <trkpt lat="49.39655" lon="1.77124">
        <ele>106.99417877197</ele>
        <time>2017-05-01T06:47:15.000Z</time>
      </trkpt>
      <trkpt lat="49.39663" lon="1.77118">
        <ele>107.32051086426</ele>
        <time>2017-05-01T06:47:18.000Z</time>
      </trkpt>
      <trkpt lat="49.39671" lon="1.77111">
        <ele>107.77703857422</ele>
        <time>2017-05-01T06:47:21.000Z</time>
      </trkpt>
      <trkpt lat="49.39675" lon="1.77106">
        <ele>108.28294372559</ele>
        <time>2017-05-01T06:47:23.000Z</time>
      </trkpt>
      <trkpt lat="49.3968" lon="1.771">
        <ele>108.80899810791</ele>
        <time>2017-05-01T06:47:26.000Z</time>
      </trkpt>
      <trkpt lat="49.39685" lon="1.77095">
        <ele>109.31971740723</ele>
        <time>2017-05-01T06:47:29.000Z</time>
      </trkpt>
      <trkpt lat="49.39688" lon="1.7709">
        <ele>109.83186340332</ele>
        <time>2017-05-01T06:47:31.000Z</time>
      </trkpt>
      <trkpt lat="49.39691" lon="1.77086">
        <ele>110.30958557129</ele>
        <time>2017-05-01T06:47:33.000Z</time>
      </trkpt>
      <trkpt lat="49.39694" lon="1.77081">
        <ele>110.81510925293</ele>
        <time>2017-05-01T06:47:36.000Z</time>
      </trkpt>
      <trkpt lat="49.39699" lon="1.77075">
        <ele>111.33160400391</ele>
        <time>2017-05-01T06:47:39.000Z</time>
      </trkpt>
      <trkpt lat="49.39703" lon="1.77068">
        <ele>111.87685394287</ele>
        <time>2017-05-01T06:47:42.000Z</time>
      </trkpt>
      <trkpt lat="49.39707" lon="1.77061">
        <ele>112.48889160156</ele>
        <time>2017-05-01T06:47:45.000Z</time>
      </trkpt>
      <trkpt lat="49.3971" lon="1.77055">
        <ele>113.14231109619</ele>
        <time>2017-05-01T06:47:47.000Z</time>
      </trkpt>
      <trkpt lat="49.39715" lon="1.77048">
        <ele>113.8773651123</ele>
        <time>2017-05-01T06:47:50.000Z</time>
      </trkpt>
      <trkpt lat="49.39718" lon="1.77043">
        <ele>114.60430908203</ele>
        <time>2017-05-01T06:47:52.000Z</time>
      </trkpt>
      <trkpt lat="49.39721" lon="1.77036">
        <ele>115.34352111816</ele>
        <time>2017-05-01T06:47:55.000Z</time>
      </trkpt>
      <trkpt lat="49.39724" lon="1.7703">
        <ele>116.07745361328</ele>
        <time>2017-05-01T06:47:58.000Z</time>
      </trkpt>
      <trkpt lat="49.39726" lon="1.77022">
        <ele>116.84400939941</ele>
        <time>2017-05-01T06:48:01.000Z</time>
      </trkpt>
      <trkpt lat="49.39729" lon="1.77015">
        <ele>117.59773254395</ele>
        <time>2017-05-01T06:48:04.000Z</time>
      </trkpt>
      <trkpt lat="49.39733" lon="1.77009">
        <ele>118.42749023438</ele>
        <time>2017-05-01T06:48:07.000Z</time>
      </trkpt>
      <trkpt lat="49.39735" lon="1.77005">
        <ele>119.22177886963</ele>
        <time>2017-05-01T06:48:09.000Z</time>
      </trkpt>
      <trkpt lat="49.39738" lon="1.76999">
        <ele>120.03470611572</ele>
        <time>2017-05-01T06:48:12.000Z</time>
      </trkpt>
      <trkpt lat="49.3974" lon="1.76994">
        <ele>120.7712020874</ele>
        <time>2017-05-01T06:48:15.000Z</time>
      </trkpt>
      <trkpt lat="49.3974" lon="1.76992">
        <ele>121.37852478027</ele>
        <time>2017-05-01T06:48:17.000Z</time>
      </trkpt>
      <trkpt lat="49.39743" lon="1.7699">
        <ele>121.86720275879</ele>
        <time>2017-05-01T06:48:19.000Z</time>
      </trkpt>
      <trkpt lat="49.39746" lon="1.76985">
        <ele>122.36712646484</ele>
        <time>2017-05-01T06:48:22.000Z</time>
      </trkpt>
      <trkpt lat="49.39749" lon="1.76982">
        <ele>122.78663635254</ele>
        <time>2017-05-01T06:48:24.000Z</time>
      </trkpt>
      <trkpt lat="49.39752" lon="1.76978">
        <ele>123.23317718506</ele>
        <time>2017-05-01T06:48:27.000Z</time>
      </trkpt>
      <trkpt lat="49.39754" lon="1.76975">
        <ele>123.7107925415</ele>
        <time>2017-05-01T06:48:29.000Z</time>
      </trkpt>
      <trkpt lat="49.39757" lon="1.76973">
        <ele>124.18054199219</ele>
        <time>2017-05-01T06:48:31.000Z</time>
      </trkpt>
      <trkpt lat="49.3976" lon="1.76969">
        <ele>124.61556243896</ele>
        <time>2017-05-01T06:48:34.000Z</time>
      </trkpt>
      <trkpt lat="49.39761" lon="1.76967">
        <ele>125.0235748291</ele>
        <time>2017-05-01T06:48:36.000Z</time>
      </trkpt>
      <trkpt lat="49.39765" lon="1.76963">
        <ele>125.42961120605</ele>
        <time>2017-05-01T06:48:39.000Z</time>
      </trkpt>
      <trkpt lat="49.39767" lon="1.76961">
        <ele>125.82749176025</ele>
        <time>2017-05-01T06:48:41.000Z</time>
      </trkpt>
      <trkpt lat="49.3977" lon="1.76957">
        <ele>126.27177429199</ele>
        <time>2017-05-01T06:48:44.000Z</time>
      </trkpt>
      <trkpt lat="49.39773" lon="1.76953">
        <ele>126.75898742676</ele>
        <time>2017-05-01T06:48:47.000Z</time>
      </trkpt>
      <trkpt lat="49.39775" lon="1.7695">
        <ele>127.25773620605</ele>
        <time>2017-05-01T06:48:49.000Z</time>
      </trkpt>
      <trkpt lat="49.39779" lon="1.76946">
        <ele>127.79644775391</ele>
        <time>2017-05-01T06:48:52.000Z</time>
      </trkpt>
      <trkpt lat="49.39781" lon="1.76942">
        <ele>128.37319946289</ele>
        <time>2017-05-01T06:48:55.000Z</time>
      </trkpt>
      <trkpt lat="49.39783" lon="1.76939">
        <ele>128.9358215332</ele>
        <time>2017-05-01T06:48:57.000Z</time>
      </trkpt>
      <trkpt lat="49.39787" lon="1.76936">
        <ele>129.49858093262</ele>
        <time>2017-05-01T06:49:00.000Z</time>
      </trkpt>
      <trkpt lat="49.39789" lon="1.76934">
        <ele>130.09037780762</ele>
        <time>2017-05-01T06:49:02.000Z</time>
      </trkpt>
      <trkpt lat="49.39791" lon="1.76932">
        <ele>130.62211608887</ele>
        <time>2017-05-01T06:49:04.000Z</time>
      </trkpt>
      <trkpt lat="49.39793" lon="1.76929">
        <ele>131.1520690918</ele>
        <time>2017-05-01T06:49:07.000Z</time>
      </trkpt>
      <trkpt lat="49.39796" lon="1.76925">
        <ele>131.71697998047</ele>
        <time>2017-05-01T06:49:10.000Z</time>
      </trkpt>
      <trkpt lat="49.39798" lon="1.76921">
        <ele>132.26864624023</ele>
        <time>2017-05-01T06:49:13.000Z</time>
      </trkpt>
      <trkpt lat="49.398" lon="1.76917">
        <ele>132.86328125</ele>
        <time>2017-05-01T06:49:16.000Z</time>
      </trkpt>
      <trkpt lat="49.39803" lon="1.76913">
        <ele>133.52685546875</ele>
        <time>2017-05-01T06:49:19.000Z</time>
      </trkpt>
      <trkpt lat="49.39806" lon="1.7691">
        <ele>134.18630981445</ele>
        <time>2017-05-01T06:49:21.000Z</time>
      </trkpt>
      <trkpt lat="49.39808" lon="1.76907">
        <ele>134.80972290039</ele>
        <time>2017-05-01T06:49:23.000Z</time>
      </trkpt>
      <trkpt lat="49.39809" lon="1.76905">
        <ele>135.41432189941</ele>
        <time>2017-05-01T06:49:25.000Z</time>
      </trkpt>
      <trkpt lat="49.39812" lon="1.76901">
        <ele>136.01142883301</ele>
        <time>2017-05-01T06:49:28.000Z</time>
      </trkpt>
      <trkpt lat="49.39814" lon="1.76898">
        <ele>136.56745910645</ele>
        <time>2017-05-01T06:49:30.000Z</time>
      </trkpt>
      <trkpt lat="49.39817" lon="1.76895">
        <ele>137.1735534668</ele>
        <time>2017-05-01T06:49:33.000Z</time>
      </trkpt>
      <trkpt lat="49.39819" lon="1.76893">
        <ele>137.76338195801</ele>
        <time>2017-05-01T06:49:35.000Z</time>
      </trkpt>
      <trkpt lat="49.39821" lon="1.76889">
        <ele>138.3853302002</ele>
        <time>2017-05-01T06:49:38.000Z</time>
      </trkpt>
      <trkpt lat="49.39824" lon="1.76885">
        <ele>139.0456237793</ele>
        <time>2017-05-01T06:49:41.000Z</time>
      </trkpt>
      <trkpt lat="49.39827" lon="1.76883">
        <ele>139.71591186523</ele>
        <time>2017-05-01T06:49:43.000Z</time>
      </trkpt>
      <trkpt lat="49.39829" lon="1.76881">
        <ele>140.36320495605</ele>
        <time>2017-05-01T06:49:46.000Z</time>
      </trkpt>
      <trkpt lat="49.39832" lon="1.76879">
        <ele>141.03080749512</ele>
        <time>2017-05-01T06:49:48.000Z</time>
      </trkpt>
      <trkpt lat="49.39836" lon="1.76877">
        <ele>141.74789428711</ele>
        <time>2017-05-01T06:49:51.000Z</time>
      </trkpt>
      <trkpt lat="49.39837" lon="1.76875">
        <ele>142.3800201416</ele>
        <time>2017-05-01T06:49:53.000Z</time>
      </trkpt>
      <trkpt lat="49.39838" lon="1.76872">
        <ele>142.97592163086</ele>
        <time>2017-05-01T06:49:55.000Z</time>
      </trkpt>
      <trkpt lat="49.3984" lon="1.7687">
        <ele>143.55729675293</ele>
        <time>2017-05-01T06:49:57.000Z</time>
      </trkpt>
      <trkpt lat="49.39843" lon="1.76867">
        <ele>144.20329284668</ele>
        <time>2017-05-01T06:50:00.000Z</time>
      </trkpt>
      <trkpt lat="49.39845" lon="1.76866">
        <ele>144.75361633301</ele>
        <time>2017-05-01T06:50:02.000Z</time>
      </trkpt>
      <trkpt lat="49.39847" lon="1.76863">
        <ele>145.34004211426</ele>
        <time>2017-05-01T06:50:05.000Z</time>
      </trkpt>
      <trkpt lat="49.39848" lon="1.76862">
        <ele>145.89863586426</ele>
        <time>2017-05-01T06:50:08.000Z</time>
      </trkpt>
      <trkpt lat="49.39849" lon="1.76861">
        <ele>146.39669799805</ele>
        <time>2017-05-01T06:50:10.000Z</time>
      </trkpt>
      <trkpt lat="49.39851" lon="1.76858">
        <ele>146.88577270508</ele>
        <time>2017-05-01T06:50:13.000Z</time>
      </trkpt>
      <trkpt lat="49.39854" lon="1.76857">
        <ele>147.40637207031</ele>
        <time>2017-05-01T06:50:16.000Z</time>
      </trkpt>
      <trkpt lat="49.39857" lon="1.76855">
        <ele>147.94062805176</ele>
        <time>2017-05-01T06:50:18.000Z</time>
      </trkpt>
      <trkpt lat="49.39859" lon="1.76851">
        <ele>148.55799865723</ele>
        <time>2017-05-01T06:50:20.000Z</time>
      </trkpt>
      <trkpt lat="49.39861" lon="1.76848">
        <ele>149.28016662598</ele>
        <time>2017-05-01T06:50:23.000Z</time>
      </trkpt>
      <trkpt lat="49.39863" lon="1.76845">
        <ele>149.98226928711</ele>
        <time>2017-05-01T06:50:26.000Z</time>
      </trkpt>
      <trkpt lat="49.39866" lon="1.76839">
        <ele>150.79620361328</ele>
        <time>2017-05-01T06:50:29.000Z</time>
      </trkpt>
      <trkpt lat="49.39867" lon="1.76834">
        <ele>151.63464355469</ele>
        <time>2017-05-01T06:50:31.000Z</time>
      </trkpt>
      <trkpt lat="49.39868" lon="1.76829">
        <ele>152.40629577637</ele>
        <time>2017-05-01T06:50:34.000Z</time>
      </trkpt>
      <trkpt lat="49.3987" lon="1.76827">
        <ele>153.09223937988</ele>
        <time>2017-05-01T06:50:36.000Z</time>
      </trkpt>
      <trkpt lat="49.39872" lon="1.76826">
        <ele>153.74081420898</ele>
        <time>2017-05-01T06:50:39.000Z</time>
      </trkpt>
      <trkpt lat="49.39875" lon="1.76824">
        <ele>154.29461669922</ele>
        <time>2017-05-01T06:50:42.000Z</time>
      </trkpt>
      <trkpt lat="49.39878" lon="1.76822">
        <ele>154.81015014648</ele>
        <time>2017-05-01T06:50:45.000Z</time>
      </trkpt>
      <trkpt lat="49.3988" lon="1.76821">
        <ele>155.3217010498</ele>
        <time>2017-05-01T06:50:48.000Z</time>
      </trkpt>
      <trkpt lat="49.39881" lon="1.76819">
        <ele>155.82162475586</ele>
        <time>2017-05-01T06:50:50.000Z</time>
      </trkpt>
      <trkpt lat="49.39883" lon="1.76817">
        <ele>156.30676269531</ele>
        <time>2017-05-01T06:50:52.000Z</time>
      </trkpt>
      <trkpt lat="49.39887" lon="1.76815">
        <ele>156.81169128418</ele>
        <time>2017-05-01T06:50:55.000Z</time>
      </trkpt>
      <trkpt lat="49.3989" lon="1.76814">
        <ele>157.31916809082</ele>
        <time>2017-05-01T06:50:58.000Z</time>
      </trkpt>
      <trkpt lat="49.39891" lon="1.76812">
        <ele>157.81454467773</ele>
        <time>2017-05-01T06:51:00.000Z</time>
      </trkpt>
      <trkpt lat="49.39893" lon="1.7681">
        <ele>158.34605407715</ele>
        <time>2017-05-01T06:51:02.000Z</time>
      </trkpt>
      <trkpt lat="49.39895" lon="1.76807">
        <ele>158.89294433594</ele>
        <time>2017-05-01T06:51:04.000Z</time>
      </trkpt>
      <trkpt lat="49.39898" lon="1.76803">
        <ele>159.45100402832</ele>
        <time>2017-05-01T06:51:07.000Z</time>
      </trkpt>
      <trkpt lat="49.399" lon="1.768">
        <ele>159.9684753418</ele>
        <time>2017-05-01T06:51:09.000Z</time>
      </trkpt>
      <trkpt lat="49.39902" lon="1.76797">
        <ele>160.55647277832</ele>
        <time>2017-05-01T06:51:12.000Z</time>
      </trkpt>
      <trkpt lat="49.39905" lon="1.76795">
        <ele>161.16389465332</ele>
        <time>2017-05-01T06:51:14.000Z</time>
      </trkpt>
      <trkpt lat="49.39908" lon="1.76793">
        <ele>161.82231140137</ele>
        <time>2017-05-01T06:51:17.000Z</time>
      </trkpt>
      <trkpt lat="49.39911" lon="1.7679">
        <ele>162.43782043457</ele>
        <time>2017-05-01T06:51:20.000Z</time>
      </trkpt>
      <trkpt lat="49.39914" lon="1.76786">
        <ele>163.14364624023</ele>
        <time>2017-05-01T06:51:23.000Z</time>
      </trkpt>
      <trkpt lat="49.39915" lon="1.76784">
        <ele>163.80969238281</ele>
        <time>2017-05-01T06:51:25.000Z</time>
      </trkpt>
      <trkpt lat="49.39921" lon="1.76781">
        <ele>164.45512390137</ele>
        <time>2017-05-01T06:51:28.000Z</time>
      </trkpt>
      <trkpt lat="49.39924" lon="1.76779">
        <ele>164.98568725586</ele>
        <time>2017-05-01T06:51:31.000Z</time>
      </trkpt>
      <trkpt lat="49.39926" lon="1.76775">
        <ele>165.43209838867</ele>
        <time>2017-05-01T06:51:34.000Z</time>
      </trkpt>
      <trkpt lat="49.39928" lon="1.76773">
        <ele>165.73202514648</ele>
        <time>2017-05-01T06:51:37.000Z</time>
      </trkpt>
      <trkpt lat="49.39929" lon="1.76773">
        <ele>165.9521484375</ele>
        <time>2017-05-01T06:51:39.000Z</time>
      </trkpt>
      <trkpt lat="49.39931" lon="1.76771">
        <ele>166.10632324219</ele>
        <time>2017-05-01T06:51:41.000Z</time>
      </trkpt>
      <trkpt lat="49.39933" lon="1.76767">
        <ele>166.25793457031</ele>
        <time>2017-05-01T06:51:43.000Z</time>
      </trkpt>
      <trkpt lat="49.39936" lon="1.76763">
        <ele>166.42712402344</ele>
        <time>2017-05-01T06:51:46.000Z</time>
      </trkpt>
      <trkpt lat="49.39939" lon="1.76761">
        <ele>166.59606933594</ele>
        <time>2017-05-01T06:51:49.000Z</time>
      </trkpt>
      <trkpt lat="49.39942" lon="1.76759">
        <ele>166.7890625</ele>
        <time>2017-05-01T06:51:51.000Z</time>
      </trkpt>
      <trkpt lat="49.39945" lon="1.76756">
        <ele>166.99682617188</ele>
        <time>2017-05-01T06:51:54.000Z</time>
      </trkpt>
      <trkpt lat="49.39947" lon="1.76753">
        <ele>167.20642089844</ele>
        <time>2017-05-01T06:51:56.000Z</time>
      </trkpt>
      <trkpt lat="49.3995" lon="1.76748">
        <ele>167.38896179199</ele>
        <time>2017-05-01T06:51:59.000Z</time>
      </trkpt>
      <trkpt lat="49.39953" lon="1.76744">
        <ele>167.54963684082</ele>
        <time>2017-05-01T06:52:02.000Z</time>
      </trkpt>
      <trkpt lat="49.39956" lon="1.76739">
        <ele>167.68769836426</ele>
        <time>2017-05-01T06:52:05.000Z</time>
      </trkpt>
      <trkpt lat="49.39958" lon="1.76735">
        <ele>167.78866577148</ele>
        <time>2017-05-01T06:52:07.000Z</time>
      </trkpt>
      <trkpt lat="49.3996" lon="1.7673">
        <ele>167.86387634277</ele>
        <time>2017-05-01T06:52:10.000Z</time>
      </trkpt>
      <trkpt lat="49.39962" lon="1.76724">
        <ele>167.91360473633</ele>
        <time>2017-05-01T06:52:13.000Z</time>
      </trkpt>
      <trkpt lat="49.39963" lon="1.76719">
        <ele>167.96170043945</ele>
        <time>2017-05-01T06:52:16.000Z</time>
      </trkpt>
      <trkpt lat="49.39964" lon="1.76717">
        <ele>168.01582336426</ele>
        <time>2017-05-01T06:52:18.000Z</time>
      </trkpt>
      <trkpt lat="49.39967" lon="1.76714">
        <ele>168.10234069824</ele>
        <time>2017-05-01T06:52:20.000Z</time>
      </trkpt>
      <trkpt lat="49.39973" lon="1.76708">
        <ele>168.24809265137</ele>
        <time>2017-05-01T06:52:23.000Z</time>
      </trkpt>
      <trkpt lat="49.39978" lon="1.76701">
        <ele>168.47512817383</ele>
        <time>2017-05-01T06:52:26.000Z</time>
      </trkpt>
      <trkpt lat="49.3998" lon="1.76697">
        <ele>168.74334716797</ele>
        <time>2017-05-01T06:52:28.000Z</time>
      </trkpt>
      <trkpt lat="49.39982" lon="1.76694">
        <ele>169.02401733398</ele>
        <time>2017-05-01T06:52:31.000Z</time>
      </trkpt>
      <trkpt lat="49.39984" lon="1.7669">
        <ele>169.31394958496</ele>
        <time>2017-05-01T06:52:34.000Z</time>
      </trkpt>
      <trkpt lat="49.39986" lon="1.76687">
        <ele>169.59182739258</ele>
        <time>2017-05-01T06:52:36.000Z</time>
      </trkpt>
      <trkpt lat="49.39989" lon="1.76684">
        <ele>169.83145141602</ele>
        <time>2017-05-01T06:52:38.000Z</time>
      </trkpt>
      <trkpt lat="49.39991" lon="1.76678">
        <ele>170.10893249512</ele>
        <time>2017-05-01T06:52:41.000Z</time>
      </trkpt>
      <trkpt lat="49.39993" lon="1.76673">
        <ele>170.42150878906</ele>
        <time>2017-05-01T06:52:43.000Z</time>
      </trkpt>
      <trkpt lat="49.39996" lon="1.76669">
        <ele>170.75971984863</ele>
        <time>2017-05-01T06:52:45.000Z</time>
      </trkpt>
      <trkpt lat="49.39999" lon="1.76665">
        <ele>171.12670898438</ele>
        <time>2017-05-01T06:52:48.000Z</time>
      </trkpt>
      <trkpt lat="49.40002" lon="1.76662">
        <ele>171.46044921875</ele>
        <time>2017-05-01T06:52:50.000Z</time>
      </trkpt>
      <trkpt lat="49.40004" lon="1.76659">
        <ele>171.70541381836</ele>
        <time>2017-05-01T06:52:52.000Z</time>
      </trkpt>
      <trkpt lat="49.40007" lon="1.76656">
        <ele>171.87882995605</ele>
        <time>2017-05-01T06:52:55.000Z</time>
      </trkpt>
      <trkpt lat="49.4001" lon="1.76653">
        <ele>171.96940612793</ele>
        <time>2017-05-01T06:52:57.000Z</time>
      </trkpt>
      <trkpt lat="49.40012" lon="1.7665">
        <ele>171.96537780762</ele>
        <time>2017-05-01T06:52:59.000Z</time>
      </trkpt>
      <trkpt lat="49.40014" lon="1.76646">
        <ele>171.94200134277</ele>
        <time>2017-05-01T06:53:01.000Z</time>
      </trkpt>
      <trkpt lat="49.40018" lon="1.76643">
        <ele>171.91232299805</ele>
        <time>2017-05-01T06:53:04.000Z</time>
      </trkpt>
      <trkpt lat="49.40022" lon="1.76638">
        <ele>171.88305664062</ele>
        <time>2017-05-01T06:53:07.000Z</time>
      </trkpt>
      <trkpt lat="49.40026" lon="1.76634">
        <ele>171.84841918945</ele>
        <time>2017-05-01T06:53:10.000Z</time>
      </trkpt>
      <trkpt lat="49.40031" lon="1.7663">
        <ele>171.80413818359</ele>
        <time>2017-05-01T06:53:13.000Z</time>
      </trkpt>
      <trkpt lat="49.40036" lon="1.76626">
        <ele>171.74813842773</ele>
        <time>2017-05-01T06:53:15.000Z</time>
      </trkpt>
      <trkpt lat="49.40043" lon="1.7662">
        <ele>171.6833190918</ele>
        <time>2017-05-01T06:53:19.000Z</time>
      </trkpt>
      <trkpt lat="49.40047" lon="1.76615">
        <ele>171.61279296875</ele>
        <time>2017-05-01T06:53:20.000Z</time>
      </trkpt>
      <trkpt lat="49.40054" lon="1.76609">
        <ele>171.53944396973</ele>
        <time>2017-05-01T06:53:23.000Z</time>
      </trkpt>
      <trkpt lat="49.40058" lon="1.76606">
        <ele>171.47113037109</ele>
        <time>2017-05-01T06:53:25.000Z</time>
      </trkpt>
      <trkpt lat="49.40063" lon="1.766">
        <ele>171.40148925781</ele>
        <time>2017-05-01T06:53:28.000Z</time>
      </trkpt>
      <trkpt lat="49.40069" lon="1.76596">
        <ele>171.33433532715</ele>
        <time>2017-05-01T06:53:31.000Z</time>
      </trkpt>
      <trkpt lat="49.40075" lon="1.76592">
        <ele>171.26264953613</ele>
        <time>2017-05-01T06:53:34.000Z</time>
      </trkpt>
      <trkpt lat="49.40078" lon="1.76589">
        <ele>171.1982421875</ele>
        <time>2017-05-01T06:53:36.000Z</time>
      </trkpt>
      <trkpt lat="49.40081" lon="1.76587">
        <ele>171.1321105957</ele>
        <time>2017-05-01T06:53:38.000Z</time>
      </trkpt>
      <trkpt lat="49.40085" lon="1.76584">
        <ele>171.08850097656</ele>
        <time>2017-05-01T06:53:40.000Z</time>
      </trkpt>
      <trkpt lat="49.4009" lon="1.76581">
        <ele>171.12582397461</ele>
        <time>2017-05-01T06:53:43.000Z</time>
      </trkpt>
      <trkpt lat="49.40094" lon="1.76579">
        <ele>171.23272705078</ele>
        <time>2017-05-01T06:53:45.000Z</time>
      </trkpt>
      <trkpt lat="49.40097" lon="1.76576">
        <ele>171.39932250977</ele>
        <time>2017-05-01T06:53:47.000Z</time>
      </trkpt>
      <trkpt lat="49.40102" lon="1.76571">
        <ele>171.6544342041</ele>
        <time>2017-05-01T06:53:50.000Z</time>
      </trkpt>
      <trkpt lat="49.40106" lon="1.76567">
        <ele>171.95674133301</ele>
        <time>2017-05-01T06:53:52.000Z</time>
      </trkpt>
      <trkpt lat="49.40114" lon="1.76564">
        <ele>172.28012084961</ele>
        <time>2017-05-01T06:53:55.000Z</time>
      </trkpt>
      <trkpt lat="49.40121" lon="1.76559">
        <ele>172.63107299805</ele>
        <time>2017-05-01T06:53:58.000Z</time>
      </trkpt>
      <trkpt lat="49.40126" lon="1.76555">
        <ele>172.99755859375</ele>
        <time>2017-05-01T06:54:01.000Z</time>
      </trkpt>
      <trkpt lat="49.40131" lon="1.7655">
        <ele>173.34225463867</ele>
        <time>2017-05-01T06:54:04.000Z</time>
      </trkpt>
      <trkpt lat="49.40134" lon="1.76547">
        <ele>173.66714477539</ele>
        <time>2017-05-01T06:54:06.000Z</time>
      </trkpt>
      <trkpt lat="49.40137" lon="1.76544">
        <ele>173.95043945312</ele>
        <time>2017-05-01T06:54:08.000Z</time>
      </trkpt>
      <trkpt lat="49.40142" lon="1.7654">
        <ele>174.19584655762</ele>
        <time>2017-05-01T06:54:11.000Z</time>
      </trkpt>
      <trkpt lat="49.40145" lon="1.76536">
        <ele>174.42004394531</ele>
        <time>2017-05-01T06:54:14.000Z</time>
      </trkpt>
      <trkpt lat="49.40149" lon="1.76531">
        <ele>174.62687683105</ele>
        <time>2017-05-01T06:54:16.000Z</time>
      </trkpt>
      <trkpt lat="49.40157" lon="1.76525">
        <ele>174.87171936035</ele>
        <time>2017-05-01T06:54:19.000Z</time>
      </trkpt>
      <trkpt lat="49.40165" lon="1.76517">
        <ele>175.1346282959</ele>
        <time>2017-05-01T06:54:22.000Z</time>
      </trkpt>
      <trkpt lat="49.4017" lon="1.76509">
        <ele>175.41003417969</ele>
        <time>2017-05-01T06:54:25.000Z</time>
      </trkpt>
      <trkpt lat="49.40176" lon="1.76503">
        <ele>175.70379638672</ele>
        <time>2017-05-01T06:54:28.000Z</time>
      </trkpt>
      <trkpt lat="49.40181" lon="1.76496">
        <ele>176.01628112793</ele>
        <time>2017-05-01T06:54:31.000Z</time>
      </trkpt>
      <trkpt lat="49.40186" lon="1.7649">
        <ele>176.3098449707</ele>
        <time>2017-05-01T06:54:33.000Z</time>
      </trkpt>
      <trkpt lat="49.4019" lon="1.76484">
        <ele>176.59687805176</ele>
        <time>2017-05-01T06:54:35.000Z</time>
      </trkpt>
      <trkpt lat="49.40194" lon="1.76475">
        <ele>176.89350891113</ele>
        <time>2017-05-01T06:54:38.000Z</time>
      </trkpt>
      <trkpt lat="49.40197" lon="1.76469">
        <ele>177.17121887207</ele>
        <time>2017-05-01T06:54:40.000Z</time>
      </trkpt>
      <trkpt lat="49.40202" lon="1.76461">
        <ele>177.45021057129</ele>
        <time>2017-05-01T06:54:43.000Z</time>
      </trkpt>
      <trkpt lat="49.40206" lon="1.76453">
        <ele>177.73223876953</ele>
        <time>2017-05-01T06:54:46.000Z</time>
      </trkpt>
      <trkpt lat="49.40208" lon="1.76449">
        <ele>177.98403930664</ele>
        <time>2017-05-01T06:54:48.000Z</time>
      </trkpt>
      <trkpt lat="49.40212" lon="1.76442">
        <ele>178.21687316895</ele>
        <time>2017-05-01T06:54:51.000Z</time>
      </trkpt>
      <trkpt lat="49.40217" lon="1.76435">
        <ele>178.45684814453</ele>
        <time>2017-05-01T06:54:54.000Z</time>
      </trkpt>
      <trkpt lat="49.4022" lon="1.76429">
        <ele>178.66957092285</ele>
        <time>2017-05-01T06:54:56.000Z</time>
      </trkpt>
      <trkpt lat="49.40225" lon="1.76421">
        <ele>178.87814331055</ele>
        <time>2017-05-01T06:54:59.000Z</time>
      </trkpt>
      <trkpt lat="49.40229" lon="1.76415">
        <ele>179.09342956543</ele>
        <time>2017-05-01T06:55:02.000Z</time>
      </trkpt>
      <trkpt lat="49.40233" lon="1.76408">
        <ele>179.28176879883</ele>
        <time>2017-05-01T06:55:05.000Z</time>
      </trkpt>
      <trkpt lat="49.40236" lon="1.76403">
        <ele>179.43276977539</ele>
        <time>2017-05-01T06:55:07.000Z</time>
      </trkpt>
      <trkpt lat="49.4024" lon="1.76394">
        <ele>179.5729675293</ele>
        <time>2017-05-01T06:55:10.000Z</time>
      </trkpt>
      <trkpt lat="49.40244" lon="1.76388">
        <ele>179.67578125</ele>
        <time>2017-05-01T06:55:12.000Z</time>
      </trkpt>
      <trkpt lat="49.40249" lon="1.76379">
        <ele>179.771484375</ele>
        <time>2017-05-01T06:55:15.000Z</time>
      </trkpt>
      <trkpt lat="49.40252" lon="1.76374">
        <ele>179.86361694336</ele>
        <time>2017-05-01T06:55:17.000Z</time>
      </trkpt>
      <trkpt lat="49.40256" lon="1.76366">
        <ele>179.96798706055</ele>
        <time>2017-05-01T06:55:20.000Z</time>
      </trkpt>
      <trkpt lat="49.40259" lon="1.76361">
        <ele>180.07002258301</ele>
        <time>2017-05-01T06:55:22.000Z</time>
      </trkpt>
      <trkpt lat="49.4026" lon="1.76358">
        <ele>180.16514587402</ele>
        <time>2017-05-01T06:55:24.000Z</time>
      </trkpt>
      <trkpt lat="49.40265" lon="1.7635">
        <ele>180.27001953125</ele>
        <time>2017-05-01T06:55:27.000Z</time>
      </trkpt>
      <trkpt lat="49.40269" lon="1.76343">
        <ele>180.38719177246</ele>
        <time>2017-05-01T06:55:29.000Z</time>
      </trkpt>
      <trkpt lat="49.40273" lon="1.76333">
        <ele>180.51876831055</ele>
        <time>2017-05-01T06:55:32.000Z</time>
      </trkpt>
      <trkpt lat="49.40277" lon="1.76323">
        <ele>180.66049194336</ele>
        <time>2017-05-01T06:55:35.000Z</time>
      </trkpt>
      <trkpt lat="49.40281" lon="1.76317">
        <ele>180.81692504883</ele>
        <time>2017-05-01T06:55:37.000Z</time>
      </trkpt>
      <trkpt lat="49.40286" lon="1.76307">
        <ele>180.97923278809</ele>
        <time>2017-05-01T06:55:40.000Z</time>
      </trkpt>
      <trkpt lat="49.40288" lon="1.76301">
        <ele>181.125</ele>
        <time>2017-05-01T06:55:42.000Z</time>
      </trkpt>
      <trkpt lat="49.40291" lon="1.76292">
        <ele>181.25390625</ele>
        <time>2017-05-01T06:55:45.000Z</time>
      </trkpt>
      <trkpt lat="49.40296" lon="1.76284">
        <ele>181.388671875</ele>
        <time>2017-05-01T06:55:48.000Z</time>
      </trkpt>
      <trkpt lat="49.40299" lon="1.76278">
        <ele>181.517578125</ele>
        <time>2017-05-01T06:55:50.000Z</time>
      </trkpt>
      <trkpt lat="49.40304" lon="1.76267">
        <ele>181.646484375</ele>
        <time>2017-05-01T06:55:53.000Z</time>
      </trkpt>
      <trkpt lat="49.40308" lon="1.76255">
        <ele>181.79296875</ele>
        <time>2017-05-01T06:55:56.000Z</time>
      </trkpt>
      <trkpt lat="49.40311" lon="1.76249">
        <ele>181.9361114502</ele>
        <time>2017-05-01T06:55:58.000Z</time>
      </trkpt>
      <trkpt lat="49.40316" lon="1.76243">
        <ele>182.09782409668</ele>
        <time>2017-05-01T06:56:00.000Z</time>
      </trkpt>
      <trkpt lat="49.4032" lon="1.76235">
        <ele>182.28727722168</ele>
        <time>2017-05-01T06:56:03.000Z</time>
      </trkpt>
      <trkpt lat="49.40322" lon="1.76231">
        <ele>182.45486450195</ele>
        <time>2017-05-01T06:56:05.000Z</time>
      </trkpt>
      <trkpt lat="49.40326" lon="1.76227">
        <ele>182.61209106445</ele>
        <time>2017-05-01T06:56:07.000Z</time>
      </trkpt>
      <trkpt lat="49.40334" lon="1.76219">
        <ele>182.77363586426</ele>
        <time>2017-05-01T06:56:10.000Z</time>
      </trkpt>
      <trkpt lat="49.40338" lon="1.7621">
        <ele>182.91073608398</ele>
        <time>2017-05-01T06:56:13.000Z</time>
      </trkpt>
      <trkpt lat="49.40343" lon="1.76199">
        <ele>183.03770446777</ele>
        <time>2017-05-01T06:56:16.000Z</time>
      </trkpt>
      <trkpt lat="49.40347" lon="1.76191">
        <ele>183.177734375</ele>
        <time>2017-05-01T06:56:18.000Z</time>
      </trkpt>
      <trkpt lat="49.40352" lon="1.7618">
        <ele>183.333984375</ele>
        <time>2017-05-01T06:56:21.000Z</time>
      </trkpt>
      <trkpt lat="49.40358" lon="1.76169">
        <ele>183.5068359375</ele>
        <time>2017-05-01T06:56:24.000Z</time>
      </trkpt>
      <trkpt lat="49.40365" lon="1.76156">
        <ele>183.71841430664</ele>
        <time>2017-05-01T06:56:27.000Z</time>
      </trkpt>
      <trkpt lat="49.40372" lon="1.76146">
        <ele>183.95588684082</ele>
        <time>2017-05-01T06:56:30.000Z</time>
      </trkpt>
      <trkpt lat="49.40375" lon="1.76146">
        <ele>184.17947387695</ele>
        <time>2017-05-01T06:56:32.000Z</time>
      </trkpt>
      <trkpt lat="49.40382" lon="1.76152">
        <ele>184.41091918945</ele>
        <time>2017-05-01T06:56:35.000Z</time>
      </trkpt>
      <trkpt lat="49.40385" lon="1.7616">
        <ele>184.6162109375</ele>
        <time>2017-05-01T06:56:37.000Z</time>
      </trkpt>
      <trkpt lat="49.40389" lon="1.76168">
        <ele>184.77377319336</ele>
        <time>2017-05-01T06:56:39.000Z</time>
      </trkpt>
      <trkpt lat="49.40392" lon="1.76177">
        <ele>184.89079284668</ele>
        <time>2017-05-01T06:56:41.000Z</time>
      </trkpt>
      <trkpt lat="49.40397" lon="1.76189">
        <ele>185.02462768555</ele>
        <time>2017-05-01T06:56:44.000Z</time>
      </trkpt>
      <trkpt lat="49.40401" lon="1.76197">
        <ele>185.15060424805</ele>
        <time>2017-05-01T06:56:46.000Z</time>
      </trkpt>
      <trkpt lat="49.40406" lon="1.76205">
        <ele>185.291015625</ele>
        <time>2017-05-01T06:56:48.000Z</time>
      </trkpt>
      <trkpt lat="49.40412" lon="1.76221">
        <ele>185.4580078125</ele>
        <time>2017-05-01T06:56:51.000Z</time>
      </trkpt>
      <trkpt lat="49.40417" lon="1.76233">
        <ele>185.6376953125</ele>
        <time>2017-05-01T06:56:53.000Z</time>
      </trkpt>
      <trkpt lat="49.40425" lon="1.7625">
        <ele>185.80157470703</ele>
        <time>2017-05-01T06:56:56.000Z</time>
      </trkpt>
      <trkpt lat="49.40433" lon="1.76266">
        <ele>185.90979003906</ele>
        <time>2017-05-01T06:56:59.000Z</time>
      </trkpt>
      <trkpt lat="49.40437" lon="1.76275">
        <ele>185.97698974609</ele>
        <time>2017-05-01T06:57:01.000Z</time>
      </trkpt>
      <trkpt lat="49.40441" lon="1.7629">
        <ele>185.97259521484</ele>
        <time>2017-05-01T06:57:04.000Z</time>
      </trkpt>
      <trkpt lat="49.40446" lon="1.76299">
        <ele>185.92242431641</ele>
        <time>2017-05-01T06:57:06.000Z</time>
      </trkpt>
      <trkpt lat="49.40454" lon="1.76314">
        <ele>185.84024047852</ele>
        <time>2017-05-01T06:57:09.000Z</time>
      </trkpt>
      <trkpt lat="49.4046" lon="1.76324">
        <ele>185.76748657227</ele>
        <time>2017-05-01T06:57:11.000Z</time>
      </trkpt>
      <trkpt lat="49.40466" lon="1.76339">
        <ele>185.6774597168</ele>
        <time>2017-05-01T06:57:14.000Z</time>
      </trkpt>
      <trkpt lat="49.40474" lon="1.76359">
        <ele>185.54971313477</ele>
        <time>2017-05-01T06:57:17.000Z</time>
      </trkpt>
      <trkpt lat="49.40482" lon="1.76375">
        <ele>185.37670898438</ele>
        <time>2017-05-01T06:57:20.000Z</time>
      </trkpt>
      <trkpt lat="49.4049" lon="1.76395">
        <ele>185.13711547852</ele>
        <time>2017-05-01T06:57:23.000Z</time>
      </trkpt>
      <trkpt lat="49.40496" lon="1.7641">
        <ele>184.84159851074</ele>
        <time>2017-05-01T06:57:26.000Z</time>
      </trkpt>
      <trkpt lat="49.40504" lon="1.76429">
        <ele>184.5505065918</ele>
        <time>2017-05-01T06:57:29.000Z</time>
      </trkpt>
      <trkpt lat="49.40514" lon="1.76451">
        <ele>184.37551879883</ele>
        <time>2017-05-01T06:57:32.000Z</time>
      </trkpt>
      <trkpt lat="49.40524" lon="1.76469">
        <ele>184.34019470215</ele>
        <time>2017-05-01T06:57:34.000Z</time>
      </trkpt>
      <trkpt lat="49.40534" lon="1.76489">
        <ele>184.46353149414</ele>
        <time>2017-05-01T06:57:36.000Z</time>
      </trkpt>
      <trkpt lat="49.40546" lon="1.76513">
        <ele>184.62020874023</ele>
        <time>2017-05-01T06:57:39.000Z</time>
      </trkpt>
      <trkpt lat="49.40561" lon="1.76518">
        <ele>184.88290405273</ele>
        <time>2017-05-01T06:57:42.000Z</time>
      </trkpt>
      <trkpt lat="49.4056" lon="1.76552">
        <ele>184.60818481445</ele>
        <time>2017-05-01T06:57:45.000Z</time>
      </trkpt>
      <trkpt lat="49.40574" lon="1.76575">
        <ele>183.9709777832</ele>
        <time>2017-05-01T06:57:48.000Z</time>
      </trkpt>
      <trkpt lat="49.40585" lon="1.76611">
        <ele>182.80342102051</ele>
        <time>2017-05-01T06:57:51.000Z</time>
      </trkpt>
      <trkpt lat="49.40597" lon="1.76622">
        <ele>181.46829223633</ele>
        <time>2017-05-01T06:57:53.000Z</time>
      </trkpt>
      <trkpt lat="49.40616" lon="1.76638">
        <ele>179.73023986816</ele>
        <time>2017-05-01T06:57:56.000Z</time>
      </trkpt>
      <trkpt lat="49.40625" lon="1.76651">
        <ele>178.25701904297</ele>
        <time>2017-05-01T06:57:59.000Z</time>
      </trkpt>
      <trkpt lat="49.40643" lon="1.76649">
        <ele>176.96669006348</ele>
        <time>2017-05-01T06:58:02.000Z</time>
      </trkpt>
      <trkpt lat="49.40652" lon="1.76641">
        <ele>176.17332458496</ele>
        <time>2017-05-01T06:58:04.000Z</time>
      </trkpt>
      <trkpt lat="49.40662" lon="1.76638">
        <ele>175.56233215332</ele>
        <time>2017-05-01T06:58:06.000Z</time>
      </trkpt>
      <trkpt lat="49.4067" lon="1.76633">
        <ele>175.3254699707</ele>
        <time>2017-05-01T06:58:08.000Z</time>
      </trkpt>
      <trkpt lat="49.40678" lon="1.76628">
        <ele>175.40879821777</ele>
        <time>2017-05-01T06:58:10.000Z</time>
      </trkpt>
      <trkpt lat="49.40684" lon="1.76624">
        <ele>175.64279174805</ele>
        <time>2017-05-01T06:58:12.000Z</time>
      </trkpt>
      <trkpt lat="49.40687" lon="1.76621">
        <ele>175.86917114258</ele>
        <time>2017-05-01T06:58:14.000Z</time>
      </trkpt>
      <trkpt lat="49.40692" lon="1.76616">
        <ele>176.17910766602</ele>
        <time>2017-05-01T06:58:17.000Z</time>
      </trkpt>
      <trkpt lat="49.40698" lon="1.7661">
        <ele>176.49742126465</ele>
        <time>2017-05-01T06:58:20.000Z</time>
      </trkpt>
      <trkpt lat="49.40703" lon="1.76603">
        <ele>176.76345825195</ele>
        <time>2017-05-01T06:58:23.000Z</time>
      </trkpt>
      <trkpt lat="49.40707" lon="1.76599">
        <ele>177.00241088867</ele>
        <time>2017-05-01T06:58:25.000Z</time>
      </trkpt>
      <trkpt lat="49.40712" lon="1.76593">
        <ele>177.23654174805</ele>
        <time>2017-05-01T06:58:28.000Z</time>
      </trkpt>
      <trkpt lat="49.40715" lon="1.76588">
        <ele>177.42318725586</ele>
        <time>2017-05-01T06:58:30.000Z</time>
      </trkpt>
      <trkpt lat="49.40719" lon="1.76583">
        <ele>177.55941772461</ele>
        <time>2017-05-01T06:58:32.000Z</time>
      </trkpt>
      <trkpt lat="49.40724" lon="1.76576">
        <ele>177.66690063477</ele>
        <time>2017-05-01T06:58:35.000Z</time>
      </trkpt>
      <trkpt lat="49.40727" lon="1.76571">
        <ele>177.75886535645</ele>
        <time>2017-05-01T06:58:37.000Z</time>
      </trkpt>
      <trkpt lat="49.40731" lon="1.76565">
        <ele>177.81985473633</ele>
        <time>2017-05-01T06:58:40.000Z</time>
      </trkpt>
      <trkpt lat="49.40735" lon="1.7656">
        <ele>177.85928344727</ele>
        <time>2017-05-01T06:58:42.000Z</time>
      </trkpt>
      <trkpt lat="49.40738" lon="1.76556">
        <ele>177.87812805176</ele>
        <time>2017-05-01T06:58:44.000Z</time>
      </trkpt>
      <trkpt lat="49.40744" lon="1.7655">
        <ele>177.84757995605</ele>
        <time>2017-05-01T06:58:47.000Z</time>
      </trkpt>
      <trkpt lat="49.40747" lon="1.76546">
        <ele>177.78756713867</ele>
        <time>2017-05-01T06:58:49.000Z</time>
      </trkpt>
      <trkpt lat="49.40751" lon="1.76542">
        <ele>177.70639038086</ele>
        <time>2017-05-01T06:58:51.000Z</time>
      </trkpt>
      <trkpt lat="49.40755" lon="1.76537">
        <ele>177.67782592773</ele>
        <time>2017-05-01T06:58:54.000Z</time>
      </trkpt>
      <trkpt lat="49.40758" lon="1.76533">
        <ele>177.6890411377</ele>
        <time>2017-05-01T06:58:56.000Z</time>
      </trkpt>
      <trkpt lat="49.40763" lon="1.76527">
        <ele>177.77793884277</ele>
        <time>2017-05-01T06:58:59.000Z</time>
      </trkpt>
      <trkpt lat="49.40767" lon="1.76523">
        <ele>177.92178344727</ele>
        <time>2017-05-01T06:59:01.000Z</time>
      </trkpt>
      <trkpt lat="49.4077" lon="1.76519">
        <ele>178.11401367188</ele>
        <time>2017-05-01T06:59:03.000Z</time>
      </trkpt>
      <trkpt lat="49.40774" lon="1.76514">
        <ele>178.30706787109</ele>
        <time>2017-05-01T06:59:06.000Z</time>
      </trkpt>
      <trkpt lat="49.40777" lon="1.7651">
        <ele>178.50051879883</ele>
        <time>2017-05-01T06:59:08.000Z</time>
      </trkpt>
      <trkpt lat="49.40781" lon="1.76503">
        <ele>178.68977355957</ele>
        <time>2017-05-01T06:59:11.000Z</time>
      </trkpt>
      <trkpt lat="49.40785" lon="1.76499">
        <ele>178.88391113281</ele>
        <time>2017-05-01T06:59:13.000Z</time>
      </trkpt>
      <trkpt lat="49.4079" lon="1.76493">
        <ele>179.11270141602</ele>
        <time>2017-05-01T06:59:16.000Z</time>
      </trkpt>
      <trkpt lat="49.40793" lon="1.76489">
        <ele>179.33004760742</ele>
        <time>2017-05-01T06:59:18.000Z</time>
      </trkpt>
      <trkpt lat="49.40796" lon="1.76484">
        <ele>179.55868530273</ele>
        <time>2017-05-01T06:59:20.000Z</time>
      </trkpt>
      <trkpt lat="49.40799" lon="1.7648">
        <ele>179.78312683105</ele>
        <time>2017-05-01T06:59:22.000Z</time>
      </trkpt>
      <trkpt lat="49.40802" lon="1.76476">
        <ele>179.9990234375</ele>
        <time>2017-05-01T06:59:24.000Z</time>
      </trkpt>
      <trkpt lat="49.40807" lon="1.7647">
        <ele>180.20310974121</ele>
        <time>2017-05-01T06:59:27.000Z</time>
      </trkpt>
      <trkpt lat="49.40812" lon="1.76463">
        <ele>180.4241027832</ele>
        <time>2017-05-01T06:59:30.000Z</time>
      </trkpt>
      <trkpt lat="49.40815" lon="1.76458">
        <ele>180.63888549805</ele>
        <time>2017-05-01T06:59:32.000Z</time>
      </trkpt>
      <trkpt lat="49.40819" lon="1.7645">
        <ele>180.85661315918</ele>
        <time>2017-05-01T06:59:35.000Z</time>
      </trkpt>
      <trkpt lat="49.40822" lon="1.76444">
        <ele>181.07292175293</ele>
        <time>2017-05-01T06:59:37.000Z</time>
      </trkpt>
      <trkpt lat="49.40826" lon="1.76436">
        <ele>181.27700805664</ele>
        <time>2017-05-01T06:59:40.000Z</time>
      </trkpt>
      <trkpt lat="49.40831" lon="1.7643">
        <ele>181.45460510254</ele>
        <time>2017-05-01T06:59:43.000Z</time>
      </trkpt>
      <trkpt lat="49.40835" lon="1.76427">
        <ele>181.62257385254</ele>
        <time>2017-05-01T06:59:45.000Z</time>
      </trkpt>
      <trkpt lat="49.40841" lon="1.7642">
        <ele>181.79415893555</ele>
        <time>2017-05-01T06:59:48.000Z</time>
      </trkpt>
      <trkpt lat="49.40845" lon="1.76414">
        <ele>181.97731018066</ele>
        <time>2017-05-01T06:59:50.000Z</time>
      </trkpt>
      <trkpt lat="49.40849" lon="1.7641">
        <ele>182.16842651367</ele>
        <time>2017-05-01T06:59:52.000Z</time>
      </trkpt>
      <trkpt lat="49.40853" lon="1.76404">
        <ele>182.38801574707</ele>
        <time>2017-05-01T06:59:54.000Z</time>
      </trkpt>
      <trkpt lat="49.40859" lon="1.76396">
        <ele>182.66320800781</ele>
        <time>2017-05-01T06:59:57.000Z</time>
      </trkpt>
      <trkpt lat="49.40863" lon="1.7639">
        <ele>182.94081115723</ele>
        <time>2017-05-01T06:59:59.000Z</time>
      </trkpt>
      <trkpt lat="49.40866" lon="1.76385">
        <ele>183.22354125977</ele>
        <time>2017-05-01T07:00:01.000Z</time>
      </trkpt>
      <trkpt lat="49.40872" lon="1.76378">
        <ele>183.52563476562</ele>
        <time>2017-05-01T07:00:04.000Z</time>
      </trkpt>
      <trkpt lat="49.40878" lon="1.76371">
        <ele>183.82905578613</ele>
        <time>2017-05-01T07:00:07.000Z</time>
      </trkpt>
      <trkpt lat="49.40881" lon="1.76366">
        <ele>184.09274291992</ele>
        <time>2017-05-01T07:00:09.000Z</time>
      </trkpt>
      <trkpt lat="49.40886" lon="1.76359">
        <ele>184.36569213867</ele>
        <time>2017-05-01T07:00:12.000Z</time>
      </trkpt>
      <trkpt lat="49.4089" lon="1.76356">
        <ele>184.62133789062</ele>
        <time>2017-05-01T07:00:14.000Z</time>
      </trkpt>
      <trkpt lat="49.40895" lon="1.76356">
        <ele>184.82377624512</ele>
        <time>2017-05-01T07:00:16.000Z</time>
      </trkpt>
      <trkpt lat="49.40902" lon="1.76358">
        <ele>184.97471618652</ele>
        <time>2017-05-01T07:00:19.000Z</time>
      </trkpt>
      <trkpt lat="49.40908" lon="1.76363">
        <ele>185.08416748047</ele>
        <time>2017-05-01T07:00:22.000Z</time>
      </trkpt>
      <trkpt lat="49.40914" lon="1.76365">
        <ele>185.13946533203</ele>
        <time>2017-05-01T07:00:24.000Z</time>
      </trkpt>
      <trkpt lat="49.40918" lon="1.76367">
        <ele>185.18171691895</ele>
        <time>2017-05-01T07:00:26.000Z</time>
      </trkpt>
      <trkpt lat="49.40924" lon="1.76371">
        <ele>185.27474975586</ele>
        <time>2017-05-01T07:00:29.000Z</time>
      </trkpt>
      <trkpt lat="49.40928" lon="1.76373">
        <ele>185.3962097168</ele>
        <time>2017-05-01T07:00:31.000Z</time>
      </trkpt>
      <trkpt lat="49.40934" lon="1.76377">
        <ele>185.57632446289</ele>
        <time>2017-05-01T07:00:34.000Z</time>
      </trkpt>
      <trkpt lat="49.4094" lon="1.76379">
        <ele>185.82609558105</ele>
        <time>2017-05-01T07:00:37.000Z</time>
      </trkpt>
      <trkpt lat="49.40947" lon="1.76381">
        <ele>186.12881469727</ele>
        <time>2017-05-01T07:00:40.000Z</time>
      </trkpt>
      <trkpt lat="49.40954" lon="1.76383">
        <ele>186.45394897461</ele>
        <time>2017-05-01T07:00:43.000Z</time>
      </trkpt>
      <trkpt lat="49.40957" lon="1.76384">
        <ele>186.78454589844</ele>
        <time>2017-05-01T07:00:45.000Z</time>
      </trkpt>
      <trkpt lat="49.40965" lon="1.76386">
        <ele>187.14077758789</ele>
        <time>2017-05-01T07:00:48.000Z</time>
      </trkpt>
      <trkpt lat="49.40969" lon="1.76386">
        <ele>187.4762878418</ele>
        <time>2017-05-01T07:00:50.000Z</time>
      </trkpt>
      <trkpt lat="49.40975" lon="1.7639">
        <ele>187.79797363281</ele>
        <time>2017-05-01T07:00:53.000Z</time>
      </trkpt>
      <trkpt lat="49.40978" lon="1.76393">
        <ele>188.04574584961</ele>
        <time>2017-05-01T07:00:55.000Z</time>
      </trkpt>
      <trkpt lat="49.40985" lon="1.76396">
        <ele>188.32092285156</ele>
        <time>2017-05-01T07:00:58.000Z</time>
      </trkpt>
      <trkpt lat="49.40989" lon="1.76397">
        <ele>188.55624389648</ele>
        <time>2017-05-01T07:01:00.000Z</time>
      </trkpt>
      <trkpt lat="49.40993" lon="1.76397">
        <ele>188.7887878418</ele>
        <time>2017-05-01T07:01:02.000Z</time>
      </trkpt>
      <trkpt lat="49.40995" lon="1.76398">
        <ele>188.98858642578</ele>
        <time>2017-05-01T07:01:04.000Z</time>
      </trkpt>
      <trkpt lat="49.40999" lon="1.76399">
        <ele>189.21112060547</ele>
        <time>2017-05-01T07:01:06.000Z</time>
      </trkpt>
      <trkpt lat="49.41002" lon="1.76401">
        <ele>189.37968444824</ele>
        <time>2017-05-01T07:01:08.000Z</time>
      </trkpt>
      <trkpt lat="49.41007" lon="1.76402">
        <ele>189.5200958252</ele>
        <time>2017-05-01T07:01:10.000Z</time>
      </trkpt>
      <trkpt lat="49.41016" lon="1.76403">
        <ele>189.65756225586</ele>
        <time>2017-05-01T07:01:13.000Z</time>
      </trkpt>
      <trkpt lat="49.41018" lon="1.76405">
        <ele>189.77487182617</ele>
        <time>2017-05-01T07:01:15.000Z</time>
      </trkpt>
      <trkpt lat="49.41016" lon="1.76407">
        <ele>189.83088684082</ele>
        <time>2017-05-01T07:01:18.000Z</time>
      </trkpt>
      <trkpt lat="49.41016" lon="1.76406">
        <ele>189.87808227539</ele>
        <time>2017-05-01T07:01:21.000Z</time>
      </trkpt>
      <trkpt lat="49.41016" lon="1.76408">
        <ele>189.89666748047</ele>
        <time>2017-05-01T07:01:24.000Z</time>
      </trkpt>
      <trkpt lat="49.41016" lon="1.76414">
        <ele>189.83316040039</ele>
        <time>2017-05-01T07:01:26.000Z</time>
      </trkpt>
      <trkpt lat="49.41016" lon="1.76419">
        <ele>189.73431396484</ele>
        <time>2017-05-01T07:01:28.000Z</time>
      </trkpt>
      <trkpt lat="49.41016" lon="1.76429">
        <ele>189.59460449219</ele>
        <time>2017-05-01T07:01:31.000Z</time>
      </trkpt>
      <trkpt lat="49.41013" lon="1.76444">
        <ele>189.32107543945</ele>
        <time>2017-05-01T07:01:34.000Z</time>
      </trkpt>
      <trkpt lat="49.4102" lon="1.76463">
        <ele>188.99443054199</ele>
        <time>2017-05-01T07:01:37.000Z</time>
      </trkpt>
      <trkpt lat="49.41027" lon="1.76474">
        <ele>188.69137573242</ele>
        <time>2017-05-01T07:01:39.000Z</time>
      </trkpt>
      <trkpt lat="49.41034" lon="1.76488">
        <ele>188.39323425293</ele>
        <time>2017-05-01T07:01:41.000Z</time>
      </trkpt>
      <trkpt lat="49.4104" lon="1.76502">
        <ele>188.14482116699</ele>
        <time>2017-05-01T07:01:43.000Z</time>
      </trkpt>
      <trkpt lat="49.4105" lon="1.76519">
        <ele>188.04467773438</ele>
        <time>2017-05-01T07:01:46.000Z</time>
      </trkpt>
      <trkpt lat="49.41054" lon="1.76531">
        <ele>188.0046081543</ele>
        <time>2017-05-01T07:01:48.000Z</time>
      </trkpt>
      <trkpt lat="49.41057" lon="1.76541">
        <ele>187.96145629883</ele>
        <time>2017-05-01T07:01:50.000Z</time>
      </trkpt>
      <trkpt lat="49.41062" lon="1.76557">
        <ele>187.91549682617</ele>
        <time>2017-05-01T07:01:53.000Z</time>
      </trkpt>
      <trkpt lat="49.41065" lon="1.76574">
        <ele>187.84481811523</ele>
        <time>2017-05-01T07:01:56.000Z</time>
      </trkpt>
      <trkpt lat="49.41067" lon="1.76581">
        <ele>187.73606872559</ele>
        <time>2017-05-01T07:01:58.000Z</time>
      </trkpt>
      <trkpt lat="49.4107" lon="1.7659">
        <ele>187.59658813477</ele>
        <time>2017-05-01T07:02:00.000Z</time>
      </trkpt>
      <trkpt lat="49.41074" lon="1.76605">
        <ele>187.39962768555</ele>
        <time>2017-05-01T07:02:03.000Z</time>
      </trkpt>
      <trkpt lat="49.41076" lon="1.76613">
        <ele>187.19190979004</ele>
        <time>2017-05-01T07:02:05.000Z</time>
      </trkpt>
      <trkpt lat="49.41078" lon="1.7662">
        <ele>186.98571777344</ele>
        <time>2017-05-01T07:02:07.000Z</time>
      </trkpt>
      <trkpt lat="49.41083" lon="1.76638">
        <ele>186.69583129883</ele>
        <time>2017-05-01T07:02:10.000Z</time>
      </trkpt>
      <trkpt lat="49.41087" lon="1.76655">
        <ele>186.3607635498</ele>
        <time>2017-05-01T07:02:13.000Z</time>
      </trkpt>
      <trkpt lat="49.4109" lon="1.76666">
        <ele>186.04563903809</ele>
        <time>2017-05-01T07:02:15.000Z</time>
      </trkpt>
      <trkpt lat="49.41095" lon="1.76683">
        <ele>185.75648498535</ele>
        <time>2017-05-01T07:02:18.000Z</time>
      </trkpt>
      <trkpt lat="49.41101" lon="1.76702">
        <ele>185.45962524414</ele>
        <time>2017-05-01T07:02:21.000Z</time>
      </trkpt>
      <trkpt lat="49.41105" lon="1.76717">
        <ele>185.22062683105</ele>
        <time>2017-05-01T07:02:23.000Z</time>
      </trkpt>
      <trkpt lat="49.41113" lon="1.76739">
        <ele>184.96188354492</ele>
        <time>2017-05-01T07:02:26.000Z</time>
      </trkpt>
      <trkpt lat="49.4112" lon="1.76758">
        <ele>184.53213500977</ele>
        <time>2017-05-01T07:02:28.000Z</time>
      </trkpt>
      <trkpt lat="49.41125" lon="1.76776">
        <ele>183.71102905273</ele>
        <time>2017-05-01T07:02:30.000Z</time>
      </trkpt>
      <trkpt lat="49.41136" lon="1.76794">
        <ele>182.47177124023</ele>
        <time>2017-05-01T07:02:33.000Z</time>
      </trkpt>
      <trkpt lat="49.41158" lon="1.76806">
        <ele>180.78349304199</ele>
        <time>2017-05-01T07:02:36.000Z</time>
      </trkpt>
      <trkpt lat="49.4117" lon="1.7681">
        <ele>178.95736694336</ele>
        <time>2017-05-01T07:02:38.000Z</time>
      </trkpt>
      <trkpt lat="49.41182" lon="1.76819">
        <ele>176.9955291748</ele>
        <time>2017-05-01T07:02:40.000Z</time>
      </trkpt>
      <trkpt lat="49.41194" lon="1.76839">
        <ele>174.91775512695</ele>
        <time>2017-05-01T07:02:43.000Z</time>
      </trkpt>
      <trkpt lat="49.41206" lon="1.76866">
        <ele>173.15982055664</ele>
        <time>2017-05-01T07:02:46.000Z</time>
      </trkpt>
      <trkpt lat="49.41211" lon="1.76899">
        <ele>171.87275695801</ele>
        <time>2017-05-01T07:02:49.000Z</time>
      </trkpt>
      <trkpt lat="49.4121" lon="1.76924">
        <ele>170.81605529785</ele>
        <time>2017-05-01T07:02:52.000Z</time>
      </trkpt>
      <trkpt lat="49.41208" lon="1.76941">
        <ele>170.19967651367</ele>
        <time>2017-05-01T07:02:55.000Z</time>
      </trkpt>
      <trkpt lat="49.41206" lon="1.76952">
        <ele>170.14707946777</ele>
        <time>2017-05-01T07:02:57.000Z</time>
      </trkpt>
      <trkpt lat="49.41205" lon="1.76961">
        <ele>170.26405334473</ele>
        <time>2017-05-01T07:03:00.000Z</time>
      </trkpt>
      <trkpt lat="49.41204" lon="1.76972">
        <ele>170.45252990723</ele>
        <time>2017-05-01T07:03:03.000Z</time>
      </trkpt>
      <trkpt lat="49.41202" lon="1.76983">
        <ele>170.66397094727</ele>
        <time>2017-05-01T07:03:06.000Z</time>
      </trkpt>
      <trkpt lat="49.41201" lon="1.76993">
        <ele>170.84440612793</ele>
        <time>2017-05-01T07:03:09.000Z</time>
      </trkpt>
      <trkpt lat="49.41201" lon="1.76998">
        <ele>170.9938659668</ele>
        <time>2017-05-01T07:03:11.000Z</time>
      </trkpt>
      <trkpt lat="49.412" lon="1.77003">
        <ele>171.14141845703</ele>
        <time>2017-05-01T07:03:13.000Z</time>
      </trkpt>
      <trkpt lat="49.41199" lon="1.77014">
        <ele>171.29223632812</ele>
        <time>2017-05-01T07:03:16.000Z</time>
      </trkpt>
      <trkpt lat="49.41198" lon="1.77022">
        <ele>171.43655395508</ele>
        <time>2017-05-01T07:03:19.000Z</time>
      </trkpt>
      <trkpt lat="49.41197" lon="1.77026">
        <ele>171.52975463867</ele>
        <time>2017-05-01T07:03:21.000Z</time>
      </trkpt>
      <trkpt lat="49.41196" lon="1.77031">
        <ele>171.59719848633</ele>
        <time>2017-05-01T07:03:23.000Z</time>
      </trkpt>
      <trkpt lat="49.41194" lon="1.77039">
        <ele>171.65214538574</ele>
        <time>2017-05-01T07:03:26.000Z</time>
      </trkpt>
      <trkpt lat="49.41193" lon="1.77045">
        <ele>171.66874694824</ele>
        <time>2017-05-01T07:03:28.000Z</time>
      </trkpt>
      <trkpt lat="49.41192" lon="1.77051">
        <ele>171.68469238281</ele>
        <time>2017-05-01T07:03:31.000Z</time>
      </trkpt>
      <trkpt lat="49.4119" lon="1.77057">
        <ele>171.6803894043</ele>
        <time>2017-05-01T07:03:34.000Z</time>
      </trkpt>
      <trkpt lat="49.41187" lon="1.77064">
        <ele>171.66268920898</ele>
        <time>2017-05-01T07:03:37.000Z</time>
      </trkpt>
      <trkpt lat="49.41187" lon="1.77069">
        <ele>171.64611816406</ele>
        <time>2017-05-01T07:03:39.000Z</time>
      </trkpt>
      <trkpt lat="49.41187" lon="1.77073">
        <ele>171.64761352539</ele>
        <time>2017-05-01T07:03:42.000Z</time>
      </trkpt>
      <trkpt lat="49.41186" lon="1.77077">
        <ele>171.65507507324</ele>
        <time>2017-05-01T07:03:44.000Z</time>
      </trkpt>
      <trkpt lat="49.41184" lon="1.77083">
        <ele>171.66450500488</ele>
        <time>2017-05-01T07:03:47.000Z</time>
      </trkpt>
      <trkpt lat="49.41184" lon="1.77089">
        <ele>171.74609375</ele>
        <time>2017-05-01T07:03:50.000Z</time>
      </trkpt>
      <trkpt lat="49.41185" lon="1.77094">
        <ele>171.89680480957</ele>
        <time>2017-05-01T07:03:53.000Z</time>
      </trkpt>
      <trkpt lat="49.41185" lon="1.77098">
        <ele>172.0757598877</ele>
        <time>2017-05-01T07:03:55.000Z</time>
      </trkpt>
      <trkpt lat="49.41186" lon="1.77105">
        <ele>172.32727050781</ele>
        <time>2017-05-01T07:03:58.000Z</time>
      </trkpt>
      <trkpt lat="49.41183" lon="1.77114">
        <ele>172.61555480957</ele>
        <time>2017-05-01T07:04:01.000Z</time>
      </trkpt>
      <trkpt lat="49.41182" lon="1.77121">
        <ele>172.89144897461</ele>
        <time>2017-05-01T07:04:03.000Z</time>
      </trkpt>
      <trkpt lat="49.41181" lon="1.7713">
        <ele>173.15400695801</ele>
        <time>2017-05-01T07:04:06.000Z</time>
      </trkpt>
      <trkpt lat="49.41179" lon="1.77139">
        <ele>173.40686035156</ele>
        <time>2017-05-01T07:04:09.000Z</time>
      </trkpt>
      <trkpt lat="49.41177" lon="1.77148">
        <ele>173.62471008301</ele>
        <time>2017-05-01T07:04:12.000Z</time>
      </trkpt>
      <trkpt lat="49.41176" lon="1.77153">
        <ele>173.85241699219</ele>
        <time>2017-05-01T07:04:14.000Z</time>
      </trkpt>
      <trkpt lat="49.41176" lon="1.77157">
        <ele>174.09014892578</ele>
        <time>2017-05-01T07:04:16.000Z</time>
      </trkpt>
      <trkpt lat="49.41176" lon="1.77162">
        <ele>174.3130645752</ele>
        <time>2017-05-01T07:04:18.000Z</time>
      </trkpt>
      <trkpt lat="49.41175" lon="1.7717">
        <ele>174.55055236816</ele>
        <time>2017-05-01T07:04:21.000Z</time>
      </trkpt>
      <trkpt lat="49.41175" lon="1.77175">
        <ele>174.78540039062</ele>
        <time>2017-05-01T07:04:23.000Z</time>
      </trkpt>
      <trkpt lat="49.41174" lon="1.77181">
        <ele>175.04011535645</ele>
        <time>2017-05-01T07:04:25.000Z</time>
      </trkpt>
      <trkpt lat="49.41173" lon="1.77186">
        <ele>175.29382324219</ele>
        <time>2017-05-01T07:04:27.000Z</time>
      </trkpt>
      <trkpt lat="49.41173" lon="1.77193">
        <ele>175.56918334961</ele>
        <time>2017-05-01T07:04:30.000Z</time>
      </trkpt>
      <trkpt lat="49.41173" lon="1.77198">
        <ele>175.83586120605</ele>
        <time>2017-05-01T07:04:33.000Z</time>
      </trkpt>
      <trkpt lat="49.41172" lon="1.77203">
        <ele>176.10397338867</ele>
        <time>2017-05-01T07:04:35.000Z</time>
      </trkpt>
      <trkpt lat="49.41172" lon="1.77208">
        <ele>176.37808227539</ele>
        <time>2017-05-01T07:04:37.000Z</time>
      </trkpt>
      <trkpt lat="49.41172" lon="1.77217">
        <ele>176.70629882812</ele>
        <time>2017-05-01T07:04:40.000Z</time>
      </trkpt>
      <trkpt lat="49.41172" lon="1.77223">
        <ele>177.02653503418</ele>
        <time>2017-05-01T07:04:43.000Z</time>
      </trkpt>
      <trkpt lat="49.41172" lon="1.77228">
        <ele>177.34739685059</ele>
        <time>2017-05-01T07:04:46.000Z</time>
      </trkpt>
      <trkpt lat="49.41171" lon="1.77235">
        <ele>177.67910766602</ele>
        <time>2017-05-01T07:04:49.000Z</time>
      </trkpt>
      <trkpt lat="49.41169" lon="1.7724">
        <ele>177.99447631836</ele>
        <time>2017-05-01T07:04:51.000Z</time>
      </trkpt>
      <trkpt lat="49.41168" lon="1.77244">
        <ele>178.25357055664</ele>
        <time>2017-05-01T07:04:53.000Z</time>
      </trkpt>
      <trkpt lat="49.41168" lon="1.77244">
        <ele>178.25357055664</ele>
        <time>2017-05-01T07:05:13.000Z</time>
      </trkpt>
      <trkpt lat="49.41168" lon="1.77249">
        <ele>178.51281738281</ele>
        <time>2017-05-01T07:06:05.000Z</time>
      </trkpt>
      <trkpt lat="49.41169" lon="1.77248">
        <ele>178.70210266113</ele>
        <time>2017-05-01T07:06:08.000Z</time>
      </trkpt>
      <trkpt lat="49.4117" lon="1.77249">
        <ele>178.85336303711</ele>
        <time>2017-05-01T07:06:16.000Z</time>
      </trkpt>
      <trkpt lat="49.41171" lon="1.7725">
        <ele>178.99420166016</ele>
        <time>2017-05-01T07:06:19.000Z</time>
      </trkpt>
      <trkpt lat="49.41172" lon="1.77251">
        <ele>179.11239624023</ele>
        <time>2017-05-01T07:06:23.000Z</time>
      </trkpt>
      <trkpt lat="49.41173" lon="1.77254">
        <ele>179.19039916992</ele>
        <time>2017-05-01T07:06:26.000Z</time>
      </trkpt>
      <trkpt lat="49.41177" lon="1.77258">
        <ele>179.34809875488</ele>
        <time>2017-05-01T07:06:29.000Z</time>
      </trkpt>
      <trkpt lat="49.41179" lon="1.77263">
        <ele>179.53178405762</ele>
        <time>2017-05-01T07:06:31.000Z</time>
      </trkpt>
      <trkpt lat="49.41182" lon="1.7727">
        <ele>179.76936340332</ele>
        <time>2017-05-01T07:06:34.000Z</time>
      </trkpt>
      <trkpt lat="49.41185" lon="1.77275">
        <ele>180.03887939453</ele>
        <time>2017-05-01T07:06:36.000Z</time>
      </trkpt>
      <trkpt lat="49.41187" lon="1.7728">
        <ele>180.32922363281</ele>
        <time>2017-05-01T07:06:38.000Z</time>
      </trkpt>
      <trkpt lat="49.4119" lon="1.77287">
        <ele>180.61869812012</ele>
        <time>2017-05-01T07:06:41.000Z</time>
      </trkpt>
      <trkpt lat="49.41197" lon="1.77295">
        <ele>180.95280456543</ele>
        <time>2017-05-01T07:06:44.000Z</time>
      </trkpt>
      <trkpt lat="49.41201" lon="1.77301">
        <ele>181.27058410645</ele>
        <time>2017-05-01T07:06:46.000Z</time>
      </trkpt>
      <trkpt lat="49.41206" lon="1.77306">
        <ele>181.60263061523</ele>
        <time>2017-05-01T07:06:48.000Z</time>
      </trkpt>
      <trkpt lat="49.41215" lon="1.77314">
        <ele>181.97402954102</ele>
        <time>2017-05-01T07:06:51.000Z</time>
      </trkpt>
      <trkpt lat="49.4122" lon="1.77319">
        <ele>182.33103942871</ele>
        <time>2017-05-01T07:06:53.000Z</time>
      </trkpt>
      <trkpt lat="49.41225" lon="1.77327">
        <ele>182.65875244141</ele>
        <time>2017-05-01T07:06:56.000Z</time>
      </trkpt>
      <trkpt lat="49.41229" lon="1.77335">
        <ele>182.96192932129</ele>
        <time>2017-05-01T07:06:58.000Z</time>
      </trkpt>
      <trkpt lat="49.41236" lon="1.77343">
        <ele>183.23440551758</ele>
        <time>2017-05-01T07:07:01.000Z</time>
      </trkpt>
      <trkpt lat="49.41242" lon="1.7735">
        <ele>183.4499206543</ele>
        <time>2017-05-01T07:07:04.000Z</time>
      </trkpt>
      <trkpt lat="49.41248" lon="1.77356">
        <ele>183.64166259766</ele>
        <time>2017-05-01T07:07:07.000Z</time>
      </trkpt>
      <trkpt lat="49.41252" lon="1.77361">
        <ele>183.791015625</ele>
        <time>2017-05-01T07:07:10.000Z</time>
      </trkpt>
      <trkpt lat="49.41254" lon="1.77361">
        <ele>183.912109375</ele>
        <time>2017-05-01T07:07:19.000Z</time>
      </trkpt>
      <trkpt lat="49.41256" lon="1.77362">
        <ele>184.009765625</ele>
        <time>2017-05-01T07:07:25.000Z</time>
      </trkpt>
      <trkpt lat="49.41257" lon="1.77364">
        <ele>184.080078125</ele>
        <time>2017-05-01T07:07:27.000Z</time>
      </trkpt>
      <trkpt lat="49.41257" lon="1.77366">
        <ele>184.125</ele>
        <time>2017-05-01T07:07:29.000Z</time>
      </trkpt>
      <trkpt lat="49.41259" lon="1.77367">
        <ele>184.15625</ele>
        <time>2017-05-01T07:07:40.000Z</time>
      </trkpt>
      <trkpt lat="49.41257" lon="1.77368">
        <ele>184.16796875</ele>
        <time>2017-05-01T07:07:56.000Z</time>
      </trkpt>
      <trkpt lat="49.41257" lon="1.77369">
        <ele>184.171875</ele>
        <time>2017-05-01T07:07:59.000Z</time>
      </trkpt>
      <trkpt lat="49.41256" lon="1.77368">
        <ele>184.171875</ele>
        <time>2017-05-01T07:08:02.000Z</time>
      </trkpt>
      <trkpt lat="49.41252" lon="1.77367">
        <ele>184.146484375</ele>
        <time>2017-05-01T07:08:07.000Z</time>
      </trkpt>
      <trkpt lat="49.41254" lon="1.77367">
        <ele>184.123046875</ele>
        <time>2017-05-01T07:08:14.000Z</time>
      </trkpt>
      <trkpt lat="49.41256" lon="1.77366">
        <ele>184.1171875</ele>
        <time>2017-05-01T07:08:16.000Z</time>
      </trkpt>
      <trkpt lat="49.41256" lon="1.77364">
        <ele>184.111328125</ele>
        <time>2017-05-01T07:08:19.000Z</time>
      </trkpt>
      <trkpt lat="49.41257" lon="1.77364">
        <ele>184.11328125</ele>
        <time>2017-05-01T07:08:26.000Z</time>
      </trkpt>
      <trkpt lat="49.41258" lon="1.77365">
        <ele>184.142578125</ele>
        <time>2017-05-01T07:08:30.000Z</time>
      </trkpt>
      <trkpt lat="49.41257" lon="1.77367">
        <ele>184.15625</ele>
        <time>2017-05-01T07:08:38.000Z</time>
      </trkpt>
      <trkpt lat="49.41257" lon="1.77367">
        <ele>184.15625</ele>
        <time>2017-05-01T07:08:58.000Z</time>
      </trkpt>
      <trkpt lat="49.41256" lon="1.77367">
        <ele>184.15625</ele>
        <time>2017-05-01T07:09:26.000Z</time>
      </trkpt>
      <trkpt lat="49.41256" lon="1.77365">
        <ele>184.158203125</ele>
        <time>2017-05-01T07:09:38.000Z</time>
      </trkpt>
      <trkpt lat="49.41256" lon="1.77363">
        <ele>184.15234375</ele>
        <time>2017-05-01T07:09:41.000Z</time>
      </trkpt>
      <trkpt lat="49.41257" lon="1.77363">
        <ele>184.146484375</ele>
        <time>2017-05-01T07:09:49.000Z</time>
      </trkpt>
      <trkpt lat="49.41257" lon="1.77364">
        <ele>184.150390625</ele>
        <time>2017-05-01T07:10:08.000Z</time>
      </trkpt>
      <trkpt lat="49.41257" lon="1.77364">
        <ele>184.150390625</ele>
        <time>2017-05-01T07:10:28.000Z</time>
      </trkpt>
      <trkpt lat="49.41257" lon="1.77362">
        <ele>184.15625</ele>
        <time>2017-05-01T07:10:29.000Z</time>
      </trkpt>
      <trkpt lat="49.41257" lon="1.7736">
        <ele>184.158203125</ele>
        <time>2017-05-01T07:10:32.000Z</time>
      </trkpt>
      <trkpt lat="49.41256" lon="1.7736">
        <ele>184.158203125</ele>
        <time>2017-05-01T07:10:41.000Z</time>
      </trkpt>
      <trkpt lat="49.41255" lon="1.77358">
        <ele>184.15234375</ele>
        <time>2017-05-01T07:10:50.000Z</time>
      </trkpt>
      <trkpt lat="49.41256" lon="1.77355">
        <ele>184.14453125</ele>
        <time>2017-05-01T07:10:52.000Z</time>
      </trkpt>
      <trkpt lat="49.41257" lon="1.77351">
        <ele>184.146484375</ele>
        <time>2017-05-01T07:10:55.000Z</time>
      </trkpt>
      <trkpt lat="49.41259" lon="1.77354">
        <ele>184.15625</ele>
        <time>2017-05-01T07:10:58.000Z</time>
      </trkpt>
      <trkpt lat="49.4126" lon="1.77357">
        <ele>184.177734375</ele>
        <time>2017-05-01T07:11:01.000Z</time>
      </trkpt>
      <trkpt lat="49.41261" lon="1.7736">
        <ele>184.203125</ele>
        <time>2017-05-01T07:11:04.000Z</time>
      </trkpt>
      <trkpt lat="49.41259" lon="1.77366">
        <ele>184.220703125</ele>
        <time>2017-05-01T07:11:06.000Z</time>
      </trkpt>
      <trkpt lat="49.41256" lon="1.77376">
        <ele>184.212890625</ele>
        <time>2017-05-01T07:11:09.000Z</time>
      </trkpt>
      <trkpt lat="49.41251" lon="1.77387">
        <ele>184.17578125</ele>
        <time>2017-05-01T07:11:12.000Z</time>
      </trkpt>
      <trkpt lat="49.41248" lon="1.77394">
        <ele>184.115234375</ele>
        <time>2017-05-01T07:11:14.000Z</time>
      </trkpt>
      <trkpt lat="49.41245" lon="1.77401">
        <ele>184.0390625</ele>
        <time>2017-05-01T07:11:16.000Z</time>
      </trkpt>
      <trkpt lat="49.41244" lon="1.7741">
        <ele>183.966796875</ele>
        <time>2017-05-01T07:11:18.000Z</time>
      </trkpt>
      <trkpt lat="49.4124" lon="1.77425">
        <ele>183.8881072998</ele>
        <time>2017-05-01T07:11:21.000Z</time>
      </trkpt>
      <trkpt lat="49.41235" lon="1.77438">
        <ele>183.8006439209</ele>
        <time>2017-05-01T07:11:24.000Z</time>
      </trkpt>
      <trkpt lat="49.41232" lon="1.77447">
        <ele>183.71078491211</ele>
        <time>2017-05-01T07:11:27.000Z</time>
      </trkpt>
      <trkpt lat="49.41228" lon="1.77462">
        <ele>183.60221862793</ele>
        <time>2017-05-01T07:11:30.000Z</time>
      </trkpt>
      <trkpt lat="49.41224" lon="1.77474">
        <ele>183.46391296387</ele>
        <time>2017-05-01T07:11:32.000Z</time>
      </trkpt>
      <trkpt lat="49.41219" lon="1.77493">
        <ele>183.29592895508</ele>
        <time>2017-05-01T07:11:35.000Z</time>
      </trkpt>
      <trkpt lat="49.41214" lon="1.77511">
        <ele>183.10684204102</ele>
        <time>2017-05-01T07:11:38.000Z</time>
      </trkpt>
      <trkpt lat="49.4121" lon="1.77521">
        <ele>182.89486694336</ele>
        <time>2017-05-01T07:11:40.000Z</time>
      </trkpt>
      <trkpt lat="49.41204" lon="1.77538">
        <ele>182.65914916992</ele>
        <time>2017-05-01T07:11:43.000Z</time>
      </trkpt>
      <trkpt lat="49.412" lon="1.77552">
        <ele>182.41497802734</ele>
        <time>2017-05-01T07:11:45.000Z</time>
      </trkpt>
      <trkpt lat="49.41195" lon="1.77565">
        <ele>182.18545532227</ele>
        <time>2017-05-01T07:11:47.000Z</time>
      </trkpt>
      <trkpt lat="49.41187" lon="1.77585">
        <ele>181.95178222656</ele>
        <time>2017-05-01T07:11:50.000Z</time>
      </trkpt>
      <trkpt lat="49.4118" lon="1.77607">
        <ele>181.65194702148</ele>
        <time>2017-05-01T07:11:53.000Z</time>
      </trkpt>
      <trkpt lat="49.41174" lon="1.77623">
        <ele>181.34426879883</ele>
        <time>2017-05-01T07:11:55.000Z</time>
      </trkpt>
      <trkpt lat="49.41166" lon="1.77639">
        <ele>181.01766967773</ele>
        <time>2017-05-01T07:11:57.000Z</time>
      </trkpt>
      <trkpt lat="49.41154" lon="1.77664">
        <ele>180.57830810547</ele>
        <time>2017-05-01T07:12:00.000Z</time>
      </trkpt>
      <trkpt lat="49.4115" lon="1.77691">
        <ele>179.88143920898</ele>
        <time>2017-05-01T07:12:03.000Z</time>
      </trkpt>
      <trkpt lat="49.41137" lon="1.77749">
        <ele>178.56478881836</ele>
        <time>2017-05-01T07:12:07.000Z</time>
      </trkpt>
      <trkpt lat="49.41126" lon="1.77772">
        <ele>177.03479003906</ele>
        <time>2017-05-01T07:12:09.000Z</time>
      </trkpt>
      <trkpt lat="49.41117" lon="1.77792">
        <ele>175.34469604492</ele>
        <time>2017-05-01T07:12:11.000Z</time>
      </trkpt>
      <trkpt lat="49.41108" lon="1.77812">
        <ele>173.6185760498</ele>
        <time>2017-05-01T07:12:13.000Z</time>
      </trkpt>
      <trkpt lat="49.41103" lon="1.77838">
        <ele>171.94943237305</ele>
        <time>2017-05-01T07:12:16.000Z</time>
      </trkpt>
      <trkpt lat="49.41092" lon="1.77871">
        <ele>170.4303894043</ele>
        <time>2017-05-01T07:12:19.000Z</time>
      </trkpt>
      <trkpt lat="49.41084" lon="1.77908">
        <ele>168.59039306641</ele>
        <time>2017-05-01T07:12:22.000Z</time>
      </trkpt>
      <trkpt lat="49.41084" lon="1.77958">
        <ele>165.73004150391</ele>
        <time>2017-05-01T07:12:25.000Z</time>
      </trkpt>
      <trkpt lat="49.41083" lon="1.78005">
        <ele>161.81025695801</ele>
        <time>2017-05-01T07:12:28.000Z</time>
      </trkpt>
      <trkpt lat="49.41093" lon="1.78039">
        <ele>157.11849975586</ele>
        <time>2017-05-01T07:12:30.000Z</time>
      </trkpt>
      <trkpt lat="49.41105" lon="1.78105">
        <ele>151.39427185059</ele>
        <time>2017-05-01T07:12:33.000Z</time>
      </trkpt>
      <trkpt lat="49.41108" lon="1.78149">
        <ele>145.68966674805</ele>
        <time>2017-05-01T07:12:35.000Z</time>
      </trkpt>
      <trkpt lat="49.4112" lon="1.78184">
        <ele>140.70584106445</ele>
        <time>2017-05-01T07:12:37.000Z</time>
      </trkpt>
      <trkpt lat="49.41136" lon="1.78252">
        <ele>136.00128173828</ele>
        <time>2017-05-01T07:12:40.000Z</time>
      </trkpt>
      <trkpt lat="49.41143" lon="1.78292">
        <ele>132.03173828125</ele>
        <time>2017-05-01T07:12:43.000Z</time>
      </trkpt>
      <trkpt lat="49.41148" lon="1.78307">
        <ele>129.56881713867</ele>
        <time>2017-05-01T07:12:46.000Z</time>
      </trkpt>
      <trkpt lat="49.41153" lon="1.78307">
        <ele>127.65864562988</ele>
        <time>2017-05-01T07:12:48.000Z</time>
      </trkpt>
      <trkpt lat="49.4116" lon="1.78307">
        <ele>126.23167419434</ele>
        <time>2017-05-01T07:12:51.000Z</time>
      </trkpt>
      <trkpt lat="49.41155" lon="1.7831">
        <ele>125.78592681885</ele>
        <time>2017-05-01T07:12:54.000Z</time>
      </trkpt>
      <trkpt lat="49.41151" lon="1.78309">
        <ele>125.65594482422</ele>
        <time>2017-05-01T07:12:56.000Z</time>
      </trkpt>
      <trkpt lat="49.41148" lon="1.78308">
        <ele>125.6561050415</ele>
        <time>2017-05-01T07:12:58.000Z</time>
      </trkpt>
      <trkpt lat="49.41146" lon="1.78305">
        <ele>125.70631408691</ele>
        <time>2017-05-01T07:13:00.000Z</time>
      </trkpt>
      <trkpt lat="49.41143" lon="1.78298">
        <ele>125.83760070801</ele>
        <time>2017-05-01T07:13:03.000Z</time>
      </trkpt>
      <trkpt lat="49.41142" lon="1.783">
        <ele>125.96223449707</ele>
        <time>2017-05-01T07:13:07.000Z</time>
      </trkpt>
      <trkpt lat="49.4114" lon="1.78301">
        <ele>126.06797027588</ele>
        <time>2017-05-01T07:13:09.000Z</time>
      </trkpt>
      <trkpt lat="49.4114" lon="1.78299">
        <ele>126.1498260498</ele>
        <time>2017-05-01T07:13:13.000Z</time>
      </trkpt>
      <trkpt lat="49.41146" lon="1.78299">
        <ele>126.17790222168</ele>
        <time>2017-05-01T07:13:16.000Z</time>
      </trkpt>
      <trkpt lat="49.41149" lon="1.78299">
        <ele>126.13969421387</ele>
        <time>2017-05-01T07:13:18.000Z</time>
      </trkpt>
      <trkpt lat="49.41151" lon="1.78301">
        <ele>126.07370758057</ele>
        <time>2017-05-01T07:13:25.000Z</time>
      </trkpt>
      <trkpt lat="49.41151" lon="1.78301">
        <ele>126.07370758057</ele>
        <time>2017-05-01T07:13:45.000Z</time>
      </trkpt>
      <trkpt lat="49.41154" lon="1.78301">
        <ele>125.98752593994</ele>
        <time>2017-05-01T07:13:51.000Z</time>
      </trkpt>
      <trkpt lat="49.41154" lon="1.78303">
        <ele>125.89127349854</ele>
        <time>2017-05-01T07:14:01.000Z</time>
      </trkpt>
      <trkpt lat="49.41155" lon="1.78303">
        <ele>125.81512451172</ele>
        <time>2017-05-01T07:14:03.000Z</time>
      </trkpt>
      <trkpt lat="49.41154" lon="1.78305">
        <ele>125.75691986084</ele>
        <time>2017-05-01T07:14:06.000Z</time>
      </trkpt>
      <trkpt lat="49.41156" lon="1.78305">
        <ele>125.71015930176</ele>
        <time>2017-05-01T07:14:08.000Z</time>
      </trkpt>
      <trkpt lat="49.41158" lon="1.78304">
        <ele>125.67537689209</ele>
        <time>2017-05-01T07:14:10.000Z</time>
      </trkpt>
      <trkpt lat="49.41159" lon="1.78304">
        <ele>125.641746521</ele>
        <time>2017-05-01T07:14:12.000Z</time>
      </trkpt>
      <trkpt lat="49.41164" lon="1.78301">
        <ele>125.59800720215</ele>
        <time>2017-05-01T07:14:14.000Z</time>
      </trkpt>
      <trkpt lat="49.41171" lon="1.78296">
        <ele>125.55944824219</ele>
        <time>2017-05-01T07:14:16.000Z</time>
      </trkpt>
      <trkpt lat="49.41176" lon="1.78297">
        <ele>125.54055023193</ele>
        <time>2017-05-01T07:14:19.000Z</time>
      </trkpt>
      <trkpt lat="49.41179" lon="1.78297">
        <ele>125.53495788574</ele>
        <time>2017-05-01T07:14:21.000Z</time>
      </trkpt>
      <trkpt lat="49.41184" lon="1.78294">
        <ele>125.55342102051</ele>
        <time>2017-05-01T07:14:24.000Z</time>
      </trkpt>
      <trkpt lat="49.41188" lon="1.78291">
        <ele>125.60984039307</ele>
        <time>2017-05-01T07:14:27.000Z</time>
      </trkpt>
      <trkpt lat="49.41194" lon="1.78291">
        <ele>125.67797851562</ele>
        <time>2017-05-01T07:14:30.000Z</time>
      </trkpt>
      <trkpt lat="49.41196" lon="1.78292">
        <ele>125.73968505859</ele>
        <time>2017-05-01T07:14:32.000Z</time>
      </trkpt>
      <trkpt lat="49.41198" lon="1.78292">
        <ele>125.79968261719</ele>
        <time>2017-05-01T07:14:34.000Z</time>
      </trkpt>
      <trkpt lat="49.41203" lon="1.78289">
        <ele>125.85748291016</ele>
        <time>2017-05-01T07:14:37.000Z</time>
      </trkpt>
      <trkpt lat="49.41206" lon="1.78288">
        <ele>125.90810394287</ele>
        <time>2017-05-01T07:14:39.000Z</time>
      </trkpt>
      <trkpt lat="49.41211" lon="1.78287">
        <ele>125.95961761475</ele>
        <time>2017-05-01T07:14:42.000Z</time>
      </trkpt>
      <trkpt lat="49.41215" lon="1.78286">
        <ele>126.0185546875</ele>
        <time>2017-05-01T07:14:45.000Z</time>
      </trkpt>
      <trkpt lat="49.41216" lon="1.78284">
        <ele>126.078125</ele>
        <time>2017-05-01T07:14:48.000Z</time>
      </trkpt>
      <trkpt lat="49.41217" lon="1.78284">
        <ele>126.12536621094</ele>
        <time>2017-05-01T07:14:51.000Z</time>
      </trkpt>
      <trkpt lat="49.41213" lon="1.78283">
        <ele>126.154296875</ele>
        <time>2017-05-01T07:14:53.000Z</time>
      </trkpt>
      <trkpt lat="49.41212" lon="1.7828">
        <ele>126.17303466797</ele>
        <time>2017-05-01T07:14:55.000Z</time>
      </trkpt>
      <trkpt lat="49.41214" lon="1.78278">
        <ele>126.19061279297</ele>
        <time>2017-05-01T07:14:57.000Z</time>
      </trkpt>
      <trkpt lat="49.41221" lon="1.78282">
        <ele>126.20935058594</ele>
        <time>2017-05-01T07:15:00.000Z</time>
      </trkpt>
      <trkpt lat="49.41227" lon="1.78287">
        <ele>126.22698974609</ele>
        <time>2017-05-01T07:15:02.000Z</time>
      </trkpt>
      <trkpt lat="49.41235" lon="1.78303">
        <ele>126.23134613037</ele>
        <time>2017-05-01T07:15:05.000Z</time>
      </trkpt>
      <trkpt lat="49.41235" lon="1.78316">
        <ele>126.20013427734</ele>
        <time>2017-05-01T07:15:07.000Z</time>
      </trkpt>
      <trkpt lat="49.41237" lon="1.78329">
        <ele>126.1328125</ele>
        <time>2017-05-01T07:15:10.000Z</time>
      </trkpt>
      <trkpt lat="49.41239" lon="1.78339">
        <ele>126.07322692871</ele>
        <time>2017-05-01T07:15:12.000Z</time>
      </trkpt>
      <trkpt lat="49.41243" lon="1.78354">
        <ele>126.08288574219</ele>
        <time>2017-05-01T07:15:15.000Z</time>
      </trkpt>
      <trkpt lat="49.41244" lon="1.78371">
        <ele>126.19130706787</ele>
        <time>2017-05-01T07:15:18.000Z</time>
      </trkpt>
      <trkpt lat="49.41245" lon="1.78388">
        <ele>126.40995025635</ele>
        <time>2017-05-01T07:15:21.000Z</time>
      </trkpt>
      <trkpt lat="49.41246" lon="1.78405">
        <ele>126.74340820312</ele>
        <time>2017-05-01T07:15:24.000Z</time>
      </trkpt>
      <trkpt lat="49.41246" lon="1.78415">
        <ele>127.10510253906</ele>
        <time>2017-05-01T07:15:26.000Z</time>
      </trkpt>
      <trkpt lat="49.41247" lon="1.78423">
        <ele>127.46809387207</ele>
        <time>2017-05-01T07:15:28.000Z</time>
      </trkpt>
      <trkpt lat="49.41247" lon="1.78429">
        <ele>127.82084655762</ele>
        <time>2017-05-01T07:15:30.000Z</time>
      </trkpt>
      <trkpt lat="49.41249" lon="1.78437">
        <ele>128.18276977539</ele>
        <time>2017-05-01T07:15:32.000Z</time>
      </trkpt>
      <trkpt lat="49.41249" lon="1.78449">
        <ele>128.57235717773</ele>
        <time>2017-05-01T07:15:35.000Z</time>
      </trkpt>
      <trkpt lat="49.41248" lon="1.78457">
        <ele>128.99475097656</ele>
        <time>2017-05-01T07:15:37.000Z</time>
      </trkpt>
      <trkpt lat="49.41248" lon="1.78465">
        <ele>129.41407775879</ele>
        <time>2017-05-01T07:15:39.000Z</time>
      </trkpt>
      <trkpt lat="49.41249" lon="1.78475">
        <ele>129.86613464355</ele>
        <time>2017-05-01T07:15:42.000Z</time>
      </trkpt>
      <trkpt lat="49.41248" lon="1.78484">
        <ele>130.31689453125</ele>
        <time>2017-05-01T07:15:44.000Z</time>
      </trkpt>
      <trkpt lat="49.41246" lon="1.78493">
        <ele>130.7400970459</ele>
        <time>2017-05-01T07:15:46.000Z</time>
      </trkpt>
      <trkpt lat="49.41242" lon="1.78508">
        <ele>131.20443725586</ele>
        <time>2017-05-01T07:15:49.000Z</time>
      </trkpt>
      <trkpt lat="49.41238" lon="1.78521">
        <ele>131.6962890625</ele>
        <time>2017-05-01T07:15:52.000Z</time>
      </trkpt>
      <trkpt lat="49.41234" lon="1.7853">
        <ele>132.16746520996</ele>
        <time>2017-05-01T07:15:55.000Z</time>
      </trkpt>
      <trkpt lat="49.4123" lon="1.78539">
        <ele>132.62759399414</ele>
        <time>2017-05-01T07:15:58.000Z</time>
      </trkpt>
      <trkpt lat="49.41226" lon="1.78545">
        <ele>133.06085205078</ele>
        <time>2017-05-01T07:16:00.000Z</time>
      </trkpt>
      <trkpt lat="49.41223" lon="1.78551">
        <ele>133.44316101074</ele>
        <time>2017-05-01T07:16:03.000Z</time>
      </trkpt>
      <trkpt lat="49.41222" lon="1.78559">
        <ele>133.80476379395</ele>
        <time>2017-05-01T07:16:05.000Z</time>
      </trkpt>
      <trkpt lat="49.41222" lon="1.78571">
        <ele>134.2053527832</ele>
        <time>2017-05-01T07:16:08.000Z</time>
      </trkpt>
      <trkpt lat="49.41221" lon="1.78578">
        <ele>134.59680175781</ele>
        <time>2017-05-01T07:16:10.000Z</time>
      </trkpt>
      <trkpt lat="49.4122" lon="1.78589">
        <ele>135.01040649414</ele>
        <time>2017-05-01T07:16:13.000Z</time>
      </trkpt>
      <trkpt lat="49.41219" lon="1.78598">
        <ele>135.41886901855</ele>
        <time>2017-05-01T07:16:16.000Z</time>
      </trkpt>
      <trkpt lat="49.41218" lon="1.78607">
        <ele>135.80461120605</ele>
        <time>2017-05-01T07:16:19.000Z</time>
      </trkpt>
      <trkpt lat="49.41218" lon="1.78613">
        <ele>136.10716247559</ele>
        <time>2017-05-01T07:16:21.000Z</time>
      </trkpt>
      <trkpt lat="49.41218" lon="1.78623">
        <ele>136.39842224121</ele>
        <time>2017-05-01T07:16:24.000Z</time>
      </trkpt>
      <trkpt lat="49.41217" lon="1.78633">
        <ele>136.67070007324</ele>
        <time>2017-05-01T07:16:27.000Z</time>
      </trkpt>
      <trkpt lat="49.41216" lon="1.7864">
        <ele>136.92776489258</ele>
        <time>2017-05-01T07:16:29.000Z</time>
      </trkpt>
      <trkpt lat="49.41215" lon="1.78651">
        <ele>137.20498657227</ele>
        <time>2017-05-01T07:16:32.000Z</time>
      </trkpt>
      <trkpt lat="49.41213" lon="1.78658">
        <ele>137.4947052002</ele>
        <time>2017-05-01T07:16:34.000Z</time>
      </trkpt>
      <trkpt lat="49.41212" lon="1.78666">
        <ele>137.78486633301</ele>
        <time>2017-05-01T07:16:36.000Z</time>
      </trkpt>
      <trkpt lat="49.41211" lon="1.7868">
        <ele>138.02836608887</ele>
        <time>2017-05-01T07:16:39.000Z</time>
      </trkpt>
      <trkpt lat="49.41211" lon="1.78688">
        <ele>138.23205566406</ele>
        <time>2017-05-01T07:16:41.000Z</time>
      </trkpt>
      <trkpt lat="49.41211" lon="1.78698">
        <ele>138.36918640137</ele>
        <time>2017-05-01T07:16:44.000Z</time>
      </trkpt>
      <trkpt lat="49.41211" lon="1.78706">
        <ele>138.4637298584</ele>
        <time>2017-05-01T07:16:46.000Z</time>
      </trkpt>
      <trkpt lat="49.41211" lon="1.78716">
        <ele>138.52153015137</ele>
        <time>2017-05-01T07:16:49.000Z</time>
      </trkpt>
      <trkpt lat="49.41211" lon="1.78723">
        <ele>138.55488586426</ele>
        <time>2017-05-01T07:16:51.000Z</time>
      </trkpt>
      <trkpt lat="49.41211" lon="1.78733">
        <ele>138.58944702148</ele>
        <time>2017-05-01T07:16:53.000Z</time>
      </trkpt>
      <trkpt lat="49.41211" lon="1.78748">
        <ele>138.62742614746</ele>
        <time>2017-05-01T07:16:56.000Z</time>
      </trkpt>
      <trkpt lat="49.41212" lon="1.78763">
        <ele>138.60586547852</ele>
        <time>2017-05-01T07:16:58.000Z</time>
      </trkpt>
      <trkpt lat="49.41217" lon="1.78787">
        <ele>138.42230224609</ele>
        <time>2017-05-01T07:17:01.000Z</time>
      </trkpt>
      <trkpt lat="49.41222" lon="1.78809">
        <ele>138.0982208252</ele>
        <time>2017-05-01T07:17:04.000Z</time>
      </trkpt>
      <trkpt lat="49.41228" lon="1.78829">
        <ele>137.6018371582</ele>
        <time>2017-05-01T07:17:07.000Z</time>
      </trkpt>
      <trkpt lat="49.41232" lon="1.78842">
        <ele>137.01669311523</ele>
        <time>2017-05-01T07:17:09.000Z</time>
      </trkpt>
      <trkpt lat="49.41237" lon="1.7886">
        <ele>136.42391967773</ele>
        <time>2017-05-01T07:17:12.000Z</time>
      </trkpt>
      <trkpt lat="49.4124" lon="1.78878">
        <ele>135.9567565918</ele>
        <time>2017-05-01T07:17:15.000Z</time>
      </trkpt>
      <trkpt lat="49.41241" lon="1.78897">
        <ele>135.64462280273</ele>
        <time>2017-05-01T07:17:18.000Z</time>
      </trkpt>
      <trkpt lat="49.41242" lon="1.78911">
        <ele>135.51843261719</ele>
        <time>2017-05-01T07:17:20.000Z</time>
      </trkpt>
      <trkpt lat="49.41241" lon="1.78926">
        <ele>135.46858215332</ele>
        <time>2017-05-01T07:17:22.000Z</time>
      </trkpt>
      <trkpt lat="49.41238" lon="1.78948">
        <ele>135.46969604492</ele>
        <time>2017-05-01T07:17:25.000Z</time>
      </trkpt>
      <trkpt lat="49.41235" lon="1.78969">
        <ele>135.47720336914</ele>
        <time>2017-05-01T07:17:28.000Z</time>
      </trkpt>
      <trkpt lat="49.41232" lon="1.7899">
        <ele>135.47920227051</ele>
        <time>2017-05-01T07:17:31.000Z</time>
      </trkpt>
      <trkpt lat="49.41227" lon="1.79009">
        <ele>135.52597045898</ele>
        <time>2017-05-01T07:17:34.000Z</time>
      </trkpt>
      <trkpt lat="49.41223" lon="1.79022">
        <ele>135.62773132324</ele>
        <time>2017-05-01T07:17:36.000Z</time>
      </trkpt>
      <trkpt lat="49.4122" lon="1.79035">
        <ele>135.77847290039</ele>
        <time>2017-05-01T07:17:38.000Z</time>
      </trkpt>
      <trkpt lat="49.41215" lon="1.79052">
        <ele>135.9880065918</ele>
        <time>2017-05-01T07:17:41.000Z</time>
      </trkpt>
      <trkpt lat="49.4121" lon="1.79062">
        <ele>136.21614074707</ele>
        <time>2017-05-01T07:17:43.000Z</time>
      </trkpt>
      <trkpt lat="49.41207" lon="1.79072">
        <ele>136.38192749023</ele>
        <time>2017-05-01T07:17:45.000Z</time>
      </trkpt>
      <trkpt lat="49.41203" lon="1.79088">
        <ele>136.57655334473</ele>
        <time>2017-05-01T07:17:48.000Z</time>
      </trkpt>
      <trkpt lat="49.41199" lon="1.79105">
        <ele>137.0366973877</ele>
        <time>2017-05-01T07:17:51.000Z</time>
      </trkpt>
      <trkpt lat="49.41193" lon="1.79123">
        <ele>137.68856811523</ele>
        <time>2017-05-01T07:17:54.000Z</time>
      </trkpt>
      <trkpt lat="49.41189" lon="1.79134">
        <ele>138.43525695801</ele>
        <time>2017-05-01T07:17:56.000Z</time>
      </trkpt>
      <trkpt lat="49.41184" lon="1.79149">
        <ele>139.30825805664</ele>
        <time>2017-05-01T07:17:59.000Z</time>
      </trkpt>
      <trkpt lat="49.4118" lon="1.79158">
        <ele>140.1226348877</ele>
        <time>2017-05-01T07:18:01.000Z</time>
      </trkpt>
      <trkpt lat="49.41174" lon="1.79168">
        <ele>140.64218139648</ele>
        <time>2017-05-01T07:18:04.000Z</time>
      </trkpt>
      <trkpt lat="49.41168" lon="1.7918">
        <ele>141.22207641602</ele>
        <time>2017-05-01T07:18:07.000Z</time>
      </trkpt>
      <trkpt lat="49.41165" lon="1.79188">
        <ele>141.94836425781</ele>
        <time>2017-05-01T07:18:09.000Z</time>
      </trkpt>
      <trkpt lat="49.41159" lon="1.79199">
        <ele>142.85214233398</ele>
        <time>2017-05-01T07:18:12.000Z</time>
      </trkpt>
      <trkpt lat="49.41155" lon="1.79205">
        <ele>143.88606262207</ele>
        <time>2017-05-01T07:18:14.000Z</time>
      </trkpt>
      <trkpt lat="49.4115" lon="1.79211">
        <ele>145.00280761719</ele>
        <time>2017-05-01T07:18:17.000Z</time>
      </trkpt>
      <trkpt lat="49.41144" lon="1.79215">
        <ele>145.81713867188</ele>
        <time>2017-05-01T07:18:20.000Z</time>
      </trkpt>
      <trkpt lat="49.41139" lon="1.79218">
        <ele>146.34721374512</ele>
        <time>2017-05-01T07:18:22.000Z</time>
      </trkpt>
      <trkpt lat="49.41133" lon="1.79223">
        <ele>146.56086730957</ele>
        <time>2017-05-01T07:18:24.000Z</time>
      </trkpt>
      <trkpt lat="49.41126" lon="1.79228">
        <ele>146.58288574219</ele>
        <time>2017-05-01T07:18:26.000Z</time>
      </trkpt>
      <trkpt lat="49.41114" lon="1.79237">
        <ele>146.38467407227</ele>
        <time>2017-05-01T07:18:29.000Z</time>
      </trkpt>
      <trkpt lat="49.41106" lon="1.79243">
        <ele>146.07836914062</ele>
        <time>2017-05-01T07:18:31.000Z</time>
      </trkpt>
      <trkpt lat="49.41096" lon="1.79254">
        <ele>145.74139404297</ele>
        <time>2017-05-01T07:18:34.000Z</time>
      </trkpt>
      <trkpt lat="49.41089" lon="1.7926">
        <ele>145.42468261719</ele>
        <time>2017-05-01T07:18:36.000Z</time>
      </trkpt>
      <trkpt lat="49.41077" lon="1.79267">
        <ele>145.13655090332</ele>
        <time>2017-05-01T07:18:39.000Z</time>
      </trkpt>
      <trkpt lat="49.41067" lon="1.79273">
        <ele>145.0629119873</ele>
        <time>2017-05-01T07:18:42.000Z</time>
      </trkpt>
      <trkpt lat="49.41059" lon="1.79278">
        <ele>145.14712524414</ele>
        <time>2017-05-01T07:18:44.000Z</time>
      </trkpt>
      <trkpt lat="49.4105" lon="1.79284">
        <ele>145.34114074707</ele>
        <time>2017-05-01T07:18:47.000Z</time>
      </trkpt>
      <trkpt lat="49.41045" lon="1.7929">
        <ele>145.59210205078</ele>
        <time>2017-05-01T07:18:49.000Z</time>
      </trkpt>
      <trkpt lat="49.41036" lon="1.79297">
        <ele>145.90676879883</ele>
        <time>2017-05-01T07:18:52.000Z</time>
      </trkpt>
      <trkpt lat="49.4103" lon="1.79301">
        <ele>146.11697387695</ele>
        <time>2017-05-01T07:18:54.000Z</time>
      </trkpt>
      <trkpt lat="49.41021" lon="1.79309">
        <ele>146.26498413086</ele>
        <time>2017-05-01T07:18:57.000Z</time>
      </trkpt>
      <trkpt lat="49.4101" lon="1.79317">
        <ele>146.26858520508</ele>
        <time>2017-05-01T07:19:00.000Z</time>
      </trkpt>
      <trkpt lat="49.41" lon="1.79327">
        <ele>146.12139892578</ele>
        <time>2017-05-01T07:19:03.000Z</time>
      </trkpt>
      <trkpt lat="49.40994" lon="1.79332">
        <ele>145.98091125488</ele>
        <time>2017-05-01T07:19:05.000Z</time>
      </trkpt>
      <trkpt lat="49.40988" lon="1.79337">
        <ele>145.94291687012</ele>
        <time>2017-05-01T07:19:07.000Z</time>
      </trkpt>
      <trkpt lat="49.40979" lon="1.79343">
        <ele>146.02407836914</ele>
        <time>2017-05-01T07:19:10.000Z</time>
      </trkpt>
      <trkpt lat="49.40973" lon="1.79347">
        <ele>146.23492431641</ele>
        <time>2017-05-01T07:19:12.000Z</time>
      </trkpt>
      <trkpt lat="49.40966" lon="1.79352">
        <ele>146.5825958252</ele>
        <time>2017-05-01T07:19:14.000Z</time>
      </trkpt>
      <trkpt lat="49.4096" lon="1.79357">
        <ele>146.92501831055</ele>
        <time>2017-05-01T07:19:16.000Z</time>
      </trkpt>
      <trkpt lat="49.40951" lon="1.79367">
        <ele>147.26872253418</ele>
        <time>2017-05-01T07:19:19.000Z</time>
      </trkpt>
      <trkpt lat="49.40945" lon="1.79373">
        <ele>147.54411315918</ele>
        <time>2017-05-01T07:19:21.000Z</time>
      </trkpt>
      <trkpt lat="49.40937" lon="1.79383">
        <ele>147.79454040527</ele>
        <time>2017-05-01T07:19:24.000Z</time>
      </trkpt>
      <trkpt lat="49.40932" lon="1.79389">
        <ele>147.97932434082</ele>
        <time>2017-05-01T07:19:26.000Z</time>
      </trkpt>
      <trkpt lat="49.40924" lon="1.79399">
        <ele>148.05776977539</ele>
        <time>2017-05-01T07:19:29.000Z</time>
      </trkpt>
      <trkpt lat="49.40919" lon="1.79405">
        <ele>148.01547241211</ele>
        <time>2017-05-01T07:19:31.000Z</time>
      </trkpt>
      <trkpt lat="49.40916" lon="1.79415">
        <ele>147.97914123535</ele>
        <time>2017-05-01T07:19:34.000Z</time>
      </trkpt>
      <trkpt lat="49.40913" lon="1.79427">
        <ele>148.04130554199</ele>
        <time>2017-05-01T07:19:37.000Z</time>
      </trkpt>
      <trkpt lat="49.40909" lon="1.79444">
        <ele>148.25910949707</ele>
        <time>2017-05-01T07:19:40.000Z</time>
      </trkpt>
      <trkpt lat="49.40908" lon="1.79454">
        <ele>148.60258483887</ele>
        <time>2017-05-01T07:19:42.000Z</time>
      </trkpt>
      <trkpt lat="49.40907" lon="1.79465">
        <ele>149.06141662598</ele>
        <time>2017-05-01T07:19:45.000Z</time>
      </trkpt>
      <trkpt lat="49.40905" lon="1.79476">
        <ele>149.56857299805</ele>
        <time>2017-05-01T07:19:48.000Z</time>
      </trkpt>
      <trkpt lat="49.40905" lon="1.79488">
        <ele>150.04415893555</ele>
        <time>2017-05-01T07:19:51.000Z</time>
      </trkpt>
      <trkpt lat="49.40905" lon="1.79499">
        <ele>150.4501953125</ele>
        <time>2017-05-01T07:19:54.000Z</time>
      </trkpt>
      <trkpt lat="49.40905" lon="1.79508">
        <ele>150.80209350586</ele>
        <time>2017-05-01T07:19:56.000Z</time>
      </trkpt>
      <trkpt lat="49.40907" lon="1.79525">
        <ele>151.10327148438</ele>
        <time>2017-05-01T07:19:59.000Z</time>
      </trkpt>
      <trkpt lat="49.40909" lon="1.79539">
        <ele>151.3406829834</ele>
        <time>2017-05-01T07:20:02.000Z</time>
      </trkpt>
      <trkpt lat="49.4091" lon="1.79549">
        <ele>151.51045227051</ele>
        <time>2017-05-01T07:20:04.000Z</time>
      </trkpt>
      <trkpt lat="49.40913" lon="1.79558">
        <ele>151.6169128418</ele>
        <time>2017-05-01T07:20:06.000Z</time>
      </trkpt>
      <trkpt lat="49.40918" lon="1.79575">
        <ele>151.75718688965</ele>
        <time>2017-05-01T07:20:09.000Z</time>
      </trkpt>
      <trkpt lat="49.40923" lon="1.79586">
        <ele>151.93710327148</ele>
        <time>2017-05-01T07:20:11.000Z</time>
      </trkpt>
      <trkpt lat="49.40928" lon="1.79598">
        <ele>152.07022094727</ele>
        <time>2017-05-01T07:20:14.000Z</time>
      </trkpt>
      <trkpt lat="49.40932" lon="1.79604">
        <ele>152.22203063965</ele>
        <time>2017-05-01T07:20:16.000Z</time>
      </trkpt>
      <trkpt lat="49.40939" lon="1.79617">
        <ele>152.37577819824</ele>
        <time>2017-05-01T07:20:19.000Z</time>
      </trkpt>
      <trkpt lat="49.40945" lon="1.79632">
        <ele>152.43273925781</ele>
        <time>2017-05-01T07:20:22.000Z</time>
      </trkpt>
      <trkpt lat="49.40948" lon="1.79641">
        <ele>152.40100097656</ele>
        <time>2017-05-01T07:20:24.000Z</time>
      </trkpt>
      <trkpt lat="49.40953" lon="1.79655">
        <ele>152.33532714844</ele>
        <time>2017-05-01T07:20:27.000Z</time>
      </trkpt>
      <trkpt lat="49.40956" lon="1.79666">
        <ele>152.20434570312</ele>
        <time>2017-05-01T07:20:29.000Z</time>
      </trkpt>
      <trkpt lat="49.40959" lon="1.79675">
        <ele>152.05746459961</ele>
        <time>2017-05-01T07:20:31.000Z</time>
      </trkpt>
      <trkpt lat="49.40961" lon="1.79685">
        <ele>151.93101501465</ele>
        <time>2017-05-01T07:20:33.000Z</time>
      </trkpt>
      <trkpt lat="49.40963" lon="1.79695">
        <ele>151.78128051758</ele>
        <time>2017-05-01T07:20:35.000Z</time>
      </trkpt>
      <trkpt lat="49.40965" lon="1.7971">
        <ele>151.59909057617</ele>
        <time>2017-05-01T07:20:38.000Z</time>
      </trkpt>
      <trkpt lat="49.40965" lon="1.7972">
        <ele>151.38610839844</ele>
        <time>2017-05-01T07:20:40.000Z</time>
      </trkpt>
      <trkpt lat="49.40966" lon="1.79732">
        <ele>151.10743713379</ele>
        <time>2017-05-01T07:20:42.000Z</time>
      </trkpt>
      <trkpt lat="49.40968" lon="1.79745">
        <ele>150.76281738281</ele>
        <time>2017-05-01T07:20:44.000Z</time>
      </trkpt>
      <trkpt lat="49.40969" lon="1.79758">
        <ele>150.43313598633</ele>
        <time>2017-05-01T07:20:46.000Z</time>
      </trkpt>
      <trkpt lat="49.40972" lon="1.79773">
        <ele>150.1789855957</ele>
        <time>2017-05-01T07:20:49.000Z</time>
      </trkpt>
      <trkpt lat="49.40974" lon="1.79786">
        <ele>149.96530151367</ele>
        <time>2017-05-01T07:20:52.000Z</time>
      </trkpt>
      <trkpt lat="49.40975" lon="1.79795">
        <ele>149.79940795898</ele>
        <time>2017-05-01T07:20:54.000Z</time>
      </trkpt>
      <trkpt lat="49.40977" lon="1.79808">
        <ele>149.68533325195</ele>
        <time>2017-05-01T07:20:57.000Z</time>
      </trkpt>
      <trkpt lat="49.40979" lon="1.79816">
        <ele>149.56878662109</ele>
        <time>2017-05-01T07:20:59.000Z</time>
      </trkpt>
      <trkpt lat="49.40981" lon="1.79824">
        <ele>149.42253112793</ele>
        <time>2017-05-01T07:21:01.000Z</time>
      </trkpt>
      <trkpt lat="49.40983" lon="1.79837">
        <ele>149.26150512695</ele>
        <time>2017-05-01T07:21:04.000Z</time>
      </trkpt>
      <trkpt lat="49.40986" lon="1.7985">
        <ele>149.16311645508</ele>
        <time>2017-05-01T07:21:07.000Z</time>
      </trkpt>
      <trkpt lat="49.40989" lon="1.79862">
        <ele>149.13256835938</ele>
        <time>2017-05-01T07:21:10.000Z</time>
      </trkpt>
      <trkpt lat="49.40991" lon="1.79869">
        <ele>149.14137268066</ele>
        <time>2017-05-01T07:21:12.000Z</time>
      </trkpt>
      <trkpt lat="49.40993" lon="1.79879">
        <ele>149.2135925293</ele>
        <time>2017-05-01T07:21:15.000Z</time>
      </trkpt>
      <trkpt lat="49.40995" lon="1.79887">
        <ele>149.34548950195</ele>
        <time>2017-05-01T07:21:18.000Z</time>
      </trkpt>
      <trkpt lat="49.40996" lon="1.79893">
        <ele>149.45114135742</ele>
        <time>2017-05-01T07:21:20.000Z</time>
      </trkpt>
      <trkpt lat="49.40998" lon="1.79903">
        <ele>149.55653381348</ele>
        <time>2017-05-01T07:21:23.000Z</time>
      </trkpt>
      <trkpt lat="49.41" lon="1.79911">
        <ele>149.6667175293</ele>
        <time>2017-05-01T07:21:25.000Z</time>
      </trkpt>
      <trkpt lat="49.41" lon="1.79919">
        <ele>149.81988525391</ele>
        <time>2017-05-01T07:21:27.000Z</time>
      </trkpt>
      <trkpt lat="49.40999" lon="1.79931">
        <ele>150.11772155762</ele>
        <time>2017-05-01T07:21:30.000Z</time>
      </trkpt>
      <trkpt lat="49.40998" lon="1.79938">
        <ele>150.51898193359</ele>
        <time>2017-05-01T07:21:32.000Z</time>
      </trkpt>
      <trkpt lat="49.40995" lon="1.79949">
        <ele>151.04611206055</ele>
        <time>2017-05-01T07:21:35.000Z</time>
      </trkpt>
      <trkpt lat="49.40992" lon="1.79955">
        <ele>151.64909362793</ele>
        <time>2017-05-01T07:21:37.000Z</time>
      </trkpt>
      <trkpt lat="49.40988" lon="1.79963">
        <ele>152.29194641113</ele>
        <time>2017-05-01T07:21:40.000Z</time>
      </trkpt>
      <trkpt lat="49.40984" lon="1.79969">
        <ele>152.83377075195</ele>
        <time>2017-05-01T07:21:42.000Z</time>
      </trkpt>
      <trkpt lat="49.40979" lon="1.79978">
        <ele>153.33946228027</ele>
        <time>2017-05-01T07:21:45.000Z</time>
      </trkpt>
      <trkpt lat="49.40975" lon="1.79985">
        <ele>153.74055480957</ele>
        <time>2017-05-01T07:21:48.000Z</time>
      </trkpt>
      <trkpt lat="49.40973" lon="1.79991">
        <ele>154.0881652832</ele>
        <time>2017-05-01T07:21:50.000Z</time>
      </trkpt>
      <trkpt lat="49.40969" lon="1.79996">
        <ele>154.35934448242</ele>
        <time>2017-05-01T07:21:52.000Z</time>
      </trkpt>
      <trkpt lat="49.40965" lon="1.80004">
        <ele>154.59703063965</ele>
        <time>2017-05-01T07:21:55.000Z</time>
      </trkpt>
      <trkpt lat="49.40961" lon="1.80008">
        <ele>154.78009033203</ele>
        <time>2017-05-01T07:21:57.000Z</time>
      </trkpt>
      <trkpt lat="49.40955" lon="1.80016">
        <ele>154.94534301758</ele>
        <time>2017-05-01T07:22:00.000Z</time>
      </trkpt>
      <trkpt lat="49.40948" lon="1.80024">
        <ele>155.0778503418</ele>
        <time>2017-05-01T07:22:03.000Z</time>
      </trkpt>
      <trkpt lat="49.40944" lon="1.80029">
        <ele>155.17028808594</ele>
        <time>2017-05-01T07:22:05.000Z</time>
      </trkpt>
      <trkpt lat="49.40938" lon="1.80035">
        <ele>155.1907043457</ele>
        <time>2017-05-01T07:22:08.000Z</time>
      </trkpt>
      <trkpt lat="49.40932" lon="1.80041">
        <ele>155.12478637695</ele>
        <time>2017-05-01T07:22:11.000Z</time>
      </trkpt>
      <trkpt lat="49.40926" lon="1.80047">
        <ele>154.96206665039</ele>
        <time>2017-05-01T07:22:14.000Z</time>
      </trkpt>
      <trkpt lat="49.40923" lon="1.80052">
        <ele>154.74588012695</ele>
        <time>2017-05-01T07:22:16.000Z</time>
      </trkpt>
      <trkpt lat="49.40919" lon="1.80056">
        <ele>154.49160766602</ele>
        <time>2017-05-01T07:22:18.000Z</time>
      </trkpt>
      <trkpt lat="49.40914" lon="1.80063">
        <ele>154.24783325195</ele>
        <time>2017-05-01T07:22:21.000Z</time>
      </trkpt>
      <trkpt lat="49.40909" lon="1.80069">
        <ele>154.11059570312</ele>
        <time>2017-05-01T07:22:24.000Z</time>
      </trkpt>
      <trkpt lat="49.40905" lon="1.80074">
        <ele>154.0626373291</ele>
        <time>2017-05-01T07:22:26.000Z</time>
      </trkpt>
      <trkpt lat="49.40901" lon="1.80082">
        <ele>154.09503173828</ele>
        <time>2017-05-01T07:22:29.000Z</time>
      </trkpt>
      <trkpt lat="49.40898" lon="1.80086">
        <ele>154.21449279785</ele>
        <time>2017-05-01T07:22:31.000Z</time>
      </trkpt>
      <trkpt lat="49.40893" lon="1.80093">
        <ele>154.43310546875</ele>
        <time>2017-05-01T07:22:34.000Z</time>
      </trkpt>
      <trkpt lat="49.40889" lon="1.80099">
        <ele>154.66683959961</ele>
        <time>2017-05-01T07:22:37.000Z</time>
      </trkpt>
      <trkpt lat="49.40886" lon="1.80104">
        <ele>154.90771484375</ele>
        <time>2017-05-01T07:22:39.000Z</time>
      </trkpt>
      <trkpt lat="49.40883" lon="1.80108">
        <ele>155.14868164062</ele>
        <time>2017-05-01T07:22:41.000Z</time>
      </trkpt>
      <trkpt lat="49.4088" lon="1.80116">
        <ele>155.39749145508</ele>
        <time>2017-05-01T07:22:44.000Z</time>
      </trkpt>
      <trkpt lat="49.40877" lon="1.80125">
        <ele>155.61906433105</ele>
        <time>2017-05-01T07:22:47.000Z</time>
      </trkpt>
      <trkpt lat="49.40874" lon="1.80137">
        <ele>155.82266235352</ele>
        <time>2017-05-01T07:22:50.000Z</time>
      </trkpt>
      <trkpt lat="49.40872" lon="1.80148">
        <ele>156.02932739258</ele>
        <time>2017-05-01T07:22:53.000Z</time>
      </trkpt>
      <trkpt lat="49.40871" lon="1.80158">
        <ele>156.24304199219</ele>
        <time>2017-05-01T07:22:56.000Z</time>
      </trkpt>
      <trkpt lat="49.4087" lon="1.80165">
        <ele>156.43089294434</ele>
        <time>2017-05-01T07:22:58.000Z</time>
      </trkpt>
      <trkpt lat="49.40869" lon="1.80175">
        <ele>156.61837768555</ele>
        <time>2017-05-01T07:23:01.000Z</time>
      </trkpt>
      <trkpt lat="49.40869" lon="1.80182">
        <ele>156.79498291016</ele>
        <time>2017-05-01T07:23:03.000Z</time>
      </trkpt>
      <trkpt lat="49.40868" lon="1.80192">
        <ele>156.98886108398</ele>
        <time>2017-05-01T07:23:06.000Z</time>
      </trkpt>
      <trkpt lat="49.40868" lon="1.80199">
        <ele>157.17678833008</ele>
        <time>2017-05-01T07:23:08.000Z</time>
      </trkpt>
      <trkpt lat="49.40867" lon="1.80211">
        <ele>157.40556335449</ele>
        <time>2017-05-01T07:23:11.000Z</time>
      </trkpt>
      <trkpt lat="49.40867" lon="1.80219">
        <ele>157.6307220459</ele>
        <time>2017-05-01T07:23:13.000Z</time>
      </trkpt>
      <trkpt lat="49.40866" lon="1.80231">
        <ele>157.88307189941</ele>
        <time>2017-05-01T07:23:16.000Z</time>
      </trkpt>
      <trkpt lat="49.40865" lon="1.80239">
        <ele>158.11293029785</ele>
        <time>2017-05-01T07:23:18.000Z</time>
      </trkpt>
      <trkpt lat="49.40864" lon="1.80247">
        <ele>158.35025024414</ele>
        <time>2017-05-01T07:23:20.000Z</time>
      </trkpt>
      <trkpt lat="49.40862" lon="1.80259">
        <ele>158.64921569824</ele>
        <time>2017-05-01T07:23:23.000Z</time>
      </trkpt>
      <trkpt lat="49.4086" lon="1.80269">
        <ele>159.02697753906</ele>
        <time>2017-05-01T07:23:26.000Z</time>
      </trkpt>
      <trkpt lat="49.40858" lon="1.80277">
        <ele>159.41967773438</ele>
        <time>2017-05-01T07:23:28.000Z</time>
      </trkpt>
      <trkpt lat="49.40855" lon="1.80284">
        <ele>159.81819152832</ele>
        <time>2017-05-01T07:23:30.000Z</time>
      </trkpt>
      <trkpt lat="49.40852" lon="1.80295">
        <ele>160.26219177246</ele>
        <time>2017-05-01T07:23:33.000Z</time>
      </trkpt>
      <trkpt lat="49.4085" lon="1.80302">
        <ele>160.64292907715</ele>
        <time>2017-05-01T07:23:35.000Z</time>
      </trkpt>
      <trkpt lat="49.40849" lon="1.80313">
        <ele>161.01362609863</ele>
        <time>2017-05-01T07:23:38.000Z</time>
      </trkpt>
      <trkpt lat="49.40849" lon="1.8032">
        <ele>161.37385559082</ele>
        <time>2017-05-01T07:23:40.000Z</time>
      </trkpt>
      <trkpt lat="49.40847" lon="1.80328">
        <ele>161.75350952148</ele>
        <time>2017-05-01T07:23:42.000Z</time>
      </trkpt>
      <trkpt lat="49.40845" lon="1.80337">
        <ele>162.11540222168</ele>
        <time>2017-05-01T07:23:45.000Z</time>
      </trkpt>
      <trkpt lat="49.40842" lon="1.80346">
        <ele>162.46078491211</ele>
        <time>2017-05-01T07:23:48.000Z</time>
      </trkpt>
      <trkpt lat="49.40838" lon="1.80353">
        <ele>162.66598510742</ele>
        <time>2017-05-01T07:23:51.000Z</time>
      </trkpt>
      <trkpt lat="49.40835" lon="1.80358">
        <ele>162.78045654297</ele>
        <time>2017-05-01T07:23:53.000Z</time>
      </trkpt>
      <trkpt lat="49.40831" lon="1.80366">
        <ele>162.8751373291</ele>
        <time>2017-05-01T07:23:56.000Z</time>
      </trkpt>
      <trkpt lat="49.40829" lon="1.80372">
        <ele>162.97348022461</ele>
        <time>2017-05-01T07:23:58.000Z</time>
      </trkpt>
      <trkpt lat="49.40827" lon="1.80378">
        <ele>163.09266662598</ele>
        <time>2017-05-01T07:24:00.000Z</time>
      </trkpt>
      <trkpt lat="49.40823" lon="1.80389">
        <ele>163.35153198242</ele>
        <time>2017-05-01T07:24:03.000Z</time>
      </trkpt>
      <trkpt lat="49.40818" lon="1.80395">
        <ele>163.67420959473</ele>
        <time>2017-05-01T07:24:05.000Z</time>
      </trkpt>
      <trkpt lat="49.40807" lon="1.80408">
        <ele>164.02746582031</ele>
        <time>2017-05-01T07:24:08.000Z</time>
      </trkpt>
      <trkpt lat="49.40799" lon="1.80423">
        <ele>164.44464111328</ele>
        <time>2017-05-01T07:24:11.000Z</time>
      </trkpt>
      <trkpt lat="49.40794" lon="1.80437">
        <ele>164.98031616211</ele>
        <time>2017-05-01T07:24:14.000Z</time>
      </trkpt>
      <trkpt lat="49.40789" lon="1.80451">
        <ele>165.57339477539</ele>
        <time>2017-05-01T07:24:17.000Z</time>
      </trkpt>
      <trkpt lat="49.40784" lon="1.8046">
        <ele>166.18606567383</ele>
        <time>2017-05-01T07:24:19.000Z</time>
      </trkpt>
      <trkpt lat="49.40781" lon="1.80466">
        <ele>166.73910522461</ele>
        <time>2017-05-01T07:24:21.000Z</time>
      </trkpt>
      <trkpt lat="49.40777" lon="1.80472">
        <ele>167.16316223145</ele>
        <time>2017-05-01T07:24:23.000Z</time>
      </trkpt>
      <trkpt lat="49.40771" lon="1.80484">
        <ele>167.37557983398</ele>
        <time>2017-05-01T07:24:26.000Z</time>
      </trkpt>
      <trkpt lat="49.40763" lon="1.80494">
        <ele>167.31051635742</ele>
        <time>2017-05-01T07:24:29.000Z</time>
      </trkpt>
      <trkpt lat="49.40758" lon="1.80498">
        <ele>167.04945373535</ele>
        <time>2017-05-01T07:24:31.000Z</time>
      </trkpt>
      <trkpt lat="49.40752" lon="1.80502">
        <ele>166.64462280273</ele>
        <time>2017-05-01T07:24:33.000Z</time>
      </trkpt>
      <trkpt lat="49.40744" lon="1.80509">
        <ele>166.34902954102</ele>
        <time>2017-05-01T07:24:36.000Z</time>
      </trkpt>
      <trkpt lat="49.40739" lon="1.80519">
        <ele>166.29663085938</ele>
        <time>2017-05-01T07:24:39.000Z</time>
      </trkpt>
      <trkpt lat="49.40733" lon="1.80529">
        <ele>166.54397583008</ele>
        <time>2017-05-01T07:24:42.000Z</time>
      </trkpt>
      <trkpt lat="49.40729" lon="1.80535">
        <ele>167.03019714355</ele>
        <time>2017-05-01T07:24:44.000Z</time>
      </trkpt>
      <trkpt lat="49.40725" lon="1.80541">
        <ele>167.73989868164</ele>
        <time>2017-05-01T07:24:46.000Z</time>
      </trkpt>
      <trkpt lat="49.40721" lon="1.80546">
        <ele>168.39392089844</ele>
        <time>2017-05-01T07:24:48.000Z</time>
      </trkpt>
      <trkpt lat="49.40715" lon="1.80554">
        <ele>168.93254089355</ele>
        <time>2017-05-01T07:24:51.000Z</time>
      </trkpt>
      <trkpt lat="49.40713" lon="1.80559">
        <ele>169.33911132812</ele>
        <time>2017-05-01T07:24:53.000Z</time>
      </trkpt>
      <trkpt lat="49.4071" lon="1.80565">
        <ele>169.70014953613</ele>
        <time>2017-05-01T07:24:55.000Z</time>
      </trkpt>
      <trkpt lat="49.40705" lon="1.80574">
        <ele>170.03967285156</ele>
        <time>2017-05-01T07:24:58.000Z</time>
      </trkpt>
      <trkpt lat="49.40698" lon="1.80582">
        <ele>170.34254455566</ele>
        <time>2017-05-01T07:25:01.000Z</time>
      </trkpt>
      <trkpt lat="49.40693" lon="1.80587">
        <ele>170.55090332031</ele>
        <time>2017-05-01T07:25:03.000Z</time>
      </trkpt>
      <trkpt lat="49.40686" lon="1.80593">
        <ele>170.7135925293</ele>
        <time>2017-05-01T07:25:06.000Z</time>
      </trkpt>
      <trkpt lat="49.40682" lon="1.80598">
        <ele>170.82278442383</ele>
        <time>2017-05-01T07:25:08.000Z</time>
      </trkpt>
      <trkpt lat="49.40676" lon="1.80607">
        <ele>170.88345336914</ele>
        <time>2017-05-01T07:25:11.000Z</time>
      </trkpt>
      <trkpt lat="49.40675" lon="1.80611">
        <ele>170.92909240723</ele>
        <time>2017-05-01T07:25:14.000Z</time>
      </trkpt>
      <trkpt lat="49.40675" lon="1.80613">
        <ele>170.99404907227</ele>
        <time>2017-05-01T07:25:16.000Z</time>
      </trkpt>
      <trkpt lat="49.40674" lon="1.80615">
        <ele>171.06231689453</ele>
        <time>2017-05-01T07:25:18.000Z</time>
      </trkpt>
      <trkpt lat="49.40673" lon="1.80618">
        <ele>171.14489746094</ele>
        <time>2017-05-01T07:25:21.000Z</time>
      </trkpt>
      <trkpt lat="49.40672" lon="1.80619">
        <ele>171.20330810547</ele>
        <time>2017-05-01T07:25:23.000Z</time>
      </trkpt>
      <trkpt lat="49.4067" lon="1.8062">
        <ele>171.23150634766</ele>
        <time>2017-05-01T07:25:35.000Z</time>
      </trkpt>
      <trkpt lat="49.4067" lon="1.80622">
        <ele>171.25151062012</ele>
        <time>2017-05-01T07:25:41.000Z</time>
      </trkpt>
      <trkpt lat="49.4067" lon="1.80624">
        <ele>171.27914428711</ele>
        <time>2017-05-01T07:25:44.000Z</time>
      </trkpt>
      <trkpt lat="49.40671" lon="1.80627">
        <ele>171.3171081543</ele>
        <time>2017-05-01T07:25:47.000Z</time>
      </trkpt>
      <trkpt lat="49.4067" lon="1.80627">
        <ele>171.35707092285</ele>
        <time>2017-05-01T07:25:50.000Z</time>
      </trkpt>
      <trkpt lat="49.40668" lon="1.80628">
        <ele>171.39340209961</ele>
        <time>2017-05-01T07:25:55.000Z</time>
      </trkpt>
      <trkpt lat="49.40667" lon="1.80627">
        <ele>171.36749267578</ele>
        <time>2017-05-01T07:26:00.000Z</time>
      </trkpt>
      <trkpt lat="49.40664" lon="1.80624">
        <ele>171.35047912598</ele>
        <time>2017-05-01T07:26:03.000Z</time>
      </trkpt>
      <trkpt lat="49.40664" lon="1.80625">
        <ele>171.33236694336</ele>
        <time>2017-05-01T07:26:12.000Z</time>
      </trkpt>
      <trkpt lat="49.40663" lon="1.80626">
        <ele>171.34985351562</ele>
        <time>2017-05-01T07:26:14.000Z</time>
      </trkpt>
      <trkpt lat="49.40661" lon="1.8063">
        <ele>171.49604797363</ele>
        <time>2017-05-01T07:26:17.000Z</time>
      </trkpt>
      <trkpt lat="49.40659" lon="1.80634">
        <ele>171.79220581055</ele>
        <time>2017-05-01T07:26:19.000Z</time>
      </trkpt>
      <trkpt lat="49.40656" lon="1.80638">
        <ele>172.16928100586</ele>
        <time>2017-05-01T07:26:22.000Z</time>
      </trkpt>
      <trkpt lat="49.40652" lon="1.80644">
        <ele>172.64505004883</ele>
        <time>2017-05-01T07:26:25.000Z</time>
      </trkpt>
      <trkpt lat="49.40648" lon="1.80652">
        <ele>173.26193237305</ele>
        <time>2017-05-01T07:26:28.000Z</time>
      </trkpt>
      <trkpt lat="49.40642" lon="1.8066">
        <ele>173.94340515137</ele>
        <time>2017-05-01T07:26:31.000Z</time>
      </trkpt>
      <trkpt lat="49.4064" lon="1.80669">
        <ele>174.60220336914</ele>
        <time>2017-05-01T07:26:34.000Z</time>
      </trkpt>
      <trkpt lat="49.40636" lon="1.80679">
        <ele>175.23098754883</ele>
        <time>2017-05-01T07:26:37.000Z</time>
      </trkpt>
      <trkpt lat="49.40634" lon="1.80686">
        <ele>175.77474975586</ele>
        <time>2017-05-01T07:26:39.000Z</time>
      </trkpt>
      <trkpt lat="49.40629" lon="1.807">
        <ele>176.18539428711</ele>
        <time>2017-05-01T07:26:42.000Z</time>
      </trkpt>
      <trkpt lat="49.40627" lon="1.8071">
        <ele>176.41926574707</ele>
        <time>2017-05-01T07:26:44.000Z</time>
      </trkpt>
      <trkpt lat="49.40622" lon="1.80725">
        <ele>176.53005981445</ele>
        <time>2017-05-01T07:26:47.000Z</time>
      </trkpt>
      <trkpt lat="49.40617" lon="1.80737">
        <ele>176.47366333008</ele>
        <time>2017-05-01T07:26:50.000Z</time>
      </trkpt>
      <trkpt lat="49.40612" lon="1.80747">
        <ele>176.26863098145</ele>
        <time>2017-05-01T07:26:53.000Z</time>
      </trkpt>
      <trkpt lat="49.40607" lon="1.80754">
        <ele>175.96064758301</ele>
        <time>2017-05-01T07:26:55.000Z</time>
      </trkpt>
      <trkpt lat="49.40603" lon="1.80761">
        <ele>175.63229370117</ele>
        <time>2017-05-01T07:26:57.000Z</time>
      </trkpt>
      <trkpt lat="49.40599" lon="1.80768">
        <ele>175.30255126953</ele>
        <time>2017-05-01T07:27:00.000Z</time>
      </trkpt>
      <trkpt lat="49.40597" lon="1.80774">
        <ele>175.03189086914</ele>
        <time>2017-05-01T07:27:02.000Z</time>
      </trkpt>
      <trkpt lat="49.40594" lon="1.80787">
        <ele>174.81185913086</ele>
        <time>2017-05-01T07:27:05.000Z</time>
      </trkpt>
      <trkpt lat="49.40591" lon="1.80796">
        <ele>174.59732055664</ele>
        <time>2017-05-01T07:27:08.000Z</time>
      </trkpt>
      <trkpt lat="49.40588" lon="1.80804">
        <ele>174.3588104248</ele>
        <time>2017-05-01T07:27:10.000Z</time>
      </trkpt>
      <trkpt lat="49.40585" lon="1.80816">
        <ele>174.07734680176</ele>
        <time>2017-05-01T07:27:13.000Z</time>
      </trkpt>
      <trkpt lat="49.40583" lon="1.80824">
        <ele>173.76879882812</ele>
        <time>2017-05-01T07:27:15.000Z</time>
      </trkpt>
      <trkpt lat="49.40579" lon="1.80838">
        <ele>173.61625671387</ele>
        <time>2017-05-01T07:27:18.000Z</time>
      </trkpt>
      <trkpt lat="49.40577" lon="1.80848">
        <ele>173.59016418457</ele>
        <time>2017-05-01T07:27:20.000Z</time>
      </trkpt>
      <trkpt lat="49.40576" lon="1.80864">
        <ele>173.63021850586</ele>
        <time>2017-05-01T07:27:23.000Z</time>
      </trkpt>
      <trkpt lat="49.40577" lon="1.80874">
        <ele>173.7341003418</ele>
        <time>2017-05-01T07:27:26.000Z</time>
      </trkpt>
      <trkpt lat="49.40576" lon="1.80883">
        <ele>173.9140625</ele>
        <time>2017-05-01T07:27:28.000Z</time>
      </trkpt>
      <trkpt lat="49.40577" lon="1.80896">
        <ele>173.97265625</ele>
        <time>2017-05-01T07:27:31.000Z</time>
      </trkpt>
      <trkpt lat="49.40578" lon="1.80906">
        <ele>173.9375</ele>
        <time>2017-05-01T07:27:33.000Z</time>
      </trkpt>
      <trkpt lat="49.40578" lon="1.80916">
        <ele>173.8671875</ele>
        <time>2017-05-01T07:27:35.000Z</time>
      </trkpt>
      <trkpt lat="49.40579" lon="1.80927">
        <ele>173.91761779785</ele>
        <time>2017-05-01T07:27:37.000Z</time>
      </trkpt>
      <trkpt lat="49.40581" lon="1.80936">
        <ele>174.01364135742</ele>
        <time>2017-05-01T07:27:39.000Z</time>
      </trkpt>
      <trkpt lat="49.40583" lon="1.80946">
        <ele>174.1902923584</ele>
        <time>2017-05-01T07:27:41.000Z</time>
      </trkpt>
      <trkpt lat="49.40585" lon="1.80957">
        <ele>174.54154968262</ele>
        <time>2017-05-01T07:27:43.000Z</time>
      </trkpt>
      <trkpt lat="49.40586" lon="1.80964">
        <ele>175.03469848633</ele>
        <time>2017-05-01T07:27:45.000Z</time>
      </trkpt>
      <trkpt lat="49.40588" lon="1.80974">
        <ele>175.57139587402</ele>
        <time>2017-05-01T07:27:47.000Z</time>
      </trkpt>
      <trkpt lat="49.4059" lon="1.80985">
        <ele>176.2110748291</ele>
        <time>2017-05-01T07:27:49.000Z</time>
      </trkpt>
      <trkpt lat="49.40593" lon="1.81003">
        <ele>177.04676818848</ele>
        <time>2017-05-01T07:27:52.000Z</time>
      </trkpt>
      <trkpt lat="49.40596" lon="1.8102">
        <ele>178.00430297852</ele>
        <time>2017-05-01T07:27:55.000Z</time>
      </trkpt>
      <trkpt lat="49.40598" lon="1.8103">
        <ele>178.98439025879</ele>
        <time>2017-05-01T07:27:57.000Z</time>
      </trkpt>
      <trkpt lat="49.40601" lon="1.81045">
        <ele>180.01690673828</ele>
        <time>2017-05-01T07:28:00.000Z</time>
      </trkpt>
      <trkpt lat="49.40602" lon="1.81056">
        <ele>180.99417114258</ele>
        <time>2017-05-01T07:28:02.000Z</time>
      </trkpt>
      <trkpt lat="49.40604" lon="1.81064">
        <ele>181.8052520752</ele>
        <time>2017-05-01T07:28:04.000Z</time>
      </trkpt>
      <trkpt lat="49.40606" lon="1.8108">
        <ele>182.48471069336</ele>
        <time>2017-05-01T07:28:07.000Z</time>
      </trkpt>
      <trkpt lat="49.40606" lon="1.8109">
        <ele>183.04342651367</ele>
        <time>2017-05-01T07:28:09.000Z</time>
      </trkpt>
      <trkpt lat="49.40607" lon="1.81103">
        <ele>183.36116027832</ele>
        <time>2017-05-01T07:28:12.000Z</time>
      </trkpt>
      <trkpt lat="49.40609" lon="1.81121">
        <ele>183.50065612793</ele>
        <time>2017-05-01T07:28:15.000Z</time>
      </trkpt>
      <trkpt lat="49.4061" lon="1.8113">
        <ele>183.52157592773</ele>
        <time>2017-05-01T07:28:17.000Z</time>
      </trkpt>
      <trkpt lat="49.40616" lon="1.81145">
        <ele>183.3391418457</ele>
        <time>2017-05-01T07:28:20.000Z</time>
      </trkpt>
      <trkpt lat="49.4062" lon="1.81154">
        <ele>183.10513305664</ele>
        <time>2017-05-01T07:28:22.000Z</time>
      </trkpt>
      <trkpt lat="49.40624" lon="1.81163">
        <ele>182.89266967773</ele>
        <time>2017-05-01T07:28:24.000Z</time>
      </trkpt>
      <trkpt lat="49.40631" lon="1.81175">
        <ele>182.82060241699</ele>
        <time>2017-05-01T07:28:27.000Z</time>
      </trkpt>
      <trkpt lat="49.40637" lon="1.8118">
        <ele>182.81657409668</ele>
        <time>2017-05-01T07:28:29.000Z</time>
      </trkpt>
      <trkpt lat="49.40647" lon="1.81188">
        <ele>182.91882324219</ele>
        <time>2017-05-01T07:28:32.000Z</time>
      </trkpt>
      <trkpt lat="49.40651" lon="1.81194">
        <ele>183.08444213867</ele>
        <time>2017-05-01T07:28:34.000Z</time>
      </trkpt>
      <trkpt lat="49.40655" lon="1.812">
        <ele>183.30264282227</ele>
        <time>2017-05-01T07:28:37.000Z</time>
      </trkpt>
      <trkpt lat="49.40657" lon="1.81205">
        <ele>183.46664428711</ele>
        <time>2017-05-01T07:28:39.000Z</time>
      </trkpt>
      <trkpt lat="49.40659" lon="1.81214">
        <ele>183.65650939941</ele>
        <time>2017-05-01T07:28:42.000Z</time>
      </trkpt>
      <trkpt lat="49.40662" lon="1.81221">
        <ele>183.83081054688</ele>
        <time>2017-05-01T07:28:44.000Z</time>
      </trkpt>
      <trkpt lat="49.40664" lon="1.81226">
        <ele>183.98182678223</ele>
        <time>2017-05-01T07:28:46.000Z</time>
      </trkpt>
      <trkpt lat="49.40669" lon="1.81233">
        <ele>184.20399475098</ele>
        <time>2017-05-01T07:28:49.000Z</time>
      </trkpt>
      <trkpt lat="49.40672" lon="1.81238">
        <ele>184.48945617676</ele>
        <time>2017-05-01T07:28:51.000Z</time>
      </trkpt>
      <trkpt lat="49.40675" lon="1.81245">
        <ele>184.84024047852</ele>
        <time>2017-05-01T07:28:54.000Z</time>
      </trkpt>
      <trkpt lat="49.40678" lon="1.8125">
        <ele>185.24113464355</ele>
        <time>2017-05-01T07:28:56.000Z</time>
      </trkpt>
      <trkpt lat="49.40683" lon="1.81257">
        <ele>185.76823425293</ele>
        <time>2017-05-01T07:28:59.000Z</time>
      </trkpt>
      <trkpt lat="49.40688" lon="1.81262">
        <ele>186.326171875</ele>
        <time>2017-05-01T07:29:02.000Z</time>
      </trkpt>
      <trkpt lat="49.40693" lon="1.81271">
        <ele>186.90615844727</ele>
        <time>2017-05-01T07:29:05.000Z</time>
      </trkpt>
      <trkpt lat="49.40698" lon="1.81278">
        <ele>187.4656829834</ele>
        <time>2017-05-01T07:29:08.000Z</time>
      </trkpt>
      <trkpt lat="49.40701" lon="1.81284">
        <ele>188.00329589844</ele>
        <time>2017-05-01T07:29:10.000Z</time>
      </trkpt>
      <trkpt lat="49.40704" lon="1.81295">
        <ele>188.47055053711</ele>
        <time>2017-05-01T07:29:13.000Z</time>
      </trkpt>
      <trkpt lat="49.40707" lon="1.81305">
        <ele>188.85081481934</ele>
        <time>2017-05-01T07:29:16.000Z</time>
      </trkpt>
      <trkpt lat="49.40709" lon="1.81313">
        <ele>189.13998413086</ele>
        <time>2017-05-01T07:29:18.000Z</time>
      </trkpt>
      <trkpt lat="49.40712" lon="1.81323">
        <ele>189.35038757324</ele>
        <time>2017-05-01T07:29:21.000Z</time>
      </trkpt>
      <trkpt lat="49.40714" lon="1.81333">
        <ele>189.51237487793</ele>
        <time>2017-05-01T07:29:24.000Z</time>
      </trkpt>
      <trkpt lat="49.40716" lon="1.81339">
        <ele>189.63359069824</ele>
        <time>2017-05-01T07:29:26.000Z</time>
      </trkpt>
      <trkpt lat="49.40717" lon="1.81344">
        <ele>189.73083496094</ele>
        <time>2017-05-01T07:29:28.000Z</time>
      </trkpt>
      <trkpt lat="49.4072" lon="1.81349">
        <ele>189.82051086426</ele>
        <time>2017-05-01T07:29:30.000Z</time>
      </trkpt>
      <trkpt lat="49.40725" lon="1.81356">
        <ele>189.88473510742</ele>
        <time>2017-05-01T07:29:33.000Z</time>
      </trkpt>
      <trkpt lat="49.40728" lon="1.81361">
        <ele>189.92924499512</ele>
        <time>2017-05-01T07:29:35.000Z</time>
      </trkpt>
      <trkpt lat="49.40732" lon="1.8137">
        <ele>189.91052246094</ele>
        <time>2017-05-01T07:29:38.000Z</time>
      </trkpt>
      <trkpt lat="49.40736" lon="1.81378">
        <ele>189.8147277832</ele>
        <time>2017-05-01T07:29:41.000Z</time>
      </trkpt>
      <trkpt lat="49.40738" lon="1.81382">
        <ele>189.67236328125</ele>
        <time>2017-05-01T07:29:43.000Z</time>
      </trkpt>
      <trkpt lat="49.40741" lon="1.81388">
        <ele>189.44747924805</ele>
        <time>2017-05-01T07:29:46.000Z</time>
      </trkpt>
      <trkpt lat="49.40744" lon="1.81391">
        <ele>189.18246459961</ele>
        <time>2017-05-01T07:29:48.000Z</time>
      </trkpt>
      <trkpt lat="49.40748" lon="1.81395">
        <ele>188.87141418457</ele>
        <time>2017-05-01T07:29:51.000Z</time>
      </trkpt>
      <trkpt lat="49.4075" lon="1.81399">
        <ele>188.55192565918</ele>
        <time>2017-05-01T07:29:53.000Z</time>
      </trkpt>
      <trkpt lat="49.40754" lon="1.81404">
        <ele>188.3599395752</ele>
        <time>2017-05-01T07:29:56.000Z</time>
      </trkpt>
      <trkpt lat="49.40757" lon="1.81405">
        <ele>188.37841796875</ele>
        <time>2017-05-01T07:29:59.000Z</time>
      </trkpt>
      <trkpt lat="49.4076" lon="1.81406">
        <ele>188.55899047852</ele>
        <time>2017-05-01T07:30:01.000Z</time>
      </trkpt>
      <trkpt lat="49.40762" lon="1.8141">
        <ele>188.8314666748</ele>
        <time>2017-05-01T07:30:03.000Z</time>
      </trkpt>
      <trkpt lat="49.40763" lon="1.81422">
        <ele>189.22500610352</ele>
        <time>2017-05-01T07:30:06.000Z</time>
      </trkpt>
      <trkpt lat="49.40765" lon="1.81432">
        <ele>189.73348999023</ele>
        <time>2017-05-01T07:30:09.000Z</time>
      </trkpt>
      <trkpt lat="49.40768" lon="1.81439">
        <ele>190.26847839355</ele>
        <time>2017-05-01T07:30:11.000Z</time>
      </trkpt>
      <trkpt lat="49.40771" lon="1.81451">
        <ele>190.89559936523</ele>
        <time>2017-05-01T07:30:14.000Z</time>
      </trkpt>
      <trkpt lat="49.40773" lon="1.81459">
        <ele>191.63217163086</ele>
        <time>2017-05-01T07:30:16.000Z</time>
      </trkpt>
      <trkpt lat="49.40777" lon="1.8147">
        <ele>192.46281433105</ele>
        <time>2017-05-01T07:30:19.000Z</time>
      </trkpt>
      <trkpt lat="49.40779" lon="1.81477">
        <ele>193.1664276123</ele>
        <time>2017-05-01T07:30:21.000Z</time>
      </trkpt>
      <trkpt lat="49.40784" lon="1.81487">
        <ele>193.79306030273</ele>
        <time>2017-05-01T07:30:24.000Z</time>
      </trkpt>
      <trkpt lat="49.40789" lon="1.81496">
        <ele>194.2585144043</ele>
        <time>2017-05-01T07:30:27.000Z</time>
      </trkpt>
      <trkpt lat="49.40791" lon="1.81502">
        <ele>194.64521789551</ele>
        <time>2017-05-01T07:30:29.000Z</time>
      </trkpt>
      <trkpt lat="49.40794" lon="1.81512">
        <ele>195.01387023926</ele>
        <time>2017-05-01T07:30:32.000Z</time>
      </trkpt>
      <trkpt lat="49.40797" lon="1.8152">
        <ele>195.38275146484</ele>
        <time>2017-05-01T07:30:35.000Z</time>
      </trkpt>
      <trkpt lat="49.40799" lon="1.8153">
        <ele>195.77555847168</ele>
        <time>2017-05-01T07:30:38.000Z</time>
      </trkpt>
      <trkpt lat="49.40799" lon="1.8154">
        <ele>196.23942565918</ele>
        <time>2017-05-01T07:30:41.000Z</time>
      </trkpt>
      <trkpt lat="49.408" lon="1.81549">
        <ele>196.73602294922</ele>
        <time>2017-05-01T07:30:44.000Z</time>
      </trkpt>
      <trkpt lat="49.40802" lon="1.81555">
        <ele>197.12728881836</ele>
        <time>2017-05-01T07:30:50.000Z</time>
      </trkpt>
      <trkpt lat="49.40804" lon="1.81563">
        <ele>197.47770690918</ele>
        <time>2017-05-01T07:30:50.000Z</time>
      </trkpt>
      <trkpt lat="49.40804" lon="1.81568">
        <ele>197.76892089844</ele>
        <time>2017-05-01T07:30:52.000Z</time>
      </trkpt>
      <trkpt lat="49.40801" lon="1.81577">
        <ele>198.1372833252</ele>
        <time>2017-05-01T07:30:55.000Z</time>
      </trkpt>
      <trkpt lat="49.40799" lon="1.81584">
        <ele>198.5668182373</ele>
        <time>2017-05-01T07:30:57.000Z</time>
      </trkpt>
      <trkpt lat="49.40797" lon="1.81595">
        <ele>199.16748046875</ele>
        <time>2017-05-01T07:31:00.000Z</time>
      </trkpt>
      <trkpt lat="49.40796" lon="1.81603">
        <ele>199.87953186035</ele>
        <time>2017-05-01T07:31:02.000Z</time>
      </trkpt>
      <trkpt lat="49.40794" lon="1.81615">
        <ele>200.740234375</ele>
        <time>2017-05-01T07:31:05.000Z</time>
      </trkpt>
      <trkpt lat="49.40794" lon="1.81623">
        <ele>201.5129699707</ele>
        <time>2017-05-01T07:31:07.000Z</time>
      </trkpt>
      <trkpt lat="49.40793" lon="1.8163">
        <ele>202.28227233887</ele>
        <time>2017-05-01T07:31:09.000Z</time>
      </trkpt>
      <trkpt lat="49.40791" lon="1.81638">
        <ele>203.02546691895</ele>
        <time>2017-05-01T07:31:12.000Z</time>
      </trkpt>
      <trkpt lat="49.40791" lon="1.81648">
        <ele>203.73751831055</ele>
        <time>2017-05-01T07:31:15.000Z</time>
      </trkpt>
      <trkpt lat="49.40791" lon="1.81654">
        <ele>204.32925415039</ele>
        <time>2017-05-01T07:31:17.000Z</time>
      </trkpt>
      <trkpt lat="49.40792" lon="1.81659">
        <ele>204.82754516602</ele>
        <time>2017-05-01T07:31:19.000Z</time>
      </trkpt>
      <trkpt lat="49.40794" lon="1.81665">
        <ele>205.21186828613</ele>
        <time>2017-05-01T07:31:21.000Z</time>
      </trkpt>
      <trkpt lat="49.40794" lon="1.81672">
        <ele>205.47964477539</ele>
        <time>2017-05-01T07:31:23.000Z</time>
      </trkpt>
      <trkpt lat="49.40798" lon="1.81684">
        <ele>205.6138458252</ele>
        <time>2017-05-01T07:31:26.000Z</time>
      </trkpt>
      <trkpt lat="49.40799" lon="1.81695">
        <ele>205.75566101074</ele>
        <time>2017-05-01T07:31:29.000Z</time>
      </trkpt>
      <trkpt lat="49.40801" lon="1.817">
        <ele>205.89726257324</ele>
        <time>2017-05-01T07:31:31.000Z</time>
      </trkpt>
      <trkpt lat="49.40802" lon="1.81704">
        <ele>206.02949523926</ele>
        <time>2017-05-01T07:31:33.000Z</time>
      </trkpt>
      <trkpt lat="49.40804" lon="1.81712">
        <ele>206.1402130127</ele>
        <time>2017-05-01T07:31:36.000Z</time>
      </trkpt>
      <trkpt lat="49.40805" lon="1.81722">
        <ele>206.33432006836</ele>
        <time>2017-05-01T07:31:39.000Z</time>
      </trkpt>
      <trkpt lat="49.40807" lon="1.81728">
        <ele>206.4674987793</ele>
        <time>2017-05-01T07:31:41.000Z</time>
      </trkpt>
      <trkpt lat="49.40808" lon="1.8174">
        <ele>206.68876647949</ele>
        <time>2017-05-01T07:31:44.000Z</time>
      </trkpt>
      <trkpt lat="49.40808" lon="1.81747">
        <ele>207.00842285156</ele>
        <time>2017-05-01T07:31:46.000Z</time>
      </trkpt>
      <trkpt lat="49.40808" lon="1.81755">
        <ele>207.39114379883</ele>
        <time>2017-05-01T07:31:49.000Z</time>
      </trkpt>
      <trkpt lat="49.4081" lon="1.81759">
        <ele>207.68058776855</ele>
        <time>2017-05-01T07:31:51.000Z</time>
      </trkpt>
      <trkpt lat="49.40811" lon="1.81769">
        <ele>208.04035949707</ele>
        <time>2017-05-01T07:31:54.000Z</time>
      </trkpt>
      <trkpt lat="49.4081" lon="1.81775">
        <ele>208.40446472168</ele>
        <time>2017-05-01T07:31:56.000Z</time>
      </trkpt>
      <trkpt lat="49.40809" lon="1.81782">
        <ele>208.79098510742</ele>
        <time>2017-05-01T07:31:58.000Z</time>
      </trkpt>
      <trkpt lat="49.40807" lon="1.81792">
        <ele>209.27359008789</ele>
        <time>2017-05-01T07:32:01.000Z</time>
      </trkpt>
      <trkpt lat="49.40805" lon="1.818">
        <ele>209.92155456543</ele>
        <time>2017-05-01T07:32:03.000Z</time>
      </trkpt>
      <trkpt lat="49.40804" lon="1.81808">
        <ele>210.61557006836</ele>
        <time>2017-05-01T07:32:06.000Z</time>
      </trkpt>
      <trkpt lat="49.40802" lon="1.81815">
        <ele>211.32978820801</ele>
        <time>2017-05-01T07:32:08.000Z</time>
      </trkpt>
      <trkpt lat="49.40797" lon="1.81823">
        <ele>212.12748718262</ele>
        <time>2017-05-01T07:32:10.000Z</time>
      </trkpt>
      <trkpt lat="49.40792" lon="1.81832">
        <ele>212.97456359863</ele>
        <time>2017-05-01T07:32:13.000Z</time>
      </trkpt>
      <trkpt lat="49.40789" lon="1.8184">
        <ele>213.69003295898</ele>
        <time>2017-05-01T07:32:15.000Z</time>
      </trkpt>
      <trkpt lat="49.40786" lon="1.8185">
        <ele>214.25468444824</ele>
        <time>2017-05-01T07:32:18.000Z</time>
      </trkpt>
      <trkpt lat="49.40784" lon="1.8186">
        <ele>214.63423156738</ele>
        <time>2017-05-01T07:32:21.000Z</time>
      </trkpt>
      <trkpt lat="49.40786" lon="1.81868">
        <ele>214.6955871582</ele>
        <time>2017-05-01T07:32:23.000Z</time>
      </trkpt>
      <trkpt lat="49.40789" lon="1.81876">
        <ele>214.375</ele>
        <time>2017-05-01T07:32:26.000Z</time>
      </trkpt>
      <trkpt lat="49.4079" lon="1.81877">
        <ele>213.99072265625</ele>
        <time>2017-05-01T07:32:31.000Z</time>
      </trkpt>
      <trkpt lat="49.40789" lon="1.81878">
        <ele>213.63488769531</ele>
        <time>2017-05-01T07:32:35.000Z</time>
      </trkpt>
      <trkpt lat="49.40788" lon="1.8188">
        <ele>213.35021972656</ele>
        <time>2017-05-01T07:32:43.000Z</time>
      </trkpt>
      <trkpt lat="49.40788" lon="1.81886">
        <ele>213.115234375</ele>
        <time>2017-05-01T07:32:46.000Z</time>
      </trkpt>
      <trkpt lat="49.40788" lon="1.81891">
        <ele>212.99621582031</ele>
        <time>2017-05-01T07:32:48.000Z</time>
      </trkpt>
      <trkpt lat="49.40786" lon="1.819">
        <ele>212.88659667969</ele>
        <time>2017-05-01T07:32:51.000Z</time>
      </trkpt>
      <trkpt lat="49.40782" lon="1.8191">
        <ele>212.76342773438</ele>
        <time>2017-05-01T07:32:54.000Z</time>
      </trkpt>
      <trkpt lat="49.40779" lon="1.81917">
        <ele>212.62545776367</ele>
        <time>2017-05-01T07:32:57.000Z</time>
      </trkpt>
      <trkpt lat="49.40776" lon="1.81925">
        <ele>212.482421875</ele>
        <time>2017-05-01T07:33:00.000Z</time>
      </trkpt>
      <trkpt lat="49.40772" lon="1.81934">
        <ele>212.28715515137</ele>
        <time>2017-05-01T07:33:03.000Z</time>
      </trkpt>
      <trkpt lat="49.40768" lon="1.81946">
        <ele>211.99206542969</ele>
        <time>2017-05-01T07:33:06.000Z</time>
      </trkpt>
      <trkpt lat="49.40765" lon="1.81959">
        <ele>211.49389648438</ele>
        <time>2017-05-01T07:33:09.000Z</time>
      </trkpt>
      <trkpt lat="49.40765" lon="1.81965">
        <ele>210.8939666748</ele>
        <time>2017-05-01T07:33:11.000Z</time>
      </trkpt>
      <trkpt lat="49.40765" lon="1.81969">
        <ele>210.27291870117</ele>
        <time>2017-05-01T07:33:13.000Z</time>
      </trkpt>
      <trkpt lat="49.40763" lon="1.81977">
        <ele>209.58073425293</ele>
        <time>2017-05-01T07:33:16.000Z</time>
      </trkpt>
      <trkpt lat="49.40762" lon="1.81988">
        <ele>208.8200378418</ele>
        <time>2017-05-01T07:33:19.000Z</time>
      </trkpt>
      <trkpt lat="49.4076" lon="1.81998">
        <ele>208.06523132324</ele>
        <time>2017-05-01T07:33:22.000Z</time>
      </trkpt>
      <trkpt lat="49.40759" lon="1.82003">
        <ele>207.33786010742</ele>
        <time>2017-05-01T07:33:24.000Z</time>
      </trkpt>
      <trkpt lat="49.40759" lon="1.8201">
        <ele>206.6139831543</ele>
        <time>2017-05-01T07:33:27.000Z</time>
      </trkpt>
      <trkpt lat="49.40759" lon="1.82016">
        <ele>205.97924804688</ele>
        <time>2017-05-01T07:33:29.000Z</time>
      </trkpt>
      <trkpt lat="49.40758" lon="1.82023">
        <ele>205.47756958008</ele>
        <time>2017-05-01T07:33:31.000Z</time>
      </trkpt>
      <trkpt lat="49.40757" lon="1.82034">
        <ele>205.04428100586</ele>
        <time>2017-05-01T07:33:34.000Z</time>
      </trkpt>
      <trkpt lat="49.40755" lon="1.82044">
        <ele>204.57029724121</ele>
        <time>2017-05-01T07:33:37.000Z</time>
      </trkpt>
      <trkpt lat="49.40755" lon="1.82052">
        <ele>204.09352111816</ele>
        <time>2017-05-01T07:33:39.000Z</time>
      </trkpt>
      <trkpt lat="49.40755" lon="1.82058">
        <ele>203.60899353027</ele>
        <time>2017-05-01T07:33:41.000Z</time>
      </trkpt>
      <trkpt lat="49.40755" lon="1.82068">
        <ele>203.08114624023</ele>
        <time>2017-05-01T07:33:44.000Z</time>
      </trkpt>
      <trkpt lat="49.40754" lon="1.82079">
        <ele>202.56108093262</ele>
        <time>2017-05-01T07:33:47.000Z</time>
      </trkpt>
      <trkpt lat="49.40754" lon="1.82085">
        <ele>202.11418151855</ele>
        <time>2017-05-01T07:33:49.000Z</time>
      </trkpt>
      <trkpt lat="49.40754" lon="1.82097">
        <ele>201.80514526367</ele>
        <time>2017-05-01T07:33:52.000Z</time>
      </trkpt>
      <trkpt lat="49.40754" lon="1.82105">
        <ele>201.6024017334</ele>
        <time>2017-05-01T07:33:54.000Z</time>
      </trkpt>
      <trkpt lat="49.40753" lon="1.82116">
        <ele>201.5662689209</ele>
        <time>2017-05-01T07:33:57.000Z</time>
      </trkpt>
      <trkpt lat="49.40753" lon="1.82127">
        <ele>201.70582580566</ele>
        <time>2017-05-01T07:34:00.000Z</time>
      </trkpt>
      <trkpt lat="49.40754" lon="1.82135">
        <ele>201.93785095215</ele>
        <time>2017-05-01T07:34:02.000Z</time>
      </trkpt>
      <trkpt lat="49.40754" lon="1.82143">
        <ele>202.1575012207</ele>
        <time>2017-05-01T07:34:04.000Z</time>
      </trkpt>
      <trkpt lat="49.40755" lon="1.8215">
        <ele>202.37702941895</ele>
        <time>2017-05-01T07:34:06.000Z</time>
      </trkpt>
      <trkpt lat="49.40755" lon="1.82161">
        <ele>202.60580444336</ele>
        <time>2017-05-01T07:34:09.000Z</time>
      </trkpt>
      <trkpt lat="49.40755" lon="1.82168">
        <ele>202.81217956543</ele>
        <time>2017-05-01T07:34:11.000Z</time>
      </trkpt>
      <trkpt lat="49.40757" lon="1.8218">
        <ele>203.00701904297</ele>
        <time>2017-05-01T07:34:14.000Z</time>
      </trkpt>
      <trkpt lat="49.40757" lon="1.82191">
        <ele>203.1918182373</ele>
        <time>2017-05-01T07:34:17.000Z</time>
      </trkpt>
      <trkpt lat="49.40758" lon="1.82198">
        <ele>203.35786437988</ele>
        <time>2017-05-01T07:34:19.000Z</time>
      </trkpt>
      <trkpt lat="49.40759" lon="1.82209">
        <ele>203.49838256836</ele>
        <time>2017-05-01T07:34:22.000Z</time>
      </trkpt>
      <trkpt lat="49.4076" lon="1.8222">
        <ele>203.63691711426</ele>
        <time>2017-05-01T07:34:25.000Z</time>
      </trkpt>
      <trkpt lat="49.40761" lon="1.82226">
        <ele>203.76461791992</ele>
        <time>2017-05-01T07:34:27.000Z</time>
      </trkpt>
      <trkpt lat="49.40763" lon="1.82236">
        <ele>203.89143371582</ele>
        <time>2017-05-01T07:34:30.000Z</time>
      </trkpt>
      <trkpt lat="49.40764" lon="1.82246">
        <ele>204.02848815918</ele>
        <time>2017-05-01T07:34:33.000Z</time>
      </trkpt>
      <trkpt lat="49.40767" lon="1.82256">
        <ele>204.18035888672</ele>
        <time>2017-05-01T07:34:36.000Z</time>
      </trkpt>
      <trkpt lat="49.40768" lon="1.82263">
        <ele>204.33456420898</ele>
        <time>2017-05-01T07:34:38.000Z</time>
      </trkpt>
      <trkpt lat="49.4077" lon="1.8227">
        <ele>204.49885559082</ele>
        <time>2017-05-01T07:34:40.000Z</time>
      </trkpt>
      <trkpt lat="49.40772" lon="1.82276">
        <ele>204.66506958008</ele>
        <time>2017-05-01T07:34:42.000Z</time>
      </trkpt>
      <trkpt lat="49.40775" lon="1.82285">
        <ele>204.84268188477</ele>
        <time>2017-05-01T07:34:45.000Z</time>
      </trkpt>
      <trkpt lat="49.40779" lon="1.82294">
        <ele>205.01504516602</ele>
        <time>2017-05-01T07:34:48.000Z</time>
      </trkpt>
      <trkpt lat="49.40783" lon="1.82304">
        <ele>205.19140625</ele>
        <time>2017-05-01T07:34:51.000Z</time>
      </trkpt>
      <trkpt lat="49.40786" lon="1.82313">
        <ele>205.369140625</ele>
        <time>2017-05-01T07:34:54.000Z</time>
      </trkpt>
      <trkpt lat="49.40788" lon="1.8232">
        <ele>205.53549194336</ele>
        <time>2017-05-01T07:34:56.000Z</time>
      </trkpt>
      <trkpt lat="49.40791" lon="1.82327">
        <ele>205.68081665039</ele>
        <time>2017-05-01T07:34:58.000Z</time>
      </trkpt>
      <trkpt lat="49.40794" lon="1.82336">
        <ele>205.81611633301</ele>
        <time>2017-05-01T07:35:01.000Z</time>
      </trkpt>
      <trkpt lat="49.40796" lon="1.82341">
        <ele>205.93862915039</ele>
        <time>2017-05-01T07:35:03.000Z</time>
      </trkpt>
      <trkpt lat="49.40799" lon="1.8235">
        <ele>206.0657043457</ele>
        <time>2017-05-01T07:35:06.000Z</time>
      </trkpt>
      <trkpt lat="49.40802" lon="1.82358">
        <ele>206.20455932617</ele>
        <time>2017-05-01T07:35:09.000Z</time>
      </trkpt>
      <trkpt lat="49.40805" lon="1.82366">
        <ele>206.35485839844</ele>
        <time>2017-05-01T07:35:12.000Z</time>
      </trkpt>
      <trkpt lat="49.40807" lon="1.82375">
        <ele>206.50534057617</ele>
        <time>2017-05-01T07:35:15.000Z</time>
      </trkpt>
      <trkpt lat="49.40809" lon="1.82381">
        <ele>206.64880371094</ele>
        <time>2017-05-01T07:35:17.000Z</time>
      </trkpt>
      <trkpt lat="49.40811" lon="1.82386">
        <ele>206.77140808105</ele>
        <time>2017-05-01T07:35:19.000Z</time>
      </trkpt>
      <trkpt lat="49.40814" lon="1.82395">
        <ele>206.88493347168</ele>
        <time>2017-05-01T07:35:22.000Z</time>
      </trkpt>
      <trkpt lat="49.40817" lon="1.82405">
        <ele>206.98933410645</ele>
        <time>2017-05-01T07:35:25.000Z</time>
      </trkpt>
      <trkpt lat="49.4082" lon="1.82414">
        <ele>207.08528137207</ele>
        <time>2017-05-01T07:35:28.000Z</time>
      </trkpt>
      <trkpt lat="49.40821" lon="1.82421">
        <ele>207.16584777832</ele>
        <time>2017-05-01T07:35:30.000Z</time>
      </trkpt>
      <trkpt lat="49.40823" lon="1.82427">
        <ele>207.22448730469</ele>
        <time>2017-05-01T07:35:32.000Z</time>
      </trkpt>
      <trkpt lat="49.40826" lon="1.82437">
        <ele>207.25131225586</ele>
        <time>2017-05-01T07:35:35.000Z</time>
      </trkpt>
      <trkpt lat="49.40828" lon="1.82443">
        <ele>207.24658203125</ele>
        <time>2017-05-01T07:35:37.000Z</time>
      </trkpt>
      <trkpt lat="49.40831" lon="1.82453">
        <ele>207.20889282227</ele>
        <time>2017-05-01T07:35:40.000Z</time>
      </trkpt>
      <trkpt lat="49.40833" lon="1.82464">
        <ele>207.1526184082</ele>
        <time>2017-05-01T07:35:43.000Z</time>
      </trkpt>
      <trkpt lat="49.40835" lon="1.82472">
        <ele>207.11270141602</ele>
        <time>2017-05-01T07:35:45.000Z</time>
      </trkpt>
      <trkpt lat="49.40838" lon="1.82484">
        <ele>207.10334777832</ele>
        <time>2017-05-01T07:35:48.000Z</time>
      </trkpt>
      <trkpt lat="49.4084" lon="1.82492">
        <ele>207.11837768555</ele>
        <time>2017-05-01T07:35:50.000Z</time>
      </trkpt>
      <trkpt lat="49.40843" lon="1.82503">
        <ele>207.17324829102</ele>
        <time>2017-05-01T07:35:53.000Z</time>
      </trkpt>
      <trkpt lat="49.40846" lon="1.82514">
        <ele>207.29458618164</ele>
        <time>2017-05-01T07:35:56.000Z</time>
      </trkpt>
      <trkpt lat="49.40848" lon="1.82521">
        <ele>207.43830871582</ele>
        <time>2017-05-01T07:35:58.000Z</time>
      </trkpt>
      <trkpt lat="49.4085" lon="1.82533">
        <ele>207.60282897949</ele>
        <time>2017-05-01T07:36:01.000Z</time>
      </trkpt>
      <trkpt lat="49.40852" lon="1.8254">
        <ele>207.78442382812</ele>
        <time>2017-05-01T07:36:03.000Z</time>
      </trkpt>
      <trkpt lat="49.40855" lon="1.8255">
        <ele>207.98291015625</ele>
        <time>2017-05-01T07:36:06.000Z</time>
      </trkpt>
      <trkpt lat="49.40855" lon="1.82556">
        <ele>208.15182495117</ele>
        <time>2017-05-01T07:36:08.000Z</time>
      </trkpt>
      <trkpt lat="49.40855" lon="1.82567">
        <ele>208.30805969238</ele>
        <time>2017-05-01T07:36:11.000Z</time>
      </trkpt>
      <trkpt lat="49.40852" lon="1.82573">
        <ele>208.42109680176</ele>
        <time>2017-05-01T07:36:13.000Z</time>
      </trkpt>
      <trkpt lat="49.4085" lon="1.82578">
        <ele>208.49746704102</ele>
        <time>2017-05-01T07:36:15.000Z</time>
      </trkpt>
      <trkpt lat="49.40847" lon="1.82587">
        <ele>208.53755187988</ele>
        <time>2017-05-01T07:36:18.000Z</time>
      </trkpt>
      <trkpt lat="49.40845" lon="1.82594">
        <ele>208.56591796875</ele>
        <time>2017-05-01T07:36:20.000Z</time>
      </trkpt>
      <trkpt lat="49.40841" lon="1.82604">
        <ele>208.59448242188</ele>
        <time>2017-05-01T07:36:23.000Z</time>
      </trkpt>
      <trkpt lat="49.40839" lon="1.82611">
        <ele>208.63981628418</ele>
        <time>2017-05-01T07:36:25.000Z</time>
      </trkpt>
      <trkpt lat="49.40835" lon="1.82622">
        <ele>208.72506713867</ele>
        <time>2017-05-01T07:36:28.000Z</time>
      </trkpt>
      <trkpt lat="49.40833" lon="1.82629">
        <ele>208.83334350586</ele>
        <time>2017-05-01T07:36:30.000Z</time>
      </trkpt>
      <trkpt lat="49.40829" lon="1.8264">
        <ele>209.01240539551</ele>
        <time>2017-05-01T07:36:33.000Z</time>
      </trkpt>
      <trkpt lat="49.40826" lon="1.82646">
        <ele>209.22348022461</ele>
        <time>2017-05-01T07:36:35.000Z</time>
      </trkpt>
      <trkpt lat="49.40823" lon="1.82655">
        <ele>209.48690795898</ele>
        <time>2017-05-01T07:36:38.000Z</time>
      </trkpt>
      <trkpt lat="49.40819" lon="1.82663">
        <ele>209.78422546387</ele>
        <time>2017-05-01T07:36:41.000Z</time>
      </trkpt>
      <trkpt lat="49.40815" lon="1.8267">
        <ele>210.09872436523</ele>
        <time>2017-05-01T07:36:43.000Z</time>
      </trkpt>
      <trkpt lat="49.4081" lon="1.82678">
        <ele>210.37442016602</ele>
        <time>2017-05-01T07:36:46.000Z</time>
      </trkpt>
      <trkpt lat="49.40806" lon="1.82686">
        <ele>210.63691711426</ele>
        <time>2017-05-01T07:36:49.000Z</time>
      </trkpt>
      <trkpt lat="49.40803" lon="1.82692">
        <ele>210.85209655762</ele>
        <time>2017-05-01T07:36:51.000Z</time>
      </trkpt>
      <trkpt lat="49.40798" lon="1.82699">
        <ele>211.02766418457</ele>
        <time>2017-05-01T07:36:54.000Z</time>
      </trkpt>
      <trkpt lat="49.40796" lon="1.82706">
        <ele>211.17297363281</ele>
        <time>2017-05-01T07:36:57.000Z</time>
      </trkpt>
      <trkpt lat="49.40794" lon="1.8271">
        <ele>211.28616333008</ele>
        <time>2017-05-01T07:36:59.000Z</time>
      </trkpt>
      <trkpt lat="49.40794" lon="1.8271">
        <ele>211.28616333008</ele>
        <time>2017-05-01T07:37:19.000Z</time>
      </trkpt>
      <trkpt lat="49.40793" lon="1.82713">
        <ele>211.36470031738</ele>
        <time>2017-05-01T07:37:41.000Z</time>
      </trkpt>
      <trkpt lat="49.40792" lon="1.82716">
        <ele>211.42468261719</ele>
        <time>2017-05-01T07:37:44.000Z</time>
      </trkpt>
      <trkpt lat="49.40788" lon="1.82716">
        <ele>211.47720336914</ele>
        <time>2017-05-01T07:37:47.000Z</time>
      </trkpt>
      <trkpt lat="49.40786" lon="1.82712">
        <ele>211.51948547363</ele>
        <time>2017-05-01T07:37:50.000Z</time>
      </trkpt>
      <trkpt lat="49.40789" lon="1.82713">
        <ele>211.54023742676</ele>
        <time>2017-05-01T07:37:52.000Z</time>
      </trkpt>
      <trkpt lat="49.40791" lon="1.82712">
        <ele>211.54951477051</ele>
        <time>2017-05-01T07:37:54.000Z</time>
      </trkpt>
      <trkpt lat="49.40793" lon="1.82711">
        <ele>211.54731750488</ele>
        <time>2017-05-01T07:38:03.000Z</time>
      </trkpt>
      <trkpt lat="49.40794" lon="1.8271">
        <ele>211.51806640625</ele>
        <time>2017-05-01T07:38:05.000Z</time>
      </trkpt>
      <trkpt lat="49.40793" lon="1.8271">
        <ele>211.48818969727</ele>
        <time>2017-05-01T07:38:14.000Z</time>
      </trkpt>
      <trkpt lat="49.40792" lon="1.8271">
        <ele>211.47512817383</ele>
        <time>2017-05-01T07:38:21.000Z</time>
      </trkpt>
      <trkpt lat="49.4079" lon="1.8271">
        <ele>211.47903442383</ele>
        <time>2017-05-01T07:38:24.000Z</time>
      </trkpt>
      <trkpt lat="49.40789" lon="1.82709">
        <ele>211.49633789062</ele>
        <time>2017-05-01T07:38:27.000Z</time>
      </trkpt>
      <trkpt lat="49.40791" lon="1.82708">
        <ele>211.51168823242</ele>
        <time>2017-05-01T07:38:31.000Z</time>
      </trkpt>
      <trkpt lat="49.40792" lon="1.82711">
        <ele>211.51742553711</ele>
        <time>2017-05-01T07:38:34.000Z</time>
      </trkpt>
      <trkpt lat="49.40791" lon="1.82713">
        <ele>211.5212097168</ele>
        <time>2017-05-01T07:38:37.000Z</time>
      </trkpt>
      <trkpt lat="49.40793" lon="1.82716">
        <ele>211.51008605957</ele>
        <time>2017-05-01T07:38:40.000Z</time>
      </trkpt>
      <trkpt lat="49.40793" lon="1.82715">
        <ele>211.49311828613</ele>
        <time>2017-05-01T07:38:42.000Z</time>
      </trkpt>
      <trkpt lat="49.40792" lon="1.82713">
        <ele>211.48556518555</ele>
        <time>2017-05-01T07:38:45.000Z</time>
      </trkpt>
      <trkpt lat="49.40791" lon="1.82713">
        <ele>211.48742675781</ele>
        <time>2017-05-01T07:38:47.000Z</time>
      </trkpt>
      <trkpt lat="49.4079" lon="1.82713">
        <ele>211.4948425293</ele>
        <time>2017-05-01T07:38:50.000Z</time>
      </trkpt>
      <trkpt lat="49.4079" lon="1.82711">
        <ele>211.50784301758</ele>
        <time>2017-05-01T07:39:04.000Z</time>
      </trkpt>
      <trkpt lat="49.4079" lon="1.82709">
        <ele>211.52285766602</ele>
        <time>2017-05-01T07:39:09.000Z</time>
      </trkpt>
      <trkpt lat="49.4079" lon="1.82709">
        <ele>211.52285766602</ele>
        <time>2017-05-01T07:39:29.000Z</time>
      </trkpt>
      <trkpt lat="49.40789" lon="1.8271">
        <ele>211.54182434082</ele>
        <time>2017-05-01T07:39:38.000Z</time>
      </trkpt>
      <trkpt lat="49.40783" lon="1.82714">
        <ele>211.57803344727</ele>
        <time>2017-05-01T07:39:41.000Z</time>
      </trkpt>
      <trkpt lat="49.40777" lon="1.82723">
        <ele>211.62661743164</ele>
        <time>2017-05-01T07:39:44.000Z</time>
      </trkpt>
      <trkpt lat="49.4077" lon="1.82736">
        <ele>211.68742370605</ele>
        <time>2017-05-01T07:39:47.000Z</time>
      </trkpt>
      <trkpt lat="49.40764" lon="1.82747">
        <ele>211.75057983398</ele>
        <time>2017-05-01T07:39:50.000Z</time>
      </trkpt>
      <trkpt lat="49.40758" lon="1.82759">
        <ele>211.8207244873</ele>
        <time>2017-05-01T07:39:53.000Z</time>
      </trkpt>
      <trkpt lat="49.40754" lon="1.82765">
        <ele>211.8773651123</ele>
        <time>2017-05-01T07:39:55.000Z</time>
      </trkpt>
      <trkpt lat="49.40748" lon="1.82774">
        <ele>211.93911743164</ele>
        <time>2017-05-01T07:39:58.000Z</time>
      </trkpt>
      <trkpt lat="49.40741" lon="1.82784">
        <ele>212.04402160645</ele>
        <time>2017-05-01T07:40:01.000Z</time>
      </trkpt>
      <trkpt lat="49.40737" lon="1.82789">
        <ele>212.17951965332</ele>
        <time>2017-05-01T07:40:03.000Z</time>
      </trkpt>
      <trkpt lat="49.40729" lon="1.828">
        <ele>212.36470031738</ele>
        <time>2017-05-01T07:40:06.000Z</time>
      </trkpt>
      <trkpt lat="49.40725" lon="1.82807">
        <ele>212.56587219238</ele>
        <time>2017-05-01T07:40:08.000Z</time>
      </trkpt>
      <trkpt lat="49.40722" lon="1.82813">
        <ele>212.76651000977</ele>
        <time>2017-05-01T07:40:10.000Z</time>
      </trkpt>
      <trkpt lat="49.40719" lon="1.82818">
        <ele>212.92866516113</ele>
        <time>2017-05-01T07:40:12.000Z</time>
      </trkpt>
      <trkpt lat="49.40714" lon="1.82827">
        <ele>213.08952331543</ele>
        <time>2017-05-01T07:40:15.000Z</time>
      </trkpt>
      <trkpt lat="49.40709" lon="1.82835">
        <ele>213.21659851074</ele>
        <time>2017-05-01T07:40:18.000Z</time>
      </trkpt>
      <trkpt lat="49.40705" lon="1.82841">
        <ele>213.35639953613</ele>
        <time>2017-05-01T07:40:20.000Z</time>
      </trkpt>
      <trkpt lat="49.407" lon="1.82849">
        <ele>213.51870727539</ele>
        <time>2017-05-01T07:40:23.000Z</time>
      </trkpt>
      <trkpt lat="49.40697" lon="1.82854">
        <ele>213.68667602539</ele>
        <time>2017-05-01T07:40:25.000Z</time>
      </trkpt>
      <trkpt lat="49.40693" lon="1.82861">
        <ele>213.84616088867</ele>
        <time>2017-05-01T07:40:27.000Z</time>
      </trkpt>
      <trkpt lat="49.40686" lon="1.8287">
        <ele>214.00231933594</ele>
        <time>2017-05-01T07:40:30.000Z</time>
      </trkpt>
      <trkpt lat="49.40682" lon="1.82876">
        <ele>214.12971496582</ele>
        <time>2017-05-01T07:40:32.000Z</time>
      </trkpt>
      <trkpt lat="49.40676" lon="1.82885">
        <ele>214.21098327637</ele>
        <time>2017-05-01T07:40:35.000Z</time>
      </trkpt>
      <trkpt lat="49.40672" lon="1.82892">
        <ele>214.263671875</ele>
        <time>2017-05-01T07:40:37.000Z</time>
      </trkpt>
      <trkpt lat="49.40667" lon="1.82901">
        <ele>214.27462768555</ele>
        <time>2017-05-01T07:40:40.000Z</time>
      </trkpt>
      <trkpt lat="49.40663" lon="1.82907">
        <ele>214.27021789551</ele>
        <time>2017-05-01T07:40:42.000Z</time>
      </trkpt>
      <trkpt lat="49.40659" lon="1.82913">
        <ele>214.27368164062</ele>
        <time>2017-05-01T07:40:44.000Z</time>
      </trkpt>
      <trkpt lat="49.40655" lon="1.82919">
        <ele>214.3078918457</ele>
        <time>2017-05-01T07:40:46.000Z</time>
      </trkpt>
      <trkpt lat="49.40649" lon="1.82928">
        <ele>214.42367553711</ele>
        <time>2017-05-01T07:40:49.000Z</time>
      </trkpt>
      <trkpt lat="49.40645" lon="1.82935">
        <ele>214.60571289062</ele>
        <time>2017-05-01T07:40:51.000Z</time>
      </trkpt>
      <trkpt lat="49.4064" lon="1.82943">
        <ele>214.83535766602</ele>
        <time>2017-05-01T07:40:53.000Z</time>
      </trkpt>
      <trkpt lat="49.40633" lon="1.82955">
        <ele>215.11824035645</ele>
        <time>2017-05-01T07:40:56.000Z</time>
      </trkpt>
      <trkpt lat="49.4063" lon="1.82962">
        <ele>215.41059875488</ele>
        <time>2017-05-01T07:40:58.000Z</time>
      </trkpt>
      <trkpt lat="49.40624" lon="1.82974">
        <ele>215.68022155762</ele>
        <time>2017-05-01T07:41:01.000Z</time>
      </trkpt>
      <trkpt lat="49.4062" lon="1.82982">
        <ele>215.93246459961</ele>
        <time>2017-05-01T07:41:03.000Z</time>
      </trkpt>
      <trkpt lat="49.40615" lon="1.82994">
        <ele>216.16635131836</ele>
        <time>2017-05-01T07:41:06.000Z</time>
      </trkpt>
      <trkpt lat="49.40612" lon="1.83001">
        <ele>216.35464477539</ele>
        <time>2017-05-01T07:41:08.000Z</time>
      </trkpt>
      <trkpt lat="49.40607" lon="1.83013">
        <ele>216.54614257812</ele>
        <time>2017-05-01T07:41:11.000Z</time>
      </trkpt>
      <trkpt lat="49.40604" lon="1.83021">
        <ele>216.71630859375</ele>
        <time>2017-05-01T07:41:13.000Z</time>
      </trkpt>
      <trkpt lat="49.406" lon="1.83033">
        <ele>216.8987121582</ele>
        <time>2017-05-01T07:41:16.000Z</time>
      </trkpt>
      <trkpt lat="49.40597" lon="1.83042">
        <ele>217.06991577148</ele>
        <time>2017-05-01T07:41:18.000Z</time>
      </trkpt>
      <trkpt lat="49.40593" lon="1.83054">
        <ele>217.25459289551</ele>
        <time>2017-05-01T07:41:21.000Z</time>
      </trkpt>
      <trkpt lat="49.4059" lon="1.83063">
        <ele>217.42016601562</ele>
        <time>2017-05-01T07:41:23.000Z</time>
      </trkpt>
      <trkpt lat="49.40587" lon="1.83074">
        <ele>217.5849609375</ele>
        <time>2017-05-01T07:41:26.000Z</time>
      </trkpt>
      <trkpt lat="49.40583" lon="1.83086">
        <ele>217.73764038086</ele>
        <time>2017-05-01T07:41:29.000Z</time>
      </trkpt>
      <trkpt lat="49.40581" lon="1.83093">
        <ele>217.90422058105</ele>
        <time>2017-05-01T07:41:31.000Z</time>
      </trkpt>
      <trkpt lat="49.40577" lon="1.83103">
        <ele>218.09660339355</ele>
        <time>2017-05-01T07:41:34.000Z</time>
      </trkpt>
      <trkpt lat="49.40575" lon="1.83109">
        <ele>218.31665039062</ele>
        <time>2017-05-01T07:41:36.000Z</time>
      </trkpt>
      <trkpt lat="49.40573" lon="1.83115">
        <ele>218.54342651367</ele>
        <time>2017-05-01T07:41:38.000Z</time>
      </trkpt>
      <trkpt lat="49.40571" lon="1.83121">
        <ele>218.78598022461</ele>
        <time>2017-05-01T07:41:40.000Z</time>
      </trkpt>
      <trkpt lat="49.40568" lon="1.83129">
        <ele>219.0601348877</ele>
        <time>2017-05-01T07:41:43.000Z</time>
      </trkpt>
      <trkpt lat="49.40565" lon="1.83135">
        <ele>219.3254699707</ele>
        <time>2017-05-01T07:41:45.000Z</time>
      </trkpt>
      <trkpt lat="49.40558" lon="1.83138">
        <ele>219.65689086914</ele>
        <time>2017-05-01T07:41:48.000Z</time>
      </trkpt>
      <trkpt lat="49.4055" lon="1.83136">
        <ele>220.05126953125</ele>
        <time>2017-05-01T07:41:51.000Z</time>
      </trkpt>
      <trkpt lat="49.40545" lon="1.83136">
        <ele>220.46333312988</ele>
        <time>2017-05-01T07:41:53.000Z</time>
      </trkpt>
      <trkpt lat="49.40536" lon="1.83136">
        <ele>220.93244934082</ele>
        <time>2017-05-01T07:41:56.000Z</time>
      </trkpt>
      <trkpt lat="49.40531" lon="1.83136">
        <ele>221.42709350586</ele>
        <time>2017-05-01T07:41:58.000Z</time>
      </trkpt>
      <trkpt lat="49.40526" lon="1.83135">
        <ele>221.86674499512</ele>
        <time>2017-05-01T07:42:00.000Z</time>
      </trkpt>
      <trkpt lat="49.40521" lon="1.83135">
        <ele>222.26748657227</ele>
        <time>2017-05-01T07:42:02.000Z</time>
      </trkpt>
      <trkpt lat="49.40513" lon="1.83134">
        <ele>222.71139526367</ele>
        <time>2017-05-01T07:42:05.000Z</time>
      </trkpt>
      <trkpt lat="49.40506" lon="1.83132">
        <ele>223.10400390625</ele>
        <time>2017-05-01T07:42:08.000Z</time>
      </trkpt>
      <trkpt lat="49.40498" lon="1.83132">
        <ele>223.50744628906</ele>
        <time>2017-05-01T07:42:11.000Z</time>
      </trkpt>
      <trkpt lat="49.4049" lon="1.83132">
        <ele>223.93359375</ele>
        <time>2017-05-01T07:42:14.000Z</time>
      </trkpt>
      <trkpt lat="49.40485" lon="1.83133">
        <ele>224.35307312012</ele>
        <time>2017-05-01T07:42:16.000Z</time>
      </trkpt>
      <trkpt lat="49.40478" lon="1.83133">
        <ele>224.74182128906</ele>
        <time>2017-05-01T07:42:19.000Z</time>
      </trkpt>
      <trkpt lat="49.40473" lon="1.83134">
        <ele>225.10327148438</ele>
        <time>2017-05-01T07:42:21.000Z</time>
      </trkpt>
      <trkpt lat="49.40466" lon="1.83135">
        <ele>225.45202636719</ele>
        <time>2017-05-01T07:42:24.000Z</time>
      </trkpt>
      <trkpt lat="49.40461" lon="1.83134">
        <ele>225.74914550781</ele>
        <time>2017-05-01T07:42:26.000Z</time>
      </trkpt>
      <trkpt lat="49.40454" lon="1.83133">
        <ele>226.04235839844</ele>
        <time>2017-05-01T07:42:29.000Z</time>
      </trkpt>
      <trkpt lat="49.4045" lon="1.83131">
        <ele>226.28930664062</ele>
        <time>2017-05-01T07:42:31.000Z</time>
      </trkpt>
      <trkpt lat="49.40446" lon="1.83124">
        <ele>226.45300292969</ele>
        <time>2017-05-01T07:42:34.000Z</time>
      </trkpt>
      <trkpt lat="49.40447" lon="1.83115">
        <ele>226.43896484375</ele>
        <time>2017-05-01T07:42:37.000Z</time>
      </trkpt>
      <trkpt lat="49.40448" lon="1.83104">
        <ele>226.27392578125</ele>
        <time>2017-05-01T07:42:40.000Z</time>
      </trkpt>
      <trkpt lat="49.4045" lon="1.83096">
        <ele>225.96166992188</ele>
        <time>2017-05-01T07:42:42.000Z</time>
      </trkpt>
      <trkpt lat="49.40451" lon="1.83088">
        <ele>225.537109375</ele>
        <time>2017-05-01T07:42:44.000Z</time>
      </trkpt>
      <trkpt lat="49.40453" lon="1.83076">
        <ele>225.0783996582</ele>
        <time>2017-05-01T07:42:47.000Z</time>
      </trkpt>
      <trkpt lat="49.40454" lon="1.83069">
        <ele>224.70683288574</ele>
        <time>2017-05-01T07:42:49.000Z</time>
      </trkpt>
      <trkpt lat="49.40457" lon="1.83057">
        <ele>224.42414855957</ele>
        <time>2017-05-01T07:42:52.000Z</time>
      </trkpt>
      <trkpt lat="49.40456" lon="1.83049">
        <ele>224.24520874023</ele>
        <time>2017-05-01T07:42:54.000Z</time>
      </trkpt>
      <trkpt lat="49.40453" lon="1.83042">
        <ele>224.1796875</ele>
        <time>2017-05-01T07:42:56.000Z</time>
      </trkpt>
      <trkpt lat="49.40446" lon="1.83035">
        <ele>224.24609375</ele>
        <time>2017-05-01T07:42:59.000Z</time>
      </trkpt>
      <trkpt lat="49.40441" lon="1.8303">
        <ele>224.375</ele>
        <time>2017-05-01T07:43:01.000Z</time>
      </trkpt>
      <trkpt lat="49.40435" lon="1.83026">
        <ele>224.58203125</ele>
        <time>2017-05-01T07:43:03.000Z</time>
      </trkpt>
      <trkpt lat="49.4043" lon="1.83022">
        <ele>224.83203125</ele>
        <time>2017-05-01T07:43:05.000Z</time>
      </trkpt>
      <trkpt lat="49.40423" lon="1.83015">
        <ele>225.1171875</ele>
        <time>2017-05-01T07:43:08.000Z</time>
      </trkpt>
      <trkpt lat="49.40416" lon="1.83007">
        <ele>225.39665222168</ele>
        <time>2017-05-01T07:43:11.000Z</time>
      </trkpt>
      <trkpt lat="49.40413" lon="1.83001">
        <ele>225.60778808594</ele>
        <time>2017-05-01T07:43:13.000Z</time>
      </trkpt>
      <trkpt lat="49.40408" lon="1.82995">
        <ele>225.73706054688</ele>
        <time>2017-05-01T07:43:15.000Z</time>
      </trkpt>
      <trkpt lat="49.40401" lon="1.82989">
        <ele>225.77487182617</ele>
        <time>2017-05-01T07:43:18.000Z</time>
      </trkpt>
      <trkpt lat="49.40396" lon="1.82985">
        <ele>225.72109985352</ele>
        <time>2017-05-01T07:43:20.000Z</time>
      </trkpt>
      <trkpt lat="49.40389" lon="1.82978">
        <ele>225.57368469238</ele>
        <time>2017-05-01T07:43:23.000Z</time>
      </trkpt>
      <trkpt lat="49.40384" lon="1.82967">
        <ele>225.41821289062</ele>
        <time>2017-05-01T07:43:26.000Z</time>
      </trkpt>
      <trkpt lat="49.40378" lon="1.82954">
        <ele>225.27519226074</ele>
        <time>2017-05-01T07:43:29.000Z</time>
      </trkpt>
      <trkpt lat="49.40372" lon="1.82942">
        <ele>225.16171264648</ele>
        <time>2017-05-01T07:43:32.000Z</time>
      </trkpt>
      <trkpt lat="49.40365" lon="1.82928">
        <ele>225.07148742676</ele>
        <time>2017-05-01T07:43:35.000Z</time>
      </trkpt>
      <trkpt lat="49.40361" lon="1.82921">
        <ele>225.01742553711</ele>
        <time>2017-05-01T07:43:37.000Z</time>
      </trkpt>
      <trkpt lat="49.40355" lon="1.82909">
        <ele>224.97392272949</ele>
        <time>2017-05-01T07:43:40.000Z</time>
      </trkpt>
      <trkpt lat="49.40349" lon="1.82901">
        <ele>224.93034362793</ele>
        <time>2017-05-01T07:43:42.000Z</time>
      </trkpt>
      <trkpt lat="49.40344" lon="1.82894">
        <ele>224.88159179688</ele>
        <time>2017-05-01T07:43:44.000Z</time>
      </trkpt>
      <trkpt lat="49.40339" lon="1.8289">
        <ele>224.82368469238</ele>
        <time>2017-05-01T07:43:46.000Z</time>
      </trkpt>
      <trkpt lat="49.40329" lon="1.82885">
        <ele>224.744140625</ele>
        <time>2017-05-01T07:43:49.000Z</time>
      </trkpt>
      <trkpt lat="49.40318" lon="1.82883">
        <ele>224.65950012207</ele>
        <time>2017-05-01T07:43:52.000Z</time>
      </trkpt>
      <trkpt lat="49.40307" lon="1.82883">
        <ele>224.57873535156</ele>
        <time>2017-05-01T07:43:55.000Z</time>
      </trkpt>
      <trkpt lat="49.40301" lon="1.82883">
        <ele>224.50434875488</ele>
        <time>2017-05-01T07:43:57.000Z</time>
      </trkpt>
      <trkpt lat="49.40292" lon="1.82881">
        <ele>224.42622375488</ele>
        <time>2017-05-01T07:44:00.000Z</time>
      </trkpt>
      <trkpt lat="49.40288" lon="1.82879">
        <ele>224.35897827148</ele>
        <time>2017-05-01T07:44:02.000Z</time>
      </trkpt>
      <trkpt lat="49.4028" lon="1.82879">
        <ele>224.30082702637</ele>
        <time>2017-05-01T07:44:05.000Z</time>
      </trkpt>
      <trkpt lat="49.40271" lon="1.82878">
        <ele>224.24569702148</ele>
        <time>2017-05-01T07:44:08.000Z</time>
      </trkpt>
      <trkpt lat="49.40265" lon="1.82877">
        <ele>224.19194030762</ele>
        <time>2017-05-01T07:44:10.000Z</time>
      </trkpt>
      <trkpt lat="49.40255" lon="1.82875">
        <ele>224.1400604248</ele>
        <time>2017-05-01T07:44:13.000Z</time>
      </trkpt>
      <trkpt lat="49.40244" lon="1.82874">
        <ele>224.02661132812</ele>
        <time>2017-05-01T07:44:16.000Z</time>
      </trkpt>
      <trkpt lat="49.40237" lon="1.82873">
        <ele>223.84875488281</ele>
        <time>2017-05-01T07:44:18.000Z</time>
      </trkpt>
      <trkpt lat="49.40229" lon="1.82871">
        <ele>223.5980682373</ele>
        <time>2017-05-01T07:44:20.000Z</time>
      </trkpt>
      <trkpt lat="49.40218" lon="1.82869">
        <ele>223.22993469238</ele>
        <time>2017-05-01T07:44:23.000Z</time>
      </trkpt>
      <trkpt lat="49.4021" lon="1.82868">
        <ele>222.78341674805</ele>
        <time>2017-05-01T07:44:25.000Z</time>
      </trkpt>
      <trkpt lat="49.40202" lon="1.82866">
        <ele>222.30932617188</ele>
        <time>2017-05-01T07:44:27.000Z</time>
      </trkpt>
      <trkpt lat="49.40189" lon="1.82863">
        <ele>221.77079772949</ele>
        <time>2017-05-01T07:44:30.000Z</time>
      </trkpt>
      <trkpt lat="49.40181" lon="1.82861">
        <ele>221.22265625</ele>
        <time>2017-05-01T07:44:32.000Z</time>
      </trkpt>
      <trkpt lat="49.4017" lon="1.82859">
        <ele>220.66719055176</ele>
        <time>2017-05-01T07:44:35.000Z</time>
      </trkpt>
      <trkpt lat="49.40162" lon="1.82858">
        <ele>220.13854980469</ele>
        <time>2017-05-01T07:44:37.000Z</time>
      </trkpt>
      <trkpt lat="49.40149" lon="1.82855">
        <ele>219.62899780273</ele>
        <time>2017-05-01T07:44:40.000Z</time>
      </trkpt>
      <trkpt lat="49.40141" lon="1.82852">
        <ele>219.21365356445</ele>
        <time>2017-05-01T07:44:42.000Z</time>
      </trkpt>
      <trkpt lat="49.40134" lon="1.82851">
        <ele>218.853515625</ele>
        <time>2017-05-01T07:44:44.000Z</time>
      </trkpt>
      <trkpt lat="49.40124" lon="1.82849">
        <ele>218.5700378418</ele>
        <time>2017-05-01T07:44:47.000Z</time>
      </trkpt>
      <trkpt lat="49.40113" lon="1.82847">
        <ele>218.29626464844</ele>
        <time>2017-05-01T07:44:50.000Z</time>
      </trkpt>
      <trkpt lat="49.40102" lon="1.82845">
        <ele>218.04194641113</ele>
        <time>2017-05-01T07:44:53.000Z</time>
      </trkpt>
      <trkpt lat="49.40092" lon="1.82844">
        <ele>217.78080749512</ele>
        <time>2017-05-01T07:44:56.000Z</time>
      </trkpt>
      <trkpt lat="49.40087" lon="1.82846">
        <ele>217.53213500977</ele>
        <time>2017-05-01T07:44:58.000Z</time>
      </trkpt>
      <trkpt lat="49.40082" lon="1.8286">
        <ele>217.31420898438</ele>
        <time>2017-05-01T07:45:01.000Z</time>
      </trkpt>
      <trkpt lat="49.40079" lon="1.82876">
        <ele>217.13662719727</ele>
        <time>2017-05-01T07:45:04.000Z</time>
      </trkpt>
      <trkpt lat="49.40076" lon="1.8289">
        <ele>217.00802612305</ele>
        <time>2017-05-01T07:45:07.000Z</time>
      </trkpt>
      <trkpt lat="49.40074" lon="1.829">
        <ele>216.93061828613</ele>
        <time>2017-05-01T07:45:09.000Z</time>
      </trkpt>
      <trkpt lat="49.40071" lon="1.82914">
        <ele>216.88020324707</ele>
        <time>2017-05-01T07:45:12.000Z</time>
      </trkpt>
      <trkpt lat="49.40069" lon="1.82923">
        <ele>216.87881469727</ele>
        <time>2017-05-01T07:45:14.000Z</time>
      </trkpt>
      <trkpt lat="49.40067" lon="1.82935">
        <ele>216.9375</ele>
        <time>2017-05-01T07:45:17.000Z</time>
      </trkpt>
      <trkpt lat="49.40065" lon="1.82943">
        <ele>217.03512573242</ele>
        <time>2017-05-01T07:45:19.000Z</time>
      </trkpt>
      <trkpt lat="49.40062" lon="1.82955">
        <ele>217.1741027832</ele>
        <time>2017-05-01T07:45:22.000Z</time>
      </trkpt>
      <trkpt lat="49.40059" lon="1.82966">
        <ele>217.34878540039</ele>
        <time>2017-05-01T07:45:25.000Z</time>
      </trkpt>
      <trkpt lat="49.40057" lon="1.82978">
        <ele>217.54092407227</ele>
        <time>2017-05-01T07:45:28.000Z</time>
      </trkpt>
      <trkpt lat="49.40055" lon="1.82986">
        <ele>217.71089172363</ele>
        <time>2017-05-01T07:45:30.000Z</time>
      </trkpt>
      <trkpt lat="49.40052" lon="1.82998">
        <ele>217.88577270508</ele>
        <time>2017-05-01T07:45:33.000Z</time>
      </trkpt>
      <trkpt lat="49.4005" lon="1.83006">
        <ele>218.0400390625</ele>
        <time>2017-05-01T07:45:35.000Z</time>
      </trkpt>
      <trkpt lat="49.40047" lon="1.83019">
        <ele>218.19633483887</ele>
        <time>2017-05-01T07:45:38.000Z</time>
      </trkpt>
      <trkpt lat="49.40044" lon="1.83033">
        <ele>218.34567260742</ele>
        <time>2017-05-01T07:45:41.000Z</time>
      </trkpt>
      <trkpt lat="49.40041" lon="1.83045">
        <ele>218.49612426758</ele>
        <time>2017-05-01T07:45:44.000Z</time>
      </trkpt>
      <trkpt lat="49.40039" lon="1.83054">
        <ele>218.62979125977</ele>
        <time>2017-05-01T07:45:46.000Z</time>
      </trkpt>
      <trkpt lat="49.40038" lon="1.8307">
        <ele>218.79106140137</ele>
        <time>2017-05-01T07:45:49.000Z</time>
      </trkpt>
      <trkpt lat="49.40045" lon="1.83083">
        <ele>219.01254272461</ele>
        <time>2017-05-01T07:45:52.000Z</time>
      </trkpt>
      <trkpt lat="49.40052" lon="1.83088">
        <ele>219.27084350586</ele>
        <time>2017-05-01T07:45:54.000Z</time>
      </trkpt>
      <trkpt lat="49.40059" lon="1.83091">
        <ele>219.56747436523</ele>
        <time>2017-05-01T07:45:56.000Z</time>
      </trkpt>
      <trkpt lat="49.40066" lon="1.83099">
        <ele>219.93637084961</ele>
        <time>2017-05-01T07:45:59.000Z</time>
      </trkpt>
      <trkpt lat="49.40072" lon="1.83104">
        <ele>220.32279968262</ele>
        <time>2017-05-01T07:46:01.000Z</time>
      </trkpt>
      <trkpt lat="49.40077" lon="1.83107">
        <ele>220.66938781738</ele>
        <time>2017-05-01T07:46:03.000Z</time>
      </trkpt>
      <trkpt lat="49.40086" lon="1.83114">
        <ele>221.03247070312</ele>
        <time>2017-05-01T07:46:06.000Z</time>
      </trkpt>
      <trkpt lat="49.40094" lon="1.83119">
        <ele>221.40019226074</ele>
        <time>2017-05-01T07:46:09.000Z</time>
      </trkpt>
      <trkpt lat="49.40102" lon="1.83125">
        <ele>221.74545288086</ele>
        <time>2017-05-01T07:46:12.000Z</time>
      </trkpt>
      <trkpt lat="49.4011" lon="1.83132">
        <ele>222.09457397461</ele>
        <time>2017-05-01T07:46:15.000Z</time>
      </trkpt>
      <trkpt lat="49.40115" lon="1.83136">
        <ele>222.43273925781</ele>
        <time>2017-05-01T07:46:17.000Z</time>
      </trkpt>
      <trkpt lat="49.40123" lon="1.83142">
        <ele>222.75141906738</ele>
        <time>2017-05-01T07:46:20.000Z</time>
      </trkpt>
      <trkpt lat="49.40131" lon="1.83148">
        <ele>223.06896972656</ele>
        <time>2017-05-01T07:46:23.000Z</time>
      </trkpt>
      <trkpt lat="49.40137" lon="1.83153">
        <ele>223.36836242676</ele>
        <time>2017-05-01T07:46:25.000Z</time>
      </trkpt>
      <trkpt lat="49.40145" lon="1.83159">
        <ele>223.66979980469</ele>
        <time>2017-05-01T07:46:28.000Z</time>
      </trkpt>
      <trkpt lat="49.40151" lon="1.83163">
        <ele>223.97290039062</ele>
        <time>2017-05-01T07:46:30.000Z</time>
      </trkpt>
      <trkpt lat="49.4016" lon="1.8317">
        <ele>224.2759552002</ele>
        <time>2017-05-01T07:46:33.000Z</time>
      </trkpt>
      <trkpt lat="49.40167" lon="1.83175">
        <ele>224.5563659668</ele>
        <time>2017-05-01T07:46:35.000Z</time>
      </trkpt>
      <trkpt lat="49.40173" lon="1.8318">
        <ele>224.84585571289</ele>
        <time>2017-05-01T07:46:37.000Z</time>
      </trkpt>
      <trkpt lat="49.4018" lon="1.83185">
        <ele>225.13479614258</ele>
        <time>2017-05-01T07:46:39.000Z</time>
      </trkpt>
      <trkpt lat="49.4019" lon="1.83191">
        <ele>225.49325561523</ele>
        <time>2017-05-01T07:46:42.000Z</time>
      </trkpt>
      <trkpt lat="49.40199" lon="1.83197">
        <ele>225.91931152344</ele>
        <time>2017-05-01T07:46:45.000Z</time>
      </trkpt>
      <trkpt lat="49.40206" lon="1.83201">
        <ele>226.41000366211</ele>
        <time>2017-05-01T07:46:47.000Z</time>
      </trkpt>
      <trkpt lat="49.40211" lon="1.83206">
        <ele>226.94473266602</ele>
        <time>2017-05-01T07:46:49.000Z</time>
      </trkpt>
      <trkpt lat="49.40214" lon="1.83215">
        <ele>227.53144836426</ele>
        <time>2017-05-01T07:46:52.000Z</time>
      </trkpt>
      <trkpt lat="49.40214" lon="1.83218">
        <ele>228.02995300293</ele>
        <time>2017-05-01T07:46:54.000Z</time>
      </trkpt>
      <trkpt lat="49.40216" lon="1.83223">
        <ele>228.47880554199</ele>
        <time>2017-05-01T07:46:57.000Z</time>
      </trkpt>
      <trkpt lat="49.40219" lon="1.83227">
        <ele>228.91177368164</ele>
        <time>2017-05-01T07:47:00.000Z</time>
      </trkpt>
      <trkpt lat="49.40221" lon="1.83233">
        <ele>229.33728027344</ele>
        <time>2017-05-01T07:47:03.000Z</time>
      </trkpt>
      <trkpt lat="49.40221" lon="1.83236">
        <ele>229.68188476562</ele>
        <time>2017-05-01T07:47:05.000Z</time>
      </trkpt>
      <trkpt lat="49.40222" lon="1.83239">
        <ele>230.03776550293</ele>
        <time>2017-05-01T07:47:09.000Z</time>
      </trkpt>
      <trkpt lat="49.40223" lon="1.83243">
        <ele>230.37219238281</ele>
        <time>2017-05-01T07:47:28.000Z</time>
      </trkpt>
      <trkpt lat="49.40223" lon="1.83244">
        <ele>230.64541625977</ele>
        <time>2017-05-01T07:47:30.000Z</time>
      </trkpt>
      <trkpt lat="49.40226" lon="1.83246">
        <ele>230.89091491699</ele>
        <time>2017-05-01T07:47:32.000Z</time>
      </trkpt>
      <trkpt lat="49.40232" lon="1.83249">
        <ele>231.25984191895</ele>
        <time>2017-05-01T07:47:35.000Z</time>
      </trkpt>
      <trkpt lat="49.40238" lon="1.83256">
        <ele>231.72640991211</ele>
        <time>2017-05-01T07:47:38.000Z</time>
      </trkpt>
      <trkpt lat="49.4024" lon="1.83266">
        <ele>232.22445678711</ele>
        <time>2017-05-01T07:47:41.000Z</time>
      </trkpt>
      <trkpt lat="49.40247" lon="1.83273">
        <ele>232.85623168945</ele>
        <time>2017-05-01T07:47:44.000Z</time>
      </trkpt>
      <trkpt lat="49.40251" lon="1.8328">
        <ele>233.51473999023</ele>
        <time>2017-05-01T07:47:47.000Z</time>
      </trkpt>
      <trkpt lat="49.40253" lon="1.83294">
        <ele>234.0707244873</ele>
        <time>2017-05-01T07:47:50.000Z</time>
      </trkpt>
      <trkpt lat="49.40253" lon="1.83303">
        <ele>234.52685546875</ele>
        <time>2017-05-01T07:47:52.000Z</time>
      </trkpt>
      <trkpt lat="49.4025" lon="1.83309">
        <ele>234.92008972168</ele>
        <time>2017-05-01T07:47:54.000Z</time>
      </trkpt>
      <trkpt lat="49.40242" lon="1.83309">
        <ele>234.96672058105</ele>
        <time>2017-05-01T07:47:57.000Z</time>
      </trkpt>
      <trkpt lat="49.40236" lon="1.83311">
        <ele>234.80703735352</ele>
        <time>2017-05-01T07:47:59.000Z</time>
      </trkpt>
      <trkpt lat="49.40231" lon="1.83326">
        <ele>234.52217102051</ele>
        <time>2017-05-01T07:48:02.000Z</time>
      </trkpt>
      <trkpt lat="49.4023" lon="1.83342">
        <ele>234.13969421387</ele>
        <time>2017-05-01T07:48:04.000Z</time>
      </trkpt>
      <trkpt lat="49.4023" lon="1.83357">
        <ele>233.62448120117</ele>
        <time>2017-05-01T07:48:07.000Z</time>
      </trkpt>
      <trkpt lat="49.40231" lon="1.83367">
        <ele>233.23904418945</ele>
        <time>2017-05-01T07:48:09.000Z</time>
      </trkpt>
      <trkpt lat="49.40232" lon="1.83379">
        <ele>232.90609741211</ele>
        <time>2017-05-01T07:48:11.000Z</time>
      </trkpt>
      <trkpt lat="49.40232" lon="1.83397">
        <ele>232.51448059082</ele>
        <time>2017-05-01T07:48:14.000Z</time>
      </trkpt>
      <trkpt lat="49.40231" lon="1.83414">
        <ele>232.06271362305</ele>
        <time>2017-05-01T07:48:17.000Z</time>
      </trkpt>
      <trkpt lat="49.40229" lon="1.83424">
        <ele>231.65759277344</ele>
        <time>2017-05-01T07:48:19.000Z</time>
      </trkpt>
      <trkpt lat="49.40227" lon="1.83446">
        <ele>231.24267578125</ele>
        <time>2017-05-01T07:48:22.000Z</time>
      </trkpt>
      <trkpt lat="49.40224" lon="1.83464">
        <ele>230.82592773438</ele>
        <time>2017-05-01T07:48:24.000Z</time>
      </trkpt>
      <trkpt lat="49.40219" lon="1.8348">
        <ele>230.43441772461</ele>
        <time>2017-05-01T07:48:26.000Z</time>
      </trkpt>
      <trkpt lat="49.40213" lon="1.83495">
        <ele>230.029296875</ele>
        <time>2017-05-01T07:48:29.000Z</time>
      </trkpt>
      <trkpt lat="49.40209" lon="1.8351">
        <ele>229.51968383789</ele>
        <time>2017-05-01T07:48:32.000Z</time>
      </trkpt>
      <trkpt lat="49.40203" lon="1.83533">
        <ele>228.84501647949</ele>
        <time>2017-05-01T07:48:35.000Z</time>
      </trkpt>
      <trkpt lat="49.40197" lon="1.83561">
        <ele>227.99467468262</ele>
        <time>2017-05-01T07:48:38.000Z</time>
      </trkpt>
      <trkpt lat="49.40192" lon="1.83574">
        <ele>227.12951660156</ele>
        <time>2017-05-01T07:48:40.000Z</time>
      </trkpt>
      <trkpt lat="49.40186" lon="1.83585">
        <ele>226.30673217773</ele>
        <time>2017-05-01T07:48:43.000Z</time>
      </trkpt>
      <trkpt lat="49.40182" lon="1.83589">
        <ele>225.58529663086</ele>
        <time>2017-05-01T07:48:45.000Z</time>
      </trkpt>
      <trkpt lat="49.40175" lon="1.83593">
        <ele>225.02851867676</ele>
        <time>2017-05-01T07:48:48.000Z</time>
      </trkpt>
      <trkpt lat="49.4017" lon="1.83596">
        <ele>224.66809082031</ele>
        <time>2017-05-01T07:48:50.000Z</time>
      </trkpt>
      <trkpt lat="49.40164" lon="1.83604">
        <ele>224.38293457031</ele>
        <time>2017-05-01T07:48:53.000Z</time>
      </trkpt>
      <trkpt lat="49.40164" lon="1.83614">
        <ele>224.19458007812</ele>
        <time>2017-05-01T07:48:55.000Z</time>
      </trkpt>
      <trkpt lat="49.40164" lon="1.83623">
        <ele>224.0673828125</ele>
        <time>2017-05-01T07:48:57.000Z</time>
      </trkpt>
      <trkpt lat="49.4016" lon="1.83634">
        <ele>224.01679992676</ele>
        <time>2017-05-01T07:49:00.000Z</time>
      </trkpt>
      <trkpt lat="49.40158" lon="1.83639">
        <ele>224.0217590332</ele>
        <time>2017-05-01T07:49:02.000Z</time>
      </trkpt>
      <trkpt lat="49.40156" lon="1.83645">
        <ele>224.08361816406</ele>
        <time>2017-05-01T07:49:09.000Z</time>
      </trkpt>
      <trkpt lat="49.40156" lon="1.83649">
        <ele>224.14810180664</ele>
        <time>2017-05-01T07:49:12.000Z</time>
      </trkpt>
      <trkpt lat="49.40154" lon="1.83653">
        <ele>224.2294921875</ele>
        <time>2017-05-01T07:49:15.000Z</time>
      </trkpt>
      <trkpt lat="49.40154" lon="1.83653">
        <ele>224.2294921875</ele>
        <time>2017-05-01T07:49:35.000Z</time>
      </trkpt>
      <trkpt lat="49.40151" lon="1.83659">
        <ele>224.33979797363</ele>
        <time>2017-05-01T07:49:45.000Z</time>
      </trkpt>
      <trkpt lat="49.40152" lon="1.83661">
        <ele>224.43525695801</ele>
        <time>2017-05-01T07:49:48.000Z</time>
      </trkpt>
      <trkpt lat="49.40148" lon="1.83662">
        <ele>224.54495239258</ele>
        <time>2017-05-01T07:49:56.000Z</time>
      </trkpt>
      <trkpt lat="49.40145" lon="1.83663">
        <ele>224.66836547852</ele>
        <time>2017-05-01T07:50:00.000Z</time>
      </trkpt>
      <trkpt lat="49.40143" lon="1.83663">
        <ele>224.796875</ele>
        <time>2017-05-01T07:50:03.000Z</time>
      </trkpt>
      <trkpt lat="49.40144" lon="1.83662">
        <ele>224.86901855469</ele>
        <time>2017-05-01T07:50:06.000Z</time>
      </trkpt>
      <trkpt lat="49.40144" lon="1.83664">
        <ele>224.94680786133</ele>
        <time>2017-05-01T07:50:10.000Z</time>
      </trkpt>
      <trkpt lat="49.40143" lon="1.83662">
        <ele>224.98928833008</ele>
        <time>2017-05-01T07:50:13.000Z</time>
      </trkpt>
      <trkpt lat="49.40144" lon="1.83661">
        <ele>224.99291992188</ele>
        <time>2017-05-01T07:50:17.000Z</time>
      </trkpt>
      <trkpt lat="49.40146" lon="1.8366">
        <ele>224.95031738281</ele>
        <time>2017-05-01T07:50:21.000Z</time>
      </trkpt>
      <trkpt lat="49.40147" lon="1.83658">
        <ele>224.90202331543</ele>
        <time>2017-05-01T07:50:23.000Z</time>
      </trkpt>
      <trkpt lat="49.40147" lon="1.83659">
        <ele>224.85766601562</ele>
        <time>2017-05-01T07:50:29.000Z</time>
      </trkpt>
      <trkpt lat="49.40145" lon="1.83658">
        <ele>224.82165527344</ele>
        <time>2017-05-01T07:50:32.000Z</time>
      </trkpt>
      <trkpt lat="49.40137" lon="1.83653">
        <ele>224.82901000977</ele>
        <time>2017-05-01T07:50:35.000Z</time>
      </trkpt>
      <trkpt lat="49.40129" lon="1.83646">
        <ele>224.84313964844</ele>
        <time>2017-05-01T07:50:38.000Z</time>
      </trkpt>
      <trkpt lat="49.40119" lon="1.83637">
        <ele>224.82902526855</ele>
        <time>2017-05-01T07:50:41.000Z</time>
      </trkpt>
      <trkpt lat="49.40105" lon="1.83622">
        <ele>224.6344909668</ele>
        <time>2017-05-01T07:50:44.000Z</time>
      </trkpt>
      <trkpt lat="49.40095" lon="1.83612">
        <ele>224.25439453125</ele>
        <time>2017-05-01T07:50:46.000Z</time>
      </trkpt>
      <trkpt lat="49.40077" lon="1.83602">
        <ele>223.61758422852</ele>
        <time>2017-05-01T07:50:49.000Z</time>
      </trkpt>
      <trkpt lat="49.40052" lon="1.83603">
        <ele>222.99716186523</ele>
        <time>2017-05-01T07:50:52.000Z</time>
      </trkpt>
      <trkpt lat="49.40038" lon="1.83609">
        <ele>222.51631164551</ele>
        <time>2017-05-01T07:50:54.000Z</time>
      </trkpt>
      <trkpt lat="49.40026" lon="1.83615">
        <ele>222.30264282227</ele>
        <time>2017-05-01T07:50:56.000Z</time>
      </trkpt>
      <trkpt lat="49.40007" lon="1.83618">
        <ele>222.29902648926</ele>
        <time>2017-05-01T07:50:59.000Z</time>
      </trkpt>
      <trkpt lat="49.39993" lon="1.83613">
        <ele>222.4169921875</ele>
        <time>2017-05-01T07:51:01.000Z</time>
      </trkpt>
      <trkpt lat="49.39978" lon="1.83608">
        <ele>222.40762329102</ele>
        <time>2017-05-01T07:51:04.000Z</time>
      </trkpt>
      <trkpt lat="49.39967" lon="1.83604">
        <ele>222.19534301758</ele>
        <time>2017-05-01T07:51:06.000Z</time>
      </trkpt>
      <trkpt lat="49.39952" lon="1.83601">
        <ele>221.80473327637</ele>
        <time>2017-05-01T07:51:09.000Z</time>
      </trkpt>
      <trkpt lat="49.39931" lon="1.83608">
        <ele>221.42597961426</ele>
        <time>2017-05-01T07:51:12.000Z</time>
      </trkpt>
      <trkpt lat="49.39918" lon="1.83614">
        <ele>221.20422363281</ele>
        <time>2017-05-01T07:51:14.000Z</time>
      </trkpt>
      <trkpt lat="49.39904" lon="1.83622">
        <ele>221.18701171875</ele>
        <time>2017-05-01T07:51:16.000Z</time>
      </trkpt>
      <trkpt lat="49.3988" lon="1.83632">
        <ele>221.4235534668</ele>
        <time>2017-05-01T07:51:19.000Z</time>
      </trkpt>
      <trkpt lat="49.3986" lon="1.83622">
        <ele>221.52909851074</ele>
        <time>2017-05-01T07:51:22.000Z</time>
      </trkpt>
      <trkpt lat="49.39849" lon="1.83609">
        <ele>221.32841491699</ele>
        <time>2017-05-01T07:51:24.000Z</time>
      </trkpt>
      <trkpt lat="49.39851" lon="1.83608">
        <ele>221.06286621094</ele>
        <time>2017-05-01T07:51:27.000Z</time>
      </trkpt>
      <trkpt lat="49.3985" lon="1.83608">
        <ele>220.69815063477</ele>
        <time>2017-05-01T07:51:33.000Z</time>
      </trkpt>
      <trkpt lat="49.39849" lon="1.83606">
        <ele>220.14904785156</ele>
        <time>2017-05-01T07:51:36.000Z</time>
      </trkpt>
      <trkpt lat="49.39848" lon="1.83604">
        <ele>219.78207397461</ele>
        <time>2017-05-01T07:51:38.000Z</time>
      </trkpt>
      <trkpt lat="49.39845" lon="1.83603">
        <ele>219.64724731445</ele>
        <time>2017-05-01T07:51:42.000Z</time>
      </trkpt>
      <trkpt lat="49.39843" lon="1.83602">
        <ele>219.50112915039</ele>
        <time>2017-05-01T07:51:44.000Z</time>
      </trkpt>
      <trkpt lat="49.39839" lon="1.83602">
        <ele>219.34408569336</ele>
        <time>2017-05-01T07:51:47.000Z</time>
      </trkpt>
      <trkpt lat="49.39837" lon="1.83602">
        <ele>219.22152709961</ele>
        <time>2017-05-01T07:51:49.000Z</time>
      </trkpt>
      <trkpt lat="49.39833" lon="1.836">
        <ele>219.08792114258</ele>
        <time>2017-05-01T07:51:51.000Z</time>
      </trkpt>
      <trkpt lat="49.39826" lon="1.83601">
        <ele>218.98188781738</ele>
        <time>2017-05-01T07:51:54.000Z</time>
      </trkpt>
      <trkpt lat="49.39819" lon="1.83605">
        <ele>218.96257019043</ele>
        <time>2017-05-01T07:51:56.000Z</time>
      </trkpt>
      <trkpt lat="49.39812" lon="1.83608">
        <ele>219.0200958252</ele>
        <time>2017-05-01T07:51:58.000Z</time>
      </trkpt>
      <trkpt lat="49.39805" lon="1.83611">
        <ele>219.12069702148</ele>
        <time>2017-05-01T07:52:01.000Z</time>
      </trkpt>
      <trkpt lat="49.39796" lon="1.83614">
        <ele>219.29318237305</ele>
        <time>2017-05-01T07:52:03.000Z</time>
      </trkpt>
      <trkpt lat="49.3978" lon="1.8361">
        <ele>219.34526062012</ele>
        <time>2017-05-01T07:52:06.000Z</time>
      </trkpt>
      <trkpt lat="49.39771" lon="1.83607">
        <ele>219.23941040039</ele>
        <time>2017-05-01T07:52:08.000Z</time>
      </trkpt>
      <trkpt lat="49.39758" lon="1.83605">
        <ele>219.00668334961</ele>
        <time>2017-05-01T07:52:11.000Z</time>
      </trkpt>
      <trkpt lat="49.39746" lon="1.83608">
        <ele>218.7513885498</ele>
        <time>2017-05-01T07:52:14.000Z</time>
      </trkpt>
      <trkpt lat="49.39738" lon="1.8361">
        <ele>218.48806762695</ele>
        <time>2017-05-01T07:52:16.000Z</time>
      </trkpt>
      <trkpt lat="49.3973" lon="1.83612">
        <ele>218.34866333008</ele>
        <time>2017-05-01T07:52:18.000Z</time>
      </trkpt>
      <trkpt lat="49.39713" lon="1.83611">
        <ele>218.21260070801</ele>
        <time>2017-05-01T07:52:21.000Z</time>
      </trkpt>
      <trkpt lat="49.39698" lon="1.83607">
        <ele>218.013671875</ele>
        <time>2017-05-01T07:52:24.000Z</time>
      </trkpt>
      <trkpt lat="49.39689" lon="1.83604">
        <ele>217.70443725586</ele>
        <time>2017-05-01T07:52:26.000Z</time>
      </trkpt>
      <trkpt lat="49.39674" lon="1.83595">
        <ele>217.1240234375</ele>
        <time>2017-05-01T07:52:29.000Z</time>
      </trkpt>
      <trkpt lat="49.39665" lon="1.8359">
        <ele>216.41342163086</ele>
        <time>2017-05-01T07:52:31.000Z</time>
      </trkpt>
      <trkpt lat="49.39656" lon="1.83585">
        <ele>215.83840942383</ele>
        <time>2017-05-01T07:52:33.000Z</time>
      </trkpt>
      <trkpt lat="49.39637" lon="1.83565">
        <ele>215.54777526855</ele>
        <time>2017-05-01T07:52:36.000Z</time>
      </trkpt>
      <trkpt lat="49.39625" lon="1.83552">
        <ele>215.43692016602</ele>
        <time>2017-05-01T07:52:38.000Z</time>
      </trkpt>
      <trkpt lat="49.3961" lon="1.83537">
        <ele>215.68911743164</ele>
        <time>2017-05-01T07:52:41.000Z</time>
      </trkpt>
      <trkpt lat="49.39589" lon="1.83515">
        <ele>216.19584655762</ele>
        <time>2017-05-01T07:52:44.000Z</time>
      </trkpt>
      <trkpt lat="49.39565" lon="1.83481">
        <ele>216.39096069336</ele>
        <time>2017-05-01T07:52:47.000Z</time>
      </trkpt>
      <trkpt lat="49.3954" lon="1.83438">
        <ele>215.98466491699</ele>
        <time>2017-05-01T07:52:50.000Z</time>
      </trkpt>
      <trkpt lat="49.39524" lon="1.83422">
        <ele>215.23544311523</ele>
        <time>2017-05-01T07:52:53.000Z</time>
      </trkpt>
      <trkpt lat="49.39514" lon="1.83413">
        <ele>214.19445800781</ele>
        <time>2017-05-01T07:52:55.000Z</time>
      </trkpt>
      <trkpt lat="49.39503" lon="1.83394">
        <ele>212.74374389648</ele>
        <time>2017-05-01T07:52:58.000Z</time>
      </trkpt>
      <trkpt lat="49.39496" lon="1.83388">
        <ele>211.43591308594</ele>
        <time>2017-05-01T07:53:00.000Z</time>
      </trkpt>
      <trkpt lat="49.39486" lon="1.83383">
        <ele>210.45317077637</ele>
        <time>2017-05-01T07:53:02.000Z</time>
      </trkpt>
      <trkpt lat="49.39479" lon="1.83372">
        <ele>209.56698608398</ele>
        <time>2017-05-01T07:53:05.000Z</time>
      </trkpt>
      <trkpt lat="49.39466" lon="1.8336">
        <ele>208.65127563477</ele>
        <time>2017-05-01T07:53:08.000Z</time>
      </trkpt>
      <trkpt lat="49.39457" lon="1.8335">
        <ele>207.85888671875</ele>
        <time>2017-05-01T07:53:11.000Z</time>
      </trkpt>
      <trkpt lat="49.39452" lon="1.83345">
        <ele>207.11221313477</ele>
        <time>2017-05-01T07:53:13.000Z</time>
      </trkpt>
      <trkpt lat="49.39445" lon="1.83341">
        <ele>206.42684936523</ele>
        <time>2017-05-01T07:53:16.000Z</time>
      </trkpt>
      <trkpt lat="49.39437" lon="1.83339">
        <ele>205.81843566895</ele>
        <time>2017-05-01T07:53:19.000Z</time>
      </trkpt>
      <trkpt lat="49.39429" lon="1.83335">
        <ele>205.3310546875</ele>
        <time>2017-05-01T07:53:22.000Z</time>
      </trkpt>
      <trkpt lat="49.39417" lon="1.83328">
        <ele>204.86730957031</ele>
        <time>2017-05-01T07:53:25.000Z</time>
      </trkpt>
      <trkpt lat="49.39409" lon="1.83323">
        <ele>204.44638061523</ele>
        <time>2017-05-01T07:53:27.000Z</time>
      </trkpt>
      <trkpt lat="49.39395" lon="1.83316">
        <ele>204.04649353027</ele>
        <time>2017-05-01T07:53:30.000Z</time>
      </trkpt>
      <trkpt lat="49.39384" lon="1.83309">
        <ele>203.68789672852</ele>
        <time>2017-05-01T07:53:33.000Z</time>
      </trkpt>
      <trkpt lat="49.39373" lon="1.83307">
        <ele>203.39483642578</ele>
        <time>2017-05-01T07:53:36.000Z</time>
      </trkpt>
      <trkpt lat="49.39365" lon="1.83306">
        <ele>203.23178100586</ele>
        <time>2017-05-01T07:53:38.000Z</time>
      </trkpt>
      <trkpt lat="49.39356" lon="1.83304">
        <ele>203.0979309082</ele>
        <time>2017-05-01T07:53:40.000Z</time>
      </trkpt>
      <trkpt lat="49.39346" lon="1.83304">
        <ele>203.01179504395</ele>
        <time>2017-05-01T07:53:42.000Z</time>
      </trkpt>
      <trkpt lat="49.39333" lon="1.83298">
        <ele>202.93212890625</ele>
        <time>2017-05-01T07:53:45.000Z</time>
      </trkpt>
      <trkpt lat="49.39316" lon="1.83286">
        <ele>202.9919128418</ele>
        <time>2017-05-01T07:53:48.000Z</time>
      </trkpt>
      <trkpt lat="49.39313" lon="1.83279">
        <ele>202.99606323242</ele>
        <time>2017-05-01T07:53:51.000Z</time>
      </trkpt>
      <trkpt lat="49.39312" lon="1.83277">
        <ele>203.00173950195</ele>
        <time>2017-05-01T07:53:54.000Z</time>
      </trkpt>
      <trkpt lat="49.39309" lon="1.83275">
        <ele>203.01524353027</ele>
        <time>2017-05-01T07:53:59.000Z</time>
      </trkpt>
      <trkpt lat="49.39306" lon="1.83273">
        <ele>203.06930541992</ele>
        <time>2017-05-01T07:54:01.000Z</time>
      </trkpt>
      <trkpt lat="49.393" lon="1.83272">
        <ele>203.02563476562</ele>
        <time>2017-05-01T07:54:04.000Z</time>
      </trkpt>
      <trkpt lat="49.39294" lon="1.8327">
        <ele>203.05461120605</ele>
        <time>2017-05-01T07:54:06.000Z</time>
      </trkpt>
      <trkpt lat="49.39286" lon="1.83267">
        <ele>203.09884643555</ele>
        <time>2017-05-01T07:54:08.000Z</time>
      </trkpt>
      <trkpt lat="49.39273" lon="1.83261">
        <ele>203.0990447998</ele>
        <time>2017-05-01T07:54:11.000Z</time>
      </trkpt>
      <trkpt lat="49.3926" lon="1.83256">
        <ele>203.03573608398</ele>
        <time>2017-05-01T07:54:14.000Z</time>
      </trkpt>
      <trkpt lat="49.39254" lon="1.83254">
        <ele>202.91920471191</ele>
        <time>2017-05-01T07:54:16.000Z</time>
      </trkpt>
      <trkpt lat="49.39244" lon="1.83251">
        <ele>202.72122192383</ele>
        <time>2017-05-01T07:54:19.000Z</time>
      </trkpt>
      <trkpt lat="49.39234" lon="1.83249">
        <ele>202.49955749512</ele>
        <time>2017-05-01T07:54:22.000Z</time>
      </trkpt>
      <trkpt lat="49.39229" lon="1.83249">
        <ele>202.33920288086</ele>
        <time>2017-05-01T07:54:24.000Z</time>
      </trkpt>
      <trkpt lat="49.39225" lon="1.83249">
        <ele>202.24580383301</ele>
        <time>2017-05-01T07:54:26.000Z</time>
      </trkpt>
      <trkpt lat="49.39217" lon="1.83247">
        <ele>202.15386962891</ele>
        <time>2017-05-01T07:54:29.000Z</time>
      </trkpt>
      <trkpt lat="49.39212" lon="1.83242">
        <ele>202.06343078613</ele>
        <time>2017-05-01T07:54:32.000Z</time>
      </trkpt>
      <trkpt lat="49.3921" lon="1.83241">
        <ele>201.9718170166</ele>
        <time>2017-05-01T07:54:34.000Z</time>
      </trkpt>
      <trkpt lat="49.39207" lon="1.83241">
        <ele>201.86541748047</ele>
        <time>2017-05-01T07:54:37.000Z</time>
      </trkpt>
      <trkpt lat="49.39204" lon="1.8324">
        <ele>201.73921203613</ele>
        <time>2017-05-01T07:54:40.000Z</time>
      </trkpt>
      <trkpt lat="49.39202" lon="1.83239">
        <ele>201.62649536133</ele>
        <time>2017-05-01T07:54:43.000Z</time>
      </trkpt>
      <trkpt lat="49.39201" lon="1.83238">
        <ele>201.56369018555</ele>
        <time>2017-05-01T07:54:48.000Z</time>
      </trkpt>
      <trkpt lat="49.39201" lon="1.83236">
        <ele>201.47904968262</ele>
        <time>2017-05-01T07:54:52.000Z</time>
      </trkpt>
      <trkpt lat="49.39202" lon="1.83233">
        <ele>201.32023620605</ele>
        <time>2017-05-01T07:54:54.000Z</time>
      </trkpt>
      <trkpt lat="49.39202" lon="1.83235">
        <ele>201.22077941895</ele>
        <time>2017-05-01T07:54:59.000Z</time>
      </trkpt>
      <trkpt lat="49.39201" lon="1.83237">
        <ele>201.17001342773</ele>
        <time>2017-05-01T07:55:02.000Z</time>
      </trkpt>
      <trkpt lat="49.39199" lon="1.83238">
        <ele>201.16461181641</ele>
        <time>2017-05-01T07:55:05.000Z</time>
      </trkpt>
      <trkpt lat="49.39196" lon="1.83239">
        <ele>201.23106384277</ele>
        <time>2017-05-01T07:55:07.000Z</time>
      </trkpt>
      <trkpt lat="49.39192" lon="1.83245">
        <ele>201.48611450195</ele>
        <time>2017-05-01T07:55:10.000Z</time>
      </trkpt>
      <trkpt lat="49.39191" lon="1.83249">
        <ele>201.78677368164</ele>
        <time>2017-05-01T07:55:12.000Z</time>
      </trkpt>
      <trkpt lat="49.39189" lon="1.83254">
        <ele>202.18452453613</ele>
        <time>2017-05-01T07:55:14.000Z</time>
      </trkpt>
      <trkpt lat="49.39182" lon="1.83261">
        <ele>202.80387878418</ele>
        <time>2017-05-01T07:55:17.000Z</time>
      </trkpt>
      <trkpt lat="49.39175" lon="1.83268">
        <ele>203.60261535645</ele>
        <time>2017-05-01T07:55:20.000Z</time>
      </trkpt>
      <trkpt lat="49.39171" lon="1.83272">
        <ele>204.39570617676</ele>
        <time>2017-05-01T07:55:22.000Z</time>
      </trkpt>
      <trkpt lat="49.39169" lon="1.83275">
        <ele>205.18774414062</ele>
        <time>2017-05-01T07:55:24.000Z</time>
      </trkpt>
      <trkpt lat="49.39165" lon="1.83276">
        <ele>205.85949707031</ele>
        <time>2017-05-01T07:55:26.000Z</time>
      </trkpt>
      <trkpt lat="49.39159" lon="1.83282">
        <ele>206.33432006836</ele>
        <time>2017-05-01T07:55:29.000Z</time>
      </trkpt>
      <trkpt lat="49.39154" lon="1.83288">
        <ele>206.67936706543</ele>
        <time>2017-05-01T07:55:31.000Z</time>
      </trkpt>
      <trkpt lat="49.39149" lon="1.83299">
        <ele>207.09587097168</ele>
        <time>2017-05-01T07:55:34.000Z</time>
      </trkpt>
      <trkpt lat="49.39142" lon="1.83309">
        <ele>207.5598449707</ele>
        <time>2017-05-01T07:55:37.000Z</time>
      </trkpt>
      <trkpt lat="49.39138" lon="1.83315">
        <ele>208.0622253418</ele>
        <time>2017-05-01T07:55:39.000Z</time>
      </trkpt>
      <trkpt lat="49.39135" lon="1.8332">
        <ele>208.57006835938</ele>
        <time>2017-05-01T07:55:41.000Z</time>
      </trkpt>
      <trkpt lat="49.3913" lon="1.83329">
        <ele>209.10649108887</ele>
        <time>2017-05-01T07:55:44.000Z</time>
      </trkpt>
      <trkpt lat="49.39125" lon="1.83335">
        <ele>209.49841308594</ele>
        <time>2017-05-01T07:55:46.000Z</time>
      </trkpt>
      <trkpt lat="49.39119" lon="1.83344">
        <ele>209.69853210449</ele>
        <time>2017-05-01T07:55:49.000Z</time>
      </trkpt>
      <trkpt lat="49.39116" lon="1.83349">
        <ele>209.84233093262</ele>
        <time>2017-05-01T07:55:51.000Z</time>
      </trkpt>
      <trkpt lat="49.39114" lon="1.83354">
        <ele>209.93276977539</ele>
        <time>2017-05-01T07:55:53.000Z</time>
      </trkpt>
      <trkpt lat="49.39111" lon="1.8336">
        <ele>209.90837097168</ele>
        <time>2017-05-01T07:55:56.000Z</time>
      </trkpt>
      <trkpt lat="49.39108" lon="1.83366">
        <ele>209.83976745605</ele>
        <time>2017-05-01T07:55:58.000Z</time>
      </trkpt>
      <trkpt lat="49.39105" lon="1.83373">
        <ele>209.83676147461</ele>
        <time>2017-05-01T07:56:00.000Z</time>
      </trkpt>
      <trkpt lat="49.39103" lon="1.83379">
        <ele>209.86642456055</ele>
        <time>2017-05-01T07:56:02.000Z</time>
      </trkpt>
      <trkpt lat="49.39101" lon="1.83388">
        <ele>209.9621887207</ele>
        <time>2017-05-01T07:56:05.000Z</time>
      </trkpt>
      <trkpt lat="49.391" lon="1.83393">
        <ele>210.07731628418</ele>
        <time>2017-05-01T07:56:07.000Z</time>
      </trkpt>
      <trkpt lat="49.39095" lon="1.83402">
        <ele>210.19230651855</ele>
        <time>2017-05-01T07:56:10.000Z</time>
      </trkpt>
      <trkpt lat="49.39091" lon="1.83406">
        <ele>210.2529296875</ele>
        <time>2017-05-01T07:56:13.000Z</time>
      </trkpt>
      <trkpt lat="49.39085" lon="1.83412">
        <ele>210.24731445312</ele>
        <time>2017-05-01T07:56:16.000Z</time>
      </trkpt>
      <trkpt lat="49.3908" lon="1.83416">
        <ele>210.13003540039</ele>
        <time>2017-05-01T07:56:18.000Z</time>
      </trkpt>
      <trkpt lat="49.39075" lon="1.83419">
        <ele>209.94624328613</ele>
        <time>2017-05-01T07:56:21.000Z</time>
      </trkpt>
      <trkpt lat="49.39069" lon="1.83427">
        <ele>209.72549438477</ele>
        <time>2017-05-01T07:56:24.000Z</time>
      </trkpt>
      <trkpt lat="49.39066" lon="1.83438">
        <ele>209.5638885498</ele>
        <time>2017-05-01T07:56:27.000Z</time>
      </trkpt>
      <trkpt lat="49.39064" lon="1.8345">
        <ele>209.49101257324</ele>
        <time>2017-05-01T07:56:30.000Z</time>
      </trkpt>
      <trkpt lat="49.39063" lon="1.83457">
        <ele>209.48417663574</ele>
        <time>2017-05-01T07:56:32.000Z</time>
      </trkpt>
      <trkpt lat="49.39059" lon="1.83467">
        <ele>209.55183410645</ele>
        <time>2017-05-01T07:56:35.000Z</time>
      </trkpt>
      <trkpt lat="49.39058" lon="1.83474">
        <ele>209.69551086426</ele>
        <time>2017-05-01T07:56:37.000Z</time>
      </trkpt>
      <trkpt lat="49.39058" lon="1.83482">
        <ele>209.86906433105</ele>
        <time>2017-05-01T07:56:39.000Z</time>
      </trkpt>
      <trkpt lat="49.39055" lon="1.83496">
        <ele>210.05233764648</ele>
        <time>2017-05-01T07:56:42.000Z</time>
      </trkpt>
      <trkpt lat="49.39054" lon="1.83506">
        <ele>210.27542114258</ele>
        <time>2017-05-01T07:56:44.000Z</time>
      </trkpt>
      <trkpt lat="49.3905" lon="1.83521">
        <ele>210.53274536133</ele>
        <time>2017-05-01T07:56:47.000Z</time>
      </trkpt>
      <trkpt lat="49.39047" lon="1.83532">
        <ele>210.79183959961</ele>
        <time>2017-05-01T07:56:49.000Z</time>
      </trkpt>
      <trkpt lat="49.39043" lon="1.83549">
        <ele>211.06552124023</ele>
        <time>2017-05-01T07:56:52.000Z</time>
      </trkpt>
      <trkpt lat="49.39042" lon="1.83564">
        <ele>211.35542297363</ele>
        <time>2017-05-01T07:56:55.000Z</time>
      </trkpt>
      <trkpt lat="49.39041" lon="1.83575">
        <ele>211.63757324219</ele>
        <time>2017-05-01T07:56:57.000Z</time>
      </trkpt>
      <trkpt lat="49.39042" lon="1.83588">
        <ele>211.91088867188</ele>
        <time>2017-05-01T07:56:59.000Z</time>
      </trkpt>
      <trkpt lat="49.39038" lon="1.83605">
        <ele>212.0982208252</ele>
        <time>2017-05-01T07:57:02.000Z</time>
      </trkpt>
      <trkpt lat="49.39034" lon="1.83624">
        <ele>212.14961242676</ele>
        <time>2017-05-01T07:57:05.000Z</time>
      </trkpt>
      <trkpt lat="49.39031" lon="1.83632">
        <ele>212.08206176758</ele>
        <time>2017-05-01T07:57:07.000Z</time>
      </trkpt>
      <trkpt lat="49.3903" lon="1.83637">
        <ele>211.9326171875</ele>
        <time>2017-05-01T07:57:09.000Z</time>
      </trkpt>
      <trkpt lat="49.3903" lon="1.83644">
        <ele>211.7412109375</ele>
        <time>2017-05-01T07:57:11.000Z</time>
      </trkpt>
      <trkpt lat="49.39033" lon="1.83652">
        <ele>211.6455078125</ele>
        <time>2017-05-01T07:57:14.000Z</time>
      </trkpt>
      <trkpt lat="49.3904" lon="1.83663">
        <ele>211.7548828125</ele>
        <time>2017-05-01T07:57:17.000Z</time>
      </trkpt>
      <trkpt lat="49.39045" lon="1.83671">
        <ele>211.93002319336</ele>
        <time>2017-05-01T07:57:19.000Z</time>
      </trkpt>
      <trkpt lat="49.39056" lon="1.83677">
        <ele>212.20585632324</ele>
        <time>2017-05-01T07:57:22.000Z</time>
      </trkpt>
      <trkpt lat="49.39066" lon="1.83686">
        <ele>212.48361206055</ele>
        <time>2017-05-01T07:57:25.000Z</time>
      </trkpt>
      <trkpt lat="49.39072" lon="1.83693">
        <ele>212.67407226562</ele>
        <time>2017-05-01T07:57:27.000Z</time>
      </trkpt>
      <trkpt lat="49.3908" lon="1.83704">
        <ele>212.63223266602</ele>
        <time>2017-05-01T07:57:30.000Z</time>
      </trkpt>
      <trkpt lat="49.39086" lon="1.83711">
        <ele>212.51428222656</ele>
        <time>2017-05-01T07:57:32.000Z</time>
      </trkpt>
      <trkpt lat="49.39093" lon="1.83719">
        <ele>212.28393554688</ele>
        <time>2017-05-01T07:57:35.000Z</time>
      </trkpt>
      <trkpt lat="49.39103" lon="1.83727">
        <ele>212.06091308594</ele>
        <time>2017-05-01T07:57:38.000Z</time>
      </trkpt>
      <trkpt lat="49.3911" lon="1.8373">
        <ele>211.94755554199</ele>
        <time>2017-05-01T07:57:40.000Z</time>
      </trkpt>
      <trkpt lat="49.3912" lon="1.83734">
        <ele>212.05696105957</ele>
        <time>2017-05-01T07:57:43.000Z</time>
      </trkpt>
      <trkpt lat="49.39129" lon="1.83736">
        <ele>212.35073852539</ele>
        <time>2017-05-01T07:57:46.000Z</time>
      </trkpt>
      <trkpt lat="49.39134" lon="1.83738">
        <ele>212.74868774414</ele>
        <time>2017-05-01T07:57:48.000Z</time>
      </trkpt>
      <trkpt lat="49.39144" lon="1.83743">
        <ele>213.23641967773</ele>
        <time>2017-05-01T07:57:51.000Z</time>
      </trkpt>
      <trkpt lat="49.39148" lon="1.83749">
        <ele>213.6572265625</ele>
        <time>2017-05-01T07:57:53.000Z</time>
      </trkpt>
      <trkpt lat="49.39153" lon="1.83753">
        <ele>213.96096801758</ele>
        <time>2017-05-01T07:57:55.000Z</time>
      </trkpt>
      <trkpt lat="49.39159" lon="1.83757">
        <ele>214.16255187988</ele>
        <time>2017-05-01T07:57:57.000Z</time>
      </trkpt>
      <trkpt lat="49.39167" lon="1.83766">
        <ele>214.24565124512</ele>
        <time>2017-05-01T07:58:00.000Z</time>
      </trkpt>
      <trkpt lat="49.39173" lon="1.8377">
        <ele>214.21398925781</ele>
        <time>2017-05-01T07:58:02.000Z</time>
      </trkpt>
      <trkpt lat="49.39182" lon="1.83777">
        <ele>214.16743469238</ele>
        <time>2017-05-01T07:58:05.000Z</time>
      </trkpt>
      <trkpt lat="49.39187" lon="1.83781">
        <ele>214.11381530762</ele>
        <time>2017-05-01T07:58:07.000Z</time>
      </trkpt>
      <trkpt lat="49.39193" lon="1.83784">
        <ele>214.0415802002</ele>
        <time>2017-05-01T07:58:09.000Z</time>
      </trkpt>
      <trkpt lat="49.392" lon="1.83792">
        <ele>213.97929382324</ele>
        <time>2017-05-01T07:58:12.000Z</time>
      </trkpt>
      <trkpt lat="49.3921" lon="1.83801">
        <ele>213.88549804688</ele>
        <time>2017-05-01T07:58:15.000Z</time>
      </trkpt>
      <trkpt lat="49.39216" lon="1.83808">
        <ele>213.77946472168</ele>
        <time>2017-05-01T07:58:17.000Z</time>
      </trkpt>
      <trkpt lat="49.39227" lon="1.83817">
        <ele>213.67166137695</ele>
        <time>2017-05-01T07:58:20.000Z</time>
      </trkpt>
      <trkpt lat="49.39236" lon="1.83824">
        <ele>213.5830078125</ele>
        <time>2017-05-01T07:58:23.000Z</time>
      </trkpt>
      <trkpt lat="49.39245" lon="1.83832">
        <ele>213.56416320801</ele>
        <time>2017-05-01T07:58:26.000Z</time>
      </trkpt>
      <trkpt lat="49.39251" lon="1.83836">
        <ele>213.60195922852</ele>
        <time>2017-05-01T07:58:28.000Z</time>
      </trkpt>
      <trkpt lat="49.3926" lon="1.83843">
        <ele>213.64883422852</ele>
        <time>2017-05-01T07:58:31.000Z</time>
      </trkpt>
      <trkpt lat="49.39269" lon="1.83848">
        <ele>213.69970703125</ele>
        <time>2017-05-01T07:58:34.000Z</time>
      </trkpt>
      <trkpt lat="49.39274" lon="1.83851">
        <ele>213.75039672852</ele>
        <time>2017-05-01T07:58:36.000Z</time>
      </trkpt>
      <trkpt lat="49.39282" lon="1.83857">
        <ele>213.80220031738</ele>
        <time>2017-05-01T07:58:39.000Z</time>
      </trkpt>
      <trkpt lat="49.39292" lon="1.83863">
        <ele>213.87397766113</ele>
        <time>2017-05-01T07:58:42.000Z</time>
      </trkpt>
      <trkpt lat="49.39298" lon="1.83867">
        <ele>213.99516296387</ele>
        <time>2017-05-01T07:58:44.000Z</time>
      </trkpt>
      <trkpt lat="49.39307" lon="1.83874">
        <ele>214.17358398438</ele>
        <time>2017-05-01T07:58:47.000Z</time>
      </trkpt>
      <trkpt lat="49.39314" lon="1.83878">
        <ele>214.38069152832</ele>
        <time>2017-05-01T07:58:49.000Z</time>
      </trkpt>
      <trkpt lat="49.39323" lon="1.83885">
        <ele>214.62593078613</ele>
        <time>2017-05-01T07:58:52.000Z</time>
      </trkpt>
      <trkpt lat="49.39329" lon="1.83889">
        <ele>214.8994140625</ele>
        <time>2017-05-01T07:58:54.000Z</time>
      </trkpt>
      <trkpt lat="49.39339" lon="1.83894">
        <ele>215.2434387207</ele>
        <time>2017-05-01T07:58:57.000Z</time>
      </trkpt>
      <trkpt lat="49.39349" lon="1.839">
        <ele>215.62460327148</ele>
        <time>2017-05-01T07:59:00.000Z</time>
      </trkpt>
      <trkpt lat="49.39355" lon="1.83903">
        <ele>216.01794433594</ele>
        <time>2017-05-01T07:59:02.000Z</time>
      </trkpt>
      <trkpt lat="49.39364" lon="1.83911">
        <ele>216.42826843262</ele>
        <time>2017-05-01T07:59:05.000Z</time>
      </trkpt>
      <trkpt lat="49.39375" lon="1.8392">
        <ele>216.84582519531</ele>
        <time>2017-05-01T07:59:08.000Z</time>
      </trkpt>
      <trkpt lat="49.39381" lon="1.83924">
        <ele>217.16744995117</ele>
        <time>2017-05-01T07:59:10.000Z</time>
      </trkpt>
      <trkpt lat="49.3939" lon="1.8393">
        <ele>217.39181518555</ele>
        <time>2017-05-01T07:59:13.000Z</time>
      </trkpt>
      <trkpt lat="49.39398" lon="1.83933">
        <ele>217.59921264648</ele>
        <time>2017-05-01T07:59:16.000Z</time>
      </trkpt>
      <trkpt lat="49.39408" lon="1.83939">
        <ele>217.75508117676</ele>
        <time>2017-05-01T07:59:19.000Z</time>
      </trkpt>
      <trkpt lat="49.39418" lon="1.83944">
        <ele>217.85359191895</ele>
        <time>2017-05-01T07:59:22.000Z</time>
      </trkpt>
      <trkpt lat="49.39426" lon="1.8395">
        <ele>217.86889648438</ele>
        <time>2017-05-01T07:59:25.000Z</time>
      </trkpt>
      <trkpt lat="49.3943" lon="1.83951">
        <ele>217.87455749512</ele>
        <time>2017-05-01T07:59:27.000Z</time>
      </trkpt>
      <trkpt lat="49.39436" lon="1.83955">
        <ele>217.80032348633</ele>
        <time>2017-05-01T07:59:30.000Z</time>
      </trkpt>
      <trkpt lat="49.39438" lon="1.83956">
        <ele>217.69853210449</ele>
        <time>2017-05-01T07:59:32.000Z</time>
      </trkpt>
      <trkpt lat="49.39439" lon="1.83955">
        <ele>217.59921264648</ele>
        <time>2017-05-01T07:59:35.000Z</time>
      </trkpt>
      <trkpt lat="49.39439" lon="1.83957">
        <ele>217.53713989258</ele>
        <time>2017-05-01T07:59:40.000Z</time>
      </trkpt>
      <trkpt lat="49.39439" lon="1.8396">
        <ele>217.41333007812</ele>
        <time>2017-05-01T07:59:44.000Z</time>
      </trkpt>
      <trkpt lat="49.39433" lon="1.83969">
        <ele>216.99348449707</ele>
        <time>2017-05-01T07:59:47.000Z</time>
      </trkpt>
      <trkpt lat="49.39433" lon="1.83969">
        <ele>216.99348449707</ele>
        <time>2017-05-01T08:00:07.000Z</time>
      </trkpt>
      <trkpt lat="49.39435" lon="1.83968">
        <ele>216.64823913574</ele>
        <time>2017-05-01T08:00:15.000Z</time>
      </trkpt>
      <trkpt lat="49.39436" lon="1.83969">
        <ele>216.25361633301</ele>
        <time>2017-05-01T08:00:22.000Z</time>
      </trkpt>
      <trkpt lat="49.39435" lon="1.83967">
        <ele>215.93391418457</ele>
        <time>2017-05-01T08:00:25.000Z</time>
      </trkpt>
      <trkpt lat="49.39435" lon="1.83965">
        <ele>215.74502563477</ele>
        <time>2017-05-01T08:00:27.000Z</time>
      </trkpt>
      <trkpt lat="49.39437" lon="1.83964">
        <ele>215.92863464355</ele>
        <time>2017-05-01T08:00:31.000Z</time>
      </trkpt>
      <trkpt lat="49.39438" lon="1.83966">
        <ele>216.01029968262</ele>
        <time>2017-05-01T08:00:34.000Z</time>
      </trkpt>
      <trkpt lat="49.39439" lon="1.83965">
        <ele>216.1499786377</ele>
        <time>2017-05-01T08:00:39.000Z</time>
      </trkpt>
      <trkpt lat="49.3944" lon="1.83966">
        <ele>216.24172973633</ele>
        <time>2017-05-01T08:00:41.000Z</time>
      </trkpt>
      <trkpt lat="49.39441" lon="1.83967">
        <ele>216.26306152344</ele>
        <time>2017-05-01T08:00:43.000Z</time>
      </trkpt>
      <trkpt lat="49.39441" lon="1.83964">
        <ele>216.3306427002</ele>
        <time>2017-05-01T08:00:46.000Z</time>
      </trkpt>
      <trkpt lat="49.39441" lon="1.8396">
        <ele>216.52629089355</ele>
        <time>2017-05-01T08:00:48.000Z</time>
      </trkpt>
      <trkpt lat="49.39441" lon="1.83957">
        <ele>216.75900268555</ele>
        <time>2017-05-01T08:00:51.000Z</time>
      </trkpt>
      <trkpt lat="49.39444" lon="1.83959">
        <ele>216.98945617676</ele>
        <time>2017-05-01T08:00:59.000Z</time>
      </trkpt>
      <trkpt lat="49.39445" lon="1.83959">
        <ele>217.22709655762</ele>
        <time>2017-05-01T08:01:01.000Z</time>
      </trkpt>
      <trkpt lat="49.39444" lon="1.83962">
        <ele>217.31079101562</ele>
        <time>2017-05-01T08:01:18.000Z</time>
      </trkpt>
      <trkpt lat="49.39444" lon="1.83962">
        <ele>217.31079101562</ele>
        <time>2017-05-01T08:01:38.000Z</time>
      </trkpt>
      <trkpt lat="49.39445" lon="1.83959">
        <ele>217.34872436523</ele>
        <time>2017-05-01T08:02:15.000Z</time>
      </trkpt>
      <trkpt lat="49.39445" lon="1.83962">
        <ele>217.27436828613</ele>
        <time>2017-05-01T08:02:20.000Z</time>
      </trkpt>
      <trkpt lat="49.39449" lon="1.83966">
        <ele>217.16105651855</ele>
        <time>2017-05-01T08:02:22.000Z</time>
      </trkpt>
      <trkpt lat="49.39457" lon="1.83969">
        <ele>217.07421875</ele>
        <time>2017-05-01T08:02:25.000Z</time>
      </trkpt>
      <trkpt lat="49.39461" lon="1.83972">
        <ele>217.03524780273</ele>
        <time>2017-05-01T08:02:27.000Z</time>
      </trkpt>
      <trkpt lat="49.39466" lon="1.83977">
        <ele>216.89416503906</ele>
        <time>2017-05-01T08:02:29.000Z</time>
      </trkpt>
      <trkpt lat="49.39477" lon="1.83986">
        <ele>216.75891113281</ele>
        <time>2017-05-01T08:02:32.000Z</time>
      </trkpt>
      <trkpt lat="49.39484" lon="1.83992">
        <ele>216.6858215332</ele>
        <time>2017-05-01T08:02:34.000Z</time>
      </trkpt>
      <trkpt lat="49.39494" lon="1.83997">
        <ele>216.65657043457</ele>
        <time>2017-05-01T08:02:36.000Z</time>
      </trkpt>
      <trkpt lat="49.39507" lon="1.83999">
        <ele>216.85102844238</ele>
        <time>2017-05-01T08:02:39.000Z</time>
      </trkpt>
      <trkpt lat="49.3952" lon="1.84004">
        <ele>217.28787231445</ele>
        <time>2017-05-01T08:02:42.000Z</time>
      </trkpt>
      <trkpt lat="49.39532" lon="1.84012">
        <ele>217.90473937988</ele>
        <time>2017-05-01T08:02:45.000Z</time>
      </trkpt>
      <trkpt lat="49.39538" lon="1.84015">
        <ele>218.60513305664</ele>
        <time>2017-05-01T08:02:47.000Z</time>
      </trkpt>
      <trkpt lat="49.39545" lon="1.84018">
        <ele>219.33279418945</ele>
        <time>2017-05-01T08:02:49.000Z</time>
      </trkpt>
      <trkpt lat="49.39553" lon="1.84022">
        <ele>219.93338012695</ele>
        <time>2017-05-01T08:02:51.000Z</time>
      </trkpt>
      <trkpt lat="49.39558" lon="1.84026">
        <ele>220.37939453125</ele>
        <time>2017-05-01T08:02:53.000Z</time>
      </trkpt>
      <trkpt lat="49.39565" lon="1.84032">
        <ele>220.7248840332</ele>
        <time>2017-05-01T08:02:55.000Z</time>
      </trkpt>
      <trkpt lat="49.39576" lon="1.84037">
        <ele>221.06625366211</ele>
        <time>2017-05-01T08:02:58.000Z</time>
      </trkpt>
      <trkpt lat="49.39583" lon="1.84042">
        <ele>221.38027954102</ele>
        <time>2017-05-01T08:03:00.000Z</time>
      </trkpt>
      <trkpt lat="49.39594" lon="1.84046">
        <ele>221.66586303711</ele>
        <time>2017-05-01T08:03:03.000Z</time>
      </trkpt>
      <trkpt lat="49.39605" lon="1.84056">
        <ele>221.8564453125</ele>
        <time>2017-05-01T08:03:06.000Z</time>
      </trkpt>
      <trkpt lat="49.39614" lon="1.84063">
        <ele>222.0318145752</ele>
        <time>2017-05-01T08:03:09.000Z</time>
      </trkpt>
      <trkpt lat="49.39621" lon="1.84067">
        <ele>222.13334655762</ele>
        <time>2017-05-01T08:03:11.000Z</time>
      </trkpt>
      <trkpt lat="49.3963" lon="1.84073">
        <ele>222.18209838867</ele>
        <time>2017-05-01T08:03:14.000Z</time>
      </trkpt>
      <trkpt lat="49.39637" lon="1.84079">
        <ele>222.17585754395</ele>
        <time>2017-05-01T08:03:17.000Z</time>
      </trkpt>
      <trkpt lat="49.39647" lon="1.84084">
        <ele>222.27262878418</ele>
        <time>2017-05-01T08:03:20.000Z</time>
      </trkpt>
      <trkpt lat="49.39653" lon="1.84089">
        <ele>222.38578796387</ele>
        <time>2017-05-01T08:03:22.000Z</time>
      </trkpt>
      <trkpt lat="49.39662" lon="1.84096">
        <ele>222.53295898438</ele>
        <time>2017-05-01T08:03:25.000Z</time>
      </trkpt>
      <trkpt lat="49.39669" lon="1.84099">
        <ele>222.71829223633</ele>
        <time>2017-05-01T08:03:27.000Z</time>
      </trkpt>
      <trkpt lat="49.39676" lon="1.84103">
        <ele>222.9462890625</ele>
        <time>2017-05-01T08:03:30.000Z</time>
      </trkpt>
      <trkpt lat="49.39683" lon="1.84108">
        <ele>223.14375305176</ele>
        <time>2017-05-01T08:03:33.000Z</time>
      </trkpt>
      <trkpt lat="49.39686" lon="1.84111">
        <ele>223.31237792969</ele>
        <time>2017-05-01T08:03:35.000Z</time>
      </trkpt>
      <trkpt lat="49.39692" lon="1.84114">
        <ele>223.45829772949</ele>
        <time>2017-05-01T08:03:38.000Z</time>
      </trkpt>
      <trkpt lat="49.39695" lon="1.84116">
        <ele>223.56283569336</ele>
        <time>2017-05-01T08:03:40.000Z</time>
      </trkpt>
      <trkpt lat="49.39704" lon="1.84123">
        <ele>223.65409851074</ele>
        <time>2017-05-01T08:03:43.000Z</time>
      </trkpt>
      <trkpt lat="49.39712" lon="1.84131">
        <ele>223.72305297852</ele>
        <time>2017-05-01T08:03:46.000Z</time>
      </trkpt>
      <trkpt lat="49.39718" lon="1.84137">
        <ele>223.78591918945</ele>
        <time>2017-05-01T08:03:49.000Z</time>
      </trkpt>
      <trkpt lat="49.39722" lon="1.84141">
        <ele>223.82315063477</ele>
        <time>2017-05-01T08:03:51.000Z</time>
      </trkpt>
      <trkpt lat="49.3973" lon="1.84149">
        <ele>223.8583984375</ele>
        <time>2017-05-01T08:03:54.000Z</time>
      </trkpt>
      <trkpt lat="49.39737" lon="1.84154">
        <ele>223.88830566406</ele>
        <time>2017-05-01T08:03:56.000Z</time>
      </trkpt>
      <trkpt lat="49.39745" lon="1.84158">
        <ele>223.96719360352</ele>
        <time>2017-05-01T08:03:59.000Z</time>
      </trkpt>
      <trkpt lat="49.39751" lon="1.84161">
        <ele>224.0806427002</ele>
        <time>2017-05-01T08:04:01.000Z</time>
      </trkpt>
      <trkpt lat="49.39757" lon="1.84164">
        <ele>224.34814453125</ele>
        <time>2017-05-01T08:04:03.000Z</time>
      </trkpt>
      <trkpt lat="49.39763" lon="1.84168">
        <ele>224.73124694824</ele>
        <time>2017-05-01T08:04:06.000Z</time>
      </trkpt>
      <trkpt lat="49.39768" lon="1.84175">
        <ele>225.13285827637</ele>
        <time>2017-05-01T08:04:09.000Z</time>
      </trkpt>
      <trkpt lat="49.39772" lon="1.84183">
        <ele>225.4987487793</ele>
        <time>2017-05-01T08:04:12.000Z</time>
      </trkpt>
      <trkpt lat="49.39774" lon="1.84189">
        <ele>225.78402709961</ele>
        <time>2017-05-01T08:04:14.000Z</time>
      </trkpt>
      <trkpt lat="49.39772" lon="1.84196">
        <ele>225.7678527832</ele>
        <time>2017-05-01T08:04:17.000Z</time>
      </trkpt>
      <trkpt lat="49.39768" lon="1.84199">
        <ele>225.48718261719</ele>
        <time>2017-05-01T08:04:19.000Z</time>
      </trkpt>
      <trkpt lat="49.39759" lon="1.84207">
        <ele>224.88244628906</ele>
        <time>2017-05-01T08:04:22.000Z</time>
      </trkpt>
      <trkpt lat="49.39751" lon="1.84212">
        <ele>224.04106140137</ele>
        <time>2017-05-01T08:04:24.000Z</time>
      </trkpt>
      <trkpt lat="49.39737" lon="1.84222">
        <ele>223.02543640137</ele>
        <time>2017-05-01T08:04:27.000Z</time>
      </trkpt>
      <trkpt lat="49.39728" lon="1.84229">
        <ele>222.0182800293</ele>
        <time>2017-05-01T08:04:29.000Z</time>
      </trkpt>
      <trkpt lat="49.39713" lon="1.84243">
        <ele>220.92561340332</ele>
        <time>2017-05-01T08:04:32.000Z</time>
      </trkpt>
      <trkpt lat="49.39701" lon="1.8425">
        <ele>219.97196960449</ele>
        <time>2017-05-01T08:04:34.000Z</time>
      </trkpt>
      <trkpt lat="49.3968" lon="1.84263">
        <ele>219.03335571289</ele>
        <time>2017-05-01T08:04:37.000Z</time>
      </trkpt>
      <trkpt lat="49.39664" lon="1.84274">
        <ele>218.14852905273</ele>
        <time>2017-05-01T08:04:39.000Z</time>
      </trkpt>
      <trkpt lat="49.39638" lon="1.84296">
        <ele>217.17851257324</ele>
        <time>2017-05-01T08:04:42.000Z</time>
      </trkpt>
      <trkpt lat="49.39614" lon="1.84312">
        <ele>216.30351257324</ele>
        <time>2017-05-01T08:04:45.000Z</time>
      </trkpt>
      <trkpt lat="49.39595" lon="1.84323">
        <ele>215.49491882324</ele>
        <time>2017-05-01T08:04:48.000Z</time>
      </trkpt>
      <trkpt lat="49.39576" lon="1.8433">
        <ele>214.84216308594</ele>
        <time>2017-05-01T08:04:51.000Z</time>
      </trkpt>
      <trkpt lat="49.39563" lon="1.84342">
        <ele>214.32894897461</ele>
        <time>2017-05-01T08:04:53.000Z</time>
      </trkpt>
      <trkpt lat="49.39549" lon="1.84347">
        <ele>214.01289367676</ele>
        <time>2017-05-01T08:04:55.000Z</time>
      </trkpt>
      <trkpt lat="49.39532" lon="1.84358">
        <ele>213.81413269043</ele>
        <time>2017-05-01T08:04:58.000Z</time>
      </trkpt>
      <trkpt lat="49.39519" lon="1.84366">
        <ele>213.68667602539</ele>
        <time>2017-05-01T08:05:00.000Z</time>
      </trkpt>
      <trkpt lat="49.39501" lon="1.84385">
        <ele>213.62992858887</ele>
        <time>2017-05-01T08:05:03.000Z</time>
      </trkpt>
      <trkpt lat="49.39483" lon="1.84399">
        <ele>213.50756835938</ele>
        <time>2017-05-01T08:05:06.000Z</time>
      </trkpt>
      <trkpt lat="49.39458" lon="1.84413">
        <ele>213.26895141602</ele>
        <time>2017-05-01T08:05:09.000Z</time>
      </trkpt>
      <trkpt lat="49.39444" lon="1.84421">
        <ele>212.96089172363</ele>
        <time>2017-05-01T08:05:11.000Z</time>
      </trkpt>
      <trkpt lat="49.39421" lon="1.84438">
        <ele>212.53149414062</ele>
        <time>2017-05-01T08:05:14.000Z</time>
      </trkpt>
      <trkpt lat="49.39396" lon="1.84458">
        <ele>211.95895385742</ele>
        <time>2017-05-01T08:05:17.000Z</time>
      </trkpt>
      <trkpt lat="49.39384" lon="1.84466">
        <ele>211.40878295898</ele>
        <time>2017-05-01T08:05:19.000Z</time>
      </trkpt>
      <trkpt lat="49.39366" lon="1.84476">
        <ele>210.89221191406</ele>
        <time>2017-05-01T08:05:22.000Z</time>
      </trkpt>
      <trkpt lat="49.39349" lon="1.84491">
        <ele>210.38056945801</ele>
        <time>2017-05-01T08:05:25.000Z</time>
      </trkpt>
      <trkpt lat="49.39331" lon="1.84501">
        <ele>209.94221496582</ele>
        <time>2017-05-01T08:05:28.000Z</time>
      </trkpt>
      <trkpt lat="49.39323" lon="1.84511">
        <ele>209.90682983398</ele>
        <time>2017-05-01T08:05:30.000Z</time>
      </trkpt>
      <trkpt lat="49.39318" lon="1.84517">
        <ele>210.08322143555</ele>
        <time>2017-05-01T08:05:33.000Z</time>
      </trkpt>
      <trkpt lat="49.39319" lon="1.84522">
        <ele>210.42562866211</ele>
        <time>2017-05-01T08:05:49.000Z</time>
      </trkpt>
      <trkpt lat="49.39323" lon="1.84524">
        <ele>210.83984375</ele>
        <time>2017-05-01T08:05:52.000Z</time>
      </trkpt>
      <trkpt lat="49.39331" lon="1.84523">
        <ele>211.2158203125</ele>
        <time>2017-05-01T08:05:55.000Z</time>
      </trkpt>
      <trkpt lat="49.3934" lon="1.84522">
        <ele>211.30728149414</ele>
        <time>2017-05-01T08:05:58.000Z</time>
      </trkpt>
      <trkpt lat="49.39355" lon="1.84525">
        <ele>211.37548828125</ele>
        <time>2017-05-01T08:06:01.000Z</time>
      </trkpt>
      <trkpt lat="49.3937" lon="1.8453">
        <ele>211.5334777832</ele>
        <time>2017-05-01T08:06:04.000Z</time>
      </trkpt>
      <trkpt lat="49.39381" lon="1.84536">
        <ele>211.82931518555</ele>
        <time>2017-05-01T08:06:06.000Z</time>
      </trkpt>
      <trkpt lat="49.39395" lon="1.84543">
        <ele>212.35356140137</ele>
        <time>2017-05-01T08:06:09.000Z</time>
      </trkpt>
      <trkpt lat="49.39414" lon="1.84557">
        <ele>213.08564758301</ele>
        <time>2017-05-01T08:06:12.000Z</time>
      </trkpt>
      <trkpt lat="49.39425" lon="1.84561">
        <ele>213.7056427002</ele>
        <time>2017-05-01T08:06:14.000Z</time>
      </trkpt>
      <trkpt lat="49.39447" lon="1.8457">
        <ele>214.1421661377</ele>
        <time>2017-05-01T08:06:17.000Z</time>
      </trkpt>
      <trkpt lat="49.39457" lon="1.84578">
        <ele>214.43217468262</ele>
        <time>2017-05-01T08:06:19.000Z</time>
      </trkpt>
      <trkpt lat="49.39477" lon="1.84582">
        <ele>214.45703125</ele>
        <time>2017-05-01T08:06:22.000Z</time>
      </trkpt>
      <trkpt lat="49.39493" lon="1.8459">
        <ele>214.30305480957</ele>
        <time>2017-05-01T08:06:25.000Z</time>
      </trkpt>
      <trkpt lat="49.39502" lon="1.84611">
        <ele>214.47937011719</ele>
        <time>2017-05-01T08:06:28.000Z</time>
      </trkpt>
      <trkpt lat="49.39516" lon="1.84619">
        <ele>214.73257446289</ele>
        <time>2017-05-01T08:06:31.000Z</time>
      </trkpt>
      <trkpt lat="49.39514" lon="1.84638">
        <ele>215.35054016113</ele>
        <time>2017-05-01T08:06:34.000Z</time>
      </trkpt>
      <trkpt lat="49.39511" lon="1.84645">
        <ele>216.26127624512</ele>
        <time>2017-05-01T08:06:36.000Z</time>
      </trkpt>
      <trkpt lat="49.3951" lon="1.84658">
        <ele>217.39277648926</ele>
        <time>2017-05-01T08:06:39.000Z</time>
      </trkpt>
      <trkpt lat="49.39509" lon="1.84673">
        <ele>218.44868469238</ele>
        <time>2017-05-01T08:06:42.000Z</time>
      </trkpt>
      <trkpt lat="49.39509" lon="1.84691">
        <ele>219.6909942627</ele>
        <time>2017-05-01T08:06:45.000Z</time>
      </trkpt>
      <trkpt lat="49.39515" lon="1.84703">
        <ele>220.70431518555</ele>
        <time>2017-05-01T08:06:48.000Z</time>
      </trkpt>
      <trkpt lat="49.39518" lon="1.84713">
        <ele>221.66716003418</ele>
        <time>2017-05-01T08:06:50.000Z</time>
      </trkpt>
      <trkpt lat="49.3952" lon="1.84733">
        <ele>222.65719604492</ele>
        <time>2017-05-01T08:06:53.000Z</time>
      </trkpt>
      <trkpt lat="49.39517" lon="1.84756">
        <ele>223.67839050293</ele>
        <time>2017-05-01T08:06:56.000Z</time>
      </trkpt>
      <trkpt lat="49.39517" lon="1.84767">
        <ele>224.56184387207</ele>
        <time>2017-05-01T08:06:58.000Z</time>
      </trkpt>
      <trkpt lat="49.39517" lon="1.84775">
        <ele>225.38493347168</ele>
        <time>2017-05-01T08:07:00.000Z</time>
      </trkpt>
      <trkpt lat="49.39517" lon="1.84784">
        <ele>226.1692199707</ele>
        <time>2017-05-01T08:07:02.000Z</time>
      </trkpt>
      <trkpt lat="49.39521" lon="1.848">
        <ele>226.79858398438</ele>
        <time>2017-05-01T08:07:05.000Z</time>
      </trkpt>
      <trkpt lat="49.39525" lon="1.84809">
        <ele>227.20547485352</ele>
        <time>2017-05-01T08:07:07.000Z</time>
      </trkpt>
      <trkpt lat="49.3953" lon="1.84821">
        <ele>227.61291503906</ele>
        <time>2017-05-01T08:07:10.000Z</time>
      </trkpt>
      <trkpt lat="49.39534" lon="1.8483">
        <ele>228.03788757324</ele>
        <time>2017-05-01T08:07:12.000Z</time>
      </trkpt>
      <trkpt lat="49.39538" lon="1.8484">
        <ele>228.49104309082</ele>
        <time>2017-05-01T08:07:14.000Z</time>
      </trkpt>
      <trkpt lat="49.39542" lon="1.84859">
        <ele>229.03625488281</ele>
        <time>2017-05-01T08:07:17.000Z</time>
      </trkpt>
      <trkpt lat="49.39547" lon="1.84878">
        <ele>229.72709655762</ele>
        <time>2017-05-01T08:07:20.000Z</time>
      </trkpt>
      <trkpt lat="49.39548" lon="1.84894">
        <ele>230.52328491211</ele>
        <time>2017-05-01T08:07:23.000Z</time>
      </trkpt>
      <trkpt lat="49.39549" lon="1.84909">
        <ele>231.41622924805</ele>
        <time>2017-05-01T08:07:26.000Z</time>
      </trkpt>
      <trkpt lat="49.39551" lon="1.84928">
        <ele>232.37088012695</ele>
        <time>2017-05-01T08:07:29.000Z</time>
      </trkpt>
      <trkpt lat="49.3956" lon="1.84941">
        <ele>233.25024414062</ele>
        <time>2017-05-01T08:07:32.000Z</time>
      </trkpt>
      <trkpt lat="49.39557" lon="1.84957">
        <ele>233.98811340332</ele>
        <time>2017-05-01T08:07:34.000Z</time>
      </trkpt>
      <trkpt lat="49.39561" lon="1.84967">
        <ele>234.60871887207</ele>
        <time>2017-05-01T08:07:36.000Z</time>
      </trkpt>
      <trkpt lat="49.39564" lon="1.84987">
        <ele>235.17874145508</ele>
        <time>2017-05-01T08:07:39.000Z</time>
      </trkpt>
      <trkpt lat="49.39566" lon="1.84999">
        <ele>235.66215515137</ele>
        <time>2017-05-01T08:07:42.000Z</time>
      </trkpt>
      <trkpt lat="49.3957" lon="1.85008">
        <ele>235.93212890625</ele>
        <time>2017-05-01T08:07:44.000Z</time>
      </trkpt>
      <trkpt lat="49.39572" lon="1.85025">
        <ele>235.90629577637</ele>
        <time>2017-05-01T08:07:46.000Z</time>
      </trkpt>
      <trkpt lat="49.39572" lon="1.8505">
        <ele>235.46499633789</ele>
        <time>2017-05-01T08:07:49.000Z</time>
      </trkpt>
      <trkpt lat="49.39576" lon="1.85064">
        <ele>234.71572875977</ele>
        <time>2017-05-01T08:07:51.000Z</time>
      </trkpt>
      <trkpt lat="49.3958" lon="1.85085">
        <ele>233.59687805176</ele>
        <time>2017-05-01T08:07:54.000Z</time>
      </trkpt>
      <trkpt lat="49.39582" lon="1.85101">
        <ele>232.35258483887</ele>
        <time>2017-05-01T08:07:57.000Z</time>
      </trkpt>
      <trkpt lat="49.39583" lon="1.85119">
        <ele>231.11508178711</ele>
        <time>2017-05-01T08:08:00.000Z</time>
      </trkpt>
      <trkpt lat="49.39582" lon="1.85137">
        <ele>230.00796508789</ele>
        <time>2017-05-01T08:08:03.000Z</time>
      </trkpt>
      <trkpt lat="49.39581" lon="1.85155">
        <ele>228.88461303711</ele>
        <time>2017-05-01T08:08:05.000Z</time>
      </trkpt>
      <trkpt lat="49.3959" lon="1.85171">
        <ele>227.75637817383</ele>
        <time>2017-05-01T08:08:07.000Z</time>
      </trkpt>
      <trkpt lat="49.39585" lon="1.85193">
        <ele>226.87020874023</ele>
        <time>2017-05-01T08:08:10.000Z</time>
      </trkpt>
      <trkpt lat="49.3959" lon="1.85212">
        <ele>226.08102416992</ele>
        <time>2017-05-01T08:08:13.000Z</time>
      </trkpt>
      <trkpt lat="49.39592" lon="1.85231">
        <ele>225.42611694336</ele>
        <time>2017-05-01T08:08:16.000Z</time>
      </trkpt>
      <trkpt lat="49.39596" lon="1.85249">
        <ele>224.88330078125</ele>
        <time>2017-05-01T08:08:19.000Z</time>
      </trkpt>
      <trkpt lat="49.39598" lon="1.85267">
        <ele>224.80068969727</ele>
        <time>2017-05-01T08:08:22.000Z</time>
      </trkpt>
      <trkpt lat="49.39599" lon="1.85281">
        <ele>224.82388305664</ele>
        <time>2017-05-01T08:08:24.000Z</time>
      </trkpt>
      <trkpt lat="49.396" lon="1.85302">
        <ele>225.18563842773</ele>
        <time>2017-05-01T08:08:27.000Z</time>
      </trkpt>
      <trkpt lat="49.39601" lon="1.85325">
        <ele>225.83544921875</ele>
        <time>2017-05-01T08:08:30.000Z</time>
      </trkpt>
      <trkpt lat="49.39603" lon="1.8534">
        <ele>226.73002624512</ele>
        <time>2017-05-01T08:08:32.000Z</time>
      </trkpt>
      <trkpt lat="49.39606" lon="1.85356">
        <ele>227.64448547363</ele>
        <time>2017-05-01T08:08:34.000Z</time>
      </trkpt>
      <trkpt lat="49.39612" lon="1.85378">
        <ele>228.6898651123</ele>
        <time>2017-05-01T08:08:37.000Z</time>
      </trkpt>
      <trkpt lat="49.39616" lon="1.85392">
        <ele>229.7222442627</ele>
        <time>2017-05-01T08:08:39.000Z</time>
      </trkpt>
      <trkpt lat="49.39624" lon="1.85412">
        <ele>230.87683105469</ele>
        <time>2017-05-01T08:08:42.000Z</time>
      </trkpt>
      <trkpt lat="49.39631" lon="1.85423">
        <ele>232.00344848633</ele>
        <time>2017-05-01T08:08:44.000Z</time>
      </trkpt>
      <trkpt lat="49.3964" lon="1.8544">
        <ele>233.05351257324</ele>
        <time>2017-05-01T08:08:47.000Z</time>
      </trkpt>
      <trkpt lat="49.39649" lon="1.85457">
        <ele>233.95175170898</ele>
        <time>2017-05-01T08:08:50.000Z</time>
      </trkpt>
      <trkpt lat="49.39655" lon="1.85468">
        <ele>234.7253112793</ele>
        <time>2017-05-01T08:08:52.000Z</time>
      </trkpt>
      <trkpt lat="49.39664" lon="1.85484">
        <ele>235.29052734375</ele>
        <time>2017-05-01T08:08:55.000Z</time>
      </trkpt>
      <trkpt lat="49.39671" lon="1.85494">
        <ele>235.74687194824</ele>
        <time>2017-05-01T08:08:57.000Z</time>
      </trkpt>
      <trkpt lat="49.39679" lon="1.85502">
        <ele>236.03991699219</ele>
        <time>2017-05-01T08:08:59.000Z</time>
      </trkpt>
      <trkpt lat="49.39691" lon="1.85515">
        <ele>236.05326843262</ele>
        <time>2017-05-01T08:09:02.000Z</time>
      </trkpt>
      <trkpt lat="49.39702" lon="1.85526">
        <ele>235.86056518555</ele>
        <time>2017-05-01T08:09:05.000Z</time>
      </trkpt>
      <trkpt lat="49.39711" lon="1.85533">
        <ele>235.4554901123</ele>
        <time>2017-05-01T08:09:07.000Z</time>
      </trkpt>
      <trkpt lat="49.39721" lon="1.85537">
        <ele>234.96383666992</ele>
        <time>2017-05-01T08:09:09.000Z</time>
      </trkpt>
      <trkpt lat="49.39735" lon="1.85543">
        <ele>234.43203735352</ele>
        <time>2017-05-01T08:09:12.000Z</time>
      </trkpt>
      <trkpt lat="49.39745" lon="1.8555">
        <ele>234.02554321289</ele>
        <time>2017-05-01T08:09:14.000Z</time>
      </trkpt>
      <trkpt lat="49.39756" lon="1.85563">
        <ele>233.72207641602</ele>
        <time>2017-05-01T08:09:17.000Z</time>
      </trkpt>
      <trkpt lat="49.39765" lon="1.85579">
        <ele>233.51486206055</ele>
        <time>2017-05-01T08:09:20.000Z</time>
      </trkpt>
      <trkpt lat="49.39772" lon="1.85596">
        <ele>233.30439758301</ele>
        <time>2017-05-01T08:09:23.000Z</time>
      </trkpt>
      <trkpt lat="49.39777" lon="1.85619">
        <ele>233.06147766113</ele>
        <time>2017-05-01T08:09:26.000Z</time>
      </trkpt>
      <trkpt lat="49.39785" lon="1.85645">
        <ele>232.66027832031</ele>
        <time>2017-05-01T08:09:29.000Z</time>
      </trkpt>
      <trkpt lat="49.39794" lon="1.85677">
        <ele>231.93351745605</ele>
        <time>2017-05-01T08:09:32.000Z</time>
      </trkpt>
      <trkpt lat="49.39801" lon="1.85717">
        <ele>230.56405639648</ele>
        <time>2017-05-01T08:09:35.000Z</time>
      </trkpt>
      <trkpt lat="49.39803" lon="1.85761">
        <ele>228.58044433594</ele>
        <time>2017-05-01T08:09:38.000Z</time>
      </trkpt>
      <trkpt lat="49.39798" lon="1.85794">
        <ele>226.09037780762</ele>
        <time>2017-05-01T08:09:40.000Z</time>
      </trkpt>
      <trkpt lat="49.39791" lon="1.85841">
        <ele>222.97441101074</ele>
        <time>2017-05-01T08:09:43.000Z</time>
      </trkpt>
      <trkpt lat="49.3978" lon="1.85864">
        <ele>219.94967651367</ele>
        <time>2017-05-01T08:09:45.000Z</time>
      </trkpt>
      <trkpt lat="49.39765" lon="1.85876">
        <ele>217.46406555176</ele>
        <time>2017-05-01T08:09:47.000Z</time>
      </trkpt>
      <trkpt lat="49.39742" lon="1.85896">
        <ele>215.47953796387</ele>
        <time>2017-05-01T08:09:50.000Z</time>
      </trkpt>
      <trkpt lat="49.39727" lon="1.85908">
        <ele>214.26457214355</ele>
        <time>2017-05-01T08:09:52.000Z</time>
      </trkpt>
      <trkpt lat="49.39712" lon="1.85919">
        <ele>214.04301452637</ele>
        <time>2017-05-01T08:09:54.000Z</time>
      </trkpt>
      <trkpt lat="49.39697" lon="1.85931">
        <ele>214.23519897461</ele>
        <time>2017-05-01T08:09:56.000Z</time>
      </trkpt>
      <trkpt lat="49.39678" lon="1.85956">
        <ele>214.25407409668</ele>
        <time>2017-05-01T08:09:59.000Z</time>
      </trkpt>
      <trkpt lat="49.3966" lon="1.85981">
        <ele>213.98965454102</ele>
        <time>2017-05-01T08:10:02.000Z</time>
      </trkpt>
      <trkpt lat="49.39642" lon="1.85991">
        <ele>213.63623046875</ele>
        <time>2017-05-01T08:10:04.000Z</time>
      </trkpt>
      <trkpt lat="49.39622" lon="1.86002">
        <ele>213.25759887695</ele>
        <time>2017-05-01T08:10:07.000Z</time>
      </trkpt>
      <trkpt lat="49.3961" lon="1.86003">
        <ele>212.95803833008</ele>
        <time>2017-05-01T08:10:09.000Z</time>
      </trkpt>
      <trkpt lat="49.39602" lon="1.86">
        <ele>213.11909484863</ele>
        <time>2017-05-01T08:10:12.000Z</time>
      </trkpt>
      <trkpt lat="49.39601" lon="1.86007">
        <ele>213.69416809082</ele>
        <time>2017-05-01T08:10:15.000Z</time>
      </trkpt>
      <trkpt lat="49.39608" lon="1.86019">
        <ele>213.93965148926</ele>
        <time>2017-05-01T08:10:18.000Z</time>
      </trkpt>
      <trkpt lat="49.39613" lon="1.86015">
        <ele>213.98257446289</ele>
        <time>2017-05-01T08:10:21.000Z</time>
      </trkpt>
      <trkpt lat="49.39612" lon="1.86009">
        <ele>213.86849975586</ele>
        <time>2017-05-01T08:10:24.000Z</time>
      </trkpt>
      <trkpt lat="49.39607" lon="1.8601">
        <ele>213.64828491211</ele>
        <time>2017-05-01T08:10:27.000Z</time>
      </trkpt>
      <trkpt lat="49.39604" lon="1.86011">
        <ele>213.53689575195</ele>
        <time>2017-05-01T08:10:29.000Z</time>
      </trkpt>
      <trkpt lat="49.396" lon="1.86009">
        <ele>213.80558776855</ele>
        <time>2017-05-01T08:10:31.000Z</time>
      </trkpt>
      <trkpt lat="49.39597" lon="1.86006">
        <ele>214.23083496094</ele>
        <time>2017-05-01T08:10:33.000Z</time>
      </trkpt>
      <trkpt lat="49.39593" lon="1.86001">
        <ele>214.72541809082</ele>
        <time>2017-05-01T08:10:36.000Z</time>
      </trkpt>
      <trkpt lat="49.3959" lon="1.85997">
        <ele>215.25894165039</ele>
        <time>2017-05-01T08:10:38.000Z</time>
      </trkpt>
      <trkpt lat="49.39587" lon="1.85995">
        <ele>215.86088562012</ele>
        <time>2017-05-01T08:10:40.000Z</time>
      </trkpt>
      <trkpt lat="49.39584" lon="1.85993">
        <ele>216.4761505127</ele>
        <time>2017-05-01T08:10:42.000Z</time>
      </trkpt>
      <trkpt lat="49.39581" lon="1.85991">
        <ele>217.04943847656</ele>
        <time>2017-05-01T08:10:44.000Z</time>
      </trkpt>
      <trkpt lat="49.39578" lon="1.85988">
        <ele>217.52584838867</ele>
        <time>2017-05-01T08:10:46.000Z</time>
      </trkpt>
      <trkpt lat="49.39574" lon="1.85984">
        <ele>217.94551086426</ele>
        <time>2017-05-01T08:10:49.000Z</time>
      </trkpt>
      <trkpt lat="49.39569" lon="1.85981">
        <ele>218.31063842773</ele>
        <time>2017-05-01T08:10:52.000Z</time>
      </trkpt>
      <trkpt lat="49.39566" lon="1.85979">
        <ele>218.60610961914</ele>
        <time>2017-05-01T08:10:54.000Z</time>
      </trkpt>
      <trkpt lat="49.39563" lon="1.85977">
        <ele>218.8737487793</ele>
        <time>2017-05-01T08:10:56.000Z</time>
      </trkpt>
      <trkpt lat="49.39559" lon="1.85974">
        <ele>219.14794921875</ele>
        <time>2017-05-01T08:10:59.000Z</time>
      </trkpt>
      <trkpt lat="49.39555" lon="1.85969">
        <ele>219.42990112305</ele>
        <time>2017-05-01T08:11:02.000Z</time>
      </trkpt>
      <trkpt lat="49.39552" lon="1.85967">
        <ele>219.69657897949</ele>
        <time>2017-05-01T08:11:04.000Z</time>
      </trkpt>
      <trkpt lat="49.39546" lon="1.85963">
        <ele>219.97648620605</ele>
        <time>2017-05-01T08:11:07.000Z</time>
      </trkpt>
      <trkpt lat="49.39541" lon="1.8596">
        <ele>220.27140808105</ele>
        <time>2017-05-01T08:11:10.000Z</time>
      </trkpt>
      <trkpt lat="49.39536" lon="1.85956">
        <ele>220.56401062012</ele>
        <time>2017-05-01T08:11:13.000Z</time>
      </trkpt>
      <trkpt lat="49.39531" lon="1.85954">
        <ele>220.81652832031</ele>
        <time>2017-05-01T08:11:16.000Z</time>
      </trkpt>
      <trkpt lat="49.39525" lon="1.85951">
        <ele>221.05522155762</ele>
        <time>2017-05-01T08:11:19.000Z</time>
      </trkpt>
      <trkpt lat="49.39522" lon="1.85948">
        <ele>221.27568054199</ele>
        <time>2017-05-01T08:11:21.000Z</time>
      </trkpt>
      <trkpt lat="49.39518" lon="1.85946">
        <ele>221.46894836426</ele>
        <time>2017-05-01T08:11:23.000Z</time>
      </trkpt>
      <trkpt lat="49.39514" lon="1.85944">
        <ele>221.63081359863</ele>
        <time>2017-05-01T08:11:25.000Z</time>
      </trkpt>
      <trkpt lat="49.39508" lon="1.85941">
        <ele>221.78701782227</ele>
        <time>2017-05-01T08:11:28.000Z</time>
      </trkpt>
      <trkpt lat="49.39504" lon="1.85939">
        <ele>221.92414855957</ele>
        <time>2017-05-01T08:11:30.000Z</time>
      </trkpt>
      <trkpt lat="49.39499" lon="1.85938">
        <ele>222.03149414062</ele>
        <time>2017-05-01T08:11:33.000Z</time>
      </trkpt>
      <trkpt lat="49.39493" lon="1.85936">
        <ele>222.13481140137</ele>
        <time>2017-05-01T08:11:36.000Z</time>
      </trkpt>
      <trkpt lat="49.39487" lon="1.85933">
        <ele>222.25375366211</ele>
        <time>2017-05-01T08:11:39.000Z</time>
      </trkpt>
      <trkpt lat="49.3948" lon="1.85928">
        <ele>222.39730834961</ele>
        <time>2017-05-01T08:11:42.000Z</time>
      </trkpt>
      <trkpt lat="49.39475" lon="1.85924">
        <ele>222.57681274414</ele>
        <time>2017-05-01T08:11:44.000Z</time>
      </trkpt>
      <trkpt lat="49.39467" lon="1.85918">
        <ele>222.83378601074</ele>
        <time>2017-05-01T08:11:47.000Z</time>
      </trkpt>
      <trkpt lat="49.39461" lon="1.85915">
        <ele>223.10527038574</ele>
        <time>2017-05-01T08:11:49.000Z</time>
      </trkpt>
      <trkpt lat="49.39455" lon="1.85911">
        <ele>223.36270141602</ele>
        <time>2017-05-01T08:11:51.000Z</time>
      </trkpt>
      <trkpt lat="49.39447" lon="1.85906">
        <ele>223.60598754883</ele>
        <time>2017-05-01T08:11:54.000Z</time>
      </trkpt>
      <trkpt lat="49.39437" lon="1.859">
        <ele>223.82316589355</ele>
        <time>2017-05-01T08:11:57.000Z</time>
      </trkpt>
      <trkpt lat="49.39428" lon="1.85895">
        <ele>223.98059082031</ele>
        <time>2017-05-01T08:12:00.000Z</time>
      </trkpt>
      <trkpt lat="49.39417" lon="1.85887">
        <ele>224.13191223145</ele>
        <time>2017-05-01T08:12:03.000Z</time>
      </trkpt>
      <trkpt lat="49.39408" lon="1.85883">
        <ele>224.28935241699</ele>
        <time>2017-05-01T08:12:05.000Z</time>
      </trkpt>
      <trkpt lat="49.39402" lon="1.8588">
        <ele>224.41854858398</ele>
        <time>2017-05-01T08:12:07.000Z</time>
      </trkpt>
      <trkpt lat="49.39393" lon="1.85874">
        <ele>224.56802368164</ele>
        <time>2017-05-01T08:12:10.000Z</time>
      </trkpt>
      <trkpt lat="49.39384" lon="1.85866">
        <ele>224.75190734863</ele>
        <time>2017-05-01T08:12:13.000Z</time>
      </trkpt>
      <trkpt lat="49.39374" lon="1.85857">
        <ele>224.96719360352</ele>
        <time>2017-05-01T08:12:16.000Z</time>
      </trkpt>
      <trkpt lat="49.39367" lon="1.85851">
        <ele>225.19116210938</ele>
        <time>2017-05-01T08:12:18.000Z</time>
      </trkpt>
      <trkpt lat="49.3936" lon="1.85844">
        <ele>225.43197631836</ele>
        <time>2017-05-01T08:12:20.000Z</time>
      </trkpt>
      <trkpt lat="49.3935" lon="1.85837">
        <ele>225.66073608398</ele>
        <time>2017-05-01T08:12:23.000Z</time>
      </trkpt>
      <trkpt lat="49.39342" lon="1.85831">
        <ele>225.85551452637</ele>
        <time>2017-05-01T08:12:26.000Z</time>
      </trkpt>
      <trkpt lat="49.39335" lon="1.85826">
        <ele>226.00161743164</ele>
        <time>2017-05-01T08:12:28.000Z</time>
      </trkpt>
      <trkpt lat="49.3933" lon="1.85822">
        <ele>226.13969421387</ele>
        <time>2017-05-01T08:12:30.000Z</time>
      </trkpt>
      <trkpt lat="49.3932" lon="1.85815">
        <ele>226.3275604248</ele>
        <time>2017-05-01T08:12:33.000Z</time>
      </trkpt>
      <trkpt lat="49.39313" lon="1.8581">
        <ele>226.53149414062</ele>
        <time>2017-05-01T08:12:35.000Z</time>
      </trkpt>
      <trkpt lat="49.39303" lon="1.85804">
        <ele>226.78056335449</ele>
        <time>2017-05-01T08:12:38.000Z</time>
      </trkpt>
      <trkpt lat="49.39297" lon="1.858">
        <ele>227.0570526123</ele>
        <time>2017-05-01T08:12:40.000Z</time>
      </trkpt>
      <trkpt lat="49.3929" lon="1.85794">
        <ele>227.33125305176</ele>
        <time>2017-05-01T08:12:42.000Z</time>
      </trkpt>
      <trkpt lat="49.39279" lon="1.85785">
        <ele>227.56449890137</ele>
        <time>2017-05-01T08:12:45.000Z</time>
      </trkpt>
      <trkpt lat="49.39267" lon="1.85777">
        <ele>227.77421569824</ele>
        <time>2017-05-01T08:12:48.000Z</time>
      </trkpt>
      <trkpt lat="49.39257" lon="1.85772">
        <ele>227.93286132812</ele>
        <time>2017-05-01T08:12:51.000Z</time>
      </trkpt>
      <trkpt lat="49.39246" lon="1.85768">
        <ele>228.04122924805</ele>
        <time>2017-05-01T08:12:54.000Z</time>
      </trkpt>
      <trkpt lat="49.39238" lon="1.85762">
        <ele>228.05949401855</ele>
        <time>2017-05-01T08:12:57.000Z</time>
      </trkpt>
      <trkpt lat="49.39231" lon="1.85757">
        <ele>227.98608398438</ele>
        <time>2017-05-01T08:12:59.000Z</time>
      </trkpt>
      <trkpt lat="49.39224" lon="1.85752">
        <ele>227.84042358398</ele>
        <time>2017-05-01T08:13:01.000Z</time>
      </trkpt>
      <trkpt lat="49.39211" lon="1.85743">
        <ele>227.59292602539</ele>
        <time>2017-05-01T08:13:04.000Z</time>
      </trkpt>
      <trkpt lat="49.39194" lon="1.85731">
        <ele>227.25146484375</ele>
        <time>2017-05-01T08:13:07.000Z</time>
      </trkpt>
      <trkpt lat="49.39183" lon="1.85727">
        <ele>226.90180969238</ele>
        <time>2017-05-01T08:13:10.000Z</time>
      </trkpt>
      <trkpt lat="49.39175" lon="1.85724">
        <ele>226.55459594727</ele>
        <time>2017-05-01T08:13:12.000Z</time>
      </trkpt>
      <trkpt lat="49.39164" lon="1.85718">
        <ele>226.18437194824</ele>
        <time>2017-05-01T08:13:14.000Z</time>
      </trkpt>
      <trkpt lat="49.39153" lon="1.85709">
        <ele>225.82626342773</ele>
        <time>2017-05-01T08:13:16.000Z</time>
      </trkpt>
      <trkpt lat="49.39137" lon="1.85697">
        <ele>225.4927520752</ele>
        <time>2017-05-01T08:13:19.000Z</time>
      </trkpt>
      <trkpt lat="49.39121" lon="1.85692">
        <ele>225.1565246582</ele>
        <time>2017-05-01T08:13:22.000Z</time>
      </trkpt>
      <trkpt lat="49.39112" lon="1.85689">
        <ele>224.83503723145</ele>
        <time>2017-05-01T08:13:24.000Z</time>
      </trkpt>
      <trkpt lat="49.39101" lon="1.85682">
        <ele>224.54946899414</ele>
        <time>2017-05-01T08:13:26.000Z</time>
      </trkpt>
      <trkpt lat="49.39088" lon="1.85673">
        <ele>224.31253051758</ele>
        <time>2017-05-01T08:13:28.000Z</time>
      </trkpt>
      <trkpt lat="49.39068" lon="1.85659">
        <ele>224.15400695801</ele>
        <time>2017-05-01T08:13:31.000Z</time>
      </trkpt>
      <trkpt lat="49.39048" lon="1.85646">
        <ele>224.04277038574</ele>
        <time>2017-05-01T08:13:34.000Z</time>
      </trkpt>
      <trkpt lat="49.39029" lon="1.85635">
        <ele>223.91128540039</ele>
        <time>2017-05-01T08:13:37.000Z</time>
      </trkpt>
      <trkpt lat="49.39012" lon="1.85628">
        <ele>223.74345397949</ele>
        <time>2017-05-01T08:13:40.000Z</time>
      </trkpt>
      <trkpt lat="49.39001" lon="1.85622">
        <ele>223.55044555664</ele>
        <time>2017-05-01T08:13:42.000Z</time>
      </trkpt>
      <trkpt lat="49.38988" lon="1.85615">
        <ele>223.28890991211</ele>
        <time>2017-05-01T08:13:44.000Z</time>
      </trkpt>
      <trkpt lat="49.38974" lon="1.85608">
        <ele>222.97116088867</ele>
        <time>2017-05-01T08:13:46.000Z</time>
      </trkpt>
      <trkpt lat="49.38955" lon="1.85598">
        <ele>222.61312866211</ele>
        <time>2017-05-01T08:13:49.000Z</time>
      </trkpt>
      <trkpt lat="49.38942" lon="1.85594">
        <ele>222.26358032227</ele>
        <time>2017-05-01T08:13:52.000Z</time>
      </trkpt>
      <trkpt lat="49.38924" lon="1.85587">
        <ele>221.88786315918</ele>
        <time>2017-05-01T08:13:55.000Z</time>
      </trkpt>
      <trkpt lat="49.38912" lon="1.85575">
        <ele>221.49060058594</ele>
        <time>2017-05-01T08:13:57.000Z</time>
      </trkpt>
      <trkpt lat="49.38895" lon="1.85555">
        <ele>220.96098327637</ele>
        <time>2017-05-01T08:14:00.000Z</time>
      </trkpt>
      <trkpt lat="49.38876" lon="1.85539">
        <ele>220.31108093262</ele>
        <time>2017-05-01T08:14:03.000Z</time>
      </trkpt>
      <trkpt lat="49.38862" lon="1.8553">
        <ele>219.59037780762</ele>
        <time>2017-05-01T08:14:05.000Z</time>
      </trkpt>
      <trkpt lat="49.38849" lon="1.85519">
        <ele>218.83834838867</ele>
        <time>2017-05-01T08:14:07.000Z</time>
      </trkpt>
      <trkpt lat="49.3883" lon="1.85498">
        <ele>218.06594848633</ele>
        <time>2017-05-01T08:14:10.000Z</time>
      </trkpt>
      <trkpt lat="49.38818" lon="1.85487">
        <ele>217.39094543457</ele>
        <time>2017-05-01T08:14:13.000Z</time>
      </trkpt>
      <trkpt lat="49.38805" lon="1.85481">
        <ele>216.78593444824</ele>
        <time>2017-05-01T08:14:16.000Z</time>
      </trkpt>
      <trkpt lat="49.38796" lon="1.85476">
        <ele>216.2106628418</ele>
        <time>2017-05-01T08:14:18.000Z</time>
      </trkpt>
      <trkpt lat="49.38784" lon="1.85468">
        <ele>215.61547851562</ele>
        <time>2017-05-01T08:14:21.000Z</time>
      </trkpt>
      <trkpt lat="49.38776" lon="1.85462">
        <ele>215.05191040039</ele>
        <time>2017-05-01T08:14:23.000Z</time>
      </trkpt>
      <trkpt lat="49.38768" lon="1.85456">
        <ele>214.52151489258</ele>
        <time>2017-05-01T08:14:25.000Z</time>
      </trkpt>
      <trkpt lat="49.38757" lon="1.85447">
        <ele>214.02656555176</ele>
        <time>2017-05-01T08:14:28.000Z</time>
      </trkpt>
      <trkpt lat="49.38746" lon="1.85436">
        <ele>213.43957519531</ele>
        <time>2017-05-01T08:14:31.000Z</time>
      </trkpt>
      <trkpt lat="49.38731" lon="1.85425">
        <ele>212.53079223633</ele>
        <time>2017-05-01T08:14:34.000Z</time>
      </trkpt>
      <trkpt lat="49.38717" lon="1.85416">
        <ele>211.31611633301</ele>
        <time>2017-05-01T08:14:37.000Z</time>
      </trkpt>
      <trkpt lat="49.38715" lon="1.85413">
        <ele>210.087890625</ele>
        <time>2017-05-01T08:14:40.000Z</time>
      </trkpt>
      <trkpt lat="49.38712" lon="1.8541">
        <ele>208.88952636719</ele>
        <time>2017-05-01T08:14:47.000Z</time>
      </trkpt>
      <trkpt lat="49.38708" lon="1.8541">
        <ele>207.77133178711</ele>
        <time>2017-05-01T08:14:59.000Z</time>
      </trkpt>
      <trkpt lat="49.38706" lon="1.85412">
        <ele>207.02799987793</ele>
        <time>2017-05-01T08:15:07.000Z</time>
      </trkpt>
      <trkpt lat="49.38705" lon="1.85409">
        <ele>206.65048217773</ele>
        <time>2017-05-01T08:15:15.000Z</time>
      </trkpt>
      <trkpt lat="49.38705" lon="1.85409">
        <ele>206.35189819336</ele>
        <time>2017-05-01T08:15:25.000Z</time>
      </trkpt>
      <trkpt lat="49.38704" lon="1.85407">
        <ele>206.10539245605</ele>
        <time>2017-05-01T08:15:28.000Z</time>
      </trkpt>
      <trkpt lat="49.38704" lon="1.8541">
        <ele>205.95669555664</ele>
        <time>2017-05-01T08:15:30.000Z</time>
      </trkpt>
      <trkpt lat="49.38703" lon="1.85411">
        <ele>205.86965942383</ele>
        <time>2017-05-01T08:15:32.000Z</time>
      </trkpt>
      <trkpt lat="49.38705" lon="1.85413">
        <ele>205.86833190918</ele>
        <time>2017-05-01T08:15:40.000Z</time>
      </trkpt>
      <trkpt lat="49.38706" lon="1.85415">
        <ele>205.89111328125</ele>
        <time>2017-05-01T08:15:44.000Z</time>
      </trkpt>
      <trkpt lat="49.38709" lon="1.85414">
        <ele>206.03866577148</ele>
        <time>2017-05-01T08:16:01.000Z</time>
      </trkpt>
      <trkpt lat="49.3871" lon="1.85417">
        <ele>206.23825073242</ele>
        <time>2017-05-01T08:16:04.000Z</time>
      </trkpt>
      <trkpt lat="49.38712" lon="1.85415">
        <ele>206.5009765625</ele>
        <time>2017-05-01T08:16:06.000Z</time>
      </trkpt>
      <trkpt lat="49.38712" lon="1.85413">
        <ele>206.70121765137</ele>
        <time>2017-05-01T08:16:09.000Z</time>
      </trkpt>
      <trkpt lat="49.38709" lon="1.85413">
        <ele>206.80191040039</ele>
        <time>2017-05-01T08:16:12.000Z</time>
      </trkpt>
      <trkpt lat="49.38708" lon="1.85412">
        <ele>206.76435852051</ele>
        <time>2017-05-01T08:16:15.000Z</time>
      </trkpt>
      <trkpt lat="49.38712" lon="1.85411">
        <ele>206.81286621094</ele>
        <time>2017-05-01T08:16:25.000Z</time>
      </trkpt>
      <trkpt lat="49.38713" lon="1.85411">
        <ele>206.86123657227</ele>
        <time>2017-05-01T08:16:28.000Z</time>
      </trkpt>
      <trkpt lat="49.38714" lon="1.85413">
        <ele>206.93630981445</ele>
        <time>2017-05-01T08:16:43.000Z</time>
      </trkpt>
      <trkpt lat="49.38713" lon="1.85413">
        <ele>207.0615234375</ele>
        <time>2017-05-01T08:16:48.000Z</time>
      </trkpt>
      <trkpt lat="49.38711" lon="1.85417">
        <ele>207.17343139648</ele>
        <time>2017-05-01T08:16:51.000Z</time>
      </trkpt>
      <trkpt lat="49.3871" lon="1.85421">
        <ele>207.115234375</ele>
        <time>2017-05-01T08:16:53.000Z</time>
      </trkpt>
      <trkpt lat="49.3871" lon="1.85433">
        <ele>206.92749023438</ele>
        <time>2017-05-01T08:16:56.000Z</time>
      </trkpt>
      <trkpt lat="49.38709" lon="1.85453">
        <ele>206.59164428711</ele>
        <time>2017-05-01T08:16:59.000Z</time>
      </trkpt>
      <trkpt lat="49.38706" lon="1.8547">
        <ele>206.11450195312</ele>
        <time>2017-05-01T08:17:01.000Z</time>
      </trkpt>
      <trkpt lat="49.38702" lon="1.85487">
        <ele>205.47485351562</ele>
        <time>2017-05-01T08:17:03.000Z</time>
      </trkpt>
      <trkpt lat="49.38697" lon="1.85521">
        <ele>204.45108032227</ele>
        <time>2017-05-01T08:17:06.000Z</time>
      </trkpt>
      <trkpt lat="49.38692" lon="1.85548">
        <ele>203.1789855957</ele>
        <time>2017-05-01T08:17:08.000Z</time>
      </trkpt>
      <trkpt lat="49.38689" lon="1.85576">
        <ele>201.71292114258</ele>
        <time>2017-05-01T08:17:10.000Z</time>
      </trkpt>
      <trkpt lat="49.38671" lon="1.85673">
        <ele>199.02401733398</ele>
        <time>2017-05-01T08:17:15.000Z</time>
      </trkpt>
      <trkpt lat="49.38663" lon="1.85709">
        <ele>196.0496673584</ele>
        <time>2017-05-01T08:17:17.000Z</time>
      </trkpt>
      <trkpt lat="49.38655" lon="1.85752">
        <ele>193.20547485352</ele>
        <time>2017-05-01T08:17:20.000Z</time>
      </trkpt>
      <trkpt lat="49.38653" lon="1.8577">
        <ele>190.67985534668</ele>
        <time>2017-05-01T08:17:22.000Z</time>
      </trkpt>
      <trkpt lat="49.38652" lon="1.85783">
        <ele>188.45475769043</ele>
        <time>2017-05-01T08:17:25.000Z</time>
      </trkpt>
      <trkpt lat="49.38649" lon="1.85783">
        <ele>187.67961120605</ele>
        <time>2017-05-01T08:17:28.000Z</time>
      </trkpt>
      <trkpt lat="49.38649" lon="1.85783">
        <ele>187.67961120605</ele>
        <time>2017-05-01T08:17:48.000Z</time>
      </trkpt>
      <trkpt lat="49.38644" lon="1.85782">
        <ele>187.47543334961</ele>
        <time>2017-05-01T08:17:49.000Z</time>
      </trkpt>
      <trkpt lat="49.38645" lon="1.85781">
        <ele>187.5647277832</ele>
        <time>2017-05-01T08:17:56.000Z</time>
      </trkpt>
      <trkpt lat="49.38644" lon="1.85779">
        <ele>187.6685333252</ele>
        <time>2017-05-01T08:17:59.000Z</time>
      </trkpt>
      <trkpt lat="49.38644" lon="1.85776">
        <ele>187.79200744629</ele>
        <time>2017-05-01T08:18:02.000Z</time>
      </trkpt>
      <trkpt lat="49.38644" lon="1.85774">
        <ele>187.86112976074</ele>
        <time>2017-05-01T08:18:05.000Z</time>
      </trkpt>
      <trkpt lat="49.38644" lon="1.85771">
        <ele>187.8570098877</ele>
        <time>2017-05-01T08:18:08.000Z</time>
      </trkpt>
      <trkpt lat="49.38644" lon="1.85769">
        <ele>187.86306762695</ele>
        <time>2017-05-01T08:18:10.000Z</time>
      </trkpt>
      <trkpt lat="49.38643" lon="1.85765">
        <ele>187.87065124512</ele>
        <time>2017-05-01T08:18:15.000Z</time>
      </trkpt>
      <trkpt lat="49.38643" lon="1.85763">
        <ele>187.86888122559</ele>
        <time>2017-05-01T08:18:19.000Z</time>
      </trkpt>
      <trkpt lat="49.38646" lon="1.8576">
        <ele>187.85206604004</ele>
        <time>2017-05-01T08:18:28.000Z</time>
      </trkpt>
      <trkpt lat="49.38645" lon="1.85758">
        <ele>187.84353637695</ele>
        <time>2017-05-01T08:18:30.000Z</time>
      </trkpt>
      <trkpt lat="49.38641" lon="1.85755">
        <ele>187.85789489746</ele>
        <time>2017-05-01T08:18:33.000Z</time>
      </trkpt>
      <trkpt lat="49.38635" lon="1.85752">
        <ele>187.90921020508</ele>
        <time>2017-05-01T08:18:36.000Z</time>
      </trkpt>
      <trkpt lat="49.38631" lon="1.85747">
        <ele>187.99363708496</ele>
        <time>2017-05-01T08:18:38.000Z</time>
      </trkpt>
      <trkpt lat="49.38622" lon="1.85737">
        <ele>188.13729858398</ele>
        <time>2017-05-01T08:18:41.000Z</time>
      </trkpt>
      <trkpt lat="49.38615" lon="1.85727">
        <ele>188.2607421875</ele>
        <time>2017-05-01T08:18:43.000Z</time>
      </trkpt>
      <trkpt lat="49.38605" lon="1.85708">
        <ele>188.25341796875</ele>
        <time>2017-05-01T08:18:46.000Z</time>
      </trkpt>
      <trkpt lat="49.38597" lon="1.85693">
        <ele>188.0454864502</ele>
        <time>2017-05-01T08:18:49.000Z</time>
      </trkpt>
      <trkpt lat="49.38591" lon="1.8568">
        <ele>187.62495422363</ele>
        <time>2017-05-01T08:18:51.000Z</time>
      </trkpt>
      <trkpt lat="49.3858" lon="1.85661">
        <ele>186.96694946289</ele>
        <time>2017-05-01T08:18:54.000Z</time>
      </trkpt>
      <trkpt lat="49.3857" lon="1.85633">
        <ele>186.35026550293</ele>
        <time>2017-05-01T08:18:57.000Z</time>
      </trkpt>
      <trkpt lat="49.38561" lon="1.85611">
        <ele>185.77767944336</ele>
        <time>2017-05-01T08:18:59.000Z</time>
      </trkpt>
      <trkpt lat="49.38547" lon="1.85585">
        <ele>185.17288208008</ele>
        <time>2017-05-01T08:19:02.000Z</time>
      </trkpt>
      <trkpt lat="49.38533" lon="1.85563">
        <ele>184.76350402832</ele>
        <time>2017-05-01T08:19:05.000Z</time>
      </trkpt>
      <trkpt lat="49.38518" lon="1.85539">
        <ele>184.50991821289</ele>
        <time>2017-05-01T08:19:08.000Z</time>
      </trkpt>
      <trkpt lat="49.38499" lon="1.85518">
        <ele>184.08547973633</ele>
        <time>2017-05-01T08:19:11.000Z</time>
      </trkpt>
      <trkpt lat="49.38482" lon="1.85505">
        <ele>183.66339111328</ele>
        <time>2017-05-01T08:19:14.000Z</time>
      </trkpt>
      <trkpt lat="49.38472" lon="1.855">
        <ele>183.38035583496</ele>
        <time>2017-05-01T08:19:16.000Z</time>
      </trkpt>
      <trkpt lat="49.38463" lon="1.85495">
        <ele>183.08992004395</ele>
        <time>2017-05-01T08:19:18.000Z</time>
      </trkpt>
      <trkpt lat="49.38449" lon="1.8549">
        <ele>182.81021118164</ele>
        <time>2017-05-01T08:19:20.000Z</time>
      </trkpt>
      <trkpt lat="49.38427" lon="1.85482">
        <ele>182.54544067383</ele>
        <time>2017-05-01T08:19:23.000Z</time>
      </trkpt>
      <trkpt lat="49.38406" lon="1.8547">
        <ele>182.32243347168</ele>
        <time>2017-05-01T08:19:26.000Z</time>
      </trkpt>
      <trkpt lat="49.38394" lon="1.85463">
        <ele>182.21444702148</ele>
        <time>2017-05-01T08:19:28.000Z</time>
      </trkpt>
      <trkpt lat="49.38375" lon="1.85449">
        <ele>182.09561157227</ele>
        <time>2017-05-01T08:19:31.000Z</time>
      </trkpt>
      <trkpt lat="49.38358" lon="1.85428">
        <ele>181.77851867676</ele>
        <time>2017-05-01T08:19:34.000Z</time>
      </trkpt>
      <trkpt lat="49.38348" lon="1.85412">
        <ele>181.35025024414</ele>
        <time>2017-05-01T08:19:37.000Z</time>
      </trkpt>
      <trkpt lat="49.38342" lon="1.85397">
        <ele>180.73886108398</ele>
        <time>2017-05-01T08:19:39.000Z</time>
      </trkpt>
      <trkpt lat="49.38334" lon="1.85365">
        <ele>179.57015991211</ele>
        <time>2017-05-01T08:19:42.000Z</time>
      </trkpt>
      <trkpt lat="49.38329" lon="1.85342">
        <ele>178.25782775879</ele>
        <time>2017-05-01T08:19:44.000Z</time>
      </trkpt>
      <trkpt lat="49.38326" lon="1.85317">
        <ele>177.07333374023</ele>
        <time>2017-05-01T08:19:47.000Z</time>
      </trkpt>
      <trkpt lat="49.38322" lon="1.85292">
        <ele>176.16442871094</ele>
        <time>2017-05-01T08:19:50.000Z</time>
      </trkpt>
      <trkpt lat="49.38316" lon="1.85269">
        <ele>175.48559570312</ele>
        <time>2017-05-01T08:19:53.000Z</time>
      </trkpt>
      <trkpt lat="49.38311" lon="1.85253">
        <ele>175.32197570801</ele>
        <time>2017-05-01T08:19:55.000Z</time>
      </trkpt>
      <trkpt lat="49.383" lon="1.85228">
        <ele>175.54995727539</ele>
        <time>2017-05-01T08:19:58.000Z</time>
      </trkpt>
      <trkpt lat="49.38293" lon="1.85215">
        <ele>175.98085021973</ele>
        <time>2017-05-01T08:20:00.000Z</time>
      </trkpt>
      <trkpt lat="49.38287" lon="1.85203">
        <ele>176.4309387207</ele>
        <time>2017-05-01T08:20:02.000Z</time>
      </trkpt>
      <trkpt lat="49.38278" lon="1.85189">
        <ele>176.86589050293</ele>
        <time>2017-05-01T08:20:04.000Z</time>
      </trkpt>
      <trkpt lat="49.3827" lon="1.85176">
        <ele>177.23155212402</ele>
        <time>2017-05-01T08:20:07.000Z</time>
      </trkpt>
      <trkpt lat="49.38268" lon="1.85172">
        <ele>177.3323059082</ele>
        <time>2017-05-01T08:20:10.000Z</time>
      </trkpt>
      <trkpt lat="49.38266" lon="1.85167">
        <ele>177.30221557617</ele>
        <time>2017-05-01T08:20:12.000Z</time>
      </trkpt>
      <trkpt lat="49.3826" lon="1.85152">
        <ele>177.19274902344</ele>
        <time>2017-05-01T08:20:15.000Z</time>
      </trkpt>
      <trkpt lat="49.38256" lon="1.85136">
        <ele>177.03503417969</ele>
        <time>2017-05-01T08:20:17.000Z</time>
      </trkpt>
      <trkpt lat="49.38255" lon="1.85124">
        <ele>176.89282226562</ele>
        <time>2017-05-01T08:20:19.000Z</time>
      </trkpt>
      <trkpt lat="49.38251" lon="1.85109">
        <ele>176.72294616699</ele>
        <time>2017-05-01T08:20:22.000Z</time>
      </trkpt>
      <trkpt lat="49.38249" lon="1.85098">
        <ele>176.59213256836</ele>
        <time>2017-05-01T08:20:24.000Z</time>
      </trkpt>
      <trkpt lat="49.38248" lon="1.85086">
        <ele>176.46682739258</ele>
        <time>2017-05-01T08:20:26.000Z</time>
      </trkpt>
      <trkpt lat="49.38248" lon="1.85068">
        <ele>176.29557800293</ele>
        <time>2017-05-01T08:20:29.000Z</time>
      </trkpt>
      <trkpt lat="49.3825" lon="1.85058">
        <ele>176.05572509766</ele>
        <time>2017-05-01T08:20:31.000Z</time>
      </trkpt>
      <trkpt lat="49.38252" lon="1.85035">
        <ele>175.77418518066</ele>
        <time>2017-05-01T08:20:34.000Z</time>
      </trkpt>
      <trkpt lat="49.38255" lon="1.85011">
        <ele>175.4031829834</ele>
        <time>2017-05-01T08:20:37.000Z</time>
      </trkpt>
      <trkpt lat="49.38261" lon="1.84988">
        <ele>175.01881408691</ele>
        <time>2017-05-01T08:20:40.000Z</time>
      </trkpt>
      <trkpt lat="49.38266" lon="1.8497">
        <ele>174.69271850586</ele>
        <time>2017-05-01T08:20:42.000Z</time>
      </trkpt>
      <trkpt lat="49.38269" lon="1.8495">
        <ele>174.42318725586</ele>
        <time>2017-05-01T08:20:44.000Z</time>
      </trkpt>
      <trkpt lat="49.38275" lon="1.84924">
        <ele>174.18600463867</ele>
        <time>2017-05-01T08:20:47.000Z</time>
      </trkpt>
      <trkpt lat="49.38277" lon="1.84913">
        <ele>173.98764038086</ele>
        <time>2017-05-01T08:20:49.000Z</time>
      </trkpt>
      <trkpt lat="49.38279" lon="1.84899">
        <ele>173.73294067383</ele>
        <time>2017-05-01T08:20:51.000Z</time>
      </trkpt>
      <trkpt lat="49.38272" lon="1.8488">
        <ele>173.28825378418</ele>
        <time>2017-05-01T08:20:54.000Z</time>
      </trkpt>
      <trkpt lat="49.38263" lon="1.84864">
        <ele>172.6216583252</ele>
        <time>2017-05-01T08:20:56.000Z</time>
      </trkpt>
      <trkpt lat="49.38245" lon="1.84833">
        <ele>171.66903686523</ele>
        <time>2017-05-01T08:20:59.000Z</time>
      </trkpt>
      <trkpt lat="49.38234" lon="1.84815">
        <ele>171.0336151123</ele>
        <time>2017-05-01T08:21:01.000Z</time>
      </trkpt>
      <trkpt lat="49.38217" lon="1.84788">
        <ele>170.70715332031</ele>
        <time>2017-05-01T08:21:04.000Z</time>
      </trkpt>
      <trkpt lat="49.38205" lon="1.84768">
        <ele>170.60308837891</ele>
        <time>2017-05-01T08:21:06.000Z</time>
      </trkpt>
      <trkpt lat="49.38178" lon="1.84706">
        <ele>170.59330749512</ele>
        <time>2017-05-01T08:21:10.000Z</time>
      </trkpt>
      <trkpt lat="49.38166" lon="1.84667">
        <ele>170.6203918457</ele>
        <time>2017-05-01T08:21:13.000Z</time>
      </trkpt>
      <trkpt lat="49.3816" lon="1.8465">
        <ele>170.48452758789</ele>
        <time>2017-05-01T08:21:15.000Z</time>
      </trkpt>
      <trkpt lat="49.38157" lon="1.84629">
        <ele>170.14047241211</ele>
        <time>2017-05-01T08:21:17.000Z</time>
      </trkpt>
      <trkpt lat="49.38152" lon="1.84615">
        <ele>169.8542175293</ele>
        <time>2017-05-01T08:21:19.000Z</time>
      </trkpt>
      <trkpt lat="49.38145" lon="1.84598">
        <ele>169.83345031738</ele>
        <time>2017-05-01T08:21:21.000Z</time>
      </trkpt>
      <trkpt lat="49.38138" lon="1.84582">
        <ele>170.22833251953</ele>
        <time>2017-05-01T08:21:24.000Z</time>
      </trkpt>
      <trkpt lat="49.38129" lon="1.84557">
        <ele>170.5368347168</ele>
        <time>2017-05-01T08:21:27.000Z</time>
      </trkpt>
      <trkpt lat="49.38122" lon="1.84529">
        <ele>170.72441101074</ele>
        <time>2017-05-01T08:21:30.000Z</time>
      </trkpt>
      <trkpt lat="49.38116" lon="1.84498">
        <ele>170.60496520996</ele>
        <time>2017-05-01T08:21:33.000Z</time>
      </trkpt>
      <trkpt lat="49.38111" lon="1.8447">
        <ele>170.16012573242</ele>
        <time>2017-05-01T08:21:36.000Z</time>
      </trkpt>
      <trkpt lat="49.38107" lon="1.84447">
        <ele>169.3692779541</ele>
        <time>2017-05-01T08:21:39.000Z</time>
      </trkpt>
      <trkpt lat="49.38102" lon="1.84432">
        <ele>168.36526489258</ele>
        <time>2017-05-01T08:21:41.000Z</time>
      </trkpt>
      <trkpt lat="49.38093" lon="1.84407">
        <ele>167.2021484375</ele>
        <time>2017-05-01T08:21:44.000Z</time>
      </trkpt>
      <trkpt lat="49.38086" lon="1.84388">
        <ele>166.1173248291</ele>
        <time>2017-05-01T08:21:46.000Z</time>
      </trkpt>
      <trkpt lat="49.38073" lon="1.84356">
        <ele>165.37069702148</ele>
        <time>2017-05-01T08:21:49.000Z</time>
      </trkpt>
      <trkpt lat="49.38065" lon="1.84337">
        <ele>164.99824523926</ele>
        <time>2017-05-01T08:21:51.000Z</time>
      </trkpt>
      <trkpt lat="49.38051" lon="1.84305">
        <ele>165.19831848145</ele>
        <time>2017-05-01T08:21:54.000Z</time>
      </trkpt>
      <trkpt lat="49.38047" lon="1.84288">
        <ele>165.76960754395</ele>
        <time>2017-05-01T08:21:56.000Z</time>
      </trkpt>
      <trkpt lat="49.38045" lon="1.84265">
        <ele>166.4994354248</ele>
        <time>2017-05-01T08:21:59.000Z</time>
      </trkpt>
      <trkpt lat="49.38044" lon="1.84242">
        <ele>167.07723999023</ele>
        <time>2017-05-01T08:22:01.000Z</time>
      </trkpt>
      <trkpt lat="49.38047" lon="1.84207">
        <ele>167.29556274414</ele>
        <time>2017-05-01T08:22:04.000Z</time>
      </trkpt>
      <trkpt lat="49.38047" lon="1.842">
        <ele>167.10624694824</ele>
        <time>2017-05-01T08:22:07.000Z</time>
      </trkpt>
      <trkpt lat="49.38049" lon="1.84184">
        <ele>166.70010375977</ele>
        <time>2017-05-01T08:22:10.000Z</time>
      </trkpt>
      <trkpt lat="49.3805" lon="1.84167">
        <ele>166.20191955566</ele>
        <time>2017-05-01T08:22:13.000Z</time>
      </trkpt>
      <trkpt lat="49.38049" lon="1.84151">
        <ele>165.70162963867</ele>
        <time>2017-05-01T08:22:16.000Z</time>
      </trkpt>
      <trkpt lat="49.38044" lon="1.84134">
        <ele>165.39932250977</ele>
        <time>2017-05-01T08:22:19.000Z</time>
      </trkpt>
      <trkpt lat="49.3804" lon="1.84117">
        <ele>165.06968688965</ele>
        <time>2017-05-01T08:22:22.000Z</time>
      </trkpt>
      <trkpt lat="49.38036" lon="1.84099">
        <ele>164.7593536377</ele>
        <time>2017-05-01T08:22:25.000Z</time>
      </trkpt>
      <trkpt lat="49.38033" lon="1.84087">
        <ele>164.46092224121</ele>
        <time>2017-05-01T08:22:27.000Z</time>
      </trkpt>
      <trkpt lat="49.38029" lon="1.84068">
        <ele>164.08784484863</ele>
        <time>2017-05-01T08:22:30.000Z</time>
      </trkpt>
      <trkpt lat="49.38025" lon="1.84053">
        <ele>163.6227722168</ele>
        <time>2017-05-01T08:22:33.000Z</time>
      </trkpt>
      <trkpt lat="49.38021" lon="1.8404">
        <ele>163.08976745605</ele>
        <time>2017-05-01T08:22:36.000Z</time>
      </trkpt>
      <trkpt lat="49.38016" lon="1.84031">
        <ele>162.54112243652</ele>
        <time>2017-05-01T08:22:39.000Z</time>
      </trkpt>
      <trkpt lat="49.38011" lon="1.84022">
        <ele>161.94250488281</ele>
        <time>2017-05-01T08:22:41.000Z</time>
      </trkpt>
      <trkpt lat="49.38005" lon="1.84009">
        <ele>161.27569580078</ele>
        <time>2017-05-01T08:22:44.000Z</time>
      </trkpt>
      <trkpt lat="49.38001" lon="1.83998">
        <ele>160.58242797852</ele>
        <time>2017-05-01T08:22:46.000Z</time>
      </trkpt>
      <trkpt lat="49.37997" lon="1.83981">
        <ele>160.05136108398</ele>
        <time>2017-05-01T08:22:49.000Z</time>
      </trkpt>
      <trkpt lat="49.37992" lon="1.83969">
        <ele>159.72756958008</ele>
        <time>2017-05-01T08:22:51.000Z</time>
      </trkpt>
      <trkpt lat="49.37984" lon="1.8395">
        <ele>159.67111206055</ele>
        <time>2017-05-01T08:22:54.000Z</time>
      </trkpt>
      <trkpt lat="49.37976" lon="1.83933">
        <ele>159.90005493164</ele>
        <time>2017-05-01T08:22:57.000Z</time>
      </trkpt>
      <trkpt lat="49.37969" lon="1.8392">
        <ele>160.30654907227</ele>
        <time>2017-05-01T08:22:59.000Z</time>
      </trkpt>
      <trkpt lat="49.37958" lon="1.83897">
        <ele>160.70936584473</ele>
        <time>2017-05-01T08:23:02.000Z</time>
      </trkpt>
      <trkpt lat="49.37952" lon="1.8388">
        <ele>160.95069885254</ele>
        <time>2017-05-01T08:23:04.000Z</time>
      </trkpt>
      <trkpt lat="49.37944" lon="1.83855">
        <ele>160.83061218262</ele>
        <time>2017-05-01T08:23:07.000Z</time>
      </trkpt>
      <trkpt lat="49.37938" lon="1.83842">
        <ele>160.46170043945</ele>
        <time>2017-05-01T08:23:09.000Z</time>
      </trkpt>
      <trkpt lat="49.37929" lon="1.83822">
        <ele>159.8946685791</ele>
        <time>2017-05-01T08:23:12.000Z</time>
      </trkpt>
      <trkpt lat="49.37916" lon="1.83793">
        <ele>159.14254760742</ele>
        <time>2017-05-01T08:23:15.000Z</time>
      </trkpt>
      <trkpt lat="49.379" lon="1.83762">
        <ele>158.33728027344</ele>
        <time>2017-05-01T08:23:18.000Z</time>
      </trkpt>
      <trkpt lat="49.37889" lon="1.8375">
        <ele>157.63656616211</ele>
        <time>2017-05-01T08:23:20.000Z</time>
      </trkpt>
      <trkpt lat="49.37878" lon="1.83743">
        <ele>157.06109619141</ele>
        <time>2017-05-01T08:23:22.000Z</time>
      </trkpt>
      <trkpt lat="49.37861" lon="1.83736">
        <ele>156.57553100586</ele>
        <time>2017-05-01T08:23:25.000Z</time>
      </trkpt>
      <trkpt lat="49.37848" lon="1.8373">
        <ele>156.16448974609</ele>
        <time>2017-05-01T08:23:27.000Z</time>
      </trkpt>
      <trkpt lat="49.37824" lon="1.83714">
        <ele>155.83898925781</ele>
        <time>2017-05-01T08:23:30.000Z</time>
      </trkpt>
      <trkpt lat="49.37807" lon="1.83709">
        <ele>155.73042297363</ele>
        <time>2017-05-01T08:23:33.000Z</time>
      </trkpt>
      <trkpt lat="49.37793" lon="1.8371">
        <ele>155.74838256836</ele>
        <time>2017-05-01T08:23:36.000Z</time>
      </trkpt>
      <trkpt lat="49.37783" lon="1.83709">
        <ele>155.88973999023</ele>
        <time>2017-05-01T08:23:38.000Z</time>
      </trkpt>
      <trkpt lat="49.37774" lon="1.83705">
        <ele>156.1178894043</ele>
        <time>2017-05-01T08:23:40.000Z</time>
      </trkpt>
      <trkpt lat="49.37766" lon="1.83702">
        <ele>156.3793182373</ele>
        <time>2017-05-01T08:23:42.000Z</time>
      </trkpt>
      <trkpt lat="49.37749" lon="1.83695">
        <ele>156.50480651855</ele>
        <time>2017-05-01T08:23:45.000Z</time>
      </trkpt>
      <trkpt lat="49.37738" lon="1.83686">
        <ele>156.54620361328</ele>
        <time>2017-05-01T08:23:47.000Z</time>
      </trkpt>
      <trkpt lat="49.37726" lon="1.83674">
        <ele>156.52474975586</ele>
        <time>2017-05-01T08:23:50.000Z</time>
      </trkpt>
      <trkpt lat="49.37716" lon="1.83663">
        <ele>156.48379516602</ele>
        <time>2017-05-01T08:23:53.000Z</time>
      </trkpt>
      <trkpt lat="49.37708" lon="1.83652">
        <ele>156.52700805664</ele>
        <time>2017-05-01T08:23:55.000Z</time>
      </trkpt>
      <trkpt lat="49.37697" lon="1.83632">
        <ele>156.67028808594</ele>
        <time>2017-05-01T08:23:58.000Z</time>
      </trkpt>
      <trkpt lat="49.37692" lon="1.83616">
        <ele>156.78538513184</ele>
        <time>2017-05-01T08:24:00.000Z</time>
      </trkpt>
      <trkpt lat="49.37687" lon="1.836">
        <ele>156.88417053223</ele>
        <time>2017-05-01T08:24:02.000Z</time>
      </trkpt>
      <trkpt lat="49.37681" lon="1.83574">
        <ele>156.80545043945</ele>
        <time>2017-05-01T08:24:05.000Z</time>
      </trkpt>
      <trkpt lat="49.37676" lon="1.83556">
        <ele>156.37300109863</ele>
        <time>2017-05-01T08:24:07.000Z</time>
      </trkpt>
      <trkpt lat="49.37667" lon="1.83529">
        <ele>155.43661499023</ele>
        <time>2017-05-01T08:24:11.000Z</time>
      </trkpt>
      <trkpt lat="49.37657" lon="1.83506">
        <ele>154.43200683594</ele>
        <time>2017-05-01T08:24:13.000Z</time>
      </trkpt>
      <trkpt lat="49.37653" lon="1.83492">
        <ele>153.37951660156</ele>
        <time>2017-05-01T08:24:15.000Z</time>
      </trkpt>
      <trkpt lat="49.37653" lon="1.83484">
        <ele>152.39492797852</ele>
        <time>2017-05-01T08:24:18.000Z</time>
      </trkpt>
      <trkpt lat="49.37654" lon="1.83484">
        <ele>151.64808654785</ele>
        <time>2017-05-01T08:24:20.000Z</time>
      </trkpt>
      <trkpt lat="49.37658" lon="1.83491">
        <ele>151.33821105957</ele>
        <time>2017-05-01T08:24:23.000Z</time>
      </trkpt>
      <trkpt lat="49.3766" lon="1.83496">
        <ele>151.09211730957</ele>
        <time>2017-05-01T08:24:26.000Z</time>
      </trkpt>
      <trkpt lat="49.37662" lon="1.83498">
        <ele>150.89266967773</ele>
        <time>2017-05-01T08:24:29.000Z</time>
      </trkpt>
      <trkpt lat="49.37662" lon="1.83497">
        <ele>150.79006958008</ele>
        <time>2017-05-01T08:24:33.000Z</time>
      </trkpt>
      <trkpt lat="49.37663" lon="1.83495">
        <ele>150.67781066895</ele>
        <time>2017-05-01T08:24:36.000Z</time>
      </trkpt>
      <trkpt lat="49.37663" lon="1.83492">
        <ele>150.52474975586</ele>
        <time>2017-05-01T08:24:38.000Z</time>
      </trkpt>
      <trkpt lat="49.37664" lon="1.83484">
        <ele>150.26103210449</ele>
        <time>2017-05-01T08:24:41.000Z</time>
      </trkpt>
      <trkpt lat="49.37663" lon="1.8347">
        <ele>149.86846923828</ele>
        <time>2017-05-01T08:24:44.000Z</time>
      </trkpt>
      <trkpt lat="49.37664" lon="1.83459">
        <ele>149.33378601074</ele>
        <time>2017-05-01T08:24:46.000Z</time>
      </trkpt>
      <trkpt lat="49.37664" lon="1.8345">
        <ele>148.70751953125</ele>
        <time>2017-05-01T08:24:48.000Z</time>
      </trkpt>
      <trkpt lat="49.37663" lon="1.83437">
        <ele>148.01132202148</ele>
        <time>2017-05-01T08:24:51.000Z</time>
      </trkpt>
      <trkpt lat="49.3766" lon="1.8343">
        <ele>147.38906860352</ele>
        <time>2017-05-01T08:24:53.000Z</time>
      </trkpt>
      <trkpt lat="49.37658" lon="1.83417">
        <ele>146.80253601074</ele>
        <time>2017-05-01T08:24:56.000Z</time>
      </trkpt>
      <trkpt lat="49.37656" lon="1.83408">
        <ele>146.43475341797</ele>
        <time>2017-05-01T08:24:58.000Z</time>
      </trkpt>
      <trkpt lat="49.37653" lon="1.83392">
        <ele>146.28660583496</ele>
        <time>2017-05-01T08:25:01.000Z</time>
      </trkpt>
      <trkpt lat="49.37651" lon="1.83382">
        <ele>146.29385375977</ele>
        <time>2017-05-01T08:25:03.000Z</time>
      </trkpt>
      <trkpt lat="49.37647" lon="1.83369">
        <ele>146.3902130127</ele>
        <time>2017-05-01T08:25:06.000Z</time>
      </trkpt>
      <trkpt lat="49.3764" lon="1.83353">
        <ele>146.60639953613</ele>
        <time>2017-05-01T08:25:09.000Z</time>
      </trkpt>
      <trkpt lat="49.37632" lon="1.83337">
        <ele>146.67373657227</ele>
        <time>2017-05-01T08:25:12.000Z</time>
      </trkpt>
      <trkpt lat="49.37629" lon="1.83329">
        <ele>146.62702941895</ele>
        <time>2017-05-01T08:25:14.000Z</time>
      </trkpt>
      <trkpt lat="49.37624" lon="1.83315">
        <ele>146.5640411377</ele>
        <time>2017-05-01T08:25:17.000Z</time>
      </trkpt>
      <trkpt lat="49.3762" lon="1.83302">
        <ele>146.47250366211</ele>
        <time>2017-05-01T08:25:19.000Z</time>
      </trkpt>
      <trkpt lat="49.37616" lon="1.83288">
        <ele>146.38244628906</ele>
        <time>2017-05-01T08:25:22.000Z</time>
      </trkpt>
      <trkpt lat="49.37613" lon="1.83282">
        <ele>146.36445617676</ele>
        <time>2017-05-01T08:25:24.000Z</time>
      </trkpt>
      <trkpt lat="49.37606" lon="1.83264">
        <ele>146.3037109375</ele>
        <time>2017-05-01T08:25:27.000Z</time>
      </trkpt>
      <trkpt lat="49.376" lon="1.83252">
        <ele>146.15031433105</ele>
        <time>2017-05-01T08:25:32.000Z</time>
      </trkpt>
      <trkpt lat="49.37593" lon="1.83239">
        <ele>145.95829772949</ele>
        <time>2017-05-01T08:25:33.000Z</time>
      </trkpt>
      <trkpt lat="49.37584" lon="1.83219">
        <ele>145.77432250977</ele>
        <time>2017-05-01T08:25:36.000Z</time>
      </trkpt>
      <trkpt lat="49.37578" lon="1.83205">
        <ele>145.76420593262</ele>
        <time>2017-05-01T08:25:38.000Z</time>
      </trkpt>
      <trkpt lat="49.37571" lon="1.83188">
        <ele>145.96542358398</ele>
        <time>2017-05-01T08:25:41.000Z</time>
      </trkpt>
      <trkpt lat="49.37566" lon="1.83179">
        <ele>146.28831481934</ele>
        <time>2017-05-01T08:25:43.000Z</time>
      </trkpt>
      <trkpt lat="49.3756" lon="1.83163">
        <ele>146.71473693848</ele>
        <time>2017-05-01T08:25:46.000Z</time>
      </trkpt>
      <trkpt lat="49.37556" lon="1.83154">
        <ele>147.19950866699</ele>
        <time>2017-05-01T08:25:48.000Z</time>
      </trkpt>
      <trkpt lat="49.37553" lon="1.83146">
        <ele>147.57211303711</ele>
        <time>2017-05-01T08:25:50.000Z</time>
      </trkpt>
      <trkpt lat="49.37549" lon="1.83139">
        <ele>147.83233642578</ele>
        <time>2017-05-01T08:25:52.000Z</time>
      </trkpt>
      <trkpt lat="49.37545" lon="1.83128">
        <ele>148.08810424805</ele>
        <time>2017-05-01T08:25:55.000Z</time>
      </trkpt>
      <trkpt lat="49.37543" lon="1.8312">
        <ele>148.31436157227</ele>
        <time>2017-05-01T08:25:57.000Z</time>
      </trkpt>
      <trkpt lat="49.37538" lon="1.83105">
        <ele>148.53805541992</ele>
        <time>2017-05-01T08:26:00.000Z</time>
      </trkpt>
      <trkpt lat="49.37534" lon="1.83089">
        <ele>148.76448059082</ele>
        <time>2017-05-01T08:26:03.000Z</time>
      </trkpt>
      <trkpt lat="49.3753" lon="1.83072">
        <ele>149.01123046875</ele>
        <time>2017-05-01T08:26:06.000Z</time>
      </trkpt>
      <trkpt lat="49.37528" lon="1.83065">
        <ele>149.23341369629</ele>
        <time>2017-05-01T08:26:08.000Z</time>
      </trkpt>
      <trkpt lat="49.37526" lon="1.83051">
        <ele>149.50160217285</ele>
        <time>2017-05-01T08:26:11.000Z</time>
      </trkpt>
      <trkpt lat="49.37524" lon="1.83041">
        <ele>149.76831054688</ele>
        <time>2017-05-01T08:26:13.000Z</time>
      </trkpt>
      <trkpt lat="49.37523" lon="1.83032">
        <ele>150.0329284668</ele>
        <time>2017-05-01T08:26:15.000Z</time>
      </trkpt>
      <trkpt lat="49.37521" lon="1.8302">
        <ele>150.32534790039</ele>
        <time>2017-05-01T08:26:18.000Z</time>
      </trkpt>
      <trkpt lat="49.3752" lon="1.83011">
        <ele>150.65393066406</ele>
        <time>2017-05-01T08:26:20.000Z</time>
      </trkpt>
      <trkpt lat="49.37516" lon="1.82999">
        <ele>150.96411132812</ele>
        <time>2017-05-01T08:26:23.000Z</time>
      </trkpt>
      <trkpt lat="49.37515" lon="1.82991">
        <ele>151.31442260742</ele>
        <time>2017-05-01T08:26:25.000Z</time>
      </trkpt>
      <trkpt lat="49.37513" lon="1.8298">
        <ele>151.74435424805</ele>
        <time>2017-05-01T08:26:28.000Z</time>
      </trkpt>
      <trkpt lat="49.37512" lon="1.82974">
        <ele>152.16317749023</ele>
        <time>2017-05-01T08:26:30.000Z</time>
      </trkpt>
      <trkpt lat="49.3751" lon="1.82965">
        <ele>152.63545227051</ele>
        <time>2017-05-01T08:26:33.000Z</time>
      </trkpt>
      <trkpt lat="49.37507" lon="1.82958">
        <ele>153.12348937988</ele>
        <time>2017-05-01T08:26:35.000Z</time>
      </trkpt>
      <trkpt lat="49.37505" lon="1.82952">
        <ele>153.59497070312</ele>
        <time>2017-05-01T08:26:37.000Z</time>
      </trkpt>
      <trkpt lat="49.37502" lon="1.82944">
        <ele>154.05154418945</ele>
        <time>2017-05-01T08:26:39.000Z</time>
      </trkpt>
      <trkpt lat="49.375" lon="1.82936">
        <ele>154.56192016602</ele>
        <time>2017-05-01T08:26:41.000Z</time>
      </trkpt>
      <trkpt lat="49.37496" lon="1.82922">
        <ele>155.09020996094</ele>
        <time>2017-05-01T08:26:44.000Z</time>
      </trkpt>
      <trkpt lat="49.37492" lon="1.8291">
        <ele>155.60876464844</ele>
        <time>2017-05-01T08:26:47.000Z</time>
      </trkpt>
      <trkpt lat="49.3749" lon="1.82901">
        <ele>156.10708618164</ele>
        <time>2017-05-01T08:26:50.000Z</time>
      </trkpt>
      <trkpt lat="49.37487" lon="1.82896">
        <ele>156.48913574219</ele>
        <time>2017-05-01T08:26:52.000Z</time>
      </trkpt>
      <trkpt lat="49.37482" lon="1.82884">
        <ele>156.7903137207</ele>
        <time>2017-05-01T08:26:55.000Z</time>
      </trkpt>
      <trkpt lat="49.37479" lon="1.82877">
        <ele>156.99118041992</ele>
        <time>2017-05-01T08:26:57.000Z</time>
      </trkpt>
      <trkpt lat="49.37476" lon="1.82865">
        <ele>157.18051147461</ele>
        <time>2017-05-01T08:27:00.000Z</time>
      </trkpt>
      <trkpt lat="49.37473" lon="1.82854">
        <ele>157.37380981445</ele>
        <time>2017-05-01T08:27:03.000Z</time>
      </trkpt>
      <trkpt lat="49.37471" lon="1.82847">
        <ele>157.61563110352</ele>
        <time>2017-05-01T08:27:05.000Z</time>
      </trkpt>
      <trkpt lat="49.37468" lon="1.82837">
        <ele>157.85014343262</ele>
        <time>2017-05-01T08:27:08.000Z</time>
      </trkpt>
      <trkpt lat="49.37467" lon="1.82833">
        <ele>158.07676696777</ele>
        <time>2017-05-01T08:27:10.000Z</time>
      </trkpt>
      <trkpt lat="49.37465" lon="1.82824">
        <ele>158.2819519043</ele>
        <time>2017-05-01T08:27:13.000Z</time>
      </trkpt>
      <trkpt lat="49.37461" lon="1.82815">
        <ele>158.42825317383</ele>
        <time>2017-05-01T08:27:16.000Z</time>
      </trkpt>
      <trkpt lat="49.37458" lon="1.82803">
        <ele>158.57597351074</ele>
        <time>2017-05-01T08:27:19.000Z</time>
      </trkpt>
      <trkpt lat="49.37457" lon="1.82797">
        <ele>158.72988891602</ele>
        <time>2017-05-01T08:27:21.000Z</time>
      </trkpt>
      <trkpt lat="49.37454" lon="1.82787">
        <ele>158.90846252441</ele>
        <time>2017-05-01T08:27:24.000Z</time>
      </trkpt>
      <trkpt lat="49.37452" lon="1.8278">
        <ele>159.07421875</ele>
        <time>2017-05-01T08:27:26.000Z</time>
      </trkpt>
      <trkpt lat="49.3745" lon="1.82773">
        <ele>159.28298950195</ele>
        <time>2017-05-01T08:27:28.000Z</time>
      </trkpt>
      <trkpt lat="49.37449" lon="1.8276">
        <ele>159.54431152344</ele>
        <time>2017-05-01T08:27:31.000Z</time>
      </trkpt>
      <trkpt lat="49.37446" lon="1.82748">
        <ele>159.84651184082</ele>
        <time>2017-05-01T08:27:34.000Z</time>
      </trkpt>
      <trkpt lat="49.37444" lon="1.82738">
        <ele>160.17736816406</ele>
        <time>2017-05-01T08:27:37.000Z</time>
      </trkpt>
      <trkpt lat="49.37443" lon="1.8273">
        <ele>160.56674194336</ele>
        <time>2017-05-01T08:27:40.000Z</time>
      </trkpt>
      <trkpt lat="49.37443" lon="1.82722">
        <ele>161.00703430176</ele>
        <time>2017-05-01T08:27:43.000Z</time>
      </trkpt>
      <trkpt lat="49.37445" lon="1.82714">
        <ele>161.48413085938</ele>
        <time>2017-05-01T08:27:46.000Z</time>
      </trkpt>
      <trkpt lat="49.37446" lon="1.82708">
        <ele>161.96614074707</ele>
        <time>2017-05-01T08:27:48.000Z</time>
      </trkpt>
      <trkpt lat="49.37448" lon="1.82703">
        <ele>162.45803833008</ele>
        <time>2017-05-01T08:27:50.000Z</time>
      </trkpt>
      <trkpt lat="49.3745" lon="1.82699">
        <ele>162.94396972656</ele>
        <time>2017-05-01T08:27:52.000Z</time>
      </trkpt>
      <trkpt lat="49.37452" lon="1.82691">
        <ele>163.45402526855</ele>
        <time>2017-05-01T08:27:55.000Z</time>
      </trkpt>
      <trkpt lat="49.37453" lon="1.82686">
        <ele>163.92129516602</ele>
        <time>2017-05-01T08:27:57.000Z</time>
      </trkpt>
      <trkpt lat="49.37457" lon="1.8268">
        <ele>164.43597412109</ele>
        <time>2017-05-01T08:28:00.000Z</time>
      </trkpt>
      <trkpt lat="49.37459" lon="1.82676">
        <ele>164.95346069336</ele>
        <time>2017-05-01T08:28:02.000Z</time>
      </trkpt>
      <trkpt lat="49.37463" lon="1.82671">
        <ele>165.5237121582</ele>
        <time>2017-05-01T08:28:05.000Z</time>
      </trkpt>
      <trkpt lat="49.37468" lon="1.82665">
        <ele>166.10427856445</ele>
        <time>2017-05-01T08:28:08.000Z</time>
      </trkpt>
      <trkpt lat="49.37471" lon="1.82659">
        <ele>166.69917297363</ele>
        <time>2017-05-01T08:28:11.000Z</time>
      </trkpt>
      <trkpt lat="49.37473" lon="1.82655">
        <ele>167.22608947754</ele>
        <time>2017-05-01T08:28:13.000Z</time>
      </trkpt>
      <trkpt lat="49.37476" lon="1.8265">
        <ele>167.77133178711</ele>
        <time>2017-05-01T08:28:16.000Z</time>
      </trkpt>
      <trkpt lat="49.37481" lon="1.82647">
        <ele>168.27760314941</ele>
        <time>2017-05-01T08:28:19.000Z</time>
      </trkpt>
      <trkpt lat="49.37485" lon="1.82642">
        <ele>168.7458190918</ele>
        <time>2017-05-01T08:28:22.000Z</time>
      </trkpt>
      <trkpt lat="49.37489" lon="1.82636">
        <ele>169.22755432129</ele>
        <time>2017-05-01T08:28:25.000Z</time>
      </trkpt>
      <trkpt lat="49.37492" lon="1.82631">
        <ele>169.71450805664</ele>
        <time>2017-05-01T08:28:27.000Z</time>
      </trkpt>
      <trkpt lat="49.37493" lon="1.82627">
        <ele>170.15432739258</ele>
        <time>2017-05-01T08:28:29.000Z</time>
      </trkpt>
      <trkpt lat="49.37495" lon="1.8262">
        <ele>170.57499694824</ele>
        <time>2017-05-01T08:28:32.000Z</time>
      </trkpt>
      <trkpt lat="49.37497" lon="1.82616">
        <ele>170.96186828613</ele>
        <time>2017-05-01T08:28:34.000Z</time>
      </trkpt>
      <trkpt lat="49.37501" lon="1.82609">
        <ele>171.33334350586</ele>
        <time>2017-05-01T08:28:37.000Z</time>
      </trkpt>
      <trkpt lat="49.37503" lon="1.82604">
        <ele>171.70622253418</ele>
        <time>2017-05-01T08:28:39.000Z</time>
      </trkpt>
      <trkpt lat="49.37504" lon="1.826">
        <ele>172.06739807129</ele>
        <time>2017-05-01T08:28:41.000Z</time>
      </trkpt>
      <trkpt lat="49.37505" lon="1.82597">
        <ele>172.39697265625</ele>
        <time>2017-05-01T08:28:44.000Z</time>
      </trkpt>
      <trkpt lat="49.37509" lon="1.82593">
        <ele>172.77014160156</ele>
        <time>2017-05-01T08:28:47.000Z</time>
      </trkpt>
      <trkpt lat="49.37512" lon="1.82589">
        <ele>173.1315612793</ele>
        <time>2017-05-01T08:28:49.000Z</time>
      </trkpt>
      <trkpt lat="49.37517" lon="1.82583">
        <ele>173.56423950195</ele>
        <time>2017-05-01T08:28:52.000Z</time>
      </trkpt>
      <trkpt lat="49.3752" lon="1.82579">
        <ele>174.05177307129</ele>
        <time>2017-05-01T08:28:54.000Z</time>
      </trkpt>
      <trkpt lat="49.37523" lon="1.82573">
        <ele>174.61630249023</ele>
        <time>2017-05-01T08:28:57.000Z</time>
      </trkpt>
      <trkpt lat="49.37527" lon="1.82567">
        <ele>175.21318054199</ele>
        <time>2017-05-01T08:29:00.000Z</time>
      </trkpt>
      <trkpt lat="49.37529" lon="1.82564">
        <ele>175.79817199707</ele>
        <time>2017-05-01T08:29:02.000Z</time>
      </trkpt>
      <trkpt lat="49.37533" lon="1.8256">
        <ele>176.35571289062</ele>
        <time>2017-05-01T08:29:05.000Z</time>
      </trkpt>
      <trkpt lat="49.37535" lon="1.82557">
        <ele>176.87593078613</ele>
        <time>2017-05-01T08:29:07.000Z</time>
      </trkpt>
      <trkpt lat="49.37539" lon="1.82551">
        <ele>177.40882873535</ele>
        <time>2017-05-01T08:29:10.000Z</time>
      </trkpt>
      <trkpt lat="49.37542" lon="1.82546">
        <ele>177.93273925781</ele>
        <time>2017-05-01T08:29:13.000Z</time>
      </trkpt>
      <trkpt lat="49.37544" lon="1.82542">
        <ele>178.45690917969</ele>
        <time>2017-05-01T08:29:15.000Z</time>
      </trkpt>
      <trkpt lat="49.37547" lon="1.82537">
        <ele>178.96228027344</ele>
        <time>2017-05-01T08:29:17.000Z</time>
      </trkpt>
      <trkpt lat="49.3755" lon="1.82533">
        <ele>179.4965057373</ele>
        <time>2017-05-01T08:29:19.000Z</time>
      </trkpt>
      <trkpt lat="49.37552" lon="1.82529">
        <ele>179.97463989258</ele>
        <time>2017-05-01T08:29:21.000Z</time>
      </trkpt>
      <trkpt lat="49.37555" lon="1.82525">
        <ele>180.40914916992</ele>
        <time>2017-05-01T08:29:24.000Z</time>
      </trkpt>
      <trkpt lat="49.37557" lon="1.82521">
        <ele>180.85282897949</ele>
        <time>2017-05-01T08:29:27.000Z</time>
      </trkpt>
      <trkpt lat="49.37561" lon="1.82516">
        <ele>181.32138061523</ele>
        <time>2017-05-01T08:29:30.000Z</time>
      </trkpt>
      <trkpt lat="49.37565" lon="1.82511">
        <ele>181.80328369141</ele>
        <time>2017-05-01T08:29:33.000Z</time>
      </trkpt>
      <trkpt lat="49.37569" lon="1.8251">
        <ele>182.2971496582</ele>
        <time>2017-05-01T08:29:36.000Z</time>
      </trkpt>
      <trkpt lat="49.37571" lon="1.82509">
        <ele>182.748046875</ele>
        <time>2017-05-01T08:29:38.000Z</time>
      </trkpt>
      <trkpt lat="49.37574" lon="1.82503">
        <ele>183.2200012207</ele>
        <time>2017-05-01T08:29:41.000Z</time>
      </trkpt>
      <trkpt lat="49.37576" lon="1.82498">
        <ele>183.63491821289</ele>
        <time>2017-05-01T08:29:43.000Z</time>
      </trkpt>
      <trkpt lat="49.37578" lon="1.82492">
        <ele>184.01258850098</ele>
        <time>2017-05-01T08:29:46.000Z</time>
      </trkpt>
      <trkpt lat="49.3758" lon="1.82488">
        <ele>184.3518371582</ele>
        <time>2017-05-01T08:29:48.000Z</time>
      </trkpt>
      <trkpt lat="49.37583" lon="1.82484">
        <ele>184.7103729248</ele>
        <time>2017-05-01T08:29:50.000Z</time>
      </trkpt>
      <trkpt lat="49.37588" lon="1.82481">
        <ele>185.04559326172</ele>
        <time>2017-05-01T08:29:53.000Z</time>
      </trkpt>
      <trkpt lat="49.37592" lon="1.82476">
        <ele>185.3751373291</ele>
        <time>2017-05-01T08:29:56.000Z</time>
      </trkpt>
      <trkpt lat="49.37595" lon="1.82471">
        <ele>185.68975830078</ele>
        <time>2017-05-01T08:29:59.000Z</time>
      </trkpt>
      <trkpt lat="49.37597" lon="1.82465">
        <ele>186.00405883789</ele>
        <time>2017-05-01T08:30:02.000Z</time>
      </trkpt>
      <trkpt lat="49.376" lon="1.82459">
        <ele>186.31959533691</ele>
        <time>2017-05-01T08:30:05.000Z</time>
      </trkpt>
      <trkpt lat="49.37603" lon="1.82455">
        <ele>186.58920288086</ele>
        <time>2017-05-01T08:30:07.000Z</time>
      </trkpt>
      <trkpt lat="49.37606" lon="1.82452">
        <ele>186.84832763672</ele>
        <time>2017-05-01T08:30:09.000Z</time>
      </trkpt>
      <trkpt lat="49.37609" lon="1.82448">
        <ele>187.10270690918</ele>
        <time>2017-05-01T08:30:12.000Z</time>
      </trkpt>
      <trkpt lat="49.37614" lon="1.82443">
        <ele>187.37210083008</ele>
        <time>2017-05-01T08:30:15.000Z</time>
      </trkpt>
      <trkpt lat="49.37619" lon="1.82437">
        <ele>187.65669250488</ele>
        <time>2017-05-01T08:30:18.000Z</time>
      </trkpt>
      <trkpt lat="49.3762" lon="1.82435">
        <ele>187.92118835449</ele>
        <time>2017-05-01T08:30:20.000Z</time>
      </trkpt>
      <trkpt lat="49.37623" lon="1.82431">
        <ele>188.18348693848</ele>
        <time>2017-05-01T08:30:23.000Z</time>
      </trkpt>
      <trkpt lat="49.37626" lon="1.82429">
        <ele>188.42388916016</ele>
        <time>2017-05-01T08:30:25.000Z</time>
      </trkpt>
      <trkpt lat="49.37628" lon="1.82425">
        <ele>188.63911437988</ele>
        <time>2017-05-01T08:30:27.000Z</time>
      </trkpt>
      <trkpt lat="49.3763" lon="1.82417">
        <ele>188.82942199707</ele>
        <time>2017-05-01T08:30:30.000Z</time>
      </trkpt>
      <trkpt lat="49.37633" lon="1.82412">
        <ele>189.03242492676</ele>
        <time>2017-05-01T08:30:33.000Z</time>
      </trkpt>
      <trkpt lat="49.37634" lon="1.82406">
        <ele>189.22184753418</ele>
        <time>2017-05-01T08:30:35.000Z</time>
      </trkpt>
      <trkpt lat="49.37635" lon="1.82401">
        <ele>189.40104675293</ele>
        <time>2017-05-01T08:30:37.000Z</time>
      </trkpt>
      <trkpt lat="49.37634" lon="1.82397">
        <ele>189.54092407227</ele>
        <time>2017-05-01T08:30:39.000Z</time>
      </trkpt>
      <trkpt lat="49.37637" lon="1.82389">
        <ele>189.69526672363</ele>
        <time>2017-05-01T08:30:42.000Z</time>
      </trkpt>
      <trkpt lat="49.3764" lon="1.82383">
        <ele>189.86663818359</ele>
        <time>2017-05-01T08:30:44.000Z</time>
      </trkpt>
      <trkpt lat="49.37642" lon="1.82378">
        <ele>190.04515075684</ele>
        <time>2017-05-01T08:30:47.000Z</time>
      </trkpt>
      <trkpt lat="49.37645" lon="1.8237">
        <ele>190.26210021973</ele>
        <time>2017-05-01T08:30:50.000Z</time>
      </trkpt>
      <trkpt lat="49.37649" lon="1.82365">
        <ele>190.55282592773</ele>
        <time>2017-05-01T08:30:53.000Z</time>
      </trkpt>
      <trkpt lat="49.37652" lon="1.82362">
        <ele>190.81706237793</ele>
        <time>2017-05-01T08:30:55.000Z</time>
      </trkpt>
      <trkpt lat="49.37658" lon="1.82356">
        <ele>191.13352966309</ele>
        <time>2017-05-01T08:30:58.000Z</time>
      </trkpt>
      <trkpt lat="49.37662" lon="1.82352">
        <ele>191.48135375977</ele>
        <time>2017-05-01T08:31:01.000Z</time>
      </trkpt>
      <trkpt lat="49.37667" lon="1.82348">
        <ele>191.85606384277</ele>
        <time>2017-05-01T08:31:06.000Z</time>
      </trkpt>
      <trkpt lat="49.37668" lon="1.82347">
        <ele>192.1696472168</ele>
        <time>2017-05-01T08:31:09.000Z</time>
      </trkpt>
      <trkpt lat="49.37669" lon="1.82346">
        <ele>192.45608520508</ele>
        <time>2017-05-01T08:31:11.000Z</time>
      </trkpt>
      <trkpt lat="49.37672" lon="1.82342">
        <ele>192.69023132324</ele>
        <time>2017-05-01T08:31:16.000Z</time>
      </trkpt>
      <trkpt lat="49.37672" lon="1.82342">
        <ele>192.69023132324</ele>
        <time>2017-05-01T08:31:36.000Z</time>
      </trkpt>
      <trkpt lat="49.37674" lon="1.82339">
        <ele>192.8896484375</ele>
        <time>2017-05-01T08:31:44.000Z</time>
      </trkpt>
      <trkpt lat="49.37676" lon="1.82337">
        <ele>193.02917480469</ele>
        <time>2017-05-01T08:31:52.000Z</time>
      </trkpt>
      <trkpt lat="49.37676" lon="1.82337">
        <ele>193.02917480469</ele>
        <time>2017-05-01T08:32:12.000Z</time>
      </trkpt>
      <trkpt lat="49.37676" lon="1.82336">
        <ele>193.16400146484</ele>
        <time>2017-05-01T08:32:22.000Z</time>
      </trkpt>
      <trkpt lat="49.37677" lon="1.82333">
        <ele>193.30838012695</ele>
        <time>2017-05-01T08:32:24.000Z</time>
      </trkpt>
      <trkpt lat="49.3768" lon="1.8233">
        <ele>193.4157409668</ele>
        <time>2017-05-01T08:32:26.000Z</time>
      </trkpt>
      <trkpt lat="49.37686" lon="1.82324">
        <ele>193.52214050293</ele>
        <time>2017-05-01T08:32:29.000Z</time>
      </trkpt>
      <trkpt lat="49.37693" lon="1.82314">
        <ele>193.62330627441</ele>
        <time>2017-05-01T08:32:32.000Z</time>
      </trkpt>
      <trkpt lat="49.37698" lon="1.82305">
        <ele>193.73118591309</ele>
        <time>2017-05-01T08:32:35.000Z</time>
      </trkpt>
      <trkpt lat="49.37702" lon="1.82298">
        <ele>193.8127746582</ele>
        <time>2017-05-01T08:32:38.000Z</time>
      </trkpt>
      <trkpt lat="49.37704" lon="1.82295">
        <ele>193.88049316406</ele>
        <time>2017-05-01T08:32:41.000Z</time>
      </trkpt>
      <trkpt lat="49.37706" lon="1.82293">
        <ele>193.91828918457</ele>
        <time>2017-05-01T08:32:44.000Z</time>
      </trkpt>
      <trkpt lat="49.37711" lon="1.82291">
        <ele>193.96279907227</ele>
        <time>2017-05-01T08:32:50.000Z</time>
      </trkpt>
      <trkpt lat="49.37715" lon="1.82287">
        <ele>193.99613952637</ele>
        <time>2017-05-01T08:32:53.000Z</time>
      </trkpt>
      <trkpt lat="49.37719" lon="1.82279">
        <ele>194.01429748535</ele>
        <time>2017-05-01T08:32:56.000Z</time>
      </trkpt>
      <trkpt lat="49.37722" lon="1.82273">
        <ele>194.02397155762</ele>
        <time>2017-05-01T08:32:58.000Z</time>
      </trkpt>
      <trkpt lat="49.37728" lon="1.82264">
        <ele>194.01100158691</ele>
        <time>2017-05-01T08:33:01.000Z</time>
      </trkpt>
      <trkpt lat="49.37733" lon="1.82256">
        <ele>193.9515838623</ele>
        <time>2017-05-01T08:33:03.000Z</time>
      </trkpt>
      <trkpt lat="49.37737" lon="1.82248">
        <ele>193.8532409668</ele>
        <time>2017-05-01T08:33:05.000Z</time>
      </trkpt>
      <trkpt lat="49.37743" lon="1.82237">
        <ele>193.72236633301</ele>
        <time>2017-05-01T08:33:08.000Z</time>
      </trkpt>
      <trkpt lat="49.37752" lon="1.82222">
        <ele>193.52366638184</ele>
        <time>2017-05-01T08:33:11.000Z</time>
      </trkpt>
      <trkpt lat="49.37758" lon="1.82213">
        <ele>193.27565002441</ele>
        <time>2017-05-01T08:33:13.000Z</time>
      </trkpt>
      <trkpt lat="49.37762" lon="1.82206">
        <ele>193.00424194336</ele>
        <time>2017-05-01T08:33:15.000Z</time>
      </trkpt>
      <trkpt lat="49.37768" lon="1.82193">
        <ele>192.70300292969</ele>
        <time>2017-05-01T08:33:18.000Z</time>
      </trkpt>
      <trkpt lat="49.37775" lon="1.82183">
        <ele>192.42485046387</ele>
        <time>2017-05-01T08:33:20.000Z</time>
      </trkpt>
      <trkpt lat="49.37783" lon="1.82173">
        <ele>192.20889282227</ele>
        <time>2017-05-01T08:33:23.000Z</time>
      </trkpt>
      <trkpt lat="49.37791" lon="1.82161">
        <ele>192.06098937988</ele>
        <time>2017-05-01T08:33:26.000Z</time>
      </trkpt>
      <trkpt lat="49.37799" lon="1.82146">
        <ele>191.9633026123</ele>
        <time>2017-05-01T08:33:29.000Z</time>
      </trkpt>
      <trkpt lat="49.37806" lon="1.82137">
        <ele>191.94030761719</ele>
        <time>2017-05-01T08:33:31.000Z</time>
      </trkpt>
      <trkpt lat="49.37816" lon="1.82123">
        <ele>191.96069335938</ele>
        <time>2017-05-01T08:33:34.000Z</time>
      </trkpt>
      <trkpt lat="49.37822" lon="1.82114">
        <ele>192.00061035156</ele>
        <time>2017-05-01T08:33:36.000Z</time>
      </trkpt>
      <trkpt lat="49.37827" lon="1.82106">
        <ele>192.04315185547</ele>
        <time>2017-05-01T08:33:38.000Z</time>
      </trkpt>
      <trkpt lat="49.37835" lon="1.82096">
        <ele>192.09391784668</ele>
        <time>2017-05-01T08:33:41.000Z</time>
      </trkpt>
      <trkpt lat="49.37843" lon="1.82084">
        <ele>192.1701965332</ele>
        <time>2017-05-01T08:33:44.000Z</time>
      </trkpt>
      <trkpt lat="49.37849" lon="1.82076">
        <ele>192.24111938477</ele>
        <time>2017-05-01T08:33:46.000Z</time>
      </trkpt>
      <trkpt lat="49.37859" lon="1.82059">
        <ele>192.3283996582</ele>
        <time>2017-05-01T08:33:49.000Z</time>
      </trkpt>
      <trkpt lat="49.37867" lon="1.82049">
        <ele>192.44482421875</ele>
        <time>2017-05-01T08:33:51.000Z</time>
      </trkpt>
      <trkpt lat="49.37875" lon="1.82037">
        <ele>192.59732055664</ele>
        <time>2017-05-01T08:33:54.000Z</time>
      </trkpt>
      <trkpt lat="49.37879" lon="1.8203">
        <ele>192.73864746094</ele>
        <time>2017-05-01T08:33:56.000Z</time>
      </trkpt>
      <trkpt lat="49.37884" lon="1.82024">
        <ele>192.90473937988</ele>
        <time>2017-05-01T08:33:58.000Z</time>
      </trkpt>
      <trkpt lat="49.37891" lon="1.82014">
        <ele>193.10604858398</ele>
        <time>2017-05-01T08:34:01.000Z</time>
      </trkpt>
      <trkpt lat="49.37896" lon="1.82008">
        <ele>193.3219909668</ele>
        <time>2017-05-01T08:34:03.000Z</time>
      </trkpt>
      <trkpt lat="49.37906" lon="1.81998">
        <ele>193.5798034668</ele>
        <time>2017-05-01T08:34:06.000Z</time>
      </trkpt>
      <trkpt lat="49.37914" lon="1.81986">
        <ele>193.76449584961</ele>
        <time>2017-05-01T08:34:09.000Z</time>
      </trkpt>
      <trkpt lat="49.37919" lon="1.81979">
        <ele>193.84516906738</ele>
        <time>2017-05-01T08:34:11.000Z</time>
      </trkpt>
      <trkpt lat="49.37923" lon="1.81971">
        <ele>193.74966430664</ele>
        <time>2017-05-01T08:34:13.000Z</time>
      </trkpt>
      <trkpt lat="49.37927" lon="1.81964">
        <ele>193.49494934082</ele>
        <time>2017-05-01T08:34:15.000Z</time>
      </trkpt>
      <trkpt lat="49.37934" lon="1.81955">
        <ele>192.974609375</ele>
        <time>2017-05-01T08:34:18.000Z</time>
      </trkpt>
      <trkpt lat="49.37939" lon="1.81946">
        <ele>192.34469604492</ele>
        <time>2017-05-01T08:34:21.000Z</time>
      </trkpt>
      <trkpt lat="49.37941" lon="1.81939">
        <ele>191.6838684082</ele>
        <time>2017-05-01T08:34:23.000Z</time>
      </trkpt>
      <trkpt lat="49.37942" lon="1.81937">
        <ele>191.10787963867</ele>
        <time>2017-05-01T08:34:25.000Z</time>
      </trkpt>
      <trkpt lat="49.37942" lon="1.81937">
        <ele>191.10787963867</ele>
        <time>2017-05-01T08:34:45.000Z</time>
      </trkpt>
      <trkpt lat="49.37942" lon="1.81934">
        <ele>190.60406494141</ele>
        <time>2017-05-01T08:34:54.000Z</time>
      </trkpt>
      <trkpt lat="49.37943" lon="1.81934">
        <ele>190.25566101074</ele>
        <time>2017-05-01T08:34:58.000Z</time>
      </trkpt>
      <trkpt lat="49.37944" lon="1.81932">
        <ele>190.0386505127</ele>
        <time>2017-05-01T08:35:02.000Z</time>
      </trkpt>
      <trkpt lat="49.37944" lon="1.81931">
        <ele>189.89343261719</ele>
        <time>2017-05-01T08:35:09.000Z</time>
      </trkpt>
      <trkpt lat="49.37942" lon="1.81932">
        <ele>189.81935119629</ele>
        <time>2017-05-01T08:35:12.000Z</time>
      </trkpt>
      <trkpt lat="49.37939" lon="1.81934">
        <ele>189.83688354492</ele>
        <time>2017-05-01T08:35:14.000Z</time>
      </trkpt>
      <trkpt lat="49.37939" lon="1.81937">
        <ele>189.92002868652</ele>
        <time>2017-05-01T08:35:17.000Z</time>
      </trkpt>
      <trkpt lat="49.37942" lon="1.81937">
        <ele>190.00039672852</ele>
        <time>2017-05-01T08:35:20.000Z</time>
      </trkpt>
      <trkpt lat="49.37947" lon="1.81942">
        <ele>190.13301086426</ele>
        <time>2017-05-01T08:35:23.000Z</time>
      </trkpt>
      <trkpt lat="49.37951" lon="1.81945">
        <ele>190.23318481445</ele>
        <time>2017-05-01T08:35:25.000Z</time>
      </trkpt>
      <trkpt lat="49.37959" lon="1.81951">
        <ele>190.31294250488</ele>
        <time>2017-05-01T08:35:28.000Z</time>
      </trkpt>
      <trkpt lat="49.37964" lon="1.81954">
        <ele>190.34666442871</ele>
        <time>2017-05-01T08:35:30.000Z</time>
      </trkpt>
      <trkpt lat="49.37972" lon="1.81957">
        <ele>190.39413452148</ele>
        <time>2017-05-01T08:35:33.000Z</time>
      </trkpt>
      <trkpt lat="49.37976" lon="1.81958">
        <ele>190.4022064209</ele>
        <time>2017-05-01T08:35:35.000Z</time>
      </trkpt>
      <trkpt lat="49.3798" lon="1.81959">
        <ele>190.3888092041</ele>
        <time>2017-05-01T08:35:37.000Z</time>
      </trkpt>
      <trkpt lat="49.37984" lon="1.81959">
        <ele>190.32524108887</ele>
        <time>2017-05-01T08:35:39.000Z</time>
      </trkpt>
      <trkpt lat="49.37986" lon="1.81959">
        <ele>190.24545288086</ele>
        <time>2017-05-01T08:35:41.000Z</time>
      </trkpt>
      <trkpt lat="49.37991" lon="1.81959">
        <ele>190.13552856445</ele>
        <time>2017-05-01T08:35:44.000Z</time>
      </trkpt>
      <trkpt lat="49.37997" lon="1.81961">
        <ele>190.03823852539</ele>
        <time>2017-05-01T08:35:47.000Z</time>
      </trkpt>
      <trkpt lat="49.38" lon="1.81962">
        <ele>189.95352172852</ele>
        <time>2017-05-01T08:35:49.000Z</time>
      </trkpt>
      <trkpt lat="49.38005" lon="1.81965">
        <ele>189.88110351562</ele>
        <time>2017-05-01T08:35:51.000Z</time>
      </trkpt>
      <trkpt lat="49.38012" lon="1.81969">
        <ele>189.82455444336</ele>
        <time>2017-05-01T08:35:54.000Z</time>
      </trkpt>
      <trkpt lat="49.38016" lon="1.81972">
        <ele>189.82334899902</ele>
        <time>2017-05-01T08:35:56.000Z</time>
      </trkpt>
      <trkpt lat="49.38021" lon="1.81976">
        <ele>189.82496643066</ele>
        <time>2017-05-01T08:35:58.000Z</time>
      </trkpt>
      <trkpt lat="49.38026" lon="1.8198">
        <ele>189.81430053711</ele>
        <time>2017-05-01T08:36:01.000Z</time>
      </trkpt>
      <trkpt lat="49.38029" lon="1.8198">
        <ele>189.78636169434</ele>
        <time>2017-05-01T08:36:03.000Z</time>
      </trkpt>
      <trkpt lat="49.38035" lon="1.81981">
        <ele>189.69250488281</ele>
        <time>2017-05-01T08:36:06.000Z</time>
      </trkpt>
      <trkpt lat="49.38039" lon="1.81982">
        <ele>189.55996704102</ele>
        <time>2017-05-01T08:36:08.000Z</time>
      </trkpt>
      <trkpt lat="49.38044" lon="1.81985">
        <ele>189.39886474609</ele>
        <time>2017-05-01T08:36:10.000Z</time>
      </trkpt>
      <trkpt lat="49.38049" lon="1.81988">
        <ele>189.21984863281</ele>
        <time>2017-05-01T08:36:12.000Z</time>
      </trkpt>
      <trkpt lat="49.38054" lon="1.81991">
        <ele>189.03071594238</ele>
        <time>2017-05-01T08:36:14.000Z</time>
      </trkpt>
      <trkpt lat="49.38059" lon="1.81996">
        <ele>188.88554382324</ele>
        <time>2017-05-01T08:36:17.000Z</time>
      </trkpt>
      <trkpt lat="49.38064" lon="1.82001">
        <ele>188.73153686523</ele>
        <time>2017-05-01T08:36:20.000Z</time>
      </trkpt>
      <trkpt lat="49.3807" lon="1.82008">
        <ele>188.5846862793</ele>
        <time>2017-05-01T08:36:23.000Z</time>
      </trkpt>
      <trkpt lat="49.38075" lon="1.82011">
        <ele>188.42849731445</ele>
        <time>2017-05-01T08:36:25.000Z</time>
      </trkpt>
      <trkpt lat="49.38081" lon="1.82015">
        <ele>188.26513671875</ele>
        <time>2017-05-01T08:36:28.000Z</time>
      </trkpt>
      <trkpt lat="49.38086" lon="1.82022">
        <ele>188.13284301758</ele>
        <time>2017-05-01T08:36:31.000Z</time>
      </trkpt>
      <trkpt lat="49.38089" lon="1.82026">
        <ele>188.05783081055</ele>
        <time>2017-05-01T08:36:34.000Z</time>
      </trkpt>
      <trkpt lat="49.3809" lon="1.82029">
        <ele>188.02380371094</ele>
        <time>2017-05-01T08:36:36.000Z</time>
      </trkpt>
      <trkpt lat="49.38095" lon="1.82028">
        <ele>187.97782897949</ele>
        <time>2017-05-01T08:36:39.000Z</time>
      </trkpt>
      <trkpt lat="49.38099" lon="1.82022">
        <ele>187.90216064453</ele>
        <time>2017-05-01T08:36:42.000Z</time>
      </trkpt>
      <trkpt lat="49.38104" lon="1.82018">
        <ele>187.74543762207</ele>
        <time>2017-05-01T08:36:45.000Z</time>
      </trkpt>
      <trkpt lat="49.38107" lon="1.82015">
        <ele>187.52731323242</ele>
        <time>2017-05-01T08:36:47.000Z</time>
      </trkpt>
      <trkpt lat="49.38112" lon="1.8201">
        <ele>187.22129821777</ele>
        <time>2017-05-01T08:36:50.000Z</time>
      </trkpt>
      <trkpt lat="49.38119" lon="1.82001">
        <ele>186.88575744629</ele>
        <time>2017-05-01T08:36:53.000Z</time>
      </trkpt>
      <trkpt lat="49.38126" lon="1.81991">
        <ele>186.55767822266</ele>
        <time>2017-05-01T08:36:56.000Z</time>
      </trkpt>
      <trkpt lat="49.38133" lon="1.8198">
        <ele>186.24726867676</ele>
        <time>2017-05-01T08:36:59.000Z</time>
      </trkpt>
      <trkpt lat="49.38139" lon="1.81971">
        <ele>185.94523620605</ele>
        <time>2017-05-01T08:37:01.000Z</time>
      </trkpt>
      <trkpt lat="49.38147" lon="1.81959">
        <ele>185.67120361328</ele>
        <time>2017-05-01T08:37:04.000Z</time>
      </trkpt>
      <trkpt lat="49.38152" lon="1.81953">
        <ele>185.46472167969</ele>
        <time>2017-05-01T08:37:06.000Z</time>
      </trkpt>
      <trkpt lat="49.3816" lon="1.81942">
        <ele>185.30039978027</ele>
        <time>2017-05-01T08:37:09.000Z</time>
      </trkpt>
      <trkpt lat="49.38164" lon="1.81936">
        <ele>185.1815032959</ele>
        <time>2017-05-01T08:37:11.000Z</time>
      </trkpt>
      <trkpt lat="49.38171" lon="1.81927">
        <ele>185.0832824707</ele>
        <time>2017-05-01T08:37:14.000Z</time>
      </trkpt>
      <trkpt lat="49.38179" lon="1.81917">
        <ele>185.00578308105</ele>
        <time>2017-05-01T08:37:17.000Z</time>
      </trkpt>
      <trkpt lat="49.38184" lon="1.81909">
        <ele>184.92395019531</ele>
        <time>2017-05-01T08:37:19.000Z</time>
      </trkpt>
      <trkpt lat="49.38191" lon="1.81898">
        <ele>184.83618164062</ele>
        <time>2017-05-01T08:37:22.000Z</time>
      </trkpt>
      <trkpt lat="49.38197" lon="1.8189">
        <ele>184.74337768555</ele>
        <time>2017-05-01T08:37:24.000Z</time>
      </trkpt>
      <trkpt lat="49.38202" lon="1.81883">
        <ele>184.65548706055</ele>
        <time>2017-05-01T08:37:26.000Z</time>
      </trkpt>
      <trkpt lat="49.3821" lon="1.8187">
        <ele>184.58499145508</ele>
        <time>2017-05-01T08:37:29.000Z</time>
      </trkpt>
      <trkpt lat="49.38218" lon="1.81858">
        <ele>184.54602050781</ele>
        <time>2017-05-01T08:37:32.000Z</time>
      </trkpt>
      <trkpt lat="49.38224" lon="1.8185">
        <ele>184.54531860352</ele>
        <time>2017-05-01T08:37:34.000Z</time>
      </trkpt>
      <trkpt lat="49.38229" lon="1.81841">
        <ele>184.57543945312</ele>
        <time>2017-05-01T08:37:36.000Z</time>
      </trkpt>
      <trkpt lat="49.38237" lon="1.81831">
        <ele>184.63345336914</ele>
        <time>2017-05-01T08:37:39.000Z</time>
      </trkpt>
      <trkpt lat="49.38243" lon="1.81826">
        <ele>184.69636535645</ele>
        <time>2017-05-01T08:37:41.000Z</time>
      </trkpt>
      <trkpt lat="49.38249" lon="1.81826">
        <ele>184.76518249512</ele>
        <time>2017-05-01T08:37:44.000Z</time>
      </trkpt>
      <trkpt lat="49.3825" lon="1.81827">
        <ele>184.82606506348</ele>
        <time>2017-05-01T08:37:53.000Z</time>
      </trkpt>
      <trkpt lat="49.3825" lon="1.81827">
        <ele>184.82606506348</ele>
        <time>2017-05-01T08:38:13.000Z</time>
      </trkpt>
      <trkpt lat="49.38249" lon="1.81828">
        <ele>184.87094116211</ele>
        <time>2017-05-01T08:38:33.000Z</time>
      </trkpt>
      <trkpt lat="49.3825" lon="1.81829">
        <ele>184.89878845215</ele>
        <time>2017-05-01T08:38:36.000Z</time>
      </trkpt>
      <trkpt lat="49.3825" lon="1.81827">
        <ele>184.92155456543</ele>
        <time>2017-05-01T08:38:38.000Z</time>
      </trkpt>
      <trkpt lat="49.38251" lon="1.81826">
        <ele>184.92642211914</ele>
        <time>2017-05-01T08:38:41.000Z</time>
      </trkpt>
      <trkpt lat="49.3825" lon="1.81826">
        <ele>184.92584228516</ele>
        <time>2017-05-01T08:38:47.000Z</time>
      </trkpt>
      <trkpt lat="49.38251" lon="1.81825">
        <ele>184.92163085938</ele>
        <time>2017-05-01T08:38:55.000Z</time>
      </trkpt>
      <trkpt lat="49.38256" lon="1.81819">
        <ele>184.90844726562</ele>
        <time>2017-05-01T08:38:58.000Z</time>
      </trkpt>
      <trkpt lat="49.38258" lon="1.81813">
        <ele>184.89297485352</ele>
        <time>2017-05-01T08:39:00.000Z</time>
      </trkpt>
      <trkpt lat="49.3826" lon="1.81799">
        <ele>184.86723327637</ele>
        <time>2017-05-01T08:39:03.000Z</time>
      </trkpt>
      <trkpt lat="49.38261" lon="1.81792">
        <ele>184.83924865723</ele>
        <time>2017-05-01T08:39:05.000Z</time>
      </trkpt>
      <trkpt lat="49.38266" lon="1.81784">
        <ele>184.82968139648</ele>
        <time>2017-05-01T08:39:08.000Z</time>
      </trkpt>
      <trkpt lat="49.38271" lon="1.81779">
        <ele>184.85554504395</ele>
        <time>2017-05-01T08:39:10.000Z</time>
      </trkpt>
      <trkpt lat="49.38281" lon="1.81771">
        <ele>184.95741271973</ele>
        <time>2017-05-01T08:39:13.000Z</time>
      </trkpt>
      <trkpt lat="49.38287" lon="1.81763">
        <ele>185.13366699219</ele>
        <time>2017-05-01T08:39:15.000Z</time>
      </trkpt>
      <trkpt lat="49.38296" lon="1.81754">
        <ele>185.40942382812</ele>
        <time>2017-05-01T08:39:18.000Z</time>
      </trkpt>
      <trkpt lat="49.38299" lon="1.81749">
        <ele>185.70761108398</ele>
        <time>2017-05-01T08:39:20.000Z</time>
      </trkpt>
      <trkpt lat="49.38305" lon="1.8174">
        <ele>186.04914855957</ele>
        <time>2017-05-01T08:39:23.000Z</time>
      </trkpt>
      <trkpt lat="49.38307" lon="1.81732">
        <ele>186.35591125488</ele>
        <time>2017-05-01T08:39:25.000Z</time>
      </trkpt>
      <trkpt lat="49.38308" lon="1.81723">
        <ele>186.62414550781</ele>
        <time>2017-05-01T08:39:28.000Z</time>
      </trkpt>
      <trkpt lat="49.38308" lon="1.81717">
        <ele>186.80651855469</ele>
        <time>2017-05-01T08:39:31.000Z</time>
      </trkpt>
      <trkpt lat="49.38309" lon="1.81711">
        <ele>186.96852111816</ele>
        <time>2017-05-01T08:39:34.000Z</time>
      </trkpt>
      <trkpt lat="49.38311" lon="1.81707">
        <ele>187.08628845215</ele>
        <time>2017-05-01T08:39:36.000Z</time>
      </trkpt>
      <trkpt lat="49.38314" lon="1.81699">
        <ele>187.21841430664</ele>
        <time>2017-05-01T08:39:39.000Z</time>
      </trkpt>
      <trkpt lat="49.38317" lon="1.81689">
        <ele>187.37380981445</ele>
        <time>2017-05-01T08:39:42.000Z</time>
      </trkpt>
      <trkpt lat="49.38319" lon="1.81682">
        <ele>187.56425476074</ele>
        <time>2017-05-01T08:39:44.000Z</time>
      </trkpt>
      <trkpt lat="49.38324" lon="1.81669">
        <ele>187.80978393555</ele>
        <time>2017-05-01T08:39:47.000Z</time>
      </trkpt>
      <trkpt lat="49.38327" lon="1.81661">
        <ele>188.08660888672</ele>
        <time>2017-05-01T08:39:49.000Z</time>
      </trkpt>
      <trkpt lat="49.38334" lon="1.8165">
        <ele>188.41470336914</ele>
        <time>2017-05-01T08:39:52.000Z</time>
      </trkpt>
      <trkpt lat="49.38339" lon="1.8164">
        <ele>188.72610473633</ele>
        <time>2017-05-01T08:39:55.000Z</time>
      </trkpt>
      <trkpt lat="49.38341" lon="1.81634">
        <ele>189.00473022461</ele>
        <time>2017-05-01T08:39:57.000Z</time>
      </trkpt>
      <trkpt lat="49.38345" lon="1.81624">
        <ele>189.22875976562</ele>
        <time>2017-05-01T08:40:00.000Z</time>
      </trkpt>
      <trkpt lat="49.38346" lon="1.81618">
        <ele>189.40205383301</ele>
        <time>2017-05-01T08:40:02.000Z</time>
      </trkpt>
      <trkpt lat="49.3835" lon="1.8161">
        <ele>189.48486328125</ele>
        <time>2017-05-01T08:40:05.000Z</time>
      </trkpt>
      <trkpt lat="49.38353" lon="1.81604">
        <ele>189.54336547852</ele>
        <time>2017-05-01T08:40:07.000Z</time>
      </trkpt>
      <trkpt lat="49.38357" lon="1.81595">
        <ele>189.59274291992</ele>
        <time>2017-05-01T08:40:10.000Z</time>
      </trkpt>
      <trkpt lat="49.38361" lon="1.81586">
        <ele>189.62385559082</ele>
        <time>2017-05-01T08:40:12.000Z</time>
      </trkpt>
      <trkpt lat="49.38364" lon="1.81573">
        <ele>189.62185668945</ele>
        <time>2017-05-01T08:40:15.000Z</time>
      </trkpt>
      <trkpt lat="49.38367" lon="1.81564">
        <ele>189.58134460449</ele>
        <time>2017-05-01T08:40:17.000Z</time>
      </trkpt>
      <trkpt lat="49.38374" lon="1.81551">
        <ele>189.48132324219</ele>
        <time>2017-05-01T08:40:20.000Z</time>
      </trkpt>
      <trkpt lat="49.38377" lon="1.81537">
        <ele>189.32958984375</ele>
        <time>2017-05-01T08:40:23.000Z</time>
      </trkpt>
      <trkpt lat="49.3838" lon="1.81527">
        <ele>189.13575744629</ele>
        <time>2017-05-01T08:40:25.000Z</time>
      </trkpt>
      <trkpt lat="49.38383" lon="1.81518">
        <ele>188.91806030273</ele>
        <time>2017-05-01T08:40:27.000Z</time>
      </trkpt>
      <trkpt lat="49.38391" lon="1.81502">
        <ele>188.62590026855</ele>
        <time>2017-05-01T08:40:30.000Z</time>
      </trkpt>
      <trkpt lat="49.38398" lon="1.8149">
        <ele>188.29664611816</ele>
        <time>2017-05-01T08:40:32.000Z</time>
      </trkpt>
      <trkpt lat="49.38406" lon="1.81475">
        <ele>187.91436767578</ele>
        <time>2017-05-01T08:40:34.000Z</time>
      </trkpt>
      <trkpt lat="49.38416" lon="1.81456">
        <ele>187.47311401367</ele>
        <time>2017-05-01T08:40:37.000Z</time>
      </trkpt>
      <trkpt lat="49.38422" lon="1.81444">
        <ele>187.07559204102</ele>
        <time>2017-05-01T08:40:39.000Z</time>
      </trkpt>
      <trkpt lat="49.3843" lon="1.81435">
        <ele>186.82406616211</ele>
        <time>2017-05-01T08:40:41.000Z</time>
      </trkpt>
      <trkpt lat="49.38437" lon="1.81427">
        <ele>186.71293640137</ele>
        <time>2017-05-01T08:40:44.000Z</time>
      </trkpt>
      <trkpt lat="49.38441" lon="1.81423">
        <ele>186.74087524414</ele>
        <time>2017-05-01T08:40:46.000Z</time>
      </trkpt>
      <trkpt lat="49.38447" lon="1.81413">
        <ele>186.93516540527</ele>
        <time>2017-05-01T08:40:49.000Z</time>
      </trkpt>
      <trkpt lat="49.3845" lon="1.81404">
        <ele>187.15209960938</ele>
        <time>2017-05-01T08:40:51.000Z</time>
      </trkpt>
      <trkpt lat="49.38456" lon="1.8139">
        <ele>187.38600158691</ele>
        <time>2017-05-01T08:40:54.000Z</time>
      </trkpt>
      <trkpt lat="49.38461" lon="1.81375">
        <ele>187.63206481934</ele>
        <time>2017-05-01T08:40:57.000Z</time>
      </trkpt>
      <trkpt lat="49.38465" lon="1.81364">
        <ele>187.88845825195</ele>
        <time>2017-05-01T08:40:59.000Z</time>
      </trkpt>
      <trkpt lat="49.38468" lon="1.81354">
        <ele>188.11947631836</ele>
        <time>2017-05-01T08:41:01.000Z</time>
      </trkpt>
      <trkpt lat="49.38475" lon="1.81341">
        <ele>188.44094848633</ele>
        <time>2017-05-01T08:41:04.000Z</time>
      </trkpt>
      <trkpt lat="49.38479" lon="1.81331">
        <ele>188.77420043945</ele>
        <time>2017-05-01T08:41:06.000Z</time>
      </trkpt>
      <trkpt lat="49.38482" lon="1.81321">
        <ele>189.09190368652</ele>
        <time>2017-05-01T08:41:08.000Z</time>
      </trkpt>
      <trkpt lat="49.38486" lon="1.81305">
        <ele>189.41389465332</ele>
        <time>2017-05-01T08:41:11.000Z</time>
      </trkpt>
      <trkpt lat="49.38493" lon="1.81285">
        <ele>189.8035736084</ele>
        <time>2017-05-01T08:41:14.000Z</time>
      </trkpt>
      <trkpt lat="49.385" lon="1.81273">
        <ele>190.17147827148</ele>
        <time>2017-05-01T08:41:16.000Z</time>
      </trkpt>
      <trkpt lat="49.38509" lon="1.81258">
        <ele>190.4686126709</ele>
        <time>2017-05-01T08:41:19.000Z</time>
      </trkpt>
      <trkpt lat="49.38515" lon="1.81248">
        <ele>190.70483398438</ele>
        <time>2017-05-01T08:41:21.000Z</time>
      </trkpt>
      <trkpt lat="49.38523" lon="1.81233">
        <ele>190.76745605469</ele>
        <time>2017-05-01T08:41:24.000Z</time>
      </trkpt>
      <trkpt lat="49.38527" lon="1.81223">
        <ele>190.64042663574</ele>
        <time>2017-05-01T08:41:26.000Z</time>
      </trkpt>
      <trkpt lat="49.38536" lon="1.81206">
        <ele>190.27816772461</ele>
        <time>2017-05-01T08:41:29.000Z</time>
      </trkpt>
      <trkpt lat="49.38545" lon="1.81188">
        <ele>189.74771118164</ele>
        <time>2017-05-01T08:41:32.000Z</time>
      </trkpt>
      <trkpt lat="49.38557" lon="1.81168">
        <ele>189.0393371582</ele>
        <time>2017-05-01T08:41:35.000Z</time>
      </trkpt>
      <trkpt lat="49.38575" lon="1.8115">
        <ele>188.23767089844</ele>
        <time>2017-05-01T08:41:38.000Z</time>
      </trkpt>
      <trkpt lat="49.38585" lon="1.81147">
        <ele>187.45468139648</ele>
        <time>2017-05-01T08:41:41.000Z</time>
      </trkpt>
      <trkpt lat="49.38626" lon="1.81155">
        <ele>186.56285095215</ele>
        <time>2017-05-01T08:41:46.000Z</time>
      </trkpt>
      <trkpt lat="49.38643" lon="1.81146">
        <ele>185.69500732422</ele>
        <time>2017-05-01T08:41:48.000Z</time>
      </trkpt>
      <trkpt lat="49.38644" lon="1.81136">
        <ele>185.00637817383</ele>
        <time>2017-05-01T08:41:51.000Z</time>
      </trkpt>
      <trkpt lat="49.38644" lon="1.81118">
        <ele>184.51737976074</ele>
        <time>2017-05-01T08:41:54.000Z</time>
      </trkpt>
      <trkpt lat="49.38643" lon="1.81108">
        <ele>184.08364868164</ele>
        <time>2017-05-01T08:41:56.000Z</time>
      </trkpt>
      <trkpt lat="49.38641" lon="1.81101">
        <ele>183.89924621582</ele>
        <time>2017-05-01T08:41:59.000Z</time>
      </trkpt>
      <trkpt lat="49.38639" lon="1.81093">
        <ele>183.84487915039</ele>
        <time>2017-05-01T08:42:02.000Z</time>
      </trkpt>
      <trkpt lat="49.38639" lon="1.81087">
        <ele>183.79373168945</ele>
        <time>2017-05-01T08:42:04.000Z</time>
      </trkpt>
      <trkpt lat="49.38638" lon="1.8108">
        <ele>183.76277160645</ele>
        <time>2017-05-01T08:42:06.000Z</time>
      </trkpt>
      <trkpt lat="49.38638" lon="1.81073">
        <ele>183.76403808594</ele>
        <time>2017-05-01T08:42:08.000Z</time>
      </trkpt>
      <trkpt lat="49.38636" lon="1.81064">
        <ele>183.79289245605</ele>
        <time>2017-05-01T08:42:11.000Z</time>
      </trkpt>
      <trkpt lat="49.38634" lon="1.81053">
        <ele>183.85990905762</ele>
        <time>2017-05-01T08:42:14.000Z</time>
      </trkpt>
      <trkpt lat="49.38634" lon="1.81044">
        <ele>183.9616394043</ele>
        <time>2017-05-01T08:42:17.000Z</time>
      </trkpt>
      <trkpt lat="49.38634" lon="1.81035">
        <ele>184.08596801758</ele>
        <time>2017-05-01T08:42:20.000Z</time>
      </trkpt>
      <trkpt lat="49.38634" lon="1.81031">
        <ele>184.19657897949</ele>
        <time>2017-05-01T08:42:22.000Z</time>
      </trkpt>
      <trkpt lat="49.38634" lon="1.81024">
        <ele>184.31278991699</ele>
        <time>2017-05-01T08:42:25.000Z</time>
      </trkpt>
      <trkpt lat="49.38635" lon="1.81016">
        <ele>184.43510437012</ele>
        <time>2017-05-01T08:42:28.000Z</time>
      </trkpt>
      <trkpt lat="49.38633" lon="1.81009">
        <ele>184.52603149414</ele>
        <time>2017-05-01T08:42:31.000Z</time>
      </trkpt>
      <trkpt lat="49.38633" lon="1.81004">
        <ele>184.58769226074</ele>
        <time>2017-05-01T08:42:33.000Z</time>
      </trkpt>
      <trkpt lat="49.38631" lon="1.80999">
        <ele>184.63973999023</ele>
        <time>2017-05-01T08:42:35.000Z</time>
      </trkpt>
      <trkpt lat="49.3863" lon="1.80991">
        <ele>184.69952392578</ele>
        <time>2017-05-01T08:42:38.000Z</time>
      </trkpt>
      <trkpt lat="49.3863" lon="1.80983">
        <ele>184.79666137695</ele>
        <time>2017-05-01T08:42:41.000Z</time>
      </trkpt>
      <trkpt lat="49.38631" lon="1.80976">
        <ele>184.97184753418</ele>
        <time>2017-05-01T08:42:44.000Z</time>
      </trkpt>
      <trkpt lat="49.38631" lon="1.8097">
        <ele>185.21530151367</ele>
        <time>2017-05-01T08:42:47.000Z</time>
      </trkpt>
      <trkpt lat="49.38632" lon="1.80965">
        <ele>185.50309753418</ele>
        <time>2017-05-01T08:42:49.000Z</time>
      </trkpt>
      <trkpt lat="49.38634" lon="1.80959">
        <ele>185.83329772949</ele>
        <time>2017-05-01T08:42:51.000Z</time>
      </trkpt>
      <trkpt lat="49.38636" lon="1.80951">
        <ele>186.21524047852</ele>
        <time>2017-05-01T08:42:54.000Z</time>
      </trkpt>
      <trkpt lat="49.38639" lon="1.80945">
        <ele>186.6104888916</ele>
        <time>2017-05-01T08:42:56.000Z</time>
      </trkpt>
      <trkpt lat="49.38643" lon="1.80936">
        <ele>187.09602355957</ele>
        <time>2017-05-01T08:42:59.000Z</time>
      </trkpt>
      <trkpt lat="49.38647" lon="1.80928">
        <ele>187.66207885742</ele>
        <time>2017-05-01T08:43:02.000Z</time>
      </trkpt>
      <trkpt lat="49.3865" lon="1.80923">
        <ele>188.23991394043</ele>
        <time>2017-05-01T08:43:04.000Z</time>
      </trkpt>
      <trkpt lat="49.38655" lon="1.80914">
        <ele>188.83883666992</ele>
        <time>2017-05-01T08:43:07.000Z</time>
      </trkpt>
      <trkpt lat="49.38657" lon="1.80907">
        <ele>189.4084777832</ele>
        <time>2017-05-01T08:43:09.000Z</time>
      </trkpt>
      <trkpt lat="49.38661" lon="1.80899">
        <ele>189.9020690918</ele>
        <time>2017-05-01T08:43:12.000Z</time>
      </trkpt>
      <trkpt lat="49.38664" lon="1.80893">
        <ele>190.32858276367</ele>
        <time>2017-05-01T08:43:14.000Z</time>
      </trkpt>
      <trkpt lat="49.38666" lon="1.80887">
        <ele>190.71321105957</ele>
        <time>2017-05-01T08:43:16.000Z</time>
      </trkpt>
      <trkpt lat="49.38668" lon="1.80877">
        <ele>190.99743652344</ele>
        <time>2017-05-01T08:43:19.000Z</time>
      </trkpt>
      <trkpt lat="49.38671" lon="1.80868">
        <ele>191.26284790039</ele>
        <time>2017-05-01T08:43:22.000Z</time>
      </trkpt>
      <trkpt lat="49.38675" lon="1.80858">
        <ele>191.48239135742</ele>
        <time>2017-05-01T08:43:25.000Z</time>
      </trkpt>
      <trkpt lat="49.38678" lon="1.80853">
        <ele>191.66215515137</ele>
        <time>2017-05-01T08:43:27.000Z</time>
      </trkpt>
      <trkpt lat="49.38681" lon="1.80845">
        <ele>191.81840515137</ele>
        <time>2017-05-01T08:43:30.000Z</time>
      </trkpt>
      <trkpt lat="49.38682" lon="1.8084">
        <ele>191.94477844238</ele>
        <time>2017-05-01T08:43:32.000Z</time>
      </trkpt>
      <trkpt lat="49.38685" lon="1.80831">
        <ele>192.03355407715</ele>
        <time>2017-05-01T08:43:35.000Z</time>
      </trkpt>
      <trkpt lat="49.3869" lon="1.80824">
        <ele>192.0302734375</ele>
        <time>2017-05-01T08:43:38.000Z</time>
      </trkpt>
      <trkpt lat="49.38694" lon="1.80818">
        <ele>191.96936035156</ele>
        <time>2017-05-01T08:43:40.000Z</time>
      </trkpt>
      <trkpt lat="49.38696" lon="1.80813">
        <ele>191.84617614746</ele>
        <time>2017-05-01T08:43:42.000Z</time>
      </trkpt>
      <trkpt lat="49.38697" lon="1.80809">
        <ele>191.67944335938</ele>
        <time>2017-05-01T08:43:44.000Z</time>
      </trkpt>
      <trkpt lat="49.38697" lon="1.80806">
        <ele>191.48672485352</ele>
        <time>2017-05-01T08:43:47.000Z</time>
      </trkpt>
      <trkpt lat="49.38698" lon="1.80803">
        <ele>191.32890319824</ele>
        <time>2017-05-01T08:43:50.000Z</time>
      </trkpt>
      <trkpt lat="49.38699" lon="1.80801">
        <ele>191.20085144043</ele>
        <time>2017-05-01T08:43:52.000Z</time>
      </trkpt>
      <trkpt lat="49.387" lon="1.80796">
        <ele>191.06443786621</ele>
        <time>2017-05-01T08:43:58.000Z</time>
      </trkpt>
      <trkpt lat="49.38701" lon="1.80794">
        <ele>190.94705200195</ele>
        <time>2017-05-01T08:44:00.000Z</time>
      </trkpt>
      <trkpt lat="49.387" lon="1.80794">
        <ele>190.85232543945</ele>
        <time>2017-05-01T08:44:05.000Z</time>
      </trkpt>
      <trkpt lat="49.38698" lon="1.80794">
        <ele>190.77917480469</ele>
        <time>2017-05-01T08:44:08.000Z</time>
      </trkpt>
      <trkpt lat="49.38697" lon="1.80794">
        <ele>190.705078125</ele>
        <time>2017-05-01T08:44:13.000Z</time>
      </trkpt>
      <trkpt lat="49.38698" lon="1.80793">
        <ele>190.66946411133</ele>
        <time>2017-05-01T08:44:27.000Z</time>
      </trkpt>
      <trkpt lat="49.38699" lon="1.8079">
        <ele>190.63093566895</ele>
        <time>2017-05-01T08:44:29.000Z</time>
      </trkpt>
      <trkpt lat="49.38699" lon="1.80787">
        <ele>190.56809997559</ele>
        <time>2017-05-01T08:44:40.000Z</time>
      </trkpt>
      <trkpt lat="49.38699" lon="1.80783">
        <ele>190.47744750977</ele>
        <time>2017-05-01T08:44:43.000Z</time>
      </trkpt>
      <trkpt lat="49.38699" lon="1.80786">
        <ele>190.4118347168</ele>
        <time>2017-05-01T08:44:46.000Z</time>
      </trkpt>
      <trkpt lat="49.38699" lon="1.80787">
        <ele>190.37199401855</ele>
        <time>2017-05-01T08:44:49.000Z</time>
      </trkpt>
      <trkpt lat="49.38699" lon="1.80787">
        <ele>190.37199401855</ele>
        <time>2017-05-01T08:45:09.000Z</time>
      </trkpt>
      <trkpt lat="49.387" lon="1.80786">
        <ele>190.34150695801</ele>
        <time>2017-05-01T08:45:12.000Z</time>
      </trkpt>
      <trkpt lat="49.38703" lon="1.80782">
        <ele>190.31396484375</ele>
        <time>2017-05-01T08:45:14.000Z</time>
      </trkpt>
      <trkpt lat="49.38707" lon="1.80777">
        <ele>190.28298950195</ele>
        <time>2017-05-01T08:45:17.000Z</time>
      </trkpt>
      <trkpt lat="49.38709" lon="1.80771">
        <ele>190.20216369629</ele>
        <time>2017-05-01T08:45:19.000Z</time>
      </trkpt>
      <trkpt lat="49.38712" lon="1.80764">
        <ele>190.05403137207</ele>
        <time>2017-05-01T08:45:21.000Z</time>
      </trkpt>
      <trkpt lat="49.38722" lon="1.80751">
        <ele>189.85356140137</ele>
        <time>2017-05-01T08:45:24.000Z</time>
      </trkpt>
      <trkpt lat="49.38732" lon="1.80738">
        <ele>189.58535766602</ele>
        <time>2017-05-01T08:45:27.000Z</time>
      </trkpt>
      <trkpt lat="49.38736" lon="1.80734">
        <ele>189.32080078125</ele>
        <time>2017-05-01T08:45:30.000Z</time>
      </trkpt>
      <trkpt lat="49.38739" lon="1.80731">
        <ele>189.06393432617</ele>
        <time>2017-05-01T08:45:32.000Z</time>
      </trkpt>
      <trkpt lat="49.38744" lon="1.80722">
        <ele>188.77301025391</ele>
        <time>2017-05-01T08:45:35.000Z</time>
      </trkpt>
      <trkpt lat="49.38745" lon="1.80714">
        <ele>188.44859313965</ele>
        <time>2017-05-01T08:45:38.000Z</time>
      </trkpt>
      <trkpt lat="49.38748" lon="1.80701">
        <ele>188.07792663574</ele>
        <time>2017-05-01T08:45:41.000Z</time>
      </trkpt>
      <trkpt lat="49.38749" lon="1.80692">
        <ele>187.62744140625</ele>
        <time>2017-05-01T08:45:43.000Z</time>
      </trkpt>
      <trkpt lat="49.38751" lon="1.80684">
        <ele>187.12045288086</ele>
        <time>2017-05-01T08:45:45.000Z</time>
      </trkpt>
      <trkpt lat="49.38754" lon="1.80672">
        <ele>186.58427429199</ele>
        <time>2017-05-01T08:45:48.000Z</time>
      </trkpt>
      <trkpt lat="49.38754" lon="1.80656">
        <ele>186.10800170898</ele>
        <time>2017-05-01T08:45:51.000Z</time>
      </trkpt>
      <trkpt lat="49.38754" lon="1.80644">
        <ele>185.79444885254</ele>
        <time>2017-05-01T08:45:53.000Z</time>
      </trkpt>
      <trkpt lat="49.38753" lon="1.80627">
        <ele>185.61865234375</ele>
        <time>2017-05-01T08:45:56.000Z</time>
      </trkpt>
      <trkpt lat="49.38751" lon="1.80619">
        <ele>185.52267456055</ele>
        <time>2017-05-01T08:45:58.000Z</time>
      </trkpt>
      <trkpt lat="49.38747" lon="1.80607">
        <ele>185.5301361084</ele>
        <time>2017-05-01T08:46:01.000Z</time>
      </trkpt>
      <trkpt lat="49.38744" lon="1.80601">
        <ele>185.5542755127</ele>
        <time>2017-05-01T08:46:03.000Z</time>
      </trkpt>
      <trkpt lat="49.38739" lon="1.80592">
        <ele>185.51248168945</ele>
        <time>2017-05-01T08:46:06.000Z</time>
      </trkpt>
      <trkpt lat="49.38735" lon="1.80587">
        <ele>185.40383911133</ele>
        <time>2017-05-01T08:46:08.000Z</time>
      </trkpt>
      <trkpt lat="49.38731" lon="1.80581">
        <ele>185.25332641602</ele>
        <time>2017-05-01T08:46:10.000Z</time>
      </trkpt>
      <trkpt lat="49.38726" lon="1.80575">
        <ele>185.08731079102</ele>
        <time>2017-05-01T08:46:12.000Z</time>
      </trkpt>
      <trkpt lat="49.3872" lon="1.80567">
        <ele>184.89665222168</ele>
        <time>2017-05-01T08:46:15.000Z</time>
      </trkpt>
      <trkpt lat="49.38713" lon="1.80556">
        <ele>184.72277832031</ele>
        <time>2017-05-01T08:46:18.000Z</time>
      </trkpt>
      <trkpt lat="49.38708" lon="1.80542">
        <ele>184.59846496582</ele>
        <time>2017-05-01T08:46:21.000Z</time>
      </trkpt>
      <trkpt lat="49.38704" lon="1.80527">
        <ele>184.55375671387</ele>
        <time>2017-05-01T08:46:24.000Z</time>
      </trkpt>
      <trkpt lat="49.387" lon="1.80518">
        <ele>184.55656433105</ele>
        <time>2017-05-01T08:46:26.000Z</time>
      </trkpt>
      <trkpt lat="49.38697" lon="1.80509">
        <ele>184.61532592773</ele>
        <time>2017-05-01T08:46:28.000Z</time>
      </trkpt>
      <trkpt lat="49.38693" lon="1.80499">
        <ele>184.72602844238</ele>
        <time>2017-05-01T08:46:31.000Z</time>
      </trkpt>
      <trkpt lat="49.38688" lon="1.80494">
        <ele>184.79289245605</ele>
        <time>2017-05-01T08:46:34.000Z</time>
      </trkpt>
      <trkpt lat="49.38683" lon="1.8049">
        <ele>184.8034362793</ele>
        <time>2017-05-01T08:46:40.000Z</time>
      </trkpt>
      <trkpt lat="49.38682" lon="1.80487">
        <ele>184.7893371582</ele>
        <time>2017-05-01T08:46:44.000Z</time>
      </trkpt>
      <trkpt lat="49.38681" lon="1.80485">
        <ele>184.75944519043</ele>
        <time>2017-05-01T08:46:47.000Z</time>
      </trkpt>
      <trkpt lat="49.3868" lon="1.80482">
        <ele>184.70443725586</ele>
        <time>2017-05-01T08:46:49.000Z</time>
      </trkpt>
      <trkpt lat="49.38675" lon="1.80474">
        <ele>184.66275024414</ele>
        <time>2017-05-01T08:46:52.000Z</time>
      </trkpt>
      <trkpt lat="49.38669" lon="1.80464">
        <ele>184.62286376953</ele>
        <time>2017-05-01T08:46:55.000Z</time>
      </trkpt>
      <trkpt lat="49.38663" lon="1.80454">
        <ele>184.55407714844</ele>
        <time>2017-05-01T08:46:58.000Z</time>
      </trkpt>
      <trkpt lat="49.3866" lon="1.80445">
        <ele>184.47299194336</ele>
        <time>2017-05-01T08:47:01.000Z</time>
      </trkpt>
      <trkpt lat="49.38659" lon="1.80436">
        <ele>184.40243530273</ele>
        <time>2017-05-01T08:47:03.000Z</time>
      </trkpt>
      <trkpt lat="49.38659" lon="1.8042">
        <ele>184.40075683594</ele>
        <time>2017-05-01T08:47:06.000Z</time>
      </trkpt>
      <trkpt lat="49.38658" lon="1.80405">
        <ele>184.40231323242</ele>
        <time>2017-05-01T08:47:09.000Z</time>
      </trkpt>
      <trkpt lat="49.38656" lon="1.80392">
        <ele>184.4141998291</ele>
        <time>2017-05-01T08:47:11.000Z</time>
      </trkpt>
      <trkpt lat="49.38658" lon="1.80369">
        <ele>184.42095947266</ele>
        <time>2017-05-01T08:47:14.000Z</time>
      </trkpt>
      <trkpt lat="49.3866" lon="1.80356">
        <ele>184.40400695801</ele>
        <time>2017-05-01T08:47:16.000Z</time>
      </trkpt>
      <trkpt lat="49.38661" lon="1.80344">
        <ele>184.31816101074</ele>
        <time>2017-05-01T08:47:18.000Z</time>
      </trkpt>
      <trkpt lat="49.3866" lon="1.8033">
        <ele>184.22494506836</ele>
        <time>2017-05-01T08:47:20.000Z</time>
      </trkpt>
      <trkpt lat="49.3866" lon="1.80307">
        <ele>184.10472106934</ele>
        <time>2017-05-01T08:47:23.000Z</time>
      </trkpt>
      <trkpt lat="49.38661" lon="1.80277">
        <ele>183.93144226074</ele>
        <time>2017-05-01T08:47:26.000Z</time>
      </trkpt>
      <trkpt lat="49.3866" lon="1.80256">
        <ele>183.72909545898</ele>
        <time>2017-05-01T08:47:28.000Z</time>
      </trkpt>
      <trkpt lat="49.38661" lon="1.80243">
        <ele>183.42529296875</ele>
        <time>2017-05-01T08:47:30.000Z</time>
      </trkpt>
      <trkpt lat="49.38661" lon="1.80237">
        <ele>183.06225585938</ele>
        <time>2017-05-01T08:47:32.000Z</time>
      </trkpt>
      <trkpt lat="49.38659" lon="1.8023">
        <ele>182.66381835938</ele>
        <time>2017-05-01T08:47:35.000Z</time>
      </trkpt>
      <trkpt lat="49.3866" lon="1.80223">
        <ele>182.22784423828</ele>
        <time>2017-05-01T08:47:39.000Z</time>
      </trkpt>
      <trkpt lat="49.3866" lon="1.8022">
        <ele>181.78652954102</ele>
        <time>2017-05-01T08:47:41.000Z</time>
      </trkpt>
      <trkpt lat="49.3866" lon="1.80218">
        <ele>181.4370880127</ele>
        <time>2017-05-01T08:47:43.000Z</time>
      </trkpt>
      <trkpt lat="49.3866" lon="1.80216">
        <ele>181.14823913574</ele>
        <time>2017-05-01T08:47:46.000Z</time>
      </trkpt>
      <trkpt lat="49.38659" lon="1.80207">
        <ele>180.82377624512</ele>
        <time>2017-05-01T08:47:49.000Z</time>
      </trkpt>
      <trkpt lat="49.38659" lon="1.80207">
        <ele>180.82377624512</ele>
        <time>2017-05-01T08:48:09.000Z</time>
      </trkpt>
      <trkpt lat="49.38658" lon="1.802">
        <ele>180.51940917969</ele>
        <time>2017-05-01T08:48:11.000Z</time>
      </trkpt>
      <trkpt lat="49.38657" lon="1.80199">
        <ele>180.25122070312</ele>
        <time>2017-05-01T08:48:13.000Z</time>
      </trkpt>
      <trkpt lat="49.38657" lon="1.80195">
        <ele>179.95631408691</ele>
        <time>2017-05-01T08:48:21.000Z</time>
      </trkpt>
      <trkpt lat="49.38657" lon="1.80193">
        <ele>179.65776062012</ele>
        <time>2017-05-01T08:48:23.000Z</time>
      </trkpt>
      <trkpt lat="49.38656" lon="1.80191">
        <ele>179.4508972168</ele>
        <time>2017-05-01T08:48:26.000Z</time>
      </trkpt>
      <trkpt lat="49.38655" lon="1.80184">
        <ele>179.24826049805</ele>
        <time>2017-05-01T08:48:31.000Z</time>
      </trkpt>
      <trkpt lat="49.38655" lon="1.80181">
        <ele>179.0216217041</ele>
        <time>2017-05-01T08:48:38.000Z</time>
      </trkpt>
      <trkpt lat="49.38655" lon="1.80176">
        <ele>178.7802734375</ele>
        <time>2017-05-01T08:48:40.000Z</time>
      </trkpt>
      <trkpt lat="49.38656" lon="1.8017">
        <ele>178.46432495117</ele>
        <time>2017-05-01T08:48:42.000Z</time>
      </trkpt>
      <trkpt lat="49.38656" lon="1.80158">
        <ele>177.96926879883</ele>
        <time>2017-05-01T08:48:44.000Z</time>
      </trkpt>
      <trkpt lat="49.38652" lon="1.8014">
        <ele>177.21220397949</ele>
        <time>2017-05-01T08:48:47.000Z</time>
      </trkpt>
      <trkpt lat="49.38639" lon="1.8013">
        <ele>176.34170532227</ele>
        <time>2017-05-01T08:48:50.000Z</time>
      </trkpt>
      <trkpt lat="49.38609" lon="1.80101">
        <ele>174.95768737793</ele>
        <time>2017-05-01T08:48:54.000Z</time>
      </trkpt>
      <trkpt lat="49.38593" lon="1.80089">
        <ele>173.38290405273</ele>
        <time>2017-05-01T08:48:56.000Z</time>
      </trkpt>
      <trkpt lat="49.38563" lon="1.80078">
        <ele>172.07431030273</ele>
        <time>2017-05-01T08:48:59.000Z</time>
      </trkpt>
      <trkpt lat="49.38536" lon="1.80053">
        <ele>171.03657531738</ele>
        <time>2017-05-01T08:49:02.000Z</time>
      </trkpt>
      <trkpt lat="49.38504" lon="1.80036">
        <ele>170.02462768555</ele>
        <time>2017-05-01T08:49:05.000Z</time>
      </trkpt>
      <trkpt lat="49.38488" lon="1.80018">
        <ele>169.36343383789</ele>
        <time>2017-05-01T08:49:07.000Z</time>
      </trkpt>
      <trkpt lat="49.38466" lon="1.79988">
        <ele>168.76293945312</ele>
        <time>2017-05-01T08:49:10.000Z</time>
      </trkpt>
      <trkpt lat="49.3845" lon="1.79966">
        <ele>168.04487609863</ele>
        <time>2017-05-01T08:49:12.000Z</time>
      </trkpt>
      <trkpt lat="49.38436" lon="1.79944">
        <ele>167.22653198242</ele>
        <time>2017-05-01T08:49:15.000Z</time>
      </trkpt>
      <trkpt lat="49.38435" lon="1.79916">
        <ele>166.14315795898</ele>
        <time>2017-05-01T08:49:18.000Z</time>
      </trkpt>
      <trkpt lat="49.38426" lon="1.79905">
        <ele>165.14401245117</ele>
        <time>2017-05-01T08:49:20.000Z</time>
      </trkpt>
      <trkpt lat="49.38424" lon="1.79895">
        <ele>164.22689819336</ele>
        <time>2017-05-01T08:49:22.000Z</time>
      </trkpt>
      <trkpt lat="49.38416" lon="1.79879">
        <ele>163.08535766602</ele>
        <time>2017-05-01T08:49:25.000Z</time>
      </trkpt>
      <trkpt lat="49.38405" lon="1.79864">
        <ele>161.98037719727</ele>
        <time>2017-05-01T08:49:28.000Z</time>
      </trkpt>
      <trkpt lat="49.3839" lon="1.79849">
        <ele>161.10893249512</ele>
        <time>2017-05-01T08:49:31.000Z</time>
      </trkpt>
      <trkpt lat="49.38378" lon="1.79843">
        <ele>160.3811340332</ele>
        <time>2017-05-01T08:49:33.000Z</time>
      </trkpt>
      <trkpt lat="49.38364" lon="1.79841">
        <ele>159.86376953125</ele>
        <time>2017-05-01T08:49:35.000Z</time>
      </trkpt>
      <trkpt lat="49.3834" lon="1.7983">
        <ele>159.59507751465</ele>
        <time>2017-05-01T08:49:38.000Z</time>
      </trkpt>
      <trkpt lat="49.38325" lon="1.79817">
        <ele>159.33599853516</ele>
        <time>2017-05-01T08:49:40.000Z</time>
      </trkpt>
      <trkpt lat="49.3831" lon="1.79804">
        <ele>159.06741333008</ele>
        <time>2017-05-01T08:49:42.000Z</time>
      </trkpt>
      <trkpt lat="49.38298" lon="1.7979">
        <ele>158.60206604004</ele>
        <time>2017-05-01T08:49:44.000Z</time>
      </trkpt>
      <trkpt lat="49.38274" lon="1.79769">
        <ele>157.76893615723</ele>
        <time>2017-05-01T08:49:47.000Z</time>
      </trkpt>
      <trkpt lat="49.38249" lon="1.79759">
        <ele>156.83218383789</ele>
        <time>2017-05-01T08:49:50.000Z</time>
      </trkpt>
      <trkpt lat="49.38218" lon="1.79738">
        <ele>155.73640441895</ele>
        <time>2017-05-01T08:49:53.000Z</time>
      </trkpt>
      <trkpt lat="49.38195" lon="1.79729">
        <ele>154.6721496582</ele>
        <time>2017-05-01T08:49:56.000Z</time>
      </trkpt>
      <trkpt lat="49.3818" lon="1.79727">
        <ele>153.70341491699</ele>
        <time>2017-05-01T08:49:58.000Z</time>
      </trkpt>
      <trkpt lat="49.38159" lon="1.79713">
        <ele>152.89692687988</ele>
        <time>2017-05-01T08:50:01.000Z</time>
      </trkpt>
      <trkpt lat="49.38147" lon="1.79705">
        <ele>152.1481628418</ele>
        <time>2017-05-01T08:50:03.000Z</time>
      </trkpt>
      <trkpt lat="49.38121" lon="1.79697">
        <ele>151.51000976562</ele>
        <time>2017-05-01T08:50:06.000Z</time>
      </trkpt>
      <trkpt lat="49.38106" lon="1.79675">
        <ele>150.67422485352</ele>
        <time>2017-05-01T08:50:09.000Z</time>
      </trkpt>
      <trkpt lat="49.38089" lon="1.79647">
        <ele>149.97470092773</ele>
        <time>2017-05-01T08:50:12.000Z</time>
      </trkpt>
      <trkpt lat="49.38073" lon="1.7965">
        <ele>149.19882202148</ele>
        <time>2017-05-01T08:50:15.000Z</time>
      </trkpt>
      <trkpt lat="49.38066" lon="1.79648">
        <ele>148.4479675293</ele>
        <time>2017-05-01T08:50:17.000Z</time>
      </trkpt>
      <trkpt lat="49.3806" lon="1.79647">
        <ele>147.82444763184</ele>
        <time>2017-05-01T08:50:19.000Z</time>
      </trkpt>
      <trkpt lat="49.38049" lon="1.79648">
        <ele>147.38772583008</ele>
        <time>2017-05-01T08:50:22.000Z</time>
      </trkpt>
      <trkpt lat="49.38032" lon="1.79649">
        <ele>146.69696044922</ele>
        <time>2017-05-01T08:50:25.000Z</time>
      </trkpt>
      <trkpt lat="49.38015" lon="1.79653">
        <ele>145.96411132812</ele>
        <time>2017-05-01T08:50:28.000Z</time>
      </trkpt>
      <trkpt lat="49.38003" lon="1.79658">
        <ele>145.06353759766</ele>
        <time>2017-05-01T08:50:30.000Z</time>
      </trkpt>
      <trkpt lat="49.37983" lon="1.79657">
        <ele>144.03680419922</ele>
        <time>2017-05-01T08:50:33.000Z</time>
      </trkpt>
      <trkpt lat="49.37969" lon="1.79653">
        <ele>143.08386230469</ele>
        <time>2017-05-01T08:50:35.000Z</time>
      </trkpt>
      <trkpt lat="49.37944" lon="1.79653">
        <ele>142.12896728516</ele>
        <time>2017-05-01T08:50:38.000Z</time>
      </trkpt>
      <trkpt lat="49.37926" lon="1.79655">
        <ele>141.23110961914</ele>
        <time>2017-05-01T08:50:40.000Z</time>
      </trkpt>
      <trkpt lat="49.37897" lon="1.79668">
        <ele>139.89819335938</ele>
        <time>2017-05-01T08:50:43.000Z</time>
      </trkpt>
      <trkpt lat="49.37881" lon="1.79678">
        <ele>138.42306518555</ele>
        <time>2017-05-01T08:50:45.000Z</time>
      </trkpt>
      <trkpt lat="49.37865" lon="1.79713">
        <ele>136.58332824707</ele>
        <time>2017-05-01T08:50:48.000Z</time>
      </trkpt>
      <trkpt lat="49.37852" lon="1.7975">
        <ele>134.46415710449</ele>
        <time>2017-05-01T08:50:51.000Z</time>
      </trkpt>
      <trkpt lat="49.37844" lon="1.79772">
        <ele>132.73960876465</ele>
        <time>2017-05-01T08:50:53.000Z</time>
      </trkpt>
      <trkpt lat="49.37838" lon="1.79782">
        <ele>131.72503662109</ele>
        <time>2017-05-01T08:50:55.000Z</time>
      </trkpt>
      <trkpt lat="49.37828" lon="1.7979">
        <ele>131.13697814941</ele>
        <time>2017-05-01T08:50:58.000Z</time>
      </trkpt>
      <trkpt lat="49.37825" lon="1.79792">
        <ele>131.0700378418</ele>
        <time>2017-05-01T08:51:00.000Z</time>
      </trkpt>
      <trkpt lat="49.37825" lon="1.79794">
        <ele>131.54391479492</ele>
        <time>2017-05-01T08:51:03.000Z</time>
      </trkpt>
      <trkpt lat="49.37825" lon="1.79797">
        <ele>131.91398620605</ele>
        <time>2017-05-01T08:51:05.000Z</time>
      </trkpt>
      <trkpt lat="49.37825" lon="1.79801">
        <ele>132.31744384766</ele>
        <time>2017-05-01T08:51:08.000Z</time>
      </trkpt>
      <trkpt lat="49.37826" lon="1.79804">
        <ele>132.66027832031</ele>
        <time>2017-05-01T08:51:21.000Z</time>
      </trkpt>
      <trkpt lat="49.37827" lon="1.79803">
        <ele>132.89291381836</ele>
        <time>2017-05-01T08:51:23.000Z</time>
      </trkpt>
      <trkpt lat="49.3783" lon="1.79802">
        <ele>133.02261352539</ele>
        <time>2017-05-01T08:51:25.000Z</time>
      </trkpt>
      <trkpt lat="49.37831" lon="1.79801">
        <ele>133.02665710449</ele>
        <time>2017-05-01T08:51:27.000Z</time>
      </trkpt>
      <trkpt lat="49.3783" lon="1.798">
        <ele>132.93365478516</ele>
        <time>2017-05-01T08:51:32.000Z</time>
      </trkpt>
      <trkpt lat="49.37825" lon="1.79802">
        <ele>132.90106201172</ele>
        <time>2017-05-01T08:51:37.000Z</time>
      </trkpt>
      <trkpt lat="49.37825" lon="1.79802">
        <ele>132.90106201172</ele>
        <time>2017-05-01T08:51:57.000Z</time>
      </trkpt>
      <trkpt lat="49.37825" lon="1.79805">
        <ele>132.96520996094</ele>
        <time>2017-05-01T08:52:06.000Z</time>
      </trkpt>
      <trkpt lat="49.37826" lon="1.79804">
        <ele>133.05578613281</ele>
        <time>2017-05-01T08:52:12.000Z</time>
      </trkpt>
      <trkpt lat="49.37825" lon="1.79804">
        <ele>133.20111083984</ele>
        <time>2017-05-01T08:52:20.000Z</time>
      </trkpt>
      <trkpt lat="49.37825" lon="1.79802">
        <ele>133.31596374512</ele>
        <time>2017-05-01T08:52:23.000Z</time>
      </trkpt>
      <trkpt lat="49.37828" lon="1.79798">
        <ele>133.18923950195</ele>
        <time>2017-05-01T08:52:26.000Z</time>
      </trkpt>
      <trkpt lat="49.37831" lon="1.79792">
        <ele>132.81787109375</ele>
        <time>2017-05-01T08:52:29.000Z</time>
      </trkpt>
      <trkpt lat="49.37831" lon="1.7979">
        <ele>132.45277404785</ele>
        <time>2017-05-01T08:52:31.000Z</time>
      </trkpt>
      <trkpt lat="49.3783" lon="1.79793">
        <ele>132.14611816406</ele>
        <time>2017-05-01T08:52:44.000Z</time>
      </trkpt>
      <trkpt lat="49.37828" lon="1.79794">
        <ele>131.92611694336</ele>
        <time>2017-05-01T08:52:54.000Z</time>
      </trkpt>
      <trkpt lat="49.3783" lon="1.79795">
        <ele>131.83378601074</ele>
        <time>2017-05-01T08:53:00.000Z</time>
      </trkpt>
      <trkpt lat="49.37831" lon="1.79796">
        <ele>131.92636108398</ele>
        <time>2017-05-01T08:53:04.000Z</time>
      </trkpt>
      <trkpt lat="49.3783" lon="1.79796">
        <ele>132.07197570801</ele>
        <time>2017-05-01T08:53:07.000Z</time>
      </trkpt>
      <trkpt lat="49.37828" lon="1.79796">
        <ele>132.1535949707</ele>
        <time>2017-05-01T08:53:18.000Z</time>
      </trkpt>
      <trkpt lat="49.37827" lon="1.79794">
        <ele>132.17417907715</ele>
        <time>2017-05-01T08:53:23.000Z</time>
      </trkpt>
      <trkpt lat="49.37826" lon="1.79793">
        <ele>132.18644714355</ele>
        <time>2017-05-01T08:53:36.000Z</time>
      </trkpt>
      <trkpt lat="49.37826" lon="1.79796">
        <ele>132.2532043457</ele>
        <time>2017-05-01T08:53:40.000Z</time>
      </trkpt>
      <trkpt lat="49.37822" lon="1.79802">
        <ele>132.48751831055</ele>
        <time>2017-05-01T08:53:49.000Z</time>
      </trkpt>
      <trkpt lat="49.37821" lon="1.79804">
        <ele>132.76866149902</ele>
        <time>2017-05-01T08:53:56.000Z</time>
      </trkpt>
      <trkpt lat="49.37824" lon="1.79806">
        <ele>133.05377197266</ele>
        <time>2017-05-01T08:54:10.000Z</time>
      </trkpt>
      <trkpt lat="49.37822" lon="1.79805">
        <ele>133.36283874512</ele>
        <time>2017-05-01T08:54:23.000Z</time>
      </trkpt>
      <trkpt lat="49.3782" lon="1.79803">
        <ele>133.60452270508</ele>
        <time>2017-05-01T08:54:26.000Z</time>
      </trkpt>
      <trkpt lat="49.37811" lon="1.79799">
        <ele>133.67109680176</ele>
        <time>2017-05-01T08:54:29.000Z</time>
      </trkpt>
      <trkpt lat="49.37803" lon="1.79794">
        <ele>133.66354370117</ele>
        <time>2017-05-01T08:54:31.000Z</time>
      </trkpt>
      <trkpt lat="49.3779" lon="1.79784">
        <ele>133.54690551758</ele>
        <time>2017-05-01T08:54:34.000Z</time>
      </trkpt>
      <trkpt lat="49.37778" lon="1.79773">
        <ele>133.26205444336</ele>
        <time>2017-05-01T08:54:37.000Z</time>
      </trkpt>
      <trkpt lat="49.3777" lon="1.79766">
        <ele>132.85018920898</ele>
        <time>2017-05-01T08:54:39.000Z</time>
      </trkpt>
      <trkpt lat="49.37758" lon="1.79754">
        <ele>132.16130065918</ele>
        <time>2017-05-01T08:54:42.000Z</time>
      </trkpt>
      <trkpt lat="49.37747" lon="1.79739">
        <ele>131.30201721191</ele>
        <time>2017-05-01T08:54:45.000Z</time>
      </trkpt>
      <trkpt lat="49.37733" lon="1.79727">
        <ele>130.43041992188</ele>
        <time>2017-05-01T08:54:48.000Z</time>
      </trkpt>
      <trkpt lat="49.37719" lon="1.79714">
        <ele>129.52803039551</ele>
        <time>2017-05-01T08:54:51.000Z</time>
      </trkpt>
      <trkpt lat="49.37707" lon="1.79703">
        <ele>128.57369995117</ele>
        <time>2017-05-01T08:54:54.000Z</time>
      </trkpt>
      <trkpt lat="49.37697" lon="1.79693">
        <ele>127.69877624512</ele>
        <time>2017-05-01T08:54:57.000Z</time>
      </trkpt>
      <trkpt lat="49.37688" lon="1.79682">
        <ele>126.79734039307</ele>
        <time>2017-05-01T08:55:00.000Z</time>
      </trkpt>
      <trkpt lat="49.37683" lon="1.7967">
        <ele>125.79467773438</ele>
        <time>2017-05-01T08:55:03.000Z</time>
      </trkpt>
      <trkpt lat="49.3768" lon="1.79653">
        <ele>124.87115478516</ele>
        <time>2017-05-01T08:55:06.000Z</time>
      </trkpt>
      <trkpt lat="49.37682" lon="1.79633">
        <ele>124.0849609375</ele>
        <time>2017-05-01T08:55:09.000Z</time>
      </trkpt>
      <trkpt lat="49.37686" lon="1.7962">
        <ele>123.50679779053</ele>
        <time>2017-05-01T08:55:11.000Z</time>
      </trkpt>
      <trkpt lat="49.37693" lon="1.79602">
        <ele>123.20439147949</ele>
        <time>2017-05-01T08:55:14.000Z</time>
      </trkpt>
      <trkpt lat="49.37697" lon="1.7959">
        <ele>123.19036865234</ele>
        <time>2017-05-01T08:55:16.000Z</time>
      </trkpt>
      <trkpt lat="49.37702" lon="1.79576">
        <ele>123.44938659668</ele>
        <time>2017-05-01T08:55:19.000Z</time>
      </trkpt>
      <trkpt lat="49.37707" lon="1.79563">
        <ele>123.96363830566</ele>
        <time>2017-05-01T08:55:22.000Z</time>
      </trkpt>
      <trkpt lat="49.3771" lon="1.79555">
        <ele>124.58731842041</ele>
        <time>2017-05-01T08:55:24.000Z</time>
      </trkpt>
      <trkpt lat="49.37714" lon="1.79548">
        <ele>125.26396179199</ele>
        <time>2017-05-01T08:55:26.000Z</time>
      </trkpt>
      <trkpt lat="49.37717" lon="1.79541">
        <ele>125.99337005615</ele>
        <time>2017-05-01T08:55:28.000Z</time>
      </trkpt>
      <trkpt lat="49.37722" lon="1.7953">
        <ele>126.71228027344</ele>
        <time>2017-05-01T08:55:31.000Z</time>
      </trkpt>
      <trkpt lat="49.37727" lon="1.7952">
        <ele>127.33847808838</ele>
        <time>2017-05-01T08:55:34.000Z</time>
      </trkpt>
      <trkpt lat="49.37732" lon="1.79511">
        <ele>127.9398651123</ele>
        <time>2017-05-01T08:55:37.000Z</time>
      </trkpt>
      <trkpt lat="49.37735" lon="1.79505">
        <ele>128.49247741699</ele>
        <time>2017-05-01T08:55:39.000Z</time>
      </trkpt>
      <trkpt lat="49.3774" lon="1.79496">
        <ele>129.05227661133</ele>
        <time>2017-05-01T08:55:42.000Z</time>
      </trkpt>
      <trkpt lat="49.37744" lon="1.79489">
        <ele>129.59411621094</ele>
        <time>2017-05-01T08:55:45.000Z</time>
      </trkpt>
      <trkpt lat="49.37747" lon="1.79482">
        <ele>130.11968994141</ele>
        <time>2017-05-01T08:55:48.000Z</time>
      </trkpt>
      <trkpt lat="49.37751" lon="1.79477">
        <ele>130.64030456543</ele>
        <time>2017-05-01T08:55:51.000Z</time>
      </trkpt>
      <trkpt lat="49.37754" lon="1.79475">
        <ele>131.18022155762</ele>
        <time>2017-05-01T08:55:53.000Z</time>
      </trkpt>
      <trkpt lat="49.37758" lon="1.7947">
        <ele>131.75651550293</ele>
        <time>2017-05-01T08:55:56.000Z</time>
      </trkpt>
      <trkpt lat="49.3776" lon="1.79465">
        <ele>132.28298950195</ele>
        <time>2017-05-01T08:55:58.000Z</time>
      </trkpt>
      <trkpt lat="49.37763" lon="1.79459">
        <ele>132.83413696289</ele>
        <time>2017-05-01T08:56:00.000Z</time>
      </trkpt>
      <trkpt lat="49.37767" lon="1.79453">
        <ele>133.4115447998</ele>
        <time>2017-05-01T08:56:03.000Z</time>
      </trkpt>
      <trkpt lat="49.37771" lon="1.79447">
        <ele>134.0192565918</ele>
        <time>2017-05-01T08:56:06.000Z</time>
      </trkpt>
      <trkpt lat="49.37775" lon="1.79443">
        <ele>134.57218933105</ele>
        <time>2017-05-01T08:56:09.000Z</time>
      </trkpt>
      <trkpt lat="49.37778" lon="1.7944">
        <ele>135.0947265625</ele>
        <time>2017-05-01T08:56:11.000Z</time>
      </trkpt>
      <trkpt lat="49.3778" lon="1.79435">
        <ele>135.55937194824</ele>
        <time>2017-05-01T08:56:14.000Z</time>
      </trkpt>
      <trkpt lat="49.37783" lon="1.7943">
        <ele>135.97113037109</ele>
        <time>2017-05-01T08:56:17.000Z</time>
      </trkpt>
      <trkpt lat="49.37786" lon="1.79428">
        <ele>136.30722045898</ele>
        <time>2017-05-01T08:56:19.000Z</time>
      </trkpt>
      <trkpt lat="49.37789" lon="1.79424">
        <ele>136.6008605957</ele>
        <time>2017-05-01T08:56:21.000Z</time>
      </trkpt>
      <trkpt lat="49.37793" lon="1.7942">
        <ele>136.8995513916</ele>
        <time>2017-05-01T08:56:23.000Z</time>
      </trkpt>
      <trkpt lat="49.37796" lon="1.79417">
        <ele>137.16870117188</ele>
        <time>2017-05-01T08:56:25.000Z</time>
      </trkpt>
      <trkpt lat="49.37798" lon="1.79411">
        <ele>137.43417358398</ele>
        <time>2017-05-01T08:56:28.000Z</time>
      </trkpt>
      <trkpt lat="49.37799" lon="1.79404">
        <ele>137.73323059082</ele>
        <time>2017-05-01T08:56:31.000Z</time>
      </trkpt>
      <trkpt lat="49.37804" lon="1.79397">
        <ele>138.06533813477</ele>
        <time>2017-05-01T08:56:34.000Z</time>
      </trkpt>
      <trkpt lat="49.37808" lon="1.79394">
        <ele>138.38510131836</ele>
        <time>2017-05-01T08:56:36.000Z</time>
      </trkpt>
      <trkpt lat="49.37817" lon="1.79388">
        <ele>138.73857116699</ele>
        <time>2017-05-01T08:56:39.000Z</time>
      </trkpt>
      <trkpt lat="49.37821" lon="1.79383">
        <ele>139.06483459473</ele>
        <time>2017-05-01T08:56:41.000Z</time>
      </trkpt>
      <trkpt lat="49.37828" lon="1.79376">
        <ele>139.37501525879</ele>
        <time>2017-05-01T08:56:44.000Z</time>
      </trkpt>
      <trkpt lat="49.37835" lon="1.7937">
        <ele>139.65313720703</ele>
        <time>2017-05-01T08:56:47.000Z</time>
      </trkpt>
      <trkpt lat="49.37838" lon="1.79366">
        <ele>139.95317077637</ele>
        <time>2017-05-01T08:56:49.000Z</time>
      </trkpt>
      <trkpt lat="49.37843" lon="1.79358">
        <ele>140.27160644531</ele>
        <time>2017-05-01T08:56:52.000Z</time>
      </trkpt>
      <trkpt lat="49.37848" lon="1.79351">
        <ele>140.64199829102</ele>
        <time>2017-05-01T08:56:55.000Z</time>
      </trkpt>
      <trkpt lat="49.37851" lon="1.79347">
        <ele>141.01391601562</ele>
        <time>2017-05-01T08:56:57.000Z</time>
      </trkpt>
      <trkpt lat="49.37855" lon="1.7934">
        <ele>141.40676879883</ele>
        <time>2017-05-01T08:57:00.000Z</time>
      </trkpt>
      <trkpt lat="49.3786" lon="1.79335">
        <ele>141.81466674805</ele>
        <time>2017-05-01T08:57:03.000Z</time>
      </trkpt>
      <trkpt lat="49.37863" lon="1.7933">
        <ele>142.24716186523</ele>
        <time>2017-05-01T08:57:06.000Z</time>
      </trkpt>
      <trkpt lat="49.37867" lon="1.79324">
        <ele>142.75520324707</ele>
        <time>2017-05-01T08:57:09.000Z</time>
      </trkpt>
      <trkpt lat="49.37872" lon="1.79319">
        <ele>143.36784362793</ele>
        <time>2017-05-01T08:57:12.000Z</time>
      </trkpt>
      <trkpt lat="49.37877" lon="1.79314">
        <ele>144.03952026367</ele>
        <time>2017-05-01T08:57:14.000Z</time>
      </trkpt>
      <trkpt lat="49.37882" lon="1.79309">
        <ele>144.77145385742</ele>
        <time>2017-05-01T08:57:16.000Z</time>
      </trkpt>
      <trkpt lat="49.37886" lon="1.79306">
        <ele>145.4938659668</ele>
        <time>2017-05-01T08:57:18.000Z</time>
      </trkpt>
      <trkpt lat="49.37894" lon="1.79301">
        <ele>146.18630981445</ele>
        <time>2017-05-01T08:57:21.000Z</time>
      </trkpt>
      <trkpt lat="49.37898" lon="1.79297">
        <ele>146.8127746582</ele>
        <time>2017-05-01T08:57:23.000Z</time>
      </trkpt>
      <trkpt lat="49.37902" lon="1.79293">
        <ele>147.40071105957</ele>
        <time>2017-05-01T08:57:25.000Z</time>
      </trkpt>
      <trkpt lat="49.37908" lon="1.79288">
        <ele>147.96125793457</ele>
        <time>2017-05-01T08:57:28.000Z</time>
      </trkpt>
      <trkpt lat="49.37913" lon="1.79286">
        <ele>148.46871948242</ele>
        <time>2017-05-01T08:57:30.000Z</time>
      </trkpt>
      <trkpt lat="49.37919" lon="1.79282">
        <ele>148.91787719727</ele>
        <time>2017-05-01T08:57:33.000Z</time>
      </trkpt>
      <trkpt lat="49.37923" lon="1.7928">
        <ele>149.3249206543</ele>
        <time>2017-05-01T08:57:35.000Z</time>
      </trkpt>
      <trkpt lat="49.37927" lon="1.79277">
        <ele>149.69804382324</ele>
        <time>2017-05-01T08:57:38.000Z</time>
      </trkpt>
      <trkpt lat="49.37932" lon="1.79275">
        <ele>149.99589538574</ele>
        <time>2017-05-01T08:57:40.000Z</time>
      </trkpt>
      <trkpt lat="49.37938" lon="1.79272">
        <ele>150.28913879395</ele>
        <time>2017-05-01T08:57:43.000Z</time>
      </trkpt>
      <trkpt lat="49.37942" lon="1.7927">
        <ele>150.53567504883</ele>
        <time>2017-05-01T08:57:45.000Z</time>
      </trkpt>
      <trkpt lat="49.37944" lon="1.79268">
        <ele>150.75761413574</ele>
        <time>2017-05-01T08:57:47.000Z</time>
      </trkpt>
      <trkpt lat="49.37951" lon="1.79265">
        <ele>150.96733093262</ele>
        <time>2017-05-01T08:57:50.000Z</time>
      </trkpt>
      <trkpt lat="49.37955" lon="1.79262">
        <ele>151.16470336914</ele>
        <time>2017-05-01T08:57:52.000Z</time>
      </trkpt>
      <trkpt lat="49.3796" lon="1.7926">
        <ele>151.33708190918</ele>
        <time>2017-05-01T08:57:55.000Z</time>
      </trkpt>
      <trkpt lat="49.37964" lon="1.79258">
        <ele>151.49284362793</ele>
        <time>2017-05-01T08:57:57.000Z</time>
      </trkpt>
      <trkpt lat="49.37969" lon="1.79255">
        <ele>151.63925170898</ele>
        <time>2017-05-01T08:58:00.000Z</time>
      </trkpt>
      <trkpt lat="49.37973" lon="1.79252">
        <ele>151.75300598145</ele>
        <time>2017-05-01T08:58:03.000Z</time>
      </trkpt>
      <trkpt lat="49.37977" lon="1.7925">
        <ele>151.85028076172</ele>
        <time>2017-05-01T08:58:05.000Z</time>
      </trkpt>
      <trkpt lat="49.37984" lon="1.79246">
        <ele>152.00607299805</ele>
        <time>2017-05-01T08:58:08.000Z</time>
      </trkpt>
      <trkpt lat="49.37988" lon="1.79244">
        <ele>152.17340087891</ele>
        <time>2017-05-01T08:58:10.000Z</time>
      </trkpt>
      <trkpt lat="49.37992" lon="1.79243">
        <ele>152.3370513916</ele>
        <time>2017-05-01T08:58:12.000Z</time>
      </trkpt>
      <trkpt lat="49.37998" lon="1.79241">
        <ele>152.5075378418</ele>
        <time>2017-05-01T08:58:15.000Z</time>
      </trkpt>
      <trkpt lat="49.38004" lon="1.79238">
        <ele>152.7145690918</ele>
        <time>2017-05-01T08:58:18.000Z</time>
      </trkpt>
      <trkpt lat="49.38008" lon="1.79235">
        <ele>152.87516784668</ele>
        <time>2017-05-01T08:58:20.000Z</time>
      </trkpt>
      <trkpt lat="49.38013" lon="1.79233">
        <ele>153.03030395508</ele>
        <time>2017-05-01T08:58:22.000Z</time>
      </trkpt>
      <trkpt lat="49.3802" lon="1.79231">
        <ele>153.1983795166</ele>
        <time>2017-05-01T08:58:25.000Z</time>
      </trkpt>
      <trkpt lat="49.38028" lon="1.79227">
        <ele>153.37850952148</ele>
        <time>2017-05-01T08:58:28.000Z</time>
      </trkpt>
      <trkpt lat="49.38033" lon="1.79222">
        <ele>153.5556640625</ele>
        <time>2017-05-01T08:58:31.000Z</time>
      </trkpt>
      <trkpt lat="49.38038" lon="1.79219">
        <ele>153.71527099609</ele>
        <time>2017-05-01T08:58:33.000Z</time>
      </trkpt>
      <trkpt lat="49.38042" lon="1.79216">
        <ele>153.86686706543</ele>
        <time>2017-05-01T08:58:35.000Z</time>
      </trkpt>
      <trkpt lat="49.38048" lon="1.79212">
        <ele>153.99848937988</ele>
        <time>2017-05-01T08:58:38.000Z</time>
      </trkpt>
      <trkpt lat="49.38052" lon="1.79209">
        <ele>154.10174560547</ele>
        <time>2017-05-01T08:58:40.000Z</time>
      </trkpt>
      <trkpt lat="49.38058" lon="1.79204">
        <ele>154.16459655762</ele>
        <time>2017-05-01T08:58:43.000Z</time>
      </trkpt>
      <trkpt lat="49.38064" lon="1.792">
        <ele>154.19888305664</ele>
        <time>2017-05-01T08:58:46.000Z</time>
      </trkpt>
      <trkpt lat="49.3807" lon="1.79194">
        <ele>154.20109558105</ele>
        <time>2017-05-01T08:58:49.000Z</time>
      </trkpt>
      <trkpt lat="49.38074" lon="1.79189">
        <ele>154.18884277344</ele>
        <time>2017-05-01T08:58:51.000Z</time>
      </trkpt>
      <trkpt lat="49.38079" lon="1.79182">
        <ele>154.14427185059</ele>
        <time>2017-05-01T08:58:54.000Z</time>
      </trkpt>
      <trkpt lat="49.38085" lon="1.79176">
        <ele>154.08972167969</ele>
        <time>2017-05-01T08:58:57.000Z</time>
      </trkpt>
      <trkpt lat="49.38088" lon="1.79172">
        <ele>154.09194946289</ele>
        <time>2017-05-01T08:58:59.000Z</time>
      </trkpt>
      <trkpt lat="49.38093" lon="1.79165">
        <ele>154.19673156738</ele>
        <time>2017-05-01T08:59:02.000Z</time>
      </trkpt>
      <trkpt lat="49.38096" lon="1.79161">
        <ele>154.4020690918</ele>
        <time>2017-05-01T08:59:04.000Z</time>
      </trkpt>
      <trkpt lat="49.38101" lon="1.79154">
        <ele>154.77014160156</ele>
        <time>2017-05-01T08:59:07.000Z</time>
      </trkpt>
      <trkpt lat="49.38105" lon="1.7915">
        <ele>155.2237701416</ele>
        <time>2017-05-01T08:59:09.000Z</time>
      </trkpt>
      <trkpt lat="49.3811" lon="1.79143">
        <ele>155.75155639648</ele>
        <time>2017-05-01T08:59:12.000Z</time>
      </trkpt>
      <trkpt lat="49.38115" lon="1.79135">
        <ele>156.31042480469</ele>
        <time>2017-05-01T08:59:15.000Z</time>
      </trkpt>
      <trkpt lat="49.38119" lon="1.7913">
        <ele>156.85166931152</ele>
        <time>2017-05-01T08:59:17.000Z</time>
      </trkpt>
      <trkpt lat="49.38124" lon="1.79122">
        <ele>157.35458374023</ele>
        <time>2017-05-01T08:59:20.000Z</time>
      </trkpt>
      <trkpt lat="49.38128" lon="1.79117">
        <ele>157.83988952637</ele>
        <time>2017-05-01T08:59:22.000Z</time>
      </trkpt>
      <trkpt lat="49.38135" lon="1.79107">
        <ele>158.30313110352</ele>
        <time>2017-05-01T08:59:25.000Z</time>
      </trkpt>
      <trkpt lat="49.38139" lon="1.79101">
        <ele>158.6985168457</ele>
        <time>2017-05-01T08:59:27.000Z</time>
      </trkpt>
      <trkpt lat="49.38144" lon="1.79095">
        <ele>159.06072998047</ele>
        <time>2017-05-01T08:59:29.000Z</time>
      </trkpt>
      <trkpt lat="49.38149" lon="1.79089">
        <ele>159.3634185791</ele>
        <time>2017-05-01T08:59:31.000Z</time>
      </trkpt>
      <trkpt lat="49.38155" lon="1.79079">
        <ele>159.65214538574</ele>
        <time>2017-05-01T08:59:34.000Z</time>
      </trkpt>
      <trkpt lat="49.3816" lon="1.79073">
        <ele>159.87265014648</ele>
        <time>2017-05-01T08:59:36.000Z</time>
      </trkpt>
      <trkpt lat="49.38164" lon="1.79066">
        <ele>160.07138061523</ele>
        <time>2017-05-01T08:59:38.000Z</time>
      </trkpt>
      <trkpt lat="49.38171" lon="1.79056">
        <ele>160.30596923828</ele>
        <time>2017-05-01T08:59:41.000Z</time>
      </trkpt>
      <trkpt lat="49.38179" lon="1.79046">
        <ele>160.60195922852</ele>
        <time>2017-05-01T08:59:44.000Z</time>
      </trkpt>
      <trkpt lat="49.38185" lon="1.79035">
        <ele>160.93655395508</ele>
        <time>2017-05-01T08:59:47.000Z</time>
      </trkpt>
      <trkpt lat="49.38189" lon="1.79027">
        <ele>161.29000854492</ele>
        <time>2017-05-01T08:59:49.000Z</time>
      </trkpt>
      <trkpt lat="49.38194" lon="1.7902">
        <ele>161.66690063477</ele>
        <time>2017-05-01T08:59:51.000Z</time>
      </trkpt>
      <trkpt lat="49.382" lon="1.79009">
        <ele>162.03317260742</ele>
        <time>2017-05-01T08:59:54.000Z</time>
      </trkpt>
      <trkpt lat="49.38207" lon="1.78998">
        <ele>162.36264038086</ele>
        <time>2017-05-01T08:59:57.000Z</time>
      </trkpt>
      <trkpt lat="49.38211" lon="1.7899">
        <ele>162.63943481445</ele>
        <time>2017-05-01T08:59:59.000Z</time>
      </trkpt>
      <trkpt lat="49.38214" lon="1.78983">
        <ele>162.89372253418</ele>
        <time>2017-05-01T09:00:01.000Z</time>
      </trkpt>
      <trkpt lat="49.38221" lon="1.78973">
        <ele>163.13468933105</ele>
        <time>2017-05-01T09:00:04.000Z</time>
      </trkpt>
      <trkpt lat="49.38227" lon="1.78964">
        <ele>163.33728027344</ele>
        <time>2017-05-01T09:00:07.000Z</time>
      </trkpt>
      <trkpt lat="49.38234" lon="1.78954">
        <ele>163.50422668457</ele>
        <time>2017-05-01T09:00:10.000Z</time>
      </trkpt>
      <trkpt lat="49.38241" lon="1.78945">
        <ele>163.65557861328</ele>
        <time>2017-05-01T09:00:13.000Z</time>
      </trkpt>
      <trkpt lat="49.38246" lon="1.78939">
        <ele>163.78604125977</ele>
        <time>2017-05-01T09:00:15.000Z</time>
      </trkpt>
      <trkpt lat="49.38253" lon="1.78931">
        <ele>163.9100189209</ele>
        <time>2017-05-01T09:00:18.000Z</time>
      </trkpt>
      <trkpt lat="49.38259" lon="1.78926">
        <ele>164.04498291016</ele>
        <time>2017-05-01T09:00:20.000Z</time>
      </trkpt>
      <trkpt lat="49.38265" lon="1.78921">
        <ele>164.19137573242</ele>
        <time>2017-05-01T09:00:22.000Z</time>
      </trkpt>
      <trkpt lat="49.38273" lon="1.78913">
        <ele>164.39019775391</ele>
        <time>2017-05-01T09:00:25.000Z</time>
      </trkpt>
      <trkpt lat="49.38278" lon="1.78908">
        <ele>164.63723754883</ele>
        <time>2017-05-01T09:00:27.000Z</time>
      </trkpt>
      <trkpt lat="49.38286" lon="1.78902">
        <ele>164.92501831055</ele>
        <time>2017-05-01T09:00:30.000Z</time>
      </trkpt>
      <trkpt lat="49.3829" lon="1.78898">
        <ele>165.21244812012</ele>
        <time>2017-05-01T09:00:32.000Z</time>
      </trkpt>
      <trkpt lat="49.38296" lon="1.78893">
        <ele>165.50700378418</ele>
        <time>2017-05-01T09:00:34.000Z</time>
      </trkpt>
      <trkpt lat="49.38304" lon="1.78887">
        <ele>165.78730773926</ele>
        <time>2017-05-01T09:00:37.000Z</time>
      </trkpt>
      <trkpt lat="49.38313" lon="1.78881">
        <ele>166.06352233887</ele>
        <time>2017-05-01T09:00:40.000Z</time>
      </trkpt>
      <trkpt lat="49.38318" lon="1.78877">
        <ele>166.29081726074</ele>
        <time>2017-05-01T09:00:42.000Z</time>
      </trkpt>
      <trkpt lat="49.38326" lon="1.78871">
        <ele>166.50817871094</ele>
        <time>2017-05-01T09:00:45.000Z</time>
      </trkpt>
      <trkpt lat="49.38334" lon="1.78865">
        <ele>166.70947265625</ele>
        <time>2017-05-01T09:00:48.000Z</time>
      </trkpt>
      <trkpt lat="49.38342" lon="1.78858">
        <ele>166.9210357666</ele>
        <time>2017-05-01T09:00:51.000Z</time>
      </trkpt>
      <trkpt lat="49.3835" lon="1.78851">
        <ele>167.15483093262</ele>
        <time>2017-05-01T09:00:54.000Z</time>
      </trkpt>
      <trkpt lat="49.38358" lon="1.78844">
        <ele>167.43786621094</ele>
        <time>2017-05-01T09:00:57.000Z</time>
      </trkpt>
      <trkpt lat="49.38365" lon="1.78836">
        <ele>167.763671875</ele>
        <time>2017-05-01T09:01:00.000Z</time>
      </trkpt>
      <trkpt lat="49.3837" lon="1.7883">
        <ele>168.12382507324</ele>
        <time>2017-05-01T09:01:02.000Z</time>
      </trkpt>
      <trkpt lat="49.38377" lon="1.78822">
        <ele>168.5220489502</ele>
        <time>2017-05-01T09:01:06.000Z</time>
      </trkpt>
      <trkpt lat="49.38382" lon="1.78816">
        <ele>168.92286682129</ele>
        <time>2017-05-01T09:01:07.000Z</time>
      </trkpt>
      <trkpt lat="49.38386" lon="1.7881">
        <ele>169.31460571289</ele>
        <time>2017-05-01T09:01:09.000Z</time>
      </trkpt>
      <trkpt lat="49.38393" lon="1.78801">
        <ele>169.73553466797</ele>
        <time>2017-05-01T09:01:12.000Z</time>
      </trkpt>
      <trkpt lat="49.38399" lon="1.78793">
        <ele>170.19317626953</ele>
        <time>2017-05-01T09:01:15.000Z</time>
      </trkpt>
      <trkpt lat="49.38405" lon="1.78783">
        <ele>170.64636230469</ele>
        <time>2017-05-01T09:01:18.000Z</time>
      </trkpt>
      <trkpt lat="49.38411" lon="1.78775">
        <ele>171.12084960938</ele>
        <time>2017-05-01T09:01:21.000Z</time>
      </trkpt>
      <trkpt lat="49.38415" lon="1.78769">
        <ele>171.59716796875</ele>
        <time>2017-05-01T09:01:23.000Z</time>
      </trkpt>
      <trkpt lat="49.38421" lon="1.7876">
        <ele>172.05097961426</ele>
        <time>2017-05-01T09:01:26.000Z</time>
      </trkpt>
      <trkpt lat="49.38427" lon="1.7875">
        <ele>172.47500610352</ele>
        <time>2017-05-01T09:01:29.000Z</time>
      </trkpt>
      <trkpt lat="49.38433" lon="1.78741">
        <ele>172.80758666992</ele>
        <time>2017-05-01T09:01:32.000Z</time>
      </trkpt>
      <trkpt lat="49.38437" lon="1.78736">
        <ele>173.05076599121</ele>
        <time>2017-05-01T09:01:34.000Z</time>
      </trkpt>
      <trkpt lat="49.38443" lon="1.78728">
        <ele>173.2451171875</ele>
        <time>2017-05-01T09:01:37.000Z</time>
      </trkpt>
      <trkpt lat="49.38448" lon="1.7872">
        <ele>173.37663269043</ele>
        <time>2017-05-01T09:01:40.000Z</time>
      </trkpt>
      <trkpt lat="49.38453" lon="1.7871">
        <ele>173.45037841797</ele>
        <time>2017-05-01T09:01:43.000Z</time>
      </trkpt>
      <trkpt lat="49.38457" lon="1.78704">
        <ele>173.5267791748</ele>
        <time>2017-05-01T09:01:45.000Z</time>
      </trkpt>
      <trkpt lat="49.38463" lon="1.78694">
        <ele>173.6178894043</ele>
        <time>2017-05-01T09:01:48.000Z</time>
      </trkpt>
      <trkpt lat="49.38469" lon="1.78685">
        <ele>173.71786499023</ele>
        <time>2017-05-01T09:01:51.000Z</time>
      </trkpt>
      <trkpt lat="49.38472" lon="1.78678">
        <ele>173.82035827637</ele>
        <time>2017-05-01T09:01:53.000Z</time>
      </trkpt>
      <trkpt lat="49.38477" lon="1.78672">
        <ele>173.93237304688</ele>
        <time>2017-05-01T09:01:55.000Z</time>
      </trkpt>
      <trkpt lat="49.38483" lon="1.78662">
        <ele>174.07417297363</ele>
        <time>2017-05-01T09:01:58.000Z</time>
      </trkpt>
      <trkpt lat="49.3849" lon="1.78652">
        <ele>174.23794555664</ele>
        <time>2017-05-01T09:02:01.000Z</time>
      </trkpt>
      <trkpt lat="49.38494" lon="1.78646">
        <ele>174.40307617188</ele>
        <time>2017-05-01T09:02:03.000Z</time>
      </trkpt>
      <trkpt lat="49.385" lon="1.78636">
        <ele>174.59030151367</ele>
        <time>2017-05-01T09:02:06.000Z</time>
      </trkpt>
      <trkpt lat="49.38503" lon="1.7863">
        <ele>174.77572631836</ele>
        <time>2017-05-01T09:02:08.000Z</time>
      </trkpt>
      <trkpt lat="49.38509" lon="1.7862">
        <ele>174.95370483398</ele>
        <time>2017-05-01T09:02:11.000Z</time>
      </trkpt>
      <trkpt lat="49.38513" lon="1.78613">
        <ele>175.11254882812</ele>
        <time>2017-05-01T09:02:13.000Z</time>
      </trkpt>
      <trkpt lat="49.3852" lon="1.78602">
        <ele>175.29237365723</ele>
        <time>2017-05-01T09:02:16.000Z</time>
      </trkpt>
      <trkpt lat="49.38525" lon="1.78595">
        <ele>175.46589660645</ele>
        <time>2017-05-01T09:02:18.000Z</time>
      </trkpt>
      <trkpt lat="49.38532" lon="1.78584">
        <ele>175.67822265625</ele>
        <time>2017-05-01T09:02:21.000Z</time>
      </trkpt>
      <trkpt lat="49.38538" lon="1.78576">
        <ele>175.88508605957</ele>
        <time>2017-05-01T09:02:23.000Z</time>
      </trkpt>
      <trkpt lat="49.38543" lon="1.78569">
        <ele>176.08969116211</ele>
        <time>2017-05-01T09:02:25.000Z</time>
      </trkpt>
      <trkpt lat="49.3855" lon="1.78559">
        <ele>176.28144836426</ele>
        <time>2017-05-01T09:02:28.000Z</time>
      </trkpt>
      <trkpt lat="49.38556" lon="1.78552">
        <ele>176.45927429199</ele>
        <time>2017-05-01T09:02:30.000Z</time>
      </trkpt>
      <trkpt lat="49.38561" lon="1.78545">
        <ele>176.60038757324</ele>
        <time>2017-05-01T09:02:32.000Z</time>
      </trkpt>
      <trkpt lat="49.38569" lon="1.78534">
        <ele>176.73895263672</ele>
        <time>2017-05-01T09:02:35.000Z</time>
      </trkpt>
      <trkpt lat="49.38575" lon="1.78527">
        <ele>176.86996459961</ele>
        <time>2017-05-01T09:02:37.000Z</time>
      </trkpt>
      <trkpt lat="49.38583" lon="1.78517">
        <ele>176.98313903809</ele>
        <time>2017-05-01T09:02:40.000Z</time>
      </trkpt>
      <trkpt lat="49.38591" lon="1.78506">
        <ele>177.0489654541</ele>
        <time>2017-05-01T09:02:43.000Z</time>
      </trkpt>
      <trkpt lat="49.38596" lon="1.78499">
        <ele>177.07369995117</ele>
        <time>2017-05-01T09:02:45.000Z</time>
      </trkpt>
      <trkpt lat="49.38604" lon="1.78489">
        <ele>177.05163574219</ele>
        <time>2017-05-01T09:02:48.000Z</time>
      </trkpt>
      <trkpt lat="49.38612" lon="1.78479">
        <ele>176.99897766113</ele>
        <time>2017-05-01T09:02:51.000Z</time>
      </trkpt>
      <trkpt lat="49.38618" lon="1.78471">
        <ele>176.92012023926</ele>
        <time>2017-05-01T09:02:53.000Z</time>
      </trkpt>
      <trkpt lat="49.38624" lon="1.78464">
        <ele>176.86079406738</ele>
        <time>2017-05-01T09:02:55.000Z</time>
      </trkpt>
      <trkpt lat="49.38633" lon="1.78454">
        <ele>176.81791687012</ele>
        <time>2017-05-01T09:02:58.000Z</time>
      </trkpt>
      <trkpt lat="49.3864" lon="1.78446">
        <ele>176.79666137695</ele>
        <time>2017-05-01T09:03:00.000Z</time>
      </trkpt>
      <trkpt lat="49.38651" lon="1.78434">
        <ele>176.79948425293</ele>
        <time>2017-05-01T09:03:03.000Z</time>
      </trkpt>
      <trkpt lat="49.38663" lon="1.78418">
        <ele>176.83044433594</ele>
        <time>2017-05-01T09:03:06.000Z</time>
      </trkpt>
      <trkpt lat="49.38674" lon="1.78399">
        <ele>176.83248901367</ele>
        <time>2017-05-01T09:03:09.000Z</time>
      </trkpt>
      <trkpt lat="49.38681" lon="1.78387">
        <ele>176.80661010742</ele>
        <time>2017-05-01T09:03:11.000Z</time>
      </trkpt>
      <trkpt lat="49.38689" lon="1.7837">
        <ele>176.73677062988</ele>
        <time>2017-05-01T09:03:14.000Z</time>
      </trkpt>
      <trkpt lat="49.38697" lon="1.78353">
        <ele>176.61474609375</ele>
        <time>2017-05-01T09:03:17.000Z</time>
      </trkpt>
      <trkpt lat="49.38703" lon="1.78343">
        <ele>176.44625854492</ele>
        <time>2017-05-01T09:03:19.000Z</time>
      </trkpt>
      <trkpt lat="49.38708" lon="1.78333">
        <ele>176.28829956055</ele>
        <time>2017-05-01T09:03:21.000Z</time>
      </trkpt>
      <trkpt lat="49.38715" lon="1.78322">
        <ele>176.13616943359</ele>
        <time>2017-05-01T09:03:24.000Z</time>
      </trkpt>
      <trkpt lat="49.38723" lon="1.7831">
        <ele>176.01100158691</ele>
        <time>2017-05-01T09:03:27.000Z</time>
      </trkpt>
      <trkpt lat="49.38728" lon="1.78301">
        <ele>175.92297363281</ele>
        <time>2017-05-01T09:03:29.000Z</time>
      </trkpt>
      <trkpt lat="49.38736" lon="1.78289">
        <ele>175.86520385742</ele>
        <time>2017-05-01T09:03:32.000Z</time>
      </trkpt>
      <trkpt lat="49.38744" lon="1.78275">
        <ele>175.84600830078</ele>
        <time>2017-05-01T09:03:35.000Z</time>
      </trkpt>
      <trkpt lat="49.3875" lon="1.78269">
        <ele>175.87060546875</ele>
        <time>2017-05-01T09:03:37.000Z</time>
      </trkpt>
      <trkpt lat="49.3876" lon="1.7826">
        <ele>175.95626831055</ele>
        <time>2017-05-01T09:03:40.000Z</time>
      </trkpt>
      <trkpt lat="49.38767" lon="1.78253">
        <ele>176.07675170898</ele>
        <time>2017-05-01T09:03:42.000Z</time>
      </trkpt>
      <trkpt lat="49.38773" lon="1.78247">
        <ele>176.20797729492</ele>
        <time>2017-05-01T09:03:44.000Z</time>
      </trkpt>
      <trkpt lat="49.38783" lon="1.78239">
        <ele>176.33222961426</ele>
        <time>2017-05-01T09:03:47.000Z</time>
      </trkpt>
      <trkpt lat="49.38792" lon="1.78233">
        <ele>176.45018005371</ele>
        <time>2017-05-01T09:03:50.000Z</time>
      </trkpt>
      <trkpt lat="49.38804" lon="1.78225">
        <ele>176.54043579102</ele>
        <time>2017-05-01T09:03:53.000Z</time>
      </trkpt>
      <trkpt lat="49.38811" lon="1.78221">
        <ele>176.61596679688</ele>
        <time>2017-05-01T09:03:55.000Z</time>
      </trkpt>
      <trkpt lat="49.38824" lon="1.78216">
        <ele>176.70812988281</ele>
        <time>2017-05-01T09:03:58.000Z</time>
      </trkpt>
      <trkpt lat="49.38836" lon="1.78209">
        <ele>176.8094329834</ele>
        <time>2017-05-01T09:04:01.000Z</time>
      </trkpt>
      <trkpt lat="49.38843" lon="1.78203">
        <ele>176.88589477539</ele>
        <time>2017-05-01T09:04:03.000Z</time>
      </trkpt>
      <trkpt lat="49.38854" lon="1.78191">
        <ele>176.91244506836</ele>
        <time>2017-05-01T09:04:06.000Z</time>
      </trkpt>
      <trkpt lat="49.38861" lon="1.78181">
        <ele>176.89295959473</ele>
        <time>2017-05-01T09:04:08.000Z</time>
      </trkpt>
      <trkpt lat="49.38867" lon="1.78171">
        <ele>176.80529785156</ele>
        <time>2017-05-01T09:04:10.000Z</time>
      </trkpt>
      <trkpt lat="49.38877" lon="1.78154">
        <ele>176.65823364258</ele>
        <time>2017-05-01T09:04:16.000Z</time>
      </trkpt>
      <trkpt lat="49.38884" lon="1.78142">
        <ele>176.49938964844</ele>
        <time>2017-05-01T09:04:16.000Z</time>
      </trkpt>
      <trkpt lat="49.38894" lon="1.78124">
        <ele>176.34925842285</ele>
        <time>2017-05-01T09:04:18.000Z</time>
      </trkpt>
      <trkpt lat="49.38905" lon="1.78107">
        <ele>176.21981811523</ele>
        <time>2017-05-01T09:04:21.000Z</time>
      </trkpt>
      <trkpt lat="49.38913" lon="1.78096">
        <ele>176.13262939453</ele>
        <time>2017-05-01T09:04:23.000Z</time>
      </trkpt>
      <trkpt lat="49.38926" lon="1.7808">
        <ele>176.09484863281</ele>
        <time>2017-05-01T09:04:26.000Z</time>
      </trkpt>
      <trkpt lat="49.38936" lon="1.78063">
        <ele>176.11476135254</ele>
        <time>2017-05-01T09:04:29.000Z</time>
      </trkpt>
      <trkpt lat="49.38942" lon="1.78051">
        <ele>176.1848449707</ele>
        <time>2017-05-01T09:04:31.000Z</time>
      </trkpt>
      <trkpt lat="49.38948" lon="1.78041">
        <ele>176.29379272461</ele>
        <time>2017-05-01T09:04:33.000Z</time>
      </trkpt>
      <trkpt lat="49.38958" lon="1.78027">
        <ele>176.44630432129</ele>
        <time>2017-05-01T09:04:36.000Z</time>
      </trkpt>
      <trkpt lat="49.38964" lon="1.78021">
        <ele>176.62451171875</ele>
        <time>2017-05-01T09:04:38.000Z</time>
      </trkpt>
      <trkpt lat="49.38973" lon="1.78015">
        <ele>176.81481933594</ele>
        <time>2017-05-01T09:04:41.000Z</time>
      </trkpt>
      <trkpt lat="49.38979" lon="1.7801">
        <ele>177.01243591309</ele>
        <time>2017-05-01T09:04:43.000Z</time>
      </trkpt>
      <trkpt lat="49.38987" lon="1.78001">
        <ele>177.23260498047</ele>
        <time>2017-05-01T09:04:46.000Z</time>
      </trkpt>
      <trkpt lat="49.38995" lon="1.77998">
        <ele>177.4402923584</ele>
        <time>2017-05-01T09:04:49.000Z</time>
      </trkpt>
      <trkpt lat="49.39" lon="1.77999">
        <ele>177.63760375977</ele>
        <time>2017-05-01T09:04:51.000Z</time>
      </trkpt>
      <trkpt lat="49.39009" lon="1.77997">
        <ele>177.78985595703</ele>
        <time>2017-05-01T09:04:54.000Z</time>
      </trkpt>
      <trkpt lat="49.39015" lon="1.77994">
        <ele>177.90664672852</ele>
        <time>2017-05-01T09:04:56.000Z</time>
      </trkpt>
      <trkpt lat="49.39022" lon="1.7799">
        <ele>177.97082519531</ele>
        <time>2017-05-01T09:04:58.000Z</time>
      </trkpt>
      <trkpt lat="49.39031" lon="1.77986">
        <ele>177.99723815918</ele>
        <time>2017-05-01T09:05:01.000Z</time>
      </trkpt>
      <trkpt lat="49.39037" lon="1.77983">
        <ele>178</ele>
        <time>2017-05-01T09:05:03.000Z</time>
      </trkpt>
      <trkpt lat="49.39044" lon="1.7798">
        <ele>178</ele>
        <time>2017-05-01T09:05:05.000Z</time>
      </trkpt>
      <trkpt lat="49.3905" lon="1.77975">
        <ele>178</ele>
        <time>2017-05-01T09:05:07.000Z</time>
      </trkpt>
      <trkpt lat="49.39059" lon="1.77968">
        <ele>178</ele>
        <time>2017-05-01T09:05:10.000Z</time>
      </trkpt>
      <trkpt lat="49.39066" lon="1.77962">
        <ele>178</ele>
        <time>2017-05-01T09:05:12.000Z</time>
      </trkpt>
      <trkpt lat="49.39075" lon="1.77957">
        <ele>178</ele>
        <time>2017-05-01T09:05:14.000Z</time>
      </trkpt>
      <trkpt lat="49.39084" lon="1.77955">
        <ele>177.99758911133</ele>
        <time>2017-05-01T09:05:16.000Z</time>
      </trkpt>
      <trkpt lat="49.39096" lon="1.77959">
        <ele>177.90476989746</ele>
        <time>2017-05-01T09:05:19.000Z</time>
      </trkpt>
      <trkpt lat="49.39104" lon="1.77965">
        <ele>177.76664733887</ele>
        <time>2017-05-01T09:05:21.000Z</time>
      </trkpt>
      <trkpt lat="49.3911" lon="1.77972">
        <ele>177.59538269043</ele>
        <time>2017-05-01T09:05:23.000Z</time>
      </trkpt>
      <trkpt lat="49.39116" lon="1.7798">
        <ele>177.40144348145</ele>
        <time>2017-05-01T09:05:25.000Z</time>
      </trkpt>
      <trkpt lat="49.39125" lon="1.77989">
        <ele>177.17475891113</ele>
        <time>2017-05-01T09:05:28.000Z</time>
      </trkpt>
      <trkpt lat="49.39131" lon="1.77995">
        <ele>177.02311706543</ele>
        <time>2017-05-01T09:05:30.000Z</time>
      </trkpt>
      <trkpt lat="49.3914" lon="1.78003">
        <ele>176.90579223633</ele>
        <time>2017-05-01T09:05:33.000Z</time>
      </trkpt>
      <trkpt lat="49.39145" lon="1.78008">
        <ele>176.82415771484</ele>
        <time>2017-05-01T09:05:35.000Z</time>
      </trkpt>
      <trkpt lat="49.39153" lon="1.78015">
        <ele>176.77584838867</ele>
        <time>2017-05-01T09:05:38.000Z</time>
      </trkpt>
      <trkpt lat="49.3916" lon="1.78022">
        <ele>176.7815246582</ele>
        <time>2017-05-01T09:05:41.000Z</time>
      </trkpt>
      <trkpt lat="49.39164" lon="1.78026">
        <ele>176.82041931152</ele>
        <time>2017-05-01T09:05:43.000Z</time>
      </trkpt>
      <trkpt lat="49.3917" lon="1.78031">
        <ele>176.88674926758</ele>
        <time>2017-05-01T09:05:46.000Z</time>
      </trkpt>
      <trkpt lat="49.39174" lon="1.78035">
        <ele>176.96047973633</ele>
        <time>2017-05-01T09:05:48.000Z</time>
      </trkpt>
      <trkpt lat="49.39178" lon="1.78039">
        <ele>177.03909301758</ele>
        <time>2017-05-01T09:05:51.000Z</time>
      </trkpt>
      <trkpt lat="49.39182" lon="1.7804">
        <ele>177.0983581543</ele>
        <time>2017-05-01T09:05:53.000Z</time>
      </trkpt>
      <trkpt lat="49.39183" lon="1.7804">
        <ele>177.13661193848</ele>
        <time>2017-05-01T09:05:56.000Z</time>
      </trkpt>
      <trkpt lat="49.39185" lon="1.7804">
        <ele>177.15159606934</ele>
        <time>2017-05-01T09:05:58.000Z</time>
      </trkpt>
      <trkpt lat="49.39188" lon="1.78043">
        <ele>177.1662902832</ele>
        <time>2017-05-01T09:06:01.000Z</time>
      </trkpt>
      <trkpt lat="49.39191" lon="1.78046">
        <ele>177.17832946777</ele>
        <time>2017-05-01T09:06:03.000Z</time>
      </trkpt>
      <trkpt lat="49.39194" lon="1.78044">
        <ele>177.16363525391</ele>
        <time>2017-05-01T09:06:06.000Z</time>
      </trkpt>
      <trkpt lat="49.39197" lon="1.78041">
        <ele>177.1159362793</ele>
        <time>2017-05-01T09:06:09.000Z</time>
      </trkpt>
      <trkpt lat="49.39197" lon="1.78039">
        <ele>177.06144714355</ele>
        <time>2017-05-01T09:06:12.000Z</time>
      </trkpt>
      <trkpt lat="49.39196" lon="1.78038">
        <ele>176.99304199219</ele>
        <time>2017-05-01T09:06:22.000Z</time>
      </trkpt>
      <trkpt lat="49.39196" lon="1.78037">
        <ele>176.89901733398</ele>
        <time>2017-05-01T09:06:27.000Z</time>
      </trkpt>
      <trkpt lat="49.39196" lon="1.78035">
        <ele>176.81993103027</ele>
        <time>2017-05-01T09:06:34.000Z</time>
      </trkpt>
      <trkpt lat="49.39196" lon="1.78035">
        <ele>176.81993103027</ele>
        <time>2017-05-01T09:06:54.000Z</time>
      </trkpt>
      <trkpt lat="49.39196" lon="1.78038">
        <ele>176.79948425293</ele>
        <time>2017-05-01T09:07:25.000Z</time>
      </trkpt>
      <trkpt lat="49.39197" lon="1.7804">
        <ele>176.80070495605</ele>
        <time>2017-05-01T09:07:41.000Z</time>
      </trkpt>
      <trkpt lat="49.39197" lon="1.78041">
        <ele>176.82095336914</ele>
        <time>2017-05-01T09:07:44.000Z</time>
      </trkpt>
      <trkpt lat="49.39196" lon="1.78043">
        <ele>176.86715698242</ele>
        <time>2017-05-01T09:07:47.000Z</time>
      </trkpt>
      <trkpt lat="49.39196" lon="1.78041">
        <ele>176.91625976562</ele>
        <time>2017-05-01T09:07:49.000Z</time>
      </trkpt>
      <trkpt lat="49.39196" lon="1.78043">
        <ele>176.95498657227</ele>
        <time>2017-05-01T09:07:59.000Z</time>
      </trkpt>
      <trkpt lat="49.39196" lon="1.78043">
        <ele>176.95498657227</ele>
        <time>2017-05-01T09:08:19.000Z</time>
      </trkpt>
      <trkpt lat="49.39196" lon="1.78043">
        <ele>176.95498657227</ele>
        <time>2017-05-01T09:08:36.000Z</time>
      </trkpt>
    </trkseg>
  </trk>
</gpx>